# Wetter Temperatur Luftdruck Luftfeuchtigkeit Sichtweite Windgeschwindigkeit Windrichtung Zeit
1 Clouds 20 1023 82 10000 2.6 70 09:40 29.01.2020
2 Clouds 19 1023 82 10000 2.6 70 09:22 29.01.2020
3 Clouds 20 1022 77 10000 2.6 40 08:58 29.01.2020
4 Clouds 19 1023 82 10000 2.6 20 08:39 29.01.2020
5 Clouds 18 1023 82 10000 2.6 20 08:20 29.01.2020
6 Clouds 17 1023 88 10000 2.6 30 07:45 29.01.2020
7 Clouds 17 1023 88 10000 2.1 10 07:24 29.01.2020
8 Clouds 17 1021 88 10000 3.37 33 06:55 29.01.2020
9 Clouds 17 1021 88 10000 3.37 33 06:37 29.01.2020
10 Clouds 17 1022 88 10000 1 320 06:18 29.01.2020
11 Clouds 16 1021 93 10000 3.37 33 05:44 29.01.2020
12 Clouds 16 1022 93 10000 2.1 330 05:25 29.01.2020
13 Clouds 16 1021 93 10000 1.55 17 04:37 29.01.2020
14 Clouds 16 1021 100 3000 1.5 60 02:50 29.01.2020
15 Clouds 16 1021 100 10000 1 0 02:18 29.01.2020
16 Clouds 16 1022 93 10000 2.6 50 00:43 29.01.2020
17 Clouds 16 1022 93 10000 2.1 40 00:24 29.01.2020
18 Clouds 16 1023 93 10000 2.1 30 23:58 28.01.2020
19 Clouds 16 1022 93 10000 1.5 360 23:37 28.01.2020
20 Clouds 16 1022 93 10000 1.5 360 23:18 28.01.2020
21 Clouds 16 1023 100 10000 2.1 10 22:40 28.01.2020
22 Clouds 16 1023 100 10000 3.1 30 22:21 28.01.2020
23 Clouds 16 1023 93 10000 3.1 20 21:42 28.01.2020
24 Clouds 16 1023 93 10000 3.1 20 21:42 28.01.2020
25 Clouds 17 1023 93 10000 3.1 20 21:23 28.01.2020
26 Clouds 17 1023 93 10000 3.1 20 21:23 28.01.2020
27 Clouds 17 1021 93 10000 2.16 31 20:58 28.01.2020
28 Clouds 17 1022 93 10000 3.1 20 20:40 28.01.2020
29 Clouds 17 1022 93 10000 3.1 20 20:21 28.01.2020
30 Clouds 17 1021 93 10000 3.1 20 19:39 28.01.2020
31 Clouds 17 1021 93 10000 3.1 20 19:21 28.01.2020
32 Clouds 17 1020 88 10000 1 20 18:59 28.01.2020
33 Clouds 18 1020 88 10000 1 20 18:40 28.01.2020
34 Clouds 17 1021 93 10000 3.6 40 18:22 28.01.2020
35 Clouds 17 1021 93 10000 3.6 40 18:21 28.01.2020
36 Rain 18 1019 88 10000 5.1 40 17:59 28.01.2020
37 Clouds 17 1020 93 10000 3.6 50 17:38 28.01.2020
38 Clouds 18 1020 93 10000 3.6 50 17:19 28.01.2020
39 Clouds 18 1019 82 10000 3.1 40 16:55 28.01.2020
40 Clouds 18 1020 88 10000 6.2 60 16:37 28.01.2020
41 Clouds 19 1020 88 10000 6.2 60 16:19 28.01.2020
42 Rain 19 1019 77 10000 5.1 40 15:44 28.01.2020
43 Clouds 20 1019 88 10000 7.7 50 15:19 28.01.2020
44 Clouds 21 1019 68 10000 6.2 60 14:55 28.01.2020
45 Clouds 20 1020 94 10000 6.2 70 14:36 28.01.2020
46 Clouds 20 1020 94 10000 6.2 70 14:18 28.01.2020
47 Clouds 21 1019 68 10000 6.2 60 13:39 28.01.2020
48 Clouds 20 1020 78 10000 6.2 70 13:21 28.01.2020
49 Clouds 20 1020 78 10000 6.2 70 13:21 28.01.2020
50 Clouds 20 1020 77 10000 5.1 90 12:42 28.01.2020
51 Clouds 19 1021 82 10000 5.1 60 12:24 28.01.2020
52 Clouds 19 1021 82 10000 4.1 60 11:55 28.01.2020
53 Clouds 20 1021 82 10000 4.1 60 11:37 28.01.2020
54 Clouds 19 1023 88 10000 4.6 70 11:18 28.01.2020
55 Clouds 19 1022 82 10000 5.1 90 10:40 28.01.2020
56 -273 0 0 0 0 0 10:22 28.01.2020
57 Clouds 19 1022 82 10000 3.6 60 09:55 28.01.2020
58 Clouds 19 1022 82 10000 3.6 60 09:55 28.01.2020
59 Clouds 19 1023 88 10000 4.1 30 09:36 28.01.2020
60 Clouds 19 1023 88 10000 4.1 30 09:18 28.01.2020
61 Clouds 19 1023 93 10000 3.6 20 08:40 28.01.2020
62 Clouds 18 1023 93 10000 5.1 40 08:19 28.01.2020
63 Clouds 17 1022 100 10000 3.1 40 07:38 28.01.2020
64 Rain 16 1021 93 5000 4.1 30 06:51 28.01.2020
65 Clouds 16 1022 93 10000 2.1 360 06:28 28.01.2020
66 Clouds 16 1021 100 10000 2.55 58 05:55 28.01.2020
67 Clouds 17 1022 93 10000 3.6 90 05:33 28.01.2020
68 Clouds 14 1022 100 10000 4.1 100 04:38 28.01.2020
69 Clouds 14 1021 100 10000 3.1 100 03:33 28.01.2020
70 Rain 16 1021 100 6000 4.1 90 02:25 28.01.2020
71 Rain 16 1021 100 6000 4.1 90 02:25 28.01.2020
72 Clouds 17 1020 93 10000 2.64 44 01:58 28.01.2020
73 Clouds 17 1020 93 10000 2.64 44 01:40 28.01.2020
74 Clouds 16 1021 93 9000 2.6 50 00:51 28.01.2020
75 Clouds 15 1021 93 9000 2.1 30 00:29 28.01.2020
76 Clouds 16 1022 93 10000 2.1 30 23:52 27.01.2020
77 Clouds 16 1022 93 10000 2.6 50 23:30 27.01.2020
78 Clouds 16 1022 93 10000 2.6 50 22:59 27.01.2020
79 Clouds 16 1022 93 10000 2.6 50 22:41 27.01.2020
80 Clouds 17 1022 93 10000 3.6 50 22:20 27.01.2020
81 Clouds 17 1022 93 10000 2.6 30 21:56 27.01.2020
82 Clouds 17 1023 93 10000 3.6 30 21:37 27.01.2020
83 Clouds 17 1023 93 10000 3.6 30 21:18 27.01.2020
84 Clouds 17 1022 93 10000 3.1 20 20:54 27.01.2020
85 Clouds 17 1022 93 10000 3.6 20 20:36 27.01.2020
86 Clouds 17 1022 93 10000 3.6 20 20:18 27.01.2020
87 Clouds 17 1022 93 10000 3.6 20 19:41 27.01.2020
88 Clouds 17 1022 93 10000 3.6 20 19:23 27.01.2020
89 Clouds 17 1020 93 10000 5.1 50 18:56 27.01.2020
90 Clouds 17 1020 93 10000 5.1 50 18:56 27.01.2020
91 Clouds 17 1020 93 10000 5.1 50 18:38 27.01.2020
92 Rain 17 1021 93 8000 4.1 30 18:20 27.01.2020
93 Clouds 17 1019 100 10000 4.1 20 17:39 27.01.2020
94 Clouds 19 1019 93 10000 3.1 50 17:21 27.01.2020
95 Clouds 19 1019 93 10000 3.1 50 16:59 27.01.2020
96 Clouds 20 1019 82 10000 6.2 50 16:41 27.01.2020
97 Clouds 18 1019 82 10000 6.2 50 16:23 27.01.2020
98 Clouds 19 1020 82 10000 5.1 20 15:55 27.01.2020
99 Clouds 19 1019 77 10000 6.7 50 15:37 27.01.2020
100 Clouds 19 1019 77 10000 6.7 50 15:37 27.01.2020
101 Clouds 20 1019 77 10000 6.7 50 15:18 27.01.2020
102 Clouds 20 1019 77 10000 6.7 50 15:18 27.01.2020
103 Clouds 20 1019 83 10000 6.2 50 14:43 27.01.2020
104 Clouds 20 1020 77 10000 5.7 40 14:23 27.01.2020
105 Drizzle 20 1021 88 10000 5.7 50 13:58 27.01.2020
106 Drizzle 20 1021 88 10000 5.7 50 13:40 27.01.2020
107 Clouds 19 1021 82 10000 5.1 50 13:20 27.01.2020
108 Drizzle 20 1021 93 9000 5.1 90 12:55 27.01.2020
109 Rain 20 1022 88 6000 7.2 60 12:37 27.01.2020
110 Rain 20 1022 88 6000 7.2 60 12:18 27.01.2020
111 Rain 21 1021 83 9000 8.2 70 11:41 27.01.2020
112 Rain 21 1022 77 10000 6.7 40 11:21 27.01.2020
113 Clouds 22 1021 68 10000 6.2 70 10:43 27.01.2020
114 Clouds 21 1023 77 10000 5.7 30 10:24 27.01.2020
115 Clouds 21 1022 77 10000 5.1 50 09:56 27.01.2020
116 Clouds 20 1023 82 10000 4.6 40 09:38 27.01.2020
117 Clouds 20 1023 82 10000 4.6 40 09:18 27.01.2020
118 Clouds 18 1024 93 10000 3.6 60 08:42 27.01.2020
119 Clouds 18 1024 93 10000 3.6 60 08:20 27.01.2020
120 -273 0 0 0 0 0 07:54 27.01.2020
121 Clouds 18 1023 88 10000 2.6 80 07:34 27.01.2020
122 Clouds 18 1023 93 10000 3.1 80 06:53 27.01.2020
123 Clouds 17 1023 93 10000 2.6 80 06:25 27.01.2020
124 Clouds 17 1022 93 10000 2.6 70 05:24 27.01.2020
125 Clouds 16 1020 93 10000 3.1 70 03:49 27.01.2020
126 Clouds 16 1022 93 10000 2.1 50 02:38 27.01.2020
127 Clouds 17 1021 93 10000 1.26 23 01:29 27.01.2020
128 Clouds 16 1022 93 10000 2.1 50 00:57 27.01.2020
129 Clouds 16 1022 93 10000 2.1 50 00:36 27.01.2020
130 Clouds 16 1022 93 10000 2.1 50 00:18 27.01.2020
131 Clouds 16 1022 93 10000 2.1 50 00:18 27.01.2020
132 Clouds 17 1022 93 10000 2.1 50 23:41 26.01.2020
133 Clouds 17 1022 93 10000 2.1 50 23:41 26.01.2020
134 Clouds 17 1022 93 10000 2.6 30 23:19 26.01.2020
135 Clouds 17 1022 93 10000 3.1 20 22:54 26.01.2020
136 Clouds 17 1022 93 10000 3.1 20 22:36 26.01.2020
137 Clouds 17 1023 93 10000 2.6 20 22:18 26.01.2020
138 Clouds 17 1023 93 10000 3.1 30 21:55 26.01.2020
139 Clouds 17 1023 88 10000 2.6 40 21:37 26.01.2020
140 Clouds 17 1023 88 10000 2.6 40 21:18 26.01.2020
141 Clouds 17 1023 88 10000 2.6 40 21:18 26.01.2020
142 Clouds 18 1023 88 10000 2.1 10 20:55 26.01.2020
143 Clouds 17 1022 93 10000 2.6 40 20:36 26.01.2020
144 Clouds 17 1022 93 10000 2.6 40 20:18 26.01.2020
145 Clouds 17 1021 93 10000 2.1 20 19:41 26.01.2020
146 Clouds 18 1022 88 10000 3.6 50 19:21 26.01.2020
147 Clouds 18 1020 88 10000 4.1 50 18:59 26.01.2020
148 Clouds 18 1020 88 10000 4.1 50 18:40 26.01.2020
149 Clouds 18 1021 88 10000 4.1 30 18:22 26.01.2020
150 Clouds 18 1020 88 10000 5.1 50 17:58 26.01.2020
151 Clouds 19 1020 88 10000 5.1 50 17:38 26.01.2020
152 Clouds 19 1020 82 10000 5.1 60 17:19 26.01.2020
153 Clouds 19 1019 88 10000 4.1 60 16:58 26.01.2020
154 Clouds 20 1019 88 10000 4.1 60 16:39 26.01.2020
155 Clouds 20 1020 77 10000 5.1 60 16:20 26.01.2020
156 Clouds 20 1019 83 10000 5.1 70 15:57 26.01.2020
157 Clouds 20 1019 83 10000 5.1 70 15:39 26.01.2020
158 Clouds 20 1020 83 10000 7.7 70 15:18 26.01.2020
159 Clouds 18 1008 78 0 4.92 114 14:40 26.01.2020
160 Clouds 18 1009 78 0 2.68 106 14:20 26.01.2020
161 Clouds 21 1009 70 0 3.58 119 13:43 26.01.2020
162 Clouds 22 1009 65 0 0.89 117 13:21 26.01.2020
163 Clouds 23 1009 61 0 1.34 97 12:58 26.01.2020
164 Clouds 22 1010 62 0 2.24 41 12:40 26.01.2020
165 Clouds 21 1010 61 0 0.45 131 12:21 26.01.2020
166 Clouds 22 1011 64 0 2.24 57 11:57 26.01.2020
167 Clouds 21 1011 64 0 2.68 102 11:39 26.01.2020
168 Clouds 20 1011 67 0 0.89 69 11:19 26.01.2020
169 Clouds 19 1023 93 10000 4.6 20 10:58 26.01.2020
170 Clouds 19 1023 93 10000 4.6 20 10:38 26.01.2020
171 Clouds 19 1023 93 10000 4.6 20 10:20 26.01.2020
172 Clouds 18 1024 93 10000 5.1 20 09:57 26.01.2020
173 Clouds 18 1024 93 10000 5.1 20 09:39 26.01.2020
174 Rain 18 1024 93 5000 4.1 40 09:20 26.01.2020
175 Rain 17 1025 100 5000 6.2 30 08:43 26.01.2020
176 Rain 17 1025 100 5000 5.1 50 08:22 26.01.2020
177 Rain 17 1024 93 9000 5.1 50 07:57 26.01.2020
178 Rain 17 1024 93 9000 5.1 50 07:39 26.01.2020
179 Rain 17 1024 100 4000 7.2 50 07:20 26.01.2020
180 Clouds 16 1023 93 10000 2.1 60 06:30 26.01.2020
181 Clouds 16 1021 93 9000 5.36 40 05:31 26.01.2020
182 Clouds 17 1021 93 9000 1.94 40 04:45 26.01.2020
183 Clouds 17 1021 93 8000 1.94 40 02:42 26.01.2020
184 Clouds 16 1022 93 10000 1 0 01:48 26.01.2020
185 Clouds 16 1022 93 10000 1.5 90 01:24 26.01.2020
186 Clouds 16 1022 93 10000 1.5 80 00:48 26.01.2020
187 Clouds 16 1023 93 10000 2.1 60 00:29 26.01.2020
188 Clouds 16 1012 78 0 1.99 41 23:41 25.01.2020
189 Clouds 16 1012 77 0 0.45 56 23:22 25.01.2020
190 Clouds 16 1012 77 0 1.34 85 22:58 25.01.2020
191 Clouds 16 1013 76 0 1.79 100 22:40 25.01.2020
192 Clouds 16 1013 76 0 4.02 98 22:19 25.01.2020
193 Clouds 16 1013 76 0 3.13 94 21:57 25.01.2020
194 Clouds 16 1013 78 0 3.13 125 21:38 25.01.2020
195 Clouds 16 1013 80 0 0.89 98 21:19 25.01.2020
196 Clouds 18 1017 88 0 1.2 70 20:44 25.01.2020
197 Rain 17 1013 80 0 0.89 49 20:25 25.01.2020
198 Clouds 17 1013 79 0 0.45 88 19:55 25.01.2020
199 Clouds 17 1012 81 0 2.68 82 19:37 25.01.2020
200 Clouds 17 1012 80 0 2.68 101 19:18 25.01.2020
201 Clouds 17 1012 79 0 3.58 103 18:41 25.01.2020
202 Rain 17 1012 81 0 3.13 83 18:21 25.01.2020
203 Clouds 17 1011 84 0 3.58 105 17:58 25.01.2020
204 Clouds 17 1011 84 0 4.47 75 17:38 25.01.2020
205 Clouds 17 1010 83 0 3.13 74 17:18 25.01.2020
206 Clouds 17 1010 82 0 3.13 81 16:42 25.01.2020
207 Clouds 17 1010 81 0 4.47 114 16:23 25.01.2020
208 Clouds 18 1010 81 0 3.58 75 15:58 25.01.2020
209 Clouds 18 1010 79 0 0.89 105 15:39 25.01.2020
210 Clouds 18 1010 77 0 2.68 86 15:20 25.01.2020
211 Clouds 18 1010 77 0 2.68 86 15:20 25.01.2020
212 Clouds 19 1009 77 0 2.24 112 14:42 25.01.2020
213 Clouds 20 1010 73 0 7.7 49 14:19 25.01.2020
214 Clouds 22 1010 66 0 0.89 50 13:45 25.01.2020
215 Clouds 22 1010 62 0 0.45 50 13:27 25.01.2020
216 Clouds 21 1012 69 0 3.58 21 12:58 25.01.2020
217 Clouds 21 1012 69 0 3.58 21 12:39 25.01.2020
218 Clouds 22 1021 64 10000 5.1 50 12:20 25.01.2020
219 Clouds 22 1021 64 10000 5.1 50 11:40 25.01.2020
220 Clouds 21 1023 69 10000 5.7 40 11:20 25.01.2020
221 Rain 21 1022 88 10000 6.7 20 10:56 25.01.2020
222 Clouds 20 1023 77 10000 5.7 50 10:38 25.01.2020
223 Clouds 20 1023 77 10000 5.7 50 10:18 25.01.2020
224 Clouds 21 1024 77 10000 5.7 60 09:40 25.01.2020
225 Clouds 20 1024 82 10000 5.1 40 09:19 25.01.2020
226 Clouds 19 1024 93 10000 4.6 40 08:43 25.01.2020
227 Clouds 18 1023 88 10000 5.1 60 07:59 25.01.2020
228 Clouds 18 1023 88 10000 4.1 40 07:36 25.01.2020
229 Clouds 17 1021 93 10000 2.6 30 06:41 25.01.2020
230 Clouds 17 1022 93 10000 2.1 30 06:22 25.01.2020
231 Clouds 17 1021 93 10000 4.14 34 05:43 25.01.2020
232 Clouds 16 1022 93 10000 2.6 40 04:24 25.01.2020
233 Clouds 16 1022 93 10000 3.1 90 03:50 25.01.2020
234 Clouds 17 1022 93 10000 2.6 80 02:38 25.01.2020
235 Clouds 17 1022 88 10000 2.6 30 01:57 25.01.2020
236 Clouds 16 1022 88 10000 2.1 40 01:23 25.01.2020
237 Clouds 17 1022 88 10000 2.1 40 00:41 25.01.2020
238 Clouds 17 1022 88 10000 2.1 40 00:41 25.01.2020
239 Clouds 17 1022 88 10000 2.1 40 00:22 25.01.2020
240 Clouds 17 1023 88 10000 1.5 350 23:42 24.01.2020
241 Clouds 17 1023 88 10000 1.5 350 23:24 24.01.2020
242 Clouds 17 1023 88 10000 1.5 360 22:47 24.01.2020
243 Clouds 18 1023 88 10000 2.1 360 22:28 24.01.2020
244 Clouds 18 1022 88 10000 1.06 38 21:59 24.01.2020
245 Clouds 17 1023 82 10000 2.1 40 21:41 24.01.2020
246 Clouds 18 1023 82 10000 2.1 40 21:19 24.01.2020
247 Clouds 18 1021 88 10000 2.6 20 20:44 24.01.2020
248 Clouds 19 1023 82 10000 3.6 40 20:23 24.01.2020
249 Clouds 19 1021 77 10000 4.1 40 19:59 24.01.2020
250 Clouds 19 1021 77 10000 4.1 40 19:40 24.01.2020
251 Clouds 19 1022 82 10000 4.1 60 19:22 24.01.2020
252 Clouds 19 1020 88 10000 3.6 40 18:57 24.01.2020
253 Clouds 19 1020 88 10000 3.6 40 18:39 24.01.2020
254 Clouds 19 1021 82 10000 2.6 60 18:21 24.01.2020
255 Clouds 19 1020 73 10000 2.6 80 17:42 24.01.2020
256 Clouds 19 1020 77 10000 4.1 70 17:21 24.01.2020
257 Clouds 19 1019 73 10000 5.1 90 16:55 24.01.2020
258 Clouds 20 1019 73 10000 5.1 90 16:36 24.01.2020
259 Clouds 20 1020 73 10000 6.2 90 16:18 24.01.2020
260 Clouds 20 1020 73 10000 6.2 90 16:18 24.01.2020
261 Clouds 21 1019 60 10000 5.1 80 15:40 24.01.2020
262 Clouds 21 1020 64 10000 4.6 40 15:20 24.01.2020
263 Clouds 21 1019 60 10000 4.6 40 14:42 24.01.2020
264 Clouds 23 1020 60 10000 4.6 40 14:23 24.01.2020
265 Clouds 23 1020 60 10000 5.1 60 13:58 24.01.2020
266 Clouds 22 1021 68 10000 5.1 40 13:39 24.01.2020
267 Clouds 22 1021 68 10000 5.1 40 13:19 24.01.2020
268 Clouds 22 1020 60 10000 3.6 30 12:42 24.01.2020
269 Clouds 20 1021 60 10000 6.2 60 12:19 24.01.2020
270 Clouds 20 1021 64 10000 7.2 90 11:44 24.01.2020
271 Clouds 21 1022 69 10000 6.2 50 11:19 24.01.2020
272 Clouds 21 1022 69 10000 5.1 90 10:43 24.01.2020
273 Clouds 20 1023 77 10000 3.6 100 10:23 24.01.2020
274 Clouds 21 1022 68 10000 3.1 60 09:59 24.01.2020
275 Clouds 20 1024 77 10000 2.1 120 09:40 24.01.2020
276 Clouds 20 1024 77 10000 2.1 120 09:22 24.01.2020
277 Clouds 19 1023 82 10000 4.1 50 08:41 24.01.2020
278 Clouds 19 1024 82 10000 2.6 90 08:20 24.01.2020
279 Clouds 19 1023 82 10000 3.1 80 07:53 24.01.2020
280 Clouds 18 1022 82 10000 0.09 168 07:35 24.01.2020
281 Clouds 18 1022 82 10000 0.09 168 06:48 24.01.2020
282 Clouds 16 1022 82 10000 0.5 60 06:29 24.01.2020
283 Clouds 17 1021 82 10000 0.09 168 05:59 24.01.2020
284 Clouds 16 1020 82 10000 0.74 267 04:58 24.01.2020
285 Clouds 16 1021 88 10000 2.1 340 02:53 24.01.2020
286 Clouds 18 1020 82 10000 3.1 10 02:26 24.01.2020
287 Clouds 18 1020 82 10000 3.1 10 02:26 24.01.2020
288 Clouds 18 1020 88 10000 4.1 20 01:46 24.01.2020
289 Clouds 17 1021 88 10000 2.1 360 01:28 24.01.2020
290 Clouds 16 1022 88 10000 3.1 360 00:26 24.01.2020
291 Clouds 17 1022 88 10000 2.6 360 23:51 23.01.2020
292 Clouds 17 1022 88 10000 2.6 20 23:31 23.01.2020
293 Clouds 17 1022 88 10000 3.1 30 22:59 23.01.2020
294 Clouds 18 1022 88 10000 3.1 30 22:38 23.01.2020
295 Clouds 18 1022 88 10000 3.1 30 22:38 23.01.2020
296 Clouds 18 1022 88 10000 3.1 40 22:19 23.01.2020
297 Clouds 18 1022 88 10000 2.1 20 21:57 23.01.2020
298 Clouds 18 1022 88 10000 2.1 20 21:39 23.01.2020
299 Clouds 18 1023 88 10000 3.6 50 21:20 23.01.2020
300 Clouds 18 1023 82 10000 4.1 50 20:59 23.01.2020
301 Clouds 18 1023 82 10000 4.1 50 20:39 23.01.2020
302 Clouds 19 1022 82 10000 4.1 60 20:20 23.01.2020
303 Clouds 19 1021 82 10000 2.1 70 19:56 23.01.2020
304 Clouds 19 1021 82 10000 2.1 70 19:38 23.01.2020
305 Clouds 19 1021 77 10000 5.7 50 19:19 23.01.2020
306 Clouds 20 1020 77 10000 4.1 60 18:55 23.01.2020
307 Clouds 20 1020 77 10000 4.1 60 18:36 23.01.2020
308 Clouds 20 1020 77 10000 5.1 70 18:18 23.01.2020
309 Clouds 19 1019 68 10000 5.7 80 17:42 23.01.2020
310 Clouds 21 1019 68 10000 5.7 80 17:20 23.01.2020
311 Clouds 21 1018 64 10000 5.1 70 16:57 23.01.2020
312 Clouds 20 1018 64 10000 4.6 60 16:37 23.01.2020
313 Clouds 21 1018 64 10000 4.6 60 16:18 23.01.2020
314 Clouds 22 1017 60 10000 5.7 70 15:56 23.01.2020
315 Rain 18 1008 85 0 0.45 92 15:37 23.01.2020
316 Clouds 22 1017 64 10000 3.1 50 15:18 23.01.2020
317 Clouds 22 1017 64 10000 3.1 50 14:55 23.01.2020
318 Clouds 21 1018 60 10000 6.2 50 14:37 23.01.2020
319 Clouds 22 1018 60 10000 6.2 50 14:19 23.01.2020
320 Clouds 23 1018 60 10000 4.1 90 13:43 23.01.2020
321 Clouds 22 1019 60 10000 4.6 40 13:20 23.01.2020
322 Clouds 23 1019 60 10000 5.1 80 12:54 23.01.2020
323 Clouds 22 1020 69 10000 5.1 60 12:36 23.01.2020
324 Clouds 22 1020 69 10000 5.1 60 12:18 23.01.2020
325 Clouds 22 1019 69 10000 4.1 70 11:42 23.01.2020
326 Clouds 21 1021 68 10000 5.7 60 11:23 23.01.2020
327 Clouds 21 1020 68 10000 5.1 50 10:56 23.01.2020
328 Clouds 21 1022 73 10000 4.6 50 10:38 23.01.2020
329 Clouds 21 1022 73 10000 4.6 50 10:18 23.01.2020
330 Clouds 21 1021 73 10000 4.1 50 09:40 23.01.2020
331 Clouds 20 1022 77 10000 4.1 30 09:21 23.01.2020
332 Clouds 19 1021 77 10000 2.6 20 08:43 23.01.2020
333 Clouds 19 1021 77 10000 2.6 20 08:25 23.01.2020
334 Clouds 19 1021 82 10000 2.1 20 07:52 23.01.2020
335 Clouds 18 1021 82 10000 2.1 350 07:27 23.01.2020
336 Clouds 18 1020 93 10000 3.79 23 06:58 23.01.2020
337 Clouds 17 1021 93 10000 1.5 10 06:25 23.01.2020
338 Clouds 16 1020 93 10000 2.1 330 05:59 23.01.2020
339 Clouds 17 1020 93 10000 3.1 350 04:25 23.01.2020
340 Clouds 16 1020 93 10000 1 360 02:50 23.01.2020
341 Rain 17 1019 100 10000 3.1 20 01:53 23.01.2020
342 Clouds 17 1021 88 10000 1 0 00:44 23.01.2020
343 Clouds 16 1021 93 10000 2.1 30 00:22 23.01.2020
344 Rain 17 1021 93 10000 2.6 50 23:46 22.01.2020
345 Clouds 18 1021 88 10000 3.1 40 23:28 22.01.2020
346 Rain 18 1020 82 10000 2.1 20 22:43 22.01.2020
347 Clouds 18 1021 77 10000 3.1 30 22:25 22.01.2020
348 Clouds 18 1020 77 10000 5.1 60 21:58 22.01.2020
349 Clouds 18 1021 77 10000 2.6 50 21:36 22.01.2020
350 Clouds 18 1021 77 10000 2.6 50 21:36 22.01.2020
351 Clouds 19 1021 77 10000 2.6 50 21:18 22.01.2020
352 Clouds 19 1021 72 10000 3.6 40 20:42 22.01.2020
353 Clouds 19 1021 72 10000 3.6 40 20:23 22.01.2020
354 Clouds 19 1019 68 0 3.1 70 19:59 22.01.2020
355 Clouds 19 1019 68 0 3.1 70 19:41 22.01.2020
356 Clouds 20 1019 68 10000 4.1 50 19:21 22.01.2020
357 Clouds 20 1018 60 0 5.1 70 18:59 22.01.2020
358 Clouds 20 1018 60 0 5.1 70 18:40 22.01.2020
359 Clouds 20 1019 68 10000 5.1 50 18:21 22.01.2020
360 Clouds 20 1017 64 0 4.1 70 17:57 22.01.2020
361 Clouds 20 1017 56 10000 5.7 30 17:39 22.01.2020
362 Clouds 21 1017 56 10000 5.7 30 17:20 22.01.2020
363 Clouds 22 1017 57 10000 6.7 50 16:55 22.01.2020
364 Clouds 22 1017 57 10000 6.7 50 16:55 22.01.2020
365 Clouds 22 1017 57 10000 6.7 50 16:55 22.01.2020
366 Clouds 22 1016 60 10000 5.1 60 16:37 22.01.2020
367 Clouds 23 1016 60 10000 5.1 60 16:18 22.01.2020
368 Clouds 23 1016 53 0 3.1 70 15:42 22.01.2020
369 Clouds 23 1016 53 10000 5.1 70 15:23 22.01.2020
370 Clouds 24 1016 47 0 4.1 60 14:59 22.01.2020
371 Clouds 24 1017 57 10000 5.7 70 14:38 22.01.2020
372 Clouds 24 1017 57 10000 5.7 70 14:20 22.01.2020
373 Clouds 24 1016 47 0 5.1 50 13:56 22.01.2020
374 Clouds 24 1016 47 0 5.1 50 13:56 22.01.2020
375 Clouds 24 1005 59 0 0.45 228 13:37 22.01.2020
376 Clouds 25 1017 47 0 3.1 20 13:19 22.01.2020
377 Clouds 25 1017 47 0 3.1 20 12:56 22.01.2020
378 Clouds 25 1017 47 0 3.1 20 12:56 22.01.2020
379 Clouds 25 1019 53 10000 4.6 30 12:38 22.01.2020
380 Clouds 25 1019 53 10000 4.6 30 12:19 22.01.2020
381 Clouds 25 1018 50 0 3.1 90 11:56 22.01.2020
382 Clouds 24 1020 57 10000 4.6 50 11:38 22.01.2020
383 Clouds 24 1020 57 10000 4.6 50 11:19 22.01.2020
384 Clouds 24 1019 53 0 3.1 50 10:45 22.01.2020
385 Clouds 23 1021 56 10000 4.1 40 10:21 22.01.2020
386 Clouds 23 1021 69 0 5.1 50 09:57 22.01.2020
387 Clouds 23 1021 69 0 5.1 50 09:39 22.01.2020
388 Clouds 22 1021 64 10000 4.1 40 09:20 22.01.2020
389 Clouds 22 1021 64 0 4.1 40 08:55 22.01.2020
390 Clouds 21 1021 68 10000 3.6 30 08:36 22.01.2020
391 Clouds 20 1021 68 10000 3.6 30 08:18 22.01.2020
392 Clouds 19 1021 68 10000 2.1 50 07:42 22.01.2020
393 Clouds 18 1021 93 10000 0.5 0 07:23 22.01.2020
394 Clouds 17 1021 93 10000 1 180 06:33 22.01.2020
395 Clouds 16 1019 82 10000 3.1 300 05:45 22.01.2020
396 Clouds 18 1019 82 10000 1 350 04:25 22.01.2020
397 Clouds 18 1019 88 10000 1 40 03:26 22.01.2020
398 Clouds 18 1019 88 10000 1 0 02:39 22.01.2020
399 Clouds 18 1019 82 10000 2.1 20 00:47 22.01.2020
400 Clouds 18 1019 82 10000 2.1 20 00:47 22.01.2020
401 Clouds 19 1019 82 10000 2.1 360 00:27 22.01.2020
402 Clouds 18 1020 82 10000 3.1 20 23:55 21.01.2020
403 Clouds 17 1020 82 10000 3.1 10 23:37 21.01.2020
404 Clouds 18 1020 82 10000 3.1 10 23:18 21.01.2020
405 Clouds 19 1020 77 10000 2.1 20 22:40 21.01.2020
406 Clouds 19 1020 77 10000 2.1 20 22:21 21.01.2020
407 Clouds 19 1019 77 10000 1.76 23 21:58 21.01.2020
408 Clouds 19 1019 77 10000 1.76 23 21:38 21.01.2020
409 Clouds 20 1020 77 10000 3.1 40 21:20 21.01.2020
410 Clouds 19 1020 77 10000 4.1 50 20:57 21.01.2020
411 Clouds 19 1020 77 10000 4.1 50 20:38 21.01.2020
412 Clouds 20 1019 73 10000 4.1 40 20:20 21.01.2020
413 Clouds 21 1018 68 10000 4.1 30 19:57 21.01.2020
414 Clouds 21 1018 68 10000 4.1 30 19:38 21.01.2020
415 Clouds 21 1019 73 10000 4.6 40 19:20 21.01.2020
416 Clouds 21 1017 68 10000 4.6 20 18:55 21.01.2020
417 Clouds 20 1018 64 10000 4.6 10 18:37 21.01.2020
418 Clouds 21 1018 64 10000 4.6 10 18:18 21.01.2020
419 Clouds 20 1018 64 10000 3.6 20 17:45 21.01.2020
420 Clouds 20 1017 64 10000 4.6 40 17:20 21.01.2020
421 Clouds 21 1017 60 10000 5.1 30 16:59 21.01.2020
422 Clouds 21 1017 60 10000 5.1 30 16:37 21.01.2020
423 Clouds 22 1017 60 10000 6.7 20 16:19 21.01.2020
424 Clouds 23 1016 53 10000 5.7 30 15:54 21.01.2020
425 Clouds 23 1016 54 10000 4.6 50 15:36 21.01.2020
426 Clouds 24 1016 54 10000 4.6 50 15:18 21.01.2020
427 Clouds 25 1016 50 10000 4.6 80 14:38 21.01.2020
428 Clouds 24 1017 51 10000 4.1 50 14:20 21.01.2020
429 Clouds 25 1016 47 10000 3.6 20 13:40 21.01.2020
430 Clouds 25 1017 54 10000 3.6 40 13:19 21.01.2020
431 Clouds 25 1017 47 10000 4.1 60 12:45 21.01.2020
432 Clouds 25 1018 57 10000 3.6 0 12:27 21.01.2020
433 Clouds 24 1018 53 10000 3.6 280 11:58 21.01.2020
434 Clouds 24 1018 53 10000 3.6 280 11:40 21.01.2020
435 Clouds 24 1019 57 10000 3.6 40 11:21 21.01.2020
436 Clouds 24 1019 57 10000 4.57 21 10:55 21.01.2020
437 Clouds 22 1020 60 10000 3.6 60 10:37 21.01.2020
438 Clouds 23 1020 60 10000 3.6 60 10:18 21.01.2020
439 Clouds 23 1021 64 10000 4.1 60 09:41 21.01.2020
440 Clouds 23 1021 64 10000 4.1 60 09:22 21.01.2020
441 Clouds 22 1020 56 10000 3.6 30 08:50 21.01.2020
442 Clouds 22 1021 64 10000 2.6 30 08:30 21.01.2020
443 Clouds 21 1021 68 10000 3.1 40 07:59 21.01.2020
444 Clouds 21 1021 68 10000 3.1 40 07:40 21.01.2020
445 Clouds 21 1021 68 10000 3.1 40 07:40 21.01.2020
446 Clouds 19 1022 88 10000 1 0 07:21 21.01.2020
447 Clouds 19 1020 82 10000 4.07 31 06:49 21.01.2020
448 Clouds 17 1021 93 10000 1.5 210 06:26 21.01.2020
449 Haze 16 1020 88 10000 4.07 31 05:42 21.01.2020
450 Clouds 16 1019 93 10000 1.57 27 04:39 21.01.2020
451 Clouds 16 1019 93 10000 2.1 10 02:56 21.01.2020
452 Clouds 16 1019 88 10000 2.6 360 01:53 21.01.2020
453 Clouds 16 1020 88 10000 2.6 10 01:18 21.01.2020
454 Clouds 17 1020 93 10000 2.1 360 00:36 21.01.2020
455 Clouds 18 1020 88 10000 2.6 30 23:59 20.01.2020
456 Clouds 17 1020 88 10000 2.6 30 23:39 20.01.2020
457 Clouds 17 1020 88 10000 2.6 30 23:39 20.01.2020
458 Clouds 17 1021 93 10000 2.6 30 23:19 20.01.2020
459 Clouds 18 1021 88 10000 3.6 30 22:56 20.01.2020
460 Clouds 18 1021 88 10000 4.6 20 22:37 20.01.2020
461 Clouds 19 1021 88 10000 4.6 20 22:19 20.01.2020
462 Clouds 19 1020 82 10000 3.1 30 21:57 20.01.2020
463 Clouds 19 1020 82 10000 3.1 30 21:37 20.01.2020
464 Clouds 19 1021 82 10000 3.1 30 21:19 20.01.2020
465 Clouds 19 1020 77 10000 3.1 30 20:55 20.01.2020
466 Clouds 19 1021 82 10000 4.6 40 20:36 20.01.2020
467 Clouds 19 1021 82 10000 4.6 40 20:18 20.01.2020
468 Clouds 19 1020 82 10000 4.6 50 19:56 20.01.2020
469 Clouds 19 1020 82 10000 4.6 50 19:37 20.01.2020
470 Clouds 21 1020 73 10000 5.7 40 19:18 20.01.2020
471 Clouds 20 1019 73 10000 5.1 40 18:43 20.01.2020
472 Clouds 20 1019 73 10000 5.1 40 18:43 20.01.2020
473 Clouds 21 1019 68 10000 5.1 50 18:22 20.01.2020
474 Clouds 22 1017 60 10000 5.7 30 17:41 20.01.2020
475 Clouds 23 1018 60 10000 5.7 60 17:20 20.01.2020
476 Clouds 23 1018 60 10000 5.7 60 17:20 20.01.2020
477 Clouds 24 1016 50 10000 5.1 70 16:59 20.01.2020
478 Clouds 24 1016 50 10000 5.1 70 16:37 20.01.2020
479 Clouds 24 1017 54 10000 5.1 90 16:18 20.01.2020
480 Clouds 24 1017 54 10000 5.1 90 16:18 20.01.2020
481 Clouds 24 1017 54 10000 5.1 90 16:18 20.01.2020
482 Clouds 25 1016 50 10000 5.1 100 15:56 20.01.2020
483 Clouds 25 1016 50 10000 5.1 100 15:38 20.01.2020
484 Clouds 25 1016 47 10000 5.1 120 15:20 20.01.2020
485 Clouds 26 1017 51 10000 3.6 110 14:41 20.01.2020
486 Clouds 26 1017 51 10000 3.6 110 14:22 20.01.2020
487 Clouds 26 1017 50 10000 4.1 160 13:58 20.01.2020
488 Clouds 26 1017 50 10000 4.1 160 13:40 20.01.2020
489 Clouds 25 1018 54 10000 2.1 60 13:21 20.01.2020
490 Clouds 25 1018 50 10000 4.1 340 12:46 20.01.2020
491 Clouds 25 1019 54 10000 3.6 60 12:28 20.01.2020
492 Clouds 24 1019 53 10000 2.6 80 11:58 20.01.2020
493 Clouds 24 1019 53 10000 2.6 80 11:39 20.01.2020
494 Clouds 24 1021 57 10000 3.1 30 11:21 20.01.2020
495 Clouds 24 1020 57 10000 3.6 330 10:48 20.01.2020
496 Clouds 23 1022 64 10000 3.1 50 10:22 20.01.2020
497 -273 0 0 0 0 0 10:22 20.01.2020
498 Clouds 22 1022 68 10000 3.1 60 09:57 20.01.2020
499 Clouds 22 1022 68 10000 3.1 60 09:38 20.01.2020
500 Clouds 21 1022 68 10000 3.6 40 09:19 20.01.2020
501 Clouds 21 1023 73 10000 4.6 50 08:43 20.01.2020
502 Clouds 20 1023 68 10000 4.6 40 08:25 20.01.2020
503 Clouds 20 1022 72 10000 1.59 18 07:43 20.01.2020
504 Clouds 19 1023 82 10000 1.5 10 07:23 20.01.2020
505 Mist 18 1023 93 8000 1 230 06:46 20.01.2020
506 Clouds 16 1013 76 0 1.59 18 06:26 20.01.2020
507 Clouds 13 1013 90 0 1.59 18 05:42 20.01.2020
508 Clouds 14 1021 93 10000 1.09 20 05:21 20.01.2020
509 Clouds 15 1021 93 10000 1.09 20 04:41 20.01.2020
510 Clouds 15 1021 93 10000 1.5 30 02:57 20.01.2020
511 Clouds 17 1020 88 10000 1.76 13 01:52 20.01.2020
512 Clouds 17 1021 88 10000 3.1 20 01:26 20.01.2020
513 Clouds 17 1021 82 10000 2.1 360 00:44 20.01.2020
514 Clouds 17 1021 88 10000 2.1 10 00:22 20.01.2020
515 Clouds 16 1021 88 10000 2.1 10 23:39 19.01.2020
516 Clouds 17 1022 82 10000 1.5 20 23:20 19.01.2020
517 Clouds 17 1022 82 10000 1.5 20 23:20 19.01.2020
518 Clouds 17 1021 82 10000 3.1 360 22:56 19.01.2020
519 Clouds 16 1022 82 10000 2.6 30 22:38 19.01.2020
520 Clouds 17 1022 82 10000 2.6 30 22:20 19.01.2020
521 Clouds 17 1020 77 10000 2.6 30 21:56 19.01.2020
522 Clouds 17 1022 82 10000 3.1 50 21:38 19.01.2020
523 Clouds 17 1022 82 10000 3.1 50 21:20 19.01.2020
524 Clouds 18 1021 77 10000 2.1 20 20:57 19.01.2020
525 Clouds 18 1021 77 10000 2.1 20 20:39 19.01.2020
526 Clouds 18 1022 77 10000 3.6 30 20:20 19.01.2020
527 Clouds 18 1020 77 10000 3.1 50 19:57 19.01.2020
528 Clouds 19 1020 77 10000 3.1 50 19:39 19.01.2020
529 Clouds 19 1021 72 10000 4.1 50 19:20 19.01.2020
530 Clouds 19 1019 82 10000 3.02 42 18:56 19.01.2020
531 Clouds 19 1019 82 10000 3.02 42 18:38 19.01.2020
532 Clouds 19 1019 72 10000 4.1 40 18:20 19.01.2020
533 Clouds 20 1018 77 10000 4.1 40 17:58 19.01.2020
534 Clouds 20 1018 77 10000 4.1 40 17:40 19.01.2020
535 Clouds 21 1018 73 10000 6.2 50 17:20 19.01.2020
536 Rain 22 1017 60 8000 8.2 50 16:59 19.01.2020
537 Clouds 23 1018 60 10000 6.2 70 16:38 19.01.2020
538 Clouds 23 1018 60 10000 6.2 70 16:20 19.01.2020
539 Clouds 23 1016 54 10000 5.1 50 15:58 19.01.2020
540 Clouds 24 1016 54 10000 5.1 50 15:38 19.01.2020
541 Clouds 26 1017 54 10000 3.6 70 15:20 19.01.2020
542 Clouds 27 1016 47 10000 3.6 110 14:57 19.01.2020
543 Clouds 26 1017 54 10000 2.6 90 14:38 19.01.2020
544 Clouds 25 1017 54 10000 2.6 90 14:18 19.01.2020
545 Clouds 24 1017 50 10000 3.03 36 13:57 19.01.2020
546 Clouds 23 1018 53 10000 2.6 140 13:38 19.01.2020
547 Clouds 24 1018 53 10000 2.6 140 13:19 19.01.2020
548 Clouds 24 1018 53 10000 4.1 110 12:55 19.01.2020
549 Clouds 22 1019 72 10000 4.1 80 12:37 19.01.2020
550 Clouds 22 1019 72 10000 4.1 80 12:19 19.01.2020
551 Clouds 24 1020 53 10000 2.79 37 11:42 19.01.2020
552 Clouds 24 1021 57 10000 3.1 60 11:20 19.01.2020
553 Clouds 24 1020 50 10000 4.07 20 10:56 19.01.2020
554 Clouds 24 1020 50 10000 4.07 20 10:56 19.01.2020
555 Clouds 24 1020 50 10000 4.07 20 10:56 19.01.2020
556 Clouds 24 1020 50 10000 4.07 20 10:38 19.01.2020
557 Clouds 23 1021 57 10000 2.6 60 10:19 19.01.2020
558 Clouds 22 1022 56 10000 3.1 50 09:55 19.01.2020
559 Clouds 22 1022 56 10000 3.1 50 09:55 19.01.2020
560 Clouds 22 1022 56 10000 3.1 50 09:55 19.01.2020
561 Clouds 22 1022 56 10000 3.1 50 09:55 19.01.2020
562 Clouds 23 1022 56 10000 3.1 20 09:37 19.01.2020
563 Clouds 22 1022 56 10000 3.1 20 09:18 19.01.2020
564 Clouds 21 1021 64 10000 4.07 20 08:48 19.01.2020
565 Clouds 20 1023 64 10000 3.1 20 08:28 19.01.2020
566 Clouds 20 1023 64 10000 3.1 20 07:42 19.01.2020
567 Clouds 19 1022 72 10000 3.6 20 07:22 19.01.2020
568 Clouds 18 1022 82 10000 2.6 20 06:54 19.01.2020
569 Clouds 17 1022 88 10000 1.5 20 06:21 19.01.2020
570 Clouds 16 1020 88 10000 0.5 0 02:47 19.01.2020
571 Clouds 17 1020 93 10000 1.83 24 02:24 19.01.2020
572 Clouds 17 1021 88 10000 2.1 40 01:28 19.01.2020
573 Clouds 17 1021 93 10000 2.6 20 00:54 19.01.2020
574 Clouds 17 1021 88 10000 1.5 360 00:29 19.01.2020
575 Clouds 17 1021 88 10000 1.5 350 23:59 18.01.2020
576 Clouds 17 1021 88 10000 1.5 350 23:41 18.01.2020
577 Clouds 18 1021 82 10000 1.5 350 23:23 18.01.2020
578 Clouds 18 1021 82 10000 2.1 360 22:55 18.01.2020
579 Clouds 18 1021 82 10000 2.1 360 22:37 18.01.2020
580 Clouds 17 1022 82 10000 2.6 360 22:19 18.01.2020
581 Clouds 17 1022 82 10000 2.1 360 21:57 18.01.2020
582 Clouds 17 1021 77 10000 2.6 20 21:38 18.01.2020
583 Clouds 18 1021 77 10000 2.6 20 21:20 18.01.2020
584 Clouds 17 1021 77 10000 3.6 40 20:44 18.01.2020
585 Clouds 19 1021 82 10000 3.6 40 20:21 18.01.2020
586 Clouds 19 1020 64 10000 2.1 50 19:59 18.01.2020
587 Clouds 19 1020 64 10000 2.1 50 19:41 18.01.2020
588 Clouds 19 1020 72 10000 3.6 30 19:22 18.01.2020
589 Clouds 20 1019 64 10000 2.1 50 18:43 18.01.2020
590 Clouds 20 1019 64 10000 4.6 40 18:24 18.01.2020
591 Clouds 21 1018 64 10000 3.01 35 17:57 18.01.2020
592 Clouds 20 1018 60 10000 5.7 60 17:39 18.01.2020
593 Clouds 21 1018 60 10000 5.7 60 17:19 18.01.2020
594 Clouds 22 1016 60 10000 4.66 60 16:56 18.01.2020
595 Clouds 21 1017 57 10000 5.1 70 16:37 18.01.2020
596 Clouds 22 1017 57 10000 5.1 70 16:19 18.01.2020
597 Clouds 22 1017 57 10000 4.1 50 15:43 18.01.2020
598 Clouds 24 1017 57 10000 3.6 70 15:24 18.01.2020
599 Clouds 24 1016 57 10000 3.1 70 14:58 18.01.2020
600 Clouds 24 1016 57 10000 3.1 70 14:39 18.01.2020
601 Clouds 25 1017 61 10000 4.1 110 14:18 18.01.2020
602 Clouds 24 1017 65 10000 5.1 180 13:45 18.01.2020
603 Clouds 24 1018 54 10000 2.1 0 13:27 18.01.2020
604 Clouds 24 1018 57 10000 2.1 110 12:59 18.01.2020
605 Clouds 25 1018 57 10000 2.1 110 12:40 18.01.2020
606 Clouds 24 1019 61 10000 4.6 80 12:21 18.01.2020
607 Clouds 23 1020 60 10000 3.6 80 11:44 18.01.2020
608 Clouds 24 1020 60 10000 3.6 80 11:24 18.01.2020
609 Clouds 24 1020 53 10000 4.1 70 10:57 18.01.2020
610 Clouds 23 1021 60 10000 4.1 60 10:38 18.01.2020
611 Clouds 24 1021 60 10000 4.1 60 10:20 18.01.2020
612 Clouds 24 1021 60 10000 4.1 60 10:20 18.01.2020
613 Clouds 25 1020 57 10000 3.1 90 09:48 18.01.2020
614 Clouds 23 1022 64 10000 3.6 40 09:30 18.01.2020
615 Clouds 22 1021 60 10000 4.76 27 08:57 18.01.2020
616 Clouds 21 1022 73 10000 2.6 30 08:39 18.01.2020
617 Clouds 21 1022 73 10000 2.6 30 08:19 18.01.2020
618 Clouds 20 1021 77 10000 3.32 32 07:50 18.01.2020
619 Clouds 19 1022 72 10000 1.5 30 07:31 18.01.2020
620 Clouds 18 1021 88 10000 3.32 32 06:48 18.01.2020
621 Clouds 17 1020 93 10000 3.32 32 05:59 18.01.2020
622 Clouds 16 1021 88 10000 1 330 05:25 18.01.2020
623 Clouds 16 1019 88 10000 1.5 20 03:25 18.01.2020
624 Rain 17 1019 88 10000 2.07 2 01:56 18.01.2020
625 Rain 16 1020 88 10000 1.5 10 01:35 18.01.2020
626 Clouds 16 1020 93 10000 2.1 30 00:37 18.01.2020
627 Clouds 17 1020 93 10000 2.1 30 00:18 18.01.2020
628 Clouds 17 1020 93 10000 2.1 30 00:18 18.01.2020
629 Clouds 17 1020 93 10000 2.1 30 00:18 18.01.2020
630 Clouds 17 1021 93 10000 1 10 23:44 17.01.2020
631 Clouds 18 1021 88 10000 2.6 40 23:20 17.01.2020
632 Clouds 18 1020 82 10000 2.6 30 22:59 17.01.2020
633 Clouds 18 1020 82 10000 2.6 30 22:40 17.01.2020
634 Clouds 18 1021 88 10000 2.1 360 22:18 17.01.2020
635 Clouds 18 1020 82 10000 2.27 27 21:41 17.01.2020
636 Clouds 18 1021 82 10000 3.1 20 21:22 17.01.2020
637 Clouds 18 1020 72 10000 3.6 10 20:58 17.01.2020
638 Clouds 17 1020 77 10000 4.1 40 20:39 17.01.2020
639 Clouds 18 1020 77 10000 4.1 40 20:20 17.01.2020
640 Clouds 18 1019 72 10000 3.1 50 19:57 17.01.2020
641 Clouds 18 1020 68 10000 4.6 30 19:38 17.01.2020
642 Clouds 19 1020 68 10000 4.6 30 19:19 17.01.2020
643 Clouds 18 1020 68 10000 5.1 40 18:56 17.01.2020
644 Clouds 19 1019 68 10000 5.1 40 18:36 17.01.2020
645 Clouds 20 1018 68 10000 6.2 50 18:18 17.01.2020
646 Clouds 20 1018 68 10000 6.2 50 17:39 17.01.2020
647 Clouds 23 1018 69 10000 6.2 50 17:21 17.01.2020
648 Clouds 22 1017 60 10000 4.6 40 16:44 17.01.2020
649 Clouds 24 1018 60 10000 5.7 60 16:21 17.01.2020
650 Clouds 25 1016 57 10000 3.1 50 15:58 17.01.2020
651 Clouds 22 1016 57 10000 3.1 50 15:58 17.01.2020
652 Clouds 22 1016 57 10000 3.1 50 15:40 17.01.2020
653 Clouds 22 1017 61 10000 3.1 50 15:22 17.01.2020
654 Clouds 22 1017 57 10000 4.9 55 14:43 17.01.2020
655 Clouds 24 1017 60 10000 3.1 80 14:25 17.01.2020
656 Clouds 24 1017 57 10000 2.6 110 13:46 17.01.2020
657 Clouds 24 1018 61 10000 3.6 50 13:23 17.01.2020
658 Clouds 24 1018 60 10000 3.1 100 12:48 17.01.2020
659 Clouds 24 1019 61 10000 3.6 60 12:24 17.01.2020
660 Clouds 24 1019 60 10000 4.6 30 11:56 17.01.2020
661 Clouds 24 1019 60 10000 4.6 30 11:37 17.01.2020
662 Clouds 23 1020 60 10000 3.1 50 11:18 17.01.2020
663 Clouds 23 1020 60 10000 3.1 50 10:42 17.01.2020
664 Clouds 23 1020 60 10000 3.1 50 10:42 17.01.2020
665 Clouds 22 1021 69 10000 2.1 80 10:22 17.01.2020
666 Clouds 23 1021 69 10000 3.97 22 09:57 17.01.2020
667 Clouds 21 1023 77 10000 3.1 220 09:37 17.01.2020
668 Clouds 21 1023 77 10000 3.1 220 09:18 17.01.2020
669 Clouds 21 1022 77 10000 2.6 200 08:42 17.01.2020
670 Clouds 18 1023 77 10000 1.5 210 08:24 17.01.2020
671 Clouds 18 1022 82 10000 3.25 18 07:53 17.01.2020
672 Clouds 17 1023 82 10000 0.5 0 07:31 17.01.2020
673 Clouds 17 1021 93 10000 3.25 18 06:57 17.01.2020
674 Clouds 18 1022 88 10000 3.25 18 06:38 17.01.2020
675 Clouds 17 1021 93 10000 3.25 18 05:28 17.01.2020
676 Clouds 14 1011 94 0 1.73 17 03:39 17.01.2020
677 Clouds 14 1010 93 0 1.73 17 02:45 17.01.2020
678 Clouds 16 1021 88 10000 2.6 30 01:46 17.01.2020
679 Clouds 14 1010 93 0 2.15 27 01:27 17.01.2020
680 Clouds 15 1010 91 0 2.22 25 00:46 17.01.2020
681 Clouds 15 1010 90 0 2.22 25 00:21 17.01.2020
682 Clouds 17 1022 88 10000 5.1 60 23:43 16.01.2020
683 Clouds 18 1022 88 10000 5.1 60 23:25 16.01.2020
684 Clouds 18 1021 82 10000 5.1 40 22:55 16.01.2020
685 Clouds 18 1021 82 10000 5.1 40 22:37 16.01.2020
686 Clouds 18 1022 88 10000 3.6 40 22:18 16.01.2020
687 Clouds 18 1021 82 10000 3.6 40 21:54 16.01.2020
688 Clouds 18 1022 88 10000 3.6 50 21:36 16.01.2020
689 Clouds 18 1022 88 10000 3.6 50 21:18 16.01.2020
690 Clouds 18 1021 82 10000 4.6 70 20:40 16.01.2020
691 Clouds 18 1022 88 10000 4.1 40 20:21 16.01.2020
692 Clouds 18 1020 77 10000 5.1 60 19:58 16.01.2020
693 Clouds 19 1021 82 10000 6.2 50 19:40 16.01.2020
694 Clouds 19 1021 82 10000 6.2 50 19:22 16.01.2020
695 Clouds 19 1019 73 10000 7.2 60 18:57 16.01.2020
696 Clouds 19 1019 73 10000 7.2 60 18:38 16.01.2020
697 Clouds 20 1020 73 10000 6.7 50 18:19 16.01.2020
698 Clouds 20 1018 68 10000 5.1 60 17:58 16.01.2020
699 Clouds 19 1019 68 10000 6.7 60 17:39 16.01.2020
700 Clouds 21 1019 68 10000 6.7 60 17:20 16.01.2020
701 Clouds 21 1019 60 10000 6.7 70 16:42 16.01.2020
702 Clouds 23 1018 60 10000 6.2 70 16:24 16.01.2020
703 Clouds 23 1017 57 10000 5.1 60 15:59 16.01.2020
704 Clouds 22 1018 60 10000 5.1 70 15:39 16.01.2020
705 Clouds 23 1018 60 10000 5.1 70 15:20 16.01.2020
706 Clouds 24 1017 57 10000 6.2 70 14:45 16.01.2020
707 Clouds 23 1018 60 10000 5.7 60 14:24 16.01.2020
708 Clouds 23 1018 57 10000 5.1 90 13:56 16.01.2020
709 Clouds 23 1018 57 10000 5.1 90 13:37 16.01.2020
710 Clouds 24 1019 60 10000 5.7 50 13:19 16.01.2020
711 Clouds 24 1020 60 10000 4.6 60 12:42 16.01.2020
712 Clouds 24 1020 60 10000 4.6 60 12:22 16.01.2020
713 Clouds 23 1020 57 10000 3.1 90 11:43 16.01.2020
714 Clouds 24 1020 57 10000 3.1 90 11:43 16.01.2020
715 Clouds 23 1021 60 10000 4.6 50 11:24 16.01.2020
716 Clouds 22 1021 64 10000 4.6 80 10:59 16.01.2020
717 Clouds 22 1022 64 10000 4.1 40 10:38 16.01.2020
718 Clouds 22 1022 64 10000 4.1 40 10:20 16.01.2020
719 Clouds 22 1023 68 10000 3.1 50 09:56 16.01.2020
720 Clouds 21 1023 73 10000 4.1 30 09:37 16.01.2020
721 Clouds 21 1023 73 10000 4.1 30 09:19 16.01.2020
722 Clouds 21 1023 77 10000 5.1 40 08:48 16.01.2020
723 Clouds 20 1023 82 10000 4.1 50 08:29 16.01.2020
724 Clouds 19 1022 82 10000 5.1 70 07:57 16.01.2020
725 Clouds 19 1023 88 10000 3.6 30 07:37 16.01.2020
726 Clouds 18 1023 88 10000 3.6 30 07:18 16.01.2020
727 Clouds 18 1021 93 10000 5.1 60 06:42 16.01.2020
728 Clouds 17 1021 93 10000 5.1 60 05:58 16.01.2020
729 Clouds 17 1021 93 10000 5.1 60 05:40 16.01.2020
730 Clouds 17 1020 93 10000 3.1 60 04:37 16.01.2020
731 Clouds 16 1021 93 10000 4.1 50 04:37 16.01.2020
732 Clouds 15 1020 93 10000 3.6 60 03:28 16.01.2020
733 Clouds 16 1020 93 10000 3.6 60 02:42 16.01.2020
734 Clouds 17 1021 93 10000 4.6 60 00:53 16.01.2020
735 Clouds 17 1022 93 10000 4.1 40 00:24 16.01.2020
736 Clouds 17 1022 93 10000 4.6 30 23:48 15.01.2020
737 Clouds 17 1022 93 10000 4.6 30 23:23 15.01.2020
738 Clouds 17 1022 93 10000 3.6 30 22:57 15.01.2020
739 Clouds 17 1022 93 10000 3.6 30 22:39 15.01.2020
740 Clouds 18 1022 93 10000 3.6 20 22:19 15.01.2020
741 Clouds 18 1022 93 10000 3.6 20 22:19 15.01.2020
742 Clouds 18 1020 93 10000 6.2 70 21:58 15.01.2020
743 Clouds 18 1020 93 10000 6.2 70 21:38 15.01.2020
744 Clouds 19 1021 93 10000 3.6 40 21:20 15.01.2020
745 Clouds 18 1020 88 10000 5.1 60 20:58 15.01.2020
746 Clouds 18 1020 88 10000 5.1 60 20:40 15.01.2020
747 Clouds 18 1021 88 10000 5.7 40 20:20 15.01.2020
748 Clouds 19 1020 82 10000 6.2 70 19:55 15.01.2020
749 Clouds 19 1020 82 10000 6.2 70 19:37 15.01.2020
750 Clouds 19 1020 82 10000 5.7 50 19:19 15.01.2020
751 Clouds 19 1019 68 10000 5.1 70 18:57 15.01.2020
752 Clouds 19 1019 68 10000 5.1 70 18:57 15.01.2020
753 Clouds 19 1019 68 10000 5.1 70 18:38 15.01.2020
754 Clouds 20 1019 73 10000 4.6 60 18:20 15.01.2020
755 Clouds 21 1018 60 10000 5.1 70 17:58 15.01.2020
756 Clouds 22 1018 60 10000 5.1 70 17:39 15.01.2020
757 Clouds 21 1018 64 10000 6.2 50 17:20 15.01.2020
758 Clouds 23 1018 53 10000 6.2 70 16:42 15.01.2020
759 Clouds 23 1018 53 10000 6.2 70 16:24 15.01.2020
760 Clouds 23 1017 47 10000 5.1 70 15:59 15.01.2020
761 Clouds 24 1017 47 10000 5.1 70 15:41 15.01.2020
762 Clouds 24 1018 44 10000 5.7 70 15:20 15.01.2020
763 Clouds 24 1018 47 10000 7.7 60 14:45 15.01.2020
764 Clouds 24 1018 50 10000 5.1 60 14:21 15.01.2020
765 Clouds 24 1018 47 10000 6.2 60 13:58 15.01.2020
766 Clouds 23 1019 50 10000 6.2 40 13:40 15.01.2020
767 Clouds 24 1019 50 10000 6.2 40 13:22 15.01.2020
768 Clouds 24 1019 50 10000 6.2 60 12:55 15.01.2020
769 Clouds 23 1020 53 10000 6.2 40 12:36 15.01.2020
770 Clouds 23 1020 53 10000 6.2 40 12:18 15.01.2020
771 Clouds 23 1021 57 10000 5.7 60 11:38 15.01.2020
772 Clouds 23 1021 57 10000 5.7 60 11:20 15.01.2020
773 Clouds 23 1021 60 10000 5.1 60 10:48 15.01.2020
774 Clouds 23 1022 69 10000 4.1 30 10:28 15.01.2020
775 Clouds 22 1022 56 10000 5.1 60 09:59 15.01.2020
776 Clouds 22 1022 56 10000 5.1 60 09:41 15.01.2020
777 Clouds 21 1023 73 10000 4.1 20 09:21 15.01.2020
778 Clouds 21 1023 77 10000 5.1 60 08:44 15.01.2020
779 Clouds 21 1023 77 10000 5.1 60 08:44 15.01.2020
780 Clouds 19 1023 82 10000 5.1 50 08:26 15.01.2020
781 Clouds 19 1023 88 10000 3.1 40 07:54 15.01.2020
782 Clouds 17 1023 93 10000 3.6 40 07:33 15.01.2020
783 Clouds 17 1022 93 10000 2.6 30 06:54 15.01.2020
784 Clouds 17 1022 93 10000 4.1 50 06:28 15.01.2020
785 Clouds 16 1020 100 10000 4.1 40 04:57 15.01.2020
786 Clouds 16 1020 93 10000 3.6 30 03:20 15.01.2020
787 Clouds 16 1020 93 10000 3.1 60 01:48 15.01.2020
788 Clouds 16 1020 93 10000 4.6 80 01:22 15.01.2020
789 Clouds 16 1021 93 10000 5.1 90 00:37 15.01.2020
790 Clouds 16 1021 93 10000 5.1 90 00:19 15.01.2020
791 Clouds 16 1021 93 10000 5.1 80 23:46 14.01.2020
792 Clouds 16 1021 93 10000 5.1 90 23:27 14.01.2020
793 Clouds 17 1021 93 10000 5.1 90 22:57 14.01.2020
794 Clouds 16 1021 93 10000 5.1 90 22:39 14.01.2020
795 Clouds 16 1021 93 10000 5.7 80 22:18 14.01.2020
796 Clouds 16 1021 93 10000 5.7 80 21:57 14.01.2020
797 Clouds 17 1021 88 10000 4.6 80 21:38 14.01.2020
798 Clouds 18 1021 88 10000 4.6 80 21:19 14.01.2020
799 Clouds 18 1020 88 10000 3.1 100 20:42 14.01.2020
800 Clouds 18 1020 82 10000 4.1 70 20:23 14.01.2020
801 Clouds 18 1020 82 10000 4.1 70 19:57 14.01.2020
802 Clouds 17 1020 88 10000 4.1 60 19:39 14.01.2020
803 Clouds 18 1020 88 10000 4.1 60 19:21 14.01.2020
804 Clouds 18 1019 82 10000 3.1 70 18:59 14.01.2020
805 Clouds 18 1019 82 10000 3.1 70 18:40 14.01.2020
806 Clouds 19 1018 83 10000 5.1 60 18:20 14.01.2020
807 Clouds 19 1018 83 10000 5.1 60 17:55 14.01.2020
808 Clouds 18 1018 77 10000 6.2 70 17:36 14.01.2020
809 Clouds 20 1018 77 10000 6.2 70 17:18 14.01.2020
810 Clouds 21 1017 64 10000 6.2 80 16:42 14.01.2020
811 Clouds 21 1017 64 10000 6.2 80 16:22 14.01.2020
812 Clouds 22 1017 60 10000 5.1 70 15:56 14.01.2020
813 Clouds 24 1017 64 10000 4.6 50 15:38 14.01.2020
814 Clouds 23 1017 64 10000 4.6 50 15:19 14.01.2020
815 Clouds 23 1017 64 10000 4.6 50 15:18 14.01.2020
816 Clouds 23 1017 60 10000 5.1 30 14:43 14.01.2020
817 Clouds 22 1018 57 10000 4.6 80 14:20 14.01.2020
818 Clouds 21 1018 64 10000 4.1 70 13:55 14.01.2020
819 Clouds 22 1018 64 10000 4.1 70 13:37 14.01.2020
820 Clouds 22 1019 64 10000 4.1 60 13:18 14.01.2020
821 Clouds 22 1019 60 10000 4.1 70 12:41 14.01.2020
822 Clouds 21 1019 64 10000 5.1 50 12:20 14.01.2020
823 Clouds 21 1020 68 10000 4.1 70 11:43 14.01.2020
824 Clouds 21 1020 69 10000 5.7 60 11:23 14.01.2020
825 Clouds 21 1021 73 10000 5.7 50 10:59 14.01.2020
826 Clouds 20 1021 73 10000 6.2 50 10:40 14.01.2020
827 Clouds 20 1021 73 10000 6.2 50 10:20 14.01.2020
828 Clouds 19 1021 77 10000 4.1 360 09:58 14.01.2020
829 Clouds 19 1022 82 10000 4.6 40 09:40 14.01.2020
830 Clouds 19 1022 82 10000 4.6 40 09:20 14.01.2020
831 Clouds 19 1022 88 10000 3.6 30 08:48 14.01.2020
832 Clouds 19 1022 88 10000 3.6 30 08:25 14.01.2020
833 Clouds 18 1022 88 10000 5.1 60 07:53 14.01.2020
834 Clouds 18 1022 100 10000 3.1 30 07:33 14.01.2020
835 Clouds 17 1021 88 10000 4.6 30 06:56 14.01.2020
836 Clouds 15 1021 100 10000 1.5 30 06:34 14.01.2020
837 Clouds 17 1021 100 10000 1.5 350 05:28 14.01.2020
838 Clouds 14 1020 88 10000 1.5 340 03:52 14.01.2020
839 Clouds 14 1020 88 10000 1.5 340 03:52 14.01.2020
840 Clouds 15 1019 100 10000 2.14 27 02:50 14.01.2020
841 Clouds 15 1020 100 7000 3.6 360 01:58 14.01.2020
842 Rain 15 1020 100 7000 4.6 10 00:53 14.01.2020
843 Rain 15 1021 93 8000 4.6 20 00:35 14.01.2020
844 Rain 15 1021 100 2000 3.6 110 23:56 13.01.2020
845 Clouds 16 1021 88 10000 2.6 80 23:37 13.01.2020
846 Clouds 17 1021 88 10000 2.6 80 23:18 13.01.2020
847 Rain 17 1020 93 10000 2.6 330 22:45 13.01.2020
848 Clouds 17 1021 93 10000 2.6 40 22:22 13.01.2020
849 Clouds 17 1020 93 10000 2.32 20 21:58 13.01.2020
850 Clouds 17 1020 93 10000 2.32 20 21:58 13.01.2020
851 Clouds 17 1020 93 10000 2.32 20 21:39 13.01.2020
852 Clouds 18 1022 93 10000 2.1 40 21:19 13.01.2020
853 Clouds 17 1021 82 10000 2.32 20 20:59 13.01.2020
854 Clouds 17 1021 82 10000 2.32 20 20:41 13.01.2020
855 Clouds 18 1021 93 10000 2.6 80 20:22 13.01.2020
856 Clouds 18 1020 82 10000 2.71 47 19:59 13.01.2020
857 Clouds 18 1020 82 10000 2.71 47 19:40 13.01.2020
858 Clouds 18 1021 82 10000 3.1 50 19:20 13.01.2020
859 Clouds 18 1021 82 10000 3.1 50 19:20 13.01.2020
860 Rain 18 1019 82 10000 2.1 50 18:58 13.01.2020
861 Rain 18 1019 82 10000 2.1 50 18:37 13.01.2020
862 Rain 18 1019 82 10000 2.1 50 18:37 13.01.2020
863 Clouds 18 1019 88 10000 3.1 50 18:19 13.01.2020
864 Clouds 18 1018 68 10000 2.71 47 17:55 13.01.2020
865 Clouds 20 1018 64 10000 3.1 60 17:36 13.01.2020
866 Clouds 20 1018 64 10000 3.1 60 17:18 13.01.2020
867 Rain 18 1011 75 0 3.67 36 16:40 13.01.2020
868 Rain 18 1011 75 0 3.67 36 16:40 13.01.2020
869 Rain 18 1011 75 0 3.67 36 16:21 13.01.2020
870 Rain 17 1010 85 0 3.67 36 15:54 13.01.2020
871 Rain 18 1010 81 0 3.67 36 15:36 13.01.2020
872 Rain 19 1010 74 0 3.67 36 15:18 13.01.2020
873 Rain 20 1010 69 0 3.67 36 14:40 13.01.2020
874 Rain 20 1010 74 0 1.18 232 14:22 13.01.2020
875 Rain 19 1010 81 0 1.34 208 13:56 13.01.2020
876 Rain 19 1010 85 0 0.45 208 13:38 13.01.2020
877 Rain 18 1010 86 0 0.75 111 13:20 13.01.2020
878 Rain 18 1010 86 0 0.75 111 13:20 13.01.2020
879 Rain 17 1012 92 0 0.75 111 12:43 13.01.2020
880 Clouds 19 1021 82 10000 5.1 270 12:23 13.01.2020
881 Clouds 19 1021 82 10000 5.1 270 11:59 13.01.2020
882 Clouds 17 1022 88 10000 3.6 220 11:38 13.01.2020
883 Clouds 17 1022 88 10000 3.6 220 11:19 13.01.2020
884 Rain 18 1022 88 10000 2.6 250 10:56 13.01.2020
885 Rain 18 1022 88 10000 2.6 250 10:38 13.01.2020
886 Rain 18 1023 93 10000 3.1 230 10:20 13.01.2020
887 Rain 18 1022 88 10000 3.1 230 09:44 13.01.2020
888 Clouds 17 1024 93 10000 2.1 220 09:26 13.01.2020
889 Rain 17 1023 93 10000 3.6 240 08:59 13.01.2020
890 Rain 17 1023 93 10000 3.6 240 08:38 13.01.2020
891 Rain 16 1024 93 10000 1.5 220 08:19 13.01.2020
892 Rain 15 1023 93 8000 2.6 270 07:45 13.01.2020
893 Rain 15 1024 93 10000 1.5 260 07:27 13.01.2020
894 Rain 15 1022 100 8000 1.35 251 06:39 13.01.2020
895 Rain 15 1022 93 10000 1.5 310 05:57 13.01.2020
896 Rain 14 1022 100 10000 1.5 200 05:19 13.01.2020
897 Rain 14 1021 93 10000 2.1 340 03:46 13.01.2020
898 Clouds 14 1021 88 10000 7.2 290 02:51 13.01.2020
899 Clouds 15 1021 88 10000 5.1 270 02:31 13.01.2020
900 Clouds 15 1021 93 10000 3.1 230 01:33 13.01.2020
901 Clouds 15 1021 93 10000 2.1 250 00:59 13.01.2020
902 Clouds 15 1021 93 10000 2.6 220 00:37 13.01.2020
903 Clouds 15 1021 93 10000 2.6 220 00:18 13.01.2020
904 Rain 15 1022 93 10000 5.7 260 23:41 12.01.2020
905 Rain 15 1022 93 10000 5.7 260 23:22 12.01.2020
906 Rain 15 1023 93 10000 2.1 230 22:57 12.01.2020
907 Rain 15 1023 93 10000 2.1 230 22:39 12.01.2020
908 Rain 15 1023 93 10000 5.1 270 22:20 12.01.2020
909 Rain 15 1022 93 10000 5.1 260 21:55 12.01.2020
910 Rain 15 1022 93 10000 5.1 260 21:37 12.01.2020
911 Rain 14 1022 100 3000 4.6 250 21:19 12.01.2020
912 Rain 15 1022 100 1000 5.1 270 20:55 12.01.2020
913 Rain 14 1022 100 1000 5.1 270 20:37 12.01.2020
914 Rain 15 1022 93 2000 3.1 260 20:19 12.01.2020
915 Rain 15 1021 93 10000 4.6 280 19:54 12.01.2020
916 Clouds 17 1021 77 10000 4.6 270 19:36 12.01.2020
917 Clouds 17 1021 77 10000 4.6 270 19:18 12.01.2020
918 Clouds 17 1021 68 10000 1.5 170 18:56 12.01.2020
919 Clouds 17 1021 68 10000 1.5 170 18:38 12.01.2020
920 Clouds 18 1020 64 10000 3.6 180 18:19 12.01.2020
921 Clouds 19 1019 53 10000 5.1 90 17:42 12.01.2020
922 Clouds 19 1019 53 10000 5.1 90 17:21 12.01.2020
923 Clouds 20 1018 50 10000 4.1 70 16:58 12.01.2020
924 Clouds 21 1018 50 10000 1.5 100 16:39 12.01.2020
925 Clouds 21 1018 50 10000 1.5 100 16:20 12.01.2020
926 Clouds 22 1018 54 10000 4.1 250 15:55 12.01.2020
927 Clouds 22 1018 54 10000 5.7 240 15:37 12.01.2020
928 Clouds 21 1018 54 10000 4.1 250 15:37 12.01.2020
929 Clouds 22 1018 54 10000 5.7 240 15:19 12.01.2020
930 Clouds 21 1018 42 10000 3.1 90 14:42 12.01.2020
931 Clouds 21 1018 42 10000 3.1 90 14:23 12.01.2020
932 Clouds 22 1018 44 10000 3.6 160 13:57 12.01.2020
933 Clouds 22 1018 44 10000 3.6 160 13:39 12.01.2020
934 Clouds 23 1019 47 10000 2.1 30 13:20 12.01.2020
935 Clouds 23 1019 57 10000 3.1 180 12:56 12.01.2020
936 Clouds 23 1019 57 10000 3.1 180 12:37 12.01.2020
937 Clouds 22 1020 47 10000 3.1 110 12:18 12.01.2020
938 Rain 19 1012 79 0 0.89 215 11:42 12.01.2020
939 Clouds 23 1021 57 10000 4.1 170 11:22 12.01.2020
940 Clouds 23 1021 57 10000 4.1 170 10:56 12.01.2020
941 Clouds 23 1022 57 10000 2.6 230 10:37 12.01.2020
942 Clouds 23 1022 57 10000 2.6 230 10:19 12.01.2020
943 Clouds 24 1022 60 10000 2.6 220 09:42 12.01.2020
944 Clouds 22 1023 68 10000 2.1 170 09:23 12.01.2020
945 Clouds 22 1023 68 10000 1.5 150 08:48 12.01.2020
946 Clouds 19 1023 77 10000 3.1 220 08:24 12.01.2020
947 Clouds 19 1022 77 10000 2.16 355 07:49 12.01.2020
948 Clouds 18 1023 88 10000 2.1 220 07:30 12.01.2020
949 Clouds 17 1022 88 10000 2.16 355 06:59 12.01.2020
950 Clouds 17 1022 88 10000 2.16 355 06:59 12.01.2020
951 Clouds 17 1022 88 10000 2.16 355 06:59 12.01.2020
952 Clouds 18 1022 93 10000 1.5 230 06:36 12.01.2020
953 Clouds 17 1021 93 10000 2.16 355 05:52 12.01.2020
954 Clouds 15 1021 88 10000 1 0 04:56 12.01.2020
955 Clouds 15 1021 88 10000 1 250 03:43 12.01.2020
956 Clouds 15 1021 93 10000 2.6 350 02:46 12.01.2020
957 Clouds 16 1021 93 10000 2.6 10 02:24 12.01.2020
958 Clouds 16 1021 88 10000 2.6 350 01:34 12.01.2020
959 Clouds 16 1021 88 10000 1.5 340 00:46 12.01.2020
960 Clouds 16 1021 88 10000 2.1 20 00:22 12.01.2020
961 Clouds 16 1021 88 10000 2.1 20 00:22 12.01.2020
962 Clouds 16 1022 88 10000 2.6 360 23:57 11.01.2020
963 Clouds 16 1022 88 10000 2.1 30 23:39 11.01.2020
964 Clouds 16 1022 88 10000 2.1 30 23:18 11.01.2020
965 Clouds 17 1022 82 10000 2.6 30 22:56 11.01.2020
966 Clouds 17 1022 82 10000 2.6 30 22:37 11.01.2020
967 Clouds 17 1022 82 10000 3.1 30 22:19 11.01.2020
968 Clouds 17 1022 77 10000 3.1 20 21:44 11.01.2020
969 Clouds 18 1022 72 10000 3.1 20 21:19 11.01.2020
970 Clouds 18 1021 72 10000 1.62 1 20:57 11.01.2020
971 Clouds 18 1021 72 10000 1.62 1 20:39 11.01.2020
972 Clouds 17 1021 72 10000 3.1 30 20:19 11.01.2020
973 Clouds 18 1021 68 10000 3.6 30 19:57 11.01.2020
974 Clouds 18 1021 77 10000 3.6 30 19:38 11.01.2020
975 Clouds 20 1021 77 10000 3.6 30 19:38 11.01.2020
976 Clouds 20 1021 77 10000 3.6 30 19:20 11.01.2020
977 Clouds 20 1019 53 10000 2.6 40 18:55 11.01.2020
978 Clouds 21 1019 68 10000 5.1 50 18:37 11.01.2020
979 Clouds 21 1019 68 10000 5.1 50 18:18 11.01.2020
980 Clouds 21 1018 50 10000 3.6 60 17:57 11.01.2020
981 Clouds 21 1018 50 10000 3.6 60 17:57 11.01.2020
982 Clouds 21 1018 50 10000 3.6 60 17:39 11.01.2020
983 Clouds 22 1019 53 10000 5.7 70 17:18 11.01.2020
984 Clouds 25 1018 39 10000 5.7 70 16:44 11.01.2020
985 Clouds 25 1018 39 10000 5.7 70 16:24 11.01.2020
986 Clouds 26 1017 44 10000 5.1 90 15:56 11.01.2020
987 Clouds 20 1017 36 10000 5.7 80 15:38 11.01.2020
988 Clouds 20 1017 36 10000 5.7 80 15:20 11.01.2020
989 Clouds 20 1017 39 10000 5.1 100 14:46 11.01.2020
990 Clouds 27 1018 36 10000 4.6 90 14:25 11.01.2020
991 Clouds 26 1018 44 10000 5.7 100 13:57 11.01.2020
992 Clouds 27 1018 42 10000 3.6 70 13:38 11.01.2020
993 Clouds 27 1018 42 10000 3.6 70 13:20 11.01.2020
994 Clouds 26 1019 50 10000 3.1 80 12:56 11.01.2020
995 Clouds 26 1019 50 10000 3.1 80 12:37 11.01.2020
996 Clouds 25 1020 47 10000 3.6 0 12:19 11.01.2020
997 Clouds 23 1019 50 10000 4.1 60 11:42 11.01.2020
998 Clouds 23 1021 53 10000 2.6 0 11:24 11.01.2020
999 Clouds 23 1020 57 10000 3.3 12 10:47 11.01.2020
1000 Clouds 23 1020 57 10000 3.3 12 10:47 11.01.2020
1001 Clouds 22 1021 60 10000 2.6 0 10:25 11.01.2020
1002 Clouds 23 1021 73 10000 2.1 180 09:44 11.01.2020
1003 Clouds 21 1022 68 10000 2.1 60 09:21 11.01.2020
1004 Clouds 21 1022 73 10000 2.6 20 08:59 11.01.2020
1005 Clouds 20 1022 82 10000 1 0 08:40 11.01.2020
1006 Clouds 19 1022 82 10000 1 0 08:19 11.01.2020
1007 Clouds 19 1022 77 10000 4.1 270 07:43 11.01.2020
1008 Clouds 17 1022 93 8000 1.5 170 07:24 11.01.2020
1009 Clouds 17 1021 88 10000 3.1 290 06:43 11.01.2020
1010 Fog 17 1021 100 400 0.5 290 05:30 11.01.2020
1011 Clouds 14 1021 93 10000 1 320 04:42 11.01.2020
1012 Clouds 14 1021 93 10000 1.5 310 04:24 11.01.2020
1013 Clouds 15 1021 93 10000 1 0 02:48 11.01.2020
1014 Clouds 16 1020 93 10000 2.29 28 01:47 11.01.2020
1015 Mist 16 1021 93 4000 1.5 60 01:28 11.01.2020
1016 Clouds 16 1021 93 10000 2.1 70 00:54 11.01.2020
1017 Clouds 16 1021 93 10000 3.1 80 00:29 11.01.2020
1018 Clouds 16 1021 88 10000 3.6 80 23:59 10.01.2020
1019 Clouds 17 1022 88 10000 3.1 90 23:39 10.01.2020
1020 Clouds 16 1022 88 10000 3.1 90 23:20 10.01.2020
1021 Clouds 17 1022 88 10000 2.1 50 22:54 10.01.2020
1022 Clouds 17 1022 88 10000 3.1 40 22:36 10.01.2020
1023 Clouds 17 1022 88 10000 3.1 40 22:18 10.01.2020
1024 Clouds 17 1022 88 10000 3.1 60 21:41 10.01.2020
1025 Clouds 18 1022 88 10000 3.6 60 21:21 10.01.2020
1026 Clouds 18 1021 77 10000 4.1 70 20:59 10.01.2020
1027 Clouds 18 1021 77 10000 4.1 70 20:40 10.01.2020
1028 Clouds 19 1021 77 10000 5.7 50 20:22 10.01.2020
1029 Clouds 19 1020 73 10000 5.1 60 19:41 10.01.2020
1030 Clouds 19 1020 77 10000 4.1 50 19:21 10.01.2020
1031 Clouds 20 1019 64 10000 5.1 60 18:58 10.01.2020
1032 Clouds 19 1019 64 10000 5.1 60 18:40 10.01.2020
1033 Clouds 20 1019 77 10000 5.1 60 18:18 10.01.2020
1034 Clouds 20 1018 60 10000 5.1 60 17:56 10.01.2020
1035 Clouds 20 1018 60 10000 4.6 40 17:38 10.01.2020
1036 Clouds 22 1018 60 10000 4.6 40 17:20 10.01.2020
1037 Clouds 22 1017 50 10000 5.1 30 16:55 10.01.2020
1038 Clouds 22 1018 47 10000 6.7 50 16:36 10.01.2020
1039 Clouds 23 1018 47 10000 6.7 50 16:18 10.01.2020
1040 Clouds 23 1017 47 10000 6.2 60 15:55 10.01.2020
1041 Clouds 22 1017 47 10000 6.2 60 15:36 10.01.2020
1042 Clouds 24 1017 47 10000 6.2 60 15:18 10.01.2020
1043 Clouds 24 1017 47 10000 6.2 60 15:18 10.01.2020
1044 Clouds 24 1018 47 10000 4.1 70 14:42 10.01.2020
1045 Clouds 24 1018 47 10000 4.1 70 14:20 10.01.2020
1046 Clouds 26 1018 41 10000 4.1 60 13:59 10.01.2020
1047 Clouds 26 1018 41 10000 4.1 60 13:41 10.01.2020
1048 Clouds 24 1019 47 10000 4.1 70 13:23 10.01.2020
1049 Clouds 24 1019 50 10000 5.1 90 12:58 10.01.2020
1050 Clouds 24 1019 50 10000 5.1 90 12:38 10.01.2020
1051 Clouds 24 1020 54 10000 4.1 70 12:19 10.01.2020
1052 Clouds 24 1021 50 10000 4.6 70 11:55 10.01.2020
1053 Clouds 24 1021 50 10000 4.6 70 11:37 10.01.2020
1054 Clouds 23 1021 60 10000 3.1 40 11:18 10.01.2020
1055 Clouds 23 1022 60 10000 2.1 0 10:42 10.01.2020
1056 Clouds 22 1022 60 10000 2.1 0 10:24 10.01.2020
1057 Clouds 22 1021 60 10000 2.1 50 09:56 10.01.2020
1058 Clouds 21 1023 68 10000 3.6 30 09:38 10.01.2020
1059 Clouds 21 1023 68 10000 3.6 30 09:20 10.01.2020
1060 Clouds 21 1022 73 10000 2.6 30 08:42 10.01.2020
1061 Clouds 20 1023 82 10000 3.1 40 08:23 10.01.2020
1062 Clouds 20 1023 82 10000 3.1 40 08:23 10.01.2020
1063 Clouds 19 1021 77 10000 2.92 16 07:46 10.01.2020
1064 Clouds 19 1022 88 10000 3.1 30 07:26 10.01.2020
1065 Clouds 18 1021 88 10000 2.92 16 06:46 10.01.2020
1066 Clouds 17 1022 93 10000 1.5 20 06:26 10.01.2020
1067 Clouds 16 1020 93 10000 2.92 16 05:51 10.01.2020
1068 Clouds 15 1020 93 10000 1.5 40 03:45 10.01.2020
1069 Clouds 15 1020 93 10000 1 0 03:22 10.01.2020
1070 Clouds 15 1020 93 10000 1.5 290 02:49 10.01.2020
1071 Clouds 16 1019 88 10000 2.52 38 01:47 10.01.2020
1072 Clouds 17 1021 93 10000 1.5 40 01:28 10.01.2020
1073 Clouds 16 1021 93 10000 1.5 40 00:44 10.01.2020
1074 Clouds 16 1021 93 10000 1.5 40 23:58 09.01.2020
1075 Clouds 16 1021 93 10000 1.5 20 23:39 09.01.2020
1076 Clouds 16 1021 93 10000 1.5 20 23:20 09.01.2020
1077 Clouds 16 1021 93 10000 1.5 30 22:57 09.01.2020
1078 Clouds 16 1021 93 10000 1.5 30 22:39 09.01.2020
1079 Clouds 18 1022 88 10000 2.1 30 22:19 09.01.2020
1080 Clouds 18 1022 88 10000 2.1 30 22:19 09.01.2020
1081 Clouds 18 1022 88 10000 2.1 30 22:19 09.01.2020
1082 Clouds 18 1021 88 10000 3.23 41 21:57 09.01.2020
1083 Clouds 18 1021 88 10000 3.23 41 21:38 09.01.2020
1084 Clouds 18 1021 88 10000 3.1 20 21:19 09.01.2020
1085 Clouds 18 1020 88 10000 3.23 41 20:58 09.01.2020
1086 Clouds 18 1020 88 10000 3.23 41 20:39 09.01.2020
1087 Clouds 18 1020 88 10000 3.23 41 20:39 09.01.2020
1088 Clouds 18 1020 88 10000 3.47 30 20:20 09.01.2020
1089 Clouds 18 1021 88 10000 2.6 50 19:58 09.01.2020
1090 Clouds 18 1019 82 10000 3.47 30 19:38 09.01.2020
1091 Clouds 18 1019 82 10000 3.47 30 19:19 09.01.2020
1092 Clouds 18 1019 77 10000 3.1 50 18:55 09.01.2020
1093 Clouds 19 1019 77 10000 3.1 50 18:55 09.01.2020
1094 Clouds 18 1019 77 10000 4.6 50 18:37 09.01.2020
1095 Clouds 19 1019 77 10000 4.6 50 18:19 09.01.2020
1096 Clouds 20 1018 68 10000 4.1 60 17:41 09.01.2020
1097 Clouds 21 1019 68 10000 6.2 60 17:18 09.01.2020
1098 Clouds 21 1019 68 10000 6.2 60 16:55 09.01.2020
1099 Clouds 21 1017 60 10000 6.7 60 16:36 09.01.2020
1100 Clouds 21 1017 60 10000 6.7 60 16:18 09.01.2020
1101 Clouds 23 1017 57 10000 6.2 40 15:41 09.01.2020
1102 Clouds 23 1017 57 10000 6.2 40 15:19 09.01.2020
1103 Clouds 23 1017 57 10000 5.7 60 14:55 09.01.2020
1104 Clouds 23 1017 60 10000 7.7 60 14:36 09.01.2020
1105 Clouds 23 1017 60 10000 7.7 60 14:36 09.01.2020
1106 Clouds 24 1018 53 10000 6.2 70 14:18 09.01.2020
1107 Clouds 24 1018 53 10000 6.2 70 13:54 09.01.2020
1108 Clouds 24 1018 53 10000 6.2 70 13:36 09.01.2020
1109 Clouds 23 1019 57 10000 4.1 50 13:18 09.01.2020
1110 Clouds 23 1020 60 10000 3.6 50 12:41 09.01.2020
1111 Clouds 23 1020 60 10000 3.6 50 12:22 09.01.2020
1112 Clouds 22 1020 60 10000 3.6 50 11:58 09.01.2020
1113 Clouds 22 1021 64 10000 4.1 50 11:40 09.01.2020
1114 Clouds 22 1021 64 10000 4.1 50 11:22 09.01.2020
1115 Clouds 19 1021 88 10000 2.6 90 10:44 09.01.2020
1116 Clouds 19 1021 88 10000 2.6 90 10:23 09.01.2020
1117 Clouds 19 1023 93 10000 2.1 10 09:59 09.01.2020
1118 Rain 18 1021 93 9000 4.32 29 09:40 09.01.2020
1119 Rain 18 1021 93 9000 4.32 29 09:21 09.01.2020
1120 Rain 18 1023 93 10000 2.6 10 08:55 09.01.2020
1121 Rain 18 1022 88 9000 4.1 80 08:37 09.01.2020
1122 Rain 18 1022 88 9000 4.1 80 08:19 09.01.2020
1123 Clouds 17 1022 88 8000 2.6 50 07:42 09.01.2020
1124 Clouds 18 1022 88 8000 2.6 50 07:24 09.01.2020
1125 Clouds 17 1021 93 10000 2.6 30 06:39 09.01.2020
1126 Clouds 17 1021 93 10000 2.6 30 06:20 09.01.2020
1127 Clouds 16 1022 93 10000 1 20 05:50 09.01.2020
1128 Clouds 16 1022 93 10000 1 20 05:50 09.01.2020
1129 Clouds 13 1021 93 10000 2.16 57 04:44 09.01.2020
1130 Clouds 14 1021 100 10000 1 20 03:54 09.01.2020
1131 Clouds 15 1021 93 10000 2.1 40 02:54 09.01.2020
1132 Clouds 15 1020 93 10000 3.1 30 02:28 09.01.2020
1133 Clouds 14 1021 93 10000 2.1 50 01:39 09.01.2020
1134 Clouds 15 1021 93 10000 1.5 40 00:43 09.01.2020
1135 Clouds 16 1021 88 10000 1.5 10 00:21 09.01.2020
1136 Clouds 17 1021 88 10000 1.5 10 23:55 08.01.2020
1137 Clouds 16 1022 93 10000 2.1 10 23:37 08.01.2020
1138 Clouds 15 1022 93 10000 2.1 10 23:18 08.01.2020
1139 Clouds 17 1022 88 10000 2.6 350 22:39 08.01.2020
1140 Clouds 17 1022 88 10000 2.6 350 22:21 08.01.2020
1141 Clouds 17 1022 93 10000 2.6 340 21:58 08.01.2020
1142 Clouds 16 1022 88 10000 3.1 360 21:39 08.01.2020
1143 Clouds 16 1022 88 10000 3.1 360 21:20 08.01.2020
1144 Clouds 17 1022 93 10000 2.6 10 20:58 08.01.2020
1145 Clouds 16 1022 88 10000 2.6 20 20:40 08.01.2020
1146 Clouds 16 1022 88 10000 2.6 20 20:20 08.01.2020
1147 Clouds 16 1022 88 10000 3.6 50 19:56 08.01.2020
1148 Clouds 18 1021 88 10000 4.6 60 19:37 08.01.2020
1149 Clouds 16 1021 88 10000 3.6 70 19:19 08.01.2020
1150 Clouds 16 1021 88 10000 3.6 70 18:56 08.01.2020
1151 Clouds 17 1021 77 10000 4.6 60 18:37 08.01.2020
1152 Clouds 18 1021 77 10000 4.6 60 18:18 08.01.2020
1153 Clouds 19 1019 64 10000 5.1 60 17:55 08.01.2020
1154 Clouds 19 1019 64 10000 5.1 60 17:36 08.01.2020
1155 Clouds 19 1020 64 10000 5.1 40 17:18 08.01.2020
1156 Clouds 20 1020 64 10000 5.1 40 16:54 08.01.2020
1157 Clouds 19 1020 56 10000 6.2 40 16:36 08.01.2020
1158 Clouds 20 1019 60 10000 5.7 50 16:18 08.01.2020
1159 Clouds 20 1019 56 10000 5.7 50 15:40 08.01.2020
1160 Clouds 21 1019 56 10000 5.7 50 15:20 08.01.2020
1161 Clouds 21 1019 60 10000 5.1 60 14:56 08.01.2020
1162 Clouds 21 1019 56 10000 5.1 60 14:38 08.01.2020
1163 Clouds 21 1019 56 10000 5.1 60 14:19 08.01.2020
1164 Clouds 20 1020 64 10000 6.2 60 13:40 08.01.2020
1165 Clouds 21 1020 64 10000 6.2 60 13:19 08.01.2020
1166 Clouds 19 1021 88 10000 4.6 40 12:42 08.01.2020
1167 Clouds 19 1021 88 10000 4.6 40 12:19 08.01.2020
1168 Clouds 19 1021 88 10000 4.6 40 11:55 08.01.2020
1169 Clouds 19 1021 88 10000 4.6 40 11:55 08.01.2020
1170 Rain 18 1021 88 8000 5.1 60 11:37 08.01.2020
1171 Rain 17 1021 88 8000 5.1 60 11:19 08.01.2020
1172 Rain 18 1023 93 4000 8.7 40 10:55 08.01.2020
1173 Rain 19 1022 88 10000 6.2 30 10:37 08.01.2020
1174 Rain 19 1022 88 10000 6.2 30 10:18 08.01.2020
1175 Clouds 19 1023 77 10000 7.2 70 09:41 08.01.2020
1176 Clouds 19 1023 77 10000 7.2 70 09:19 08.01.2020
1177 Clouds 19 1023 82 10000 7.7 60 08:56 08.01.2020
1178 Rain 18 1023 88 10000 5.1 70 08:37 08.01.2020
1179 Rain 18 1023 88 10000 5.1 70 08:19 08.01.2020
1180 Clouds 17 1022 93 10000 5.1 80 07:48 08.01.2020
1181 Clouds 17 1022 93 10000 5.1 80 07:29 08.01.2020
1182 Rain 16 1021 93 8000 2.6 40 06:45 08.01.2020
1183 Rain 16 1022 93 7000 4.1 20 06:19 08.01.2020
1184 Clouds 15 1021 93 10000 2.6 40 05:41 08.01.2020
1185 Clouds 15 1021 93 10000 2.6 50 04:56 08.01.2020
1186 Clouds 15 1021 93 10000 2.6 50 04:24 08.01.2020
1187 Clouds 15 1021 93 10000 2.6 90 02:45 08.01.2020
1188 Clouds 16 1020 93 10000 2.1 50 02:21 08.01.2020
1189 Clouds 16 1020 93 10000 3.6 90 01:42 08.01.2020
1190 Clouds 15 1020 93 10000 2.1 100 00:59 08.01.2020
1191 Clouds 15 1021 82 10000 2.6 90 00:27 08.01.2020
1192 Clouds 15 1021 88 10000 3.1 60 23:55 07.01.2020
1193 Clouds 16 1021 93 10000 2.6 60 23:37 07.01.2020
1194 Clouds 17 1021 93 10000 2.6 60 23:19 07.01.2020
1195 Clouds 16 1022 93 10000 3.6 40 22:40 07.01.2020
1196 Clouds 16 1022 93 10000 4.1 80 22:20 07.01.2020
1197 Clouds 16 1022 93 10000 3.6 70 21:55 07.01.2020
1198 Clouds 16 1022 93 10000 3.6 70 21:37 07.01.2020
1199 Clouds 16 1022 93 10000 3.6 70 21:19 07.01.2020
1200 Clouds 17 1022 93 10000 4.1 70 20:55 07.01.2020
1201 Clouds 16 1022 93 10000 4.1 60 20:36 07.01.2020
1202 Clouds 16 1022 93 10000 4.1 60 20:36 07.01.2020
1203 Clouds 18 1022 93 10000 4.1 60 20:18 07.01.2020
1204 Clouds 17 1022 88 10000 3.6 60 19:38 07.01.2020
1205 Clouds 17 1022 88 10000 3.6 60 19:19 07.01.2020
1206 -273 0 0 0 0 0 18:58 07.01.2020
1207 Clouds 18 1021 88 10000 4.6 70 18:58 07.01.2020
1208 Clouds 18 1021 88 10000 3.6 60 18:40 07.01.2020
1209 Clouds 18 1020 88 10000 4.6 80 18:18 07.01.2020
1210 Clouds 18 1020 88 10000 4.6 80 17:58 07.01.2020
1211 Clouds 18 1019 82 10000 4.6 90 17:39 07.01.2020
1212 Clouds 20 1019 82 10000 4.6 90 17:20 07.01.2020
1213 Clouds 20 1019 77 10000 6.2 80 16:56 07.01.2020
1214 Clouds 21 1018 64 10000 5.7 80 16:37 07.01.2020
1215 Clouds 21 1019 64 10000 6.7 80 16:18 07.01.2020
1216 Clouds 21 1019 64 10000 6.7 80 15:55 07.01.2020
1217 Clouds 21 1018 69 10000 6.7 100 15:36 07.01.2020
1218 Clouds 21 1018 69 10000 6.7 100 15:18 07.01.2020
1219 Clouds 21 1019 69 10000 7.2 70 14:42 07.01.2020
1220 Clouds 21 1019 69 10000 7.2 70 14:23 07.01.2020
1221 Clouds 21 1019 69 10000 6.7 70 13:56 07.01.2020
1222 Clouds 21 1019 69 10000 6.7 70 13:56 07.01.2020
1223 Clouds 21 1019 77 10000 7.2 90 13:37 07.01.2020
1224 Clouds 21 1019 77 10000 7.2 90 13:18 07.01.2020
1225 Clouds 21 1020 83 10000 7.2 90 12:40 07.01.2020
1226 Clouds 21 1020 83 10000 7.2 90 12:40 07.01.2020
1227 Clouds 22 1020 83 10000 7.2 90 12:19 07.01.2020
1228 Clouds 23 1021 64 10000 6.7 70 11:43 07.01.2020
1229 Clouds 22 1021 64 10000 6.7 70 11:23 07.01.2020
1230 Clouds 22 1021 64 10000 6.2 50 10:58 07.01.2020
1231 Clouds 22 1021 64 10000 5.1 60 10:40 07.01.2020
1232 Clouds 22 1021 64 10000 5.1 60 10:22 07.01.2020
1233 Clouds 22 1022 64 10000 6.2 60 09:56 07.01.2020
1234 Clouds 23 1021 64 10000 9.3 30 09:37 07.01.2020
1235 Clouds 23 1021 64 10000 9.3 30 09:19 07.01.2020
1236 Clouds 22 1022 68 10000 6.2 50 08:41 07.01.2020
1237 Clouds 22 1022 68 10000 6.2 50 08:41 07.01.2020
1238 Clouds 20 1022 68 10000 6.2 50 08:20 07.01.2020
1239 Clouds 20 1022 69 10000 6.2 80 07:49 07.01.2020
1240 Clouds 19 1022 88 10000 7.7 60 07:25 07.01.2020
1241 Clouds 18 1022 93 10000 2.6 70 06:52 07.01.2020
1242 Clouds 18 1022 93 10000 2.6 70 06:32 07.01.2020
1243 Clouds 16 1022 93 10000 3.6 80 05:42 07.01.2020
1244 Clouds 15 1021 93 10000 2.6 80 03:52 07.01.2020
1245 Clouds 15 1021 100 10000 2.6 80 03:25 07.01.2020
1246 Clouds 16 1020 93 10000 2.6 40 02:20 07.01.2020
1247 Clouds 16 1020 93 10000 2.6 30 01:40 07.01.2020
1248 Clouds 16 1020 93 10000 1.5 60 01:18 07.01.2020
1249 Clouds 15 1021 93 10000 2.1 70 00:21 07.01.2020
1250 Clouds 16 1021 93 10000 2.1 40 23:58 06.01.2020
1251 Clouds 16 1021 93 10000 2.6 50 23:39 06.01.2020
1252 Clouds 16 1021 93 10000 2.6 50 23:21 06.01.2020
1253 Clouds 17 1022 93 10000 1.5 40 22:56 06.01.2020
1254 Clouds 17 1022 88 10000 1.5 50 22:37 06.01.2020
1255 Clouds 17 1022 88 10000 1.5 50 22:19 06.01.2020
1256 Clouds 17 1022 88 10000 3.1 70 21:54 06.01.2020
1257 Clouds 17 1022 88 10000 4.1 50 21:36 06.01.2020
1258 Clouds 17 1022 88 10000 4.1 50 21:36 06.01.2020
1259 Clouds 18 1022 88 10000 4.1 50 21:18 06.01.2020
1260 Clouds 18 1022 88 10000 5.1 60 20:54 06.01.2020
1261 Clouds 18 1022 88 10000 5.1 60 20:54 06.01.2020
1262 Clouds 19 1021 82 10000 5.1 60 20:36 06.01.2020
1263 Clouds 19 1021 83 10000 5.1 60 20:18 06.01.2020
1264 Clouds 19 1021 83 10000 5.1 60 19:55 06.01.2020
1265 Clouds 18 1021 77 10000 4.6 70 19:36 06.01.2020
1266 Clouds 20 1021 77 10000 4.6 70 19:18 06.01.2020
1267 Clouds 20 1019 68 10000 5.1 60 18:43 06.01.2020
1268 Clouds 20 1019 68 10000 5.1 60 18:20 06.01.2020
1269 Clouds 20 1018 64 10000 7.7 30 17:39 06.01.2020
1270 Clouds 22 1018 57 10000 6.7 40 17:20 06.01.2020
1271 Clouds 22 1018 57 10000 6.7 40 16:57 06.01.2020
1272 Clouds 21 1018 53 10000 6.2 50 16:38 06.01.2020
1273 Clouds 23 1018 50 10000 5.7 40 16:19 06.01.2020
1274 Clouds 23 1017 44 10000 5.1 60 15:44 06.01.2020
1275 Clouds 24 1017 44 10000 5.1 60 15:22 06.01.2020
1276 Clouds 24 1017 47 10000 4.6 50 14:59 06.01.2020
1277 Clouds 25 1017 44 10000 6.2 60 14:41 06.01.2020
1278 Clouds 23 1018 47 10000 6.2 90 14:22 06.01.2020
1279 Clouds 24 1018 47 10000 6.2 90 13:59 06.01.2020
1280 Clouds 24 1018 47 10000 6.2 90 13:59 06.01.2020
1281 Clouds 24 1018 47 10000 6.2 90 13:39 06.01.2020
1282 Clouds 24 1018 47 10000 6.2 90 13:20 06.01.2020
1283 Clouds 25 1018 50 10000 4.1 50 12:55 06.01.2020
1284 Clouds 24 1018 47 10000 3.6 30 12:37 06.01.2020
1285 Clouds 24 1020 53 10000 4.1 30 12:18 06.01.2020
1286 Clouds 23 1020 53 10000 4.6 40 11:41 06.01.2020
1287 Clouds 23 1021 60 10000 4.6 30 11:23 06.01.2020
1288 Clouds 23 1021 60 10000 4.6 30 10:59 06.01.2020
1289 Clouds 23 1020 60 10000 5.1 20 10:40 06.01.2020
1290 Clouds 22 1020 60 10000 5.1 20 10:20 06.01.2020
1291 Clouds 23 1021 60 10000 3.6 10 09:39 06.01.2020
1292 Clouds 23 1021 60 10000 3.6 10 09:20 06.01.2020
1293 Clouds 22 1022 73 10000 5.1 40 08:52 06.01.2020
1294 Clouds 22 1021 68 10000 4.1 40 08:34 06.01.2020
1295 Clouds 20 1022 73 10000 5.1 40 07:57 06.01.2020
1296 Clouds 19 1021 82 10000 5.1 360 07:37 06.01.2020
1297 Clouds 18 1021 88 10000 3.6 30 06:49 06.01.2020
1298 Clouds 18 1021 88 10000 3.6 30 06:30 06.01.2020
1299 Clouds 18 1021 88 10000 2.1 20 05:48 06.01.2020
1300 Clouds 17 1021 93 10000 2.6 30 04:55 06.01.2020
1301 Clouds 16 1020 93 10000 1.5 20 04:21 06.01.2020
1302 Clouds 17 1020 93 10000 1.5 20 03:26 06.01.2020
1303 Clouds 17 1020 82 10000 1.91 36 02:26 06.01.2020
1304 Clouds 17 1020 88 10000 2.1 10 01:49 06.01.2020
1305 Clouds 17 1020 88 10000 2.1 10 01:29 06.01.2020
1306 Clouds 17 1020 88 10000 2.1 20 00:44 06.01.2020
1307 Clouds 17 1020 88 10000 2.1 20 00:24 06.01.2020
1308 Clouds 17 1021 82 10000 2.1 40 23:57 05.01.2020
1309 Clouds 17 1021 82 10000 2.1 40 23:37 05.01.2020
1310 Clouds 18 1021 82 10000 2.1 40 23:19 05.01.2020
1311 Clouds 18 1021 77 10000 3.1 60 22:40 05.01.2020
1312 Clouds 18 1021 77 10000 3.1 60 22:40 05.01.2020
1313 Clouds 18 1021 77 10000 3.1 60 22:20 05.01.2020
1314 Clouds 18 1022 82 10000 2.1 20 21:56 05.01.2020
1315 Clouds 18 1021 77 10000 3.1 40 21:38 05.01.2020
1316 Clouds 18 1021 77 10000 3.1 40 21:20 05.01.2020
1317 Clouds 18 1021 77 10000 2.6 30 20:56 05.01.2020
1318 Clouds 18 1020 72 10000 3.6 40 20:38 05.01.2020
1319 Clouds 18 1020 72 10000 3.6 40 20:19 05.01.2020
1320 Clouds 19 1020 77 10000 2.1 10 19:58 05.01.2020
1321 -273 0 0 0 0 0 19:38 05.01.2020
1322 Clouds 19 1020 73 10000 4.1 40 19:19 05.01.2020
1323 Clouds 19 1020 73 10000 4.1 40 18:55 05.01.2020
1324 Clouds 20 1018 60 10000 4.6 40 18:37 05.01.2020
1325 Clouds 20 1018 60 10000 4.6 40 18:37 05.01.2020
1326 Clouds 20 1018 60 10000 4.6 40 18:19 05.01.2020
1327 Clouds 20 1019 60 10000 4.1 50 17:57 05.01.2020
1328 Clouds 21 1018 56 10000 5.7 60 17:38 05.01.2020
1329 Clouds 21 1018 56 10000 5.7 60 17:19 05.01.2020
1330 Clouds 20 1019 53 10000 5.1 80 16:55 05.01.2020
1331 Clouds 20 1018 53 10000 6.2 70 16:37 05.01.2020
1332 Clouds 23 1018 53 10000 6.2 70 16:19 05.01.2020
1333 Clouds 21 1018 47 10000 7.2 80 15:37 05.01.2020
1334 Clouds 21 1018 47 10000 7.2 80 15:19 05.01.2020
1335 Clouds 26 1017 47 10000 6.7 80 14:55 05.01.2020
1336 Clouds 21 1017 44 10000 5.1 70 14:37 05.01.2020
1337 Clouds 26 1017 44 10000 5.1 70 14:18 05.01.2020
1338 Clouds 27 1018 44 10000 3.6 60 13:54 05.01.2020
1339 Clouds 27 1018 44 10000 3.6 60 13:36 05.01.2020
1340 Clouds 24 1018 44 10000 3.6 60 13:18 05.01.2020
1341 Clouds 24 1018 44 10000 5.7 70 12:55 05.01.2020
1342 Clouds 26 1018 44 10000 5.7 70 12:36 05.01.2020
1343 Clouds 26 1018 44 10000 5.7 70 12:36 05.01.2020
1344 Clouds 26 1018 44 10000 5.7 70 12:18 05.01.2020
1345 Clouds 25 1019 50 10000 5.1 30 11:43 05.01.2020
1346 Clouds 25 1019 50 10000 5.1 30 11:43 05.01.2020
1347 Clouds 25 1019 50 10000 5.1 30 11:43 05.01.2020
1348 Clouds 25 1019 50 10000 5.1 30 11:43 05.01.2020
1349 Clouds 25 1019 50 10000 5.1 30 11:43 05.01.2020
1350 Clouds 25 1019 50 10000 5.1 30 11:19 05.01.2020
1351 Clouds 24 1020 57 10000 4.6 80 10:58 05.01.2020
1352 Clouds 24 1020 57 10000 4.6 80 10:58 05.01.2020
1353 Clouds 24 1020 57 10000 4.6 80 10:58 05.01.2020
1354 Clouds 22 1020 53 10000 4.1 70 10:39 05.01.2020
1355 Clouds 22 1020 53 10000 4.1 70 10:39 05.01.2020
1356 Clouds 22 1020 53 10000 4.1 70 10:39 05.01.2020
1357 Clouds 22 1020 53 10000 4.1 70 10:39 05.01.2020
1358 Clouds 22 1020 53 10000 4.1 70 10:39 05.01.2020
1359 Clouds 22 1020 53 10000 4.1 70 10:18 05.01.2020
1360 Clouds 22 1020 56 10000 3.85 37 09:41 05.01.2020
1361 Clouds 22 1020 56 10000 3.85 37 09:22 05.01.2020
1362 Clouds 22 1022 64 10000 3.1 50 08:49 05.01.2020
1363 Clouds 21 1021 56 10000 3.6 60 08:30 05.01.2020
1364 Clouds 21 1022 60 10000 2.6 80 07:56 05.01.2020
1365 Clouds 20 1021 60 10000 2.6 60 07:37 05.01.2020
1366 Clouds 20 1021 60 10000 2.6 60 07:19 05.01.2020
1367 Mist 15 1022 93 7000 1 190 05:59 05.01.2020
1368 Clouds 14 1021 93 10000 2.1 230 05:32 05.01.2020
1369 Clouds 15 1021 88 10000 1.5 20 04:43 05.01.2020
1370 Clouds 16 1021 88 10000 1.5 20 04:18 05.01.2020
1371 Clouds 16 1021 88 10000 1.5 20 04:18 05.01.2020
1372 Clouds 16 1020 88 10000 2.1 350 02:46 05.01.2020
1373 Clouds 15 1020 88 10000 3.1 360 02:24 05.01.2020
1374 Clouds 16 1020 88 10000 3.6 30 01:48 05.01.2020
1375 Clouds 15 1020 88 10000 2.1 30 01:19 05.01.2020
1376 Clouds 15 1021 88 10000 1.5 350 00:42 05.01.2020
1377 Clouds 15 1021 88 10000 1.5 350 00:42 05.01.2020
1378 Clouds 15 1021 88 10000 1.5 350 00:23 05.01.2020
1379 Clouds 15 1021 88 10000 1.5 20 23:59 04.01.2020
1380 Clouds 15 1021 88 10000 2.1 10 23:40 04.01.2020
1381 Clouds 16 1021 88 10000 2.1 10 23:19 04.01.2020
1382 Clouds 16 1021 88 10000 2.1 10 23:19 04.01.2020
1383 Clouds 17 1022 82 10000 2.6 40 22:40 04.01.2020
1384 Clouds 17 1022 82 10000 2.6 40 22:22 04.01.2020
1385 Clouds 16 1022 88 10000 2.6 360 21:58 04.01.2020
1386 Clouds 16 1022 82 10000 2.6 30 21:39 04.01.2020
1387 Clouds 16 1022 82 10000 2.6 30 21:39 04.01.2020
1388 Clouds 16 1022 82 10000 2.6 30 21:20 04.01.2020
1389 Clouds 17 1021 77 10000 2.6 30 20:59 04.01.2020
1390 Clouds 17 1021 77 10000 2.6 30 20:40 04.01.2020
1391 Clouds 17 1021 77 10000 2.6 30 20:21 04.01.2020
1392 Clouds 17 1023 82 10000 3.1 30 19:57 04.01.2020
1393 Clouds 17 1023 82 10000 3.1 30 19:57 04.01.2020
1394 Clouds 17 1021 77 10000 5.1 60 19:38 04.01.2020
1395 Clouds 17 1021 77 10000 5.1 60 19:20 04.01.2020
1396 Clouds 18 1022 82 10000 3.6 70 18:55 04.01.2020
1397 Clouds 18 1021 72 10000 5.1 80 18:36 04.01.2020
1398 Clouds 18 1021 72 10000 5.1 80 18:18 04.01.2020
1399 Clouds 18 1020 72 10000 5.1 90 17:41 04.01.2020
1400 Clouds 18 1020 72 10000 5.1 90 17:41 04.01.2020
1401 Clouds 18 1020 72 10000 5.1 90 17:23 04.01.2020
1402 Clouds 20 1020 43 10000 6.2 60 16:58 04.01.2020
1403 Clouds 20 1020 43 10000 6.2 60 16:39 04.01.2020
1404 Clouds 20 1020 43 10000 6.2 60 16:39 04.01.2020
1405 Clouds 21 1020 49 10000 5.1 40 16:21 04.01.2020
1406 Clouds 21 1020 49 10000 5.1 40 15:54 04.01.2020
1407 Clouds 22 1019 38 10000 6.2 60 15:36 04.01.2020
1408 Clouds 22 1019 38 10000 6.2 60 15:18 04.01.2020
1409 Clouds 23 1019 38 10000 6.2 70 14:42 04.01.2020
1410 Clouds 23 1019 38 10000 6.2 70 14:42 04.01.2020
1411 Clouds 22 1020 44 10000 7.7 60 14:20 04.01.2020
1412 Clouds 22 1020 44 10000 7.7 60 13:59 04.01.2020
1413 Clouds 22 1019 38 10000 9.3 60 13:38 04.01.2020
1414 Clouds 23 1019 38 10000 9.3 60 13:19 04.01.2020
1415 Clouds 22 1020 50 10000 7.7 80 12:57 04.01.2020
1416 Clouds 23 1020 50 10000 9.3 60 12:39 04.01.2020
1417 Clouds 23 1020 50 10000 9.3 60 12:18 04.01.2020
1418 Clouds 23 1021 50 10000 7.7 80 11:56 04.01.2020
1419 Clouds 23 1021 50 10000 9.3 70 11:37 04.01.2020
1420 Clouds 23 1021 50 10000 9.3 70 11:18 04.01.2020
1421 Clouds 22 1021 53 10000 9.3 70 10:40 04.01.2020
1422 Clouds 22 1021 53 10000 9.3 70 10:21 04.01.2020
1423 Clouds 22 1022 53 10000 4.6 70 09:47 04.01.2020
1424 Clouds 22 1022 60 10000 5.1 70 09:26 04.01.2020
1425 Clouds 21 1023 64 10000 4.6 100 08:49 04.01.2020
1426 Clouds 22 1023 68 10000 6.2 30 08:29 04.01.2020
1427 Clouds 19 1023 68 10000 4.6 60 07:59 04.01.2020
1428 Clouds 18 1023 77 10000 4.6 70 07:40 04.01.2020
1429 Clouds 18 1023 77 10000 2.1 20 06:46 04.01.2020
1430 Clouds 16 1023 93 10000 2.1 50 05:59 04.01.2020
1431 Clouds 15 1023 93 10000 1.5 360 04:53 04.01.2020
1432 Clouds 14 1022 93 10000 1.5 360 04:32 04.01.2020
1433 Clouds 15 1022 93 10000 2.6 350 03:37 04.01.2020
1434 Clouds 15 1022 93 10000 2.6 350 03:18 04.01.2020
1435 Clouds 15 1022 100 10000 1.5 360 02:20 04.01.2020
1436 Clouds 15 1022 100 10000 1.5 360 01:53 04.01.2020
1437 Clouds 15 1022 100 10000 2.6 20 01:30 04.01.2020
1438 Rain 15 1023 93 8000 4.6 360 00:30 04.01.2020
1439 Rain 14 1023 93 8000 4.6 360 23:59 03.01.2020
1440 Rain 15 1024 93 7000 5.7 30 23:38 03.01.2020
1441 Clouds 16 1023 77 10000 2.6 50 23:20 03.01.2020
1442 Clouds 16 1024 77 10000 2.1 40 22:41 03.01.2020
1443 Clouds 16 1024 77 10000 2.1 40 22:19 03.01.2020
1444 Clouds 16 1024 77 10000 0.5 10 21:58 03.01.2020
1445 Clouds 16 1024 77 10000 2.6 30 21:38 03.01.2020
1446 Clouds 16 1024 77 10000 2.6 30 21:38 03.01.2020
1447 Clouds 16 1024 77 10000 2.6 30 21:19 03.01.2020
1448 Clouds 16 1024 77 10000 3.6 50 20:57 03.01.2020
1449 Clouds 16 1024 72 10000 4.1 60 20:39 03.01.2020
1450 Clouds 18 1024 72 10000 4.1 60 20:18 03.01.2020
1451 Clouds 18 1024 72 10000 3.1 70 19:55 03.01.2020
1452 Clouds 18 1023 68 10000 5.7 40 19:37 03.01.2020
1453 Clouds 18 1023 68 10000 5.7 40 19:18 03.01.2020
1454 Clouds 18 1022 72 10000 6.7 60 18:41 03.01.2020
1455 Clouds 18 1022 72 10000 6.7 60 18:23 03.01.2020
1456 Clouds 19 1022 77 10000 7.2 50 17:55 03.01.2020
1457 Clouds 20 1021 64 10000 5.1 80 17:36 03.01.2020
1458 Clouds 20 1021 64 10000 5.1 80 17:36 03.01.2020
1459 Clouds 21 1020 49 10000 6.7 40 17:18 03.01.2020
1460 Clouds 21 1020 49 10000 6.7 40 16:42 03.01.2020
1461 Clouds 21 1020 49 10000 6.7 40 16:22 03.01.2020
1462 Clouds 22 1020 50 10000 7.2 60 15:44 03.01.2020
1463 Clouds 22 1020 50 10000 7.2 60 15:19 03.01.2020
1464 Clouds 22 1020 50 10000 7.2 60 15:19 03.01.2020
1465 Clouds 22 1020 53 10000 7.2 60 14:59 03.01.2020
1466 Clouds 23 1020 50 10000 8.2 80 14:38 03.01.2020
1467 Clouds 23 1020 50 10000 8.2 80 14:19 03.01.2020
1468 Clouds 23 1020 50 10000 9.8 90 13:43 03.01.2020
1469 Clouds 23 1020 50 10000 9.8 90 13:24 03.01.2020
1470 Clouds 23 1022 50 10000 7.2 50 12:58 03.01.2020
1471 Clouds 23 1022 44 10000 8.2 60 12:38 03.01.2020
1472 Clouds 23 1022 44 10000 8.2 60 12:20 03.01.2020
1473 Clouds 23 1022 44 10000 8.2 60 11:44 03.01.2020
1474 Clouds 23 1021 50 10000 9.8 60 11:20 03.01.2020
1475 Clouds 22 1022 57 10000 7.2 80 10:44 03.01.2020
1476 Clouds 22 1022 57 10000 7.2 80 10:25 03.01.2020
1477 Clouds 22 1022 57 10000 7.2 80 10:25 03.01.2020
1478 Clouds 22 1024 60 10000 6.7 60 09:58 03.01.2020
1479 Clouds 22 1023 60 10000 8.7 60 09:39 03.01.2020
1480 Clouds 22 1023 60 10000 8.7 60 09:21 03.01.2020
1481 Clouds 21 1024 73 10000 4.1 40 08:56 03.01.2020
1482 Clouds 21 1023 72 10000 5.7 40 08:38 03.01.2020
1483 Clouds 20 1023 72 10000 5.7 40 08:19 03.01.2020
1484 Clouds 19 1023 77 10000 4.1 60 07:40 03.01.2020
1485 Clouds 19 1023 77 10000 4.1 60 07:18 03.01.2020
1486 Clouds 18 1024 88 10000 4.1 20 06:49 03.01.2020
1487 Clouds 18 1024 88 10000 4.1 20 06:49 03.01.2020
1488 Clouds 17 1024 88 10000 4.1 20 06:30 03.01.2020
1489 Clouds 16 1024 88 10000 2.6 10 05:45 03.01.2020
1490 Clouds 16 1022 88 10000 3.6 360 04:22 03.01.2020
1491 Clouds 14 1022 88 10000 3.1 20 02:56 03.01.2020
1492 Clouds 15 1022 88 10000 3.1 20 02:33 03.01.2020
1493 Clouds 15 1022 88 10000 2.6 40 01:44 03.01.2020
1494 Clouds 16 1022 88 10000 5.1 30 00:50 03.01.2020
1495 Clouds 16 1022 88 10000 3.1 30 00:31 03.01.2020
1496 Clouds 16 1022 88 10000 3.6 30 23:56 02.01.2020
1497 Clouds 16 1023 88 10000 3.1 30 23:38 02.01.2020
1498 Clouds 16 1023 88 10000 3.1 30 23:19 02.01.2020
1499 Clouds 16 1023 82 10000 3.1 30 22:57 02.01.2020
1500 Clouds 16 1023 82 10000 2.6 20 22:38 02.01.2020
1501 Clouds 16 1023 82 10000 3.1 30 22:18 02.01.2020
1502 Clouds 16 1023 82 10000 2.6 20 21:41 02.01.2020
1503 Clouds 16 1023 82 10000 2.6 20 21:23 02.01.2020
1504 Clouds 16 1023 77 10000 3.6 30 20:59 02.01.2020
1505 Clouds 16 1023 77 10000 4.6 40 20:39 02.01.2020
1506 Clouds 18 1023 77 10000 4.6 40 20:21 02.01.2020
1507 Clouds 18 1023 77 10000 4.6 30 19:56 02.01.2020
1508 Clear 18 1021 68 0 5.1 40 19:38 02.01.2020
1509 Clear 18 1021 68 0 5.1 40 19:19 02.01.2020
1510 Clear 18 1021 64 0 3.6 70 18:58 02.01.2020
1511 Clear 18 1021 64 0 3.6 70 18:39 02.01.2020
1512 Clear 18 1021 64 0 3.6 70 18:21 02.01.2020
1513 Clouds 17 1022 64 10000 5.7 50 17:56 02.01.2020
1514 Clouds 18 1021 56 10000 6.2 50 17:37 02.01.2020
1515 Clouds 20 1021 60 10000 6.2 40 17:19 02.01.2020
1516 Clouds 20 1021 60 10000 6.2 40 16:56 02.01.2020
1517 Clouds 21 1020 40 10000 6.7 50 16:38 02.01.2020
1518 Clouds 22 1020 47 10000 7.7 50 16:20 02.01.2020
1519 Clouds 22 1020 47 10000 10.3 60 15:45 02.01.2020
1520 Clouds 22 1020 38 10000 8.7 60 15:24 02.01.2020
1521 Clouds 22 1020 38 10000 8.7 60 14:59 02.01.2020
1522 Clouds 22 1020 47 10000 7.7 60 14:39 02.01.2020
1523 Clouds 22 1020 47 10000 7.7 60 14:39 02.01.2020
1524 Clouds 24 1020 47 10000 7.7 60 14:21 02.01.2020
1525 Clouds 24 1020 47 10000 7.7 50 13:58 02.01.2020
1526 Clouds 24 1019 50 10000 6.7 40 13:40 02.01.2020
1527 Clouds 24 1020 50 10000 7.7 60 13:19 02.01.2020
1528 Clouds 23 1020 50 10000 7.2 50 12:43 02.01.2020
1529 Clouds 23 1020 50 10000 7.2 50 12:23 02.01.2020
1530 Clouds 23 1022 57 10000 5.7 40 11:43 02.01.2020
1531 Clouds 23 1022 57 10000 5.7 40 11:24 02.01.2020
1532 Clouds 22 1022 57 10000 5.7 40 10:56 02.01.2020
1533 Clouds 23 1022 60 10000 6.7 40 10:37 02.01.2020
1534 Clouds 21 1022 60 10000 6.7 40 10:18 02.01.2020
1535 Clouds 21 1022 68 10000 5.1 40 09:41 02.01.2020
1536 Clouds 20 1024 73 10000 6.2 50 09:22 02.01.2020
1537 Clouds 20 1023 68 10000 5.7 60 08:44 02.01.2020
1538 Clouds 20 1023 68 10000 5.7 60 08:25 02.01.2020
1539 Clouds 18 1024 77 10000 4.6 50 07:48 02.01.2020
1540 Clouds 18 1023 82 10000 5.7 40 07:28 02.01.2020
1541 Clouds 17 1022 88 10000 4.1 50 06:43 02.01.2020
1542 Clouds 16 1022 93 10000 4.1 50 05:58 02.01.2020
1543 Clouds 14 1020 93 10000 2.81 30 04:38 02.01.2020
1544 Clouds 14 1020 93 10000 2.81 30 04:19 02.01.2020
1545 Clouds 13 1020 87 10000 2.1 10 02:25 02.01.2020
1546 Clouds 14 1020 87 10000 1.5 350 01:57 02.01.2020
1547 Clouds 14 1020 87 10000 1.5 350 01:32 02.01.2020
1548 Clouds 14 1020 87 10000 1 320 00:52 02.01.2020
1549 Clouds 14 1021 87 10000 2.1 360 00:32 02.01.2020
1550 Clouds 15 1021 87 10000 1.5 350 23:48 01.01.2020
1551 Clouds 15 1021 87 10000 1.5 350 23:25 01.01.2020
1552 Clouds 15 1022 87 10000 0.5 0 22:55 01.01.2020
1553 Clouds 15 1022 82 10000 2.6 20 22:37 01.01.2020
1554 Clouds 17 1022 82 10000 2.6 20 22:18 01.01.2020
1555 Clouds 17 1022 72 10000 2.6 20 21:42 01.01.2020
1556 Clouds 17 1022 82 10000 2.6 20 21:21 01.01.2020
1557 Clouds 17 1022 82 10000 2.6 20 20:59 01.01.2020
1558 Clouds 17 1021 72 10000 2.6 30 20:39 01.01.2020
1559 Clouds 17 1021 72 10000 2.6 30 20:20 01.01.2020
1560 Clouds 18 1021 77 10000 3.1 20 19:58 01.01.2020
1561 Clouds 18 1020 64 10000 3.6 30 19:39 01.01.2020
1562 Clouds 18 1020 64 10000 3.6 30 19:20 01.01.2020
1563 Clouds 18 1021 77 10000 4.6 30 18:57 01.01.2020
1564 Clouds 18 1021 77 10000 4.6 30 18:57 01.01.2020
1565 Clouds 19 1020 60 10000 3.1 70 18:39 01.01.2020
1566 Clouds 19 1020 60 10000 3.1 70 18:20 01.01.2020
1567 Clouds 19 1020 68 10000 4.1 50 17:59 01.01.2020
1568 Clouds 19 1019 53 10000 5.1 60 17:40 01.01.2020
1569 Clouds 20 1019 53 10000 5.1 60 17:40 01.01.2020
1570 Clouds 19 1019 53 10000 5.1 60 17:20 01.01.2020
1571 Clouds 19 1020 56 10000 6.7 70 16:59 01.01.2020
1572 Clouds 20 1019 47 10000 8.2 70 16:38 01.01.2020
1573 Clouds 22 1019 47 10000 8.2 70 16:20 01.01.2020
1574 Clouds 22 1019 44 10000 8.7 70 15:57 01.01.2020
1575 Clouds 23 1018 50 10000 7.2 70 15:38 01.01.2020
1576 Clouds 23 1018 50 10000 7.2 70 15:20 01.01.2020
1577 Clouds 23 1018 44 10000 7.7 80 14:56 01.01.2020
1578 Clouds 23 1018 47 10000 8.2 80 14:37 01.01.2020
1579 Clouds 23 1018 47 10000 8.2 80 14:19 01.01.2020
1580 Clouds 24 1018 47 10000 6.7 50 13:55 01.01.2020
1581 Clouds 24 1018 41 10000 5.1 90 13:36 01.01.2020
1582 Clouds 24 1019 44 10000 6.7 60 13:18 01.01.2020
1583 Clouds 24 1018 41 10000 5.1 90 13:18 01.01.2020
1584 Clouds 23 1020 44 10000 6.2 50 12:40 01.01.2020
1585 Clouds 24 1020 44 10000 6.2 50 12:20 01.01.2020
1586 Clouds 24 1020 44 10000 6.2 50 11:57 01.01.2020
1587 Clouds 24 1020 44 10000 6.2 50 11:57 01.01.2020
1588 Clouds 24 1019 44 10000 5.1 70 11:39 01.01.2020
1589 Clouds 23 1019 44 10000 5.1 70 11:20 01.01.2020
1590 Clouds 23 1021 47 10000 4.6 60 10:55 01.01.2020
1591 Clouds 22 1021 49 10000 8.2 70 10:37 01.01.2020
1592 Clouds 22 1022 60 10000 5.1 40 10:18 01.01.2020
1593 Clouds 22 1021 53 10000 7.2 50 09:40 01.01.2020
1594 Clouds 21 1021 53 10000 7.2 50 09:22 01.01.2020
1595 Clouds 20 1022 60 10000 6.2 50 08:57 01.01.2020
1596 Clouds 21 1022 60 10000 6.2 50 08:57 01.01.2020
1597 Clouds 21 1022 60 10000 6.2 50 08:57 01.01.2020
1598 Clouds 20 1022 64 10000 5.7 40 08:38 01.01.2020
1599 Clouds 20 1022 64 10000 5.7 40 08:19 01.01.2020
1600 Clouds 20 1022 64 10000 6.2 50 07:57 01.01.2020
1601 Clouds 19 1023 68 10000 4.1 40 07:38 01.01.2020
1602 Clouds 18 1022 72 10000 3.6 30 06:55 01.01.2020
1603 Clouds 17 1021 77 10000 2.6 40 06:36 01.01.2020
1604 Haze 14 1021 93 10000 5.72 25 05:48 01.01.2020
1605 Clouds 12 1021 93 10000 1.5 60 04:20 01.01.2020
1606 Clouds 14 1020 93 10000 1 0 03:39 01.01.2020
1607 Clouds 15 1020 93 10000 1 0 03:21 01.01.2020
1608 Clouds 15 1019 88 10000 2.6 20 02:41 01.01.2020
1609 Clouds 15 1019 88 10000 2.6 20 02:22 01.01.2020
1610 Clouds 15 1020 88 10000 3.1 30 01:41 01.01.2020
1611 Clouds 14 1020 88 10000 3.1 30 01:22 01.01.2020
1612 Clouds 15 1021 93 10000 2.1 10 00:45 01.01.2020
1613 Clouds 14 1020 93 10000 3.6 60 00:45 01.01.2020
1614 Clouds 15 1021 93 10000 2.1 10 00:26 01.01.2020
1615 Clouds 15 1021 93 10000 2.1 10 23:56 31.12.2019
1616 Clouds 15 1021 93 10000 2.1 340 23:36 31.12.2019
1617 Clouds 16 1021 93 10000 2.1 340 23:18 31.12.2019
1618 Clouds 16 1021 93 10000 2.6 10 22:55 31.12.2019
1619 Clouds 16 1021 88 10000 4.1 30 22:36 31.12.2019
1620 Clouds 16 1021 88 10000 4.1 30 22:18 31.12.2019
1621 Clouds 16 1021 88 10000 2.6 360 21:42 31.12.2019
1622 Clouds 16 1021 88 10000 2.6 360 21:24 31.12.2019
1623 Clouds 17 1021 88 10000 4.6 30 20:57 31.12.2019
1624 Clouds 17 1021 82 10000 5.7 40 20:38 31.12.2019
1625 Clouds 17 1021 82 10000 5.7 40 20:20 31.12.2019
1626 Clouds 17 1021 88 10000 3.1 20 19:55 31.12.2019
1627 Clouds 17 1020 77 10000 3.6 20 19:37 31.12.2019
1628 Clouds 18 1021 77 10000 4.6 40 19:18 31.12.2019
1629 Clouds 18 1021 77 10000 4.6 40 18:55 31.12.2019
1630 Clouds 18 1019 72 10000 4.1 70 18:37 31.12.2019
1631 Clouds 18 1019 72 10000 4.1 70 18:19 31.12.2019
1632 Clouds 19 1020 77 10000 4.6 50 17:55 31.12.2019
1633 Clouds 19 1019 68 10000 3.1 50 17:36 31.12.2019
1634 Clouds 19 1019 68 10000 3.1 50 17:36 31.12.2019
1635 Clouds 20 1019 68 10000 6.7 50 17:18 31.12.2019
1636 Clouds 20 1019 68 10000 6.7 50 16:55 31.12.2019
1637 Clouds 21 1018 56 10000 6.2 60 16:36 31.12.2019
1638 Clouds 21 1018 56 10000 6.2 60 16:18 31.12.2019
1639 Clouds 22 1018 50 10000 7.2 70 15:55 31.12.2019
1640 Clouds 22 1018 50 10000 7.2 70 15:37 31.12.2019
1641 Clouds 22 1018 50 10000 7.2 70 15:19 31.12.2019
1642 Clouds 23 1019 53 10000 4.6 70 14:55 31.12.2019
1643 Clouds 23 1018 50 10000 2.6 60 14:37 31.12.2019
1644 Clouds 23 1018 50 10000 2.6 60 14:37 31.12.2019
1645 Clouds 23 1018 50 10000 2.6 60 14:18 31.12.2019
1646 Clouds 22 1019 57 10000 4.6 60 13:55 31.12.2019
1647 Clouds 22 1019 53 10000 3.1 40 13:37 31.12.2019
1648 Clouds 22 1019 53 10000 3.1 40 13:19 31.12.2019
1649 Clouds 22 1020 57 10000 5.1 70 12:54 31.12.2019
1650 Clouds 22 1021 60 10000 6.7 50 12:36 31.12.2019
1651 Clouds 22 1021 60 10000 6.7 50 12:36 31.12.2019
1652 Clouds 22 1021 60 10000 6.7 50 12:18 31.12.2019
1653 Clouds 22 1021 60 10000 6.7 50 11:54 31.12.2019
1654 Clouds 22 1021 60 10000 4.6 70 11:36 31.12.2019
1655 Clouds 22 1021 60 10000 4.6 70 11:36 31.12.2019
1656 Clouds 22 1021 60 10000 4.6 70 11:18 31.12.2019
1657 Clouds 22 1021 53 10000 5.1 40 10:54 31.12.2019
1658 Clouds 21 1021 53 10000 5.1 40 10:36 31.12.2019
1659 Clouds 21 1021 53 10000 5.1 40 10:36 31.12.2019
1660 Clouds 21 1022 64 10000 6.7 30 10:18 31.12.2019
1661 Clouds 21 1022 64 10000 6.7 30 09:54 31.12.2019
1662 Clouds 21 1022 53 10000 8.7 50 09:36 31.12.2019
1663 Clouds 21 1022 53 10000 8.7 50 09:18 31.12.2019
1664 Clouds 20 1023 68 10000 6.2 40 08:42 31.12.2019
1665 Clouds 20 1023 68 10000 6.2 40 08:21 31.12.2019
1666 Clouds 19 1022 64 10000 4.1 60 07:44 31.12.2019
1667 Clouds 19 1022 64 10000 4.1 60 07:22 31.12.2019
1668 Clouds 17 1023 82 10000 1.5 80 06:51 31.12.2019
1669 Clouds 17 1023 82 10000 1.5 80 06:51 31.12.2019
1670 Clouds 17 1023 72 10000 1.5 90 06:27 31.12.2019
1671 Clouds 13 1021 93 10000 1 190 04:54 31.12.2019
1672 Clouds 13 1021 93 10000 1 330 04:24 31.12.2019
1673 Clouds 14 1020 93 10000 1.5 360 02:57 31.12.2019
1674 Clear 14 1020 93 10000 1.5 360 02:21 31.12.2019
1675 Clear 14 1020 93 10000 2.1 350 01:50 31.12.2019
1676 Clear 14 1020 93 10000 2.1 10 01:31 31.12.2019
1677 Clouds 14 1021 93 10000 1 350 00:49 31.12.2019
1678 Clouds 14 1021 93 10000 0.5 30 00:25 31.12.2019
1679 Clouds 14 1021 93 10000 1.5 10 23:58 30.12.2019
1680 Clouds 15 1021 93 10000 1.5 30 23:40 30.12.2019
1681 Clouds 15 1021 93 10000 1.5 30 23:22 30.12.2019
1682 Clouds 15 1021 93 10000 1.5 50 22:59 30.12.2019
1683 Clouds 15 1022 88 10000 1.5 60 22:41 30.12.2019
1684 Clouds 15 1022 88 10000 1.5 60 22:21 30.12.2019
1685 Clouds 16 1022 82 10000 2.6 50 21:57 30.12.2019
1686 Clouds 17 1021 82 10000 3.6 40 21:39 30.12.2019
1687 Clouds 16 1021 82 10000 3.6 40 21:20 30.12.2019
1688 Clouds 16 1021 82 10000 3.6 40 20:59 30.12.2019
1689 Clouds 17 1021 82 10000 4.6 40 20:41 30.12.2019
1690 Clouds 17 1021 82 10000 4.6 40 20:20 30.12.2019
1691 Clouds 17 1021 82 10000 4.6 40 19:59 30.12.2019
1692 Clouds 17 1021 82 10000 5.7 50 19:39 30.12.2019
1693 Clouds 18 1021 82 10000 5.7 50 19:19 30.12.2019
1694 Clouds 19 1021 77 10000 6.2 50 18:59 30.12.2019
1695 Clouds 19 1019 77 10000 6.2 30 18:41 30.12.2019
1696 Clouds 19 1019 77 10000 6.2 30 18:20 30.12.2019
1697 Clouds 19 1019 77 10000 6.2 50 17:58 30.12.2019
1698 Clouds 19 1018 68 10000 7.7 60 17:39 30.12.2019
1699 Clouds 20 1018 73 10000 6.7 70 17:19 30.12.2019
1700 Clouds 20 1018 73 10000 6.7 70 16:58 30.12.2019
1701 Clouds 21 1018 64 10000 8.2 80 16:38 30.12.2019
1702 Clouds 20 1018 64 10000 8.2 80 16:20 30.12.2019
1703 Clouds 21 1018 60 10000 6.2 70 15:56 30.12.2019
1704 Clouds 21 1017 60 10000 8.2 60 15:37 30.12.2019
1705 Clouds 22 1017 60 10000 8.2 60 15:19 30.12.2019
1706 Clouds 22 1017 53 10000 6.7 30 14:43 30.12.2019
1707 Clouds 22 1017 53 10000 6.7 30 14:20 30.12.2019
1708 Clouds 22 1018 60 10000 5.1 70 13:58 30.12.2019
1709 Clouds 21 1018 60 10000 6.2 70 13:40 30.12.2019
1710 Clouds 22 1018 60 10000 6.2 70 13:40 30.12.2019
1711 Clouds 22 1018 60 10000 6.2 70 13:22 30.12.2019
1712 Clouds 23 1019 60 10000 6.2 50 12:56 30.12.2019
1713 Clouds 23 1018 57 10000 7.7 50 12:37 30.12.2019
1714 Clouds 23 1019 57 10000 6.2 60 12:18 30.12.2019
1715 Clouds 23 1019 57 10000 6.2 60 11:45 30.12.2019
1716 Clouds 22 1019 56 10000 4.6 60 11:20 30.12.2019
1717 Clouds 23 1020 57 10000 6.7 60 10:58 30.12.2019
1718 Clouds 22 1019 56 10000 4.6 50 10:40 30.12.2019
1719 Clouds 22 1019 56 10000 4.6 50 10:19 30.12.2019
1720 Clouds 22 1020 64 10000 6.7 50 09:42 30.12.2019
1721 Clouds 21 1020 64 10000 6.7 50 09:20 30.12.2019
1722 Clouds 20 1022 72 10000 5.7 50 08:56 30.12.2019
1723 Clouds 20 1021 46 10000 6.2 60 08:38 30.12.2019
1724 Clouds 20 1021 46 10000 6.2 60 08:19 30.12.2019
1725 Clouds 19 1021 77 10000 5.1 50 07:44 30.12.2019
1726 Clouds 19 1021 77 10000 5.1 50 07:18 30.12.2019
1727 Clouds 18 1020 82 10000 2.6 20 06:29 30.12.2019
1728 Clouds 16 1019 72 10000 2.4 20 04:29 30.12.2019
1729 Clouds 16 1020 88 10000 2.6 360 03:43 30.12.2019
1730 Clouds 15 1019 93 10000 2.6 10 02:41 30.12.2019
1731 Clouds 16 1019 93 10000 2.6 10 02:21 30.12.2019
1732 Clouds 16 1019 93 10000 5.1 70 01:27 30.12.2019
1733 Clouds 16 1020 93 10000 2.1 40 00:56 30.12.2019
1734 Clouds 16 1020 93 10000 2.1 40 00:36 30.12.2019
1735 Clouds 16 1020 93 10000 3.1 50 23:42 29.12.2019
1736 Clouds 16 1020 93 10000 3.1 50 23:24 29.12.2019
1737 Clouds 17 1021 88 10000 3.6 50 22:58 29.12.2019
1738 Clouds 16 1021 88 10000 3.6 50 22:38 29.12.2019
1739 Clouds 18 1021 88 10000 3.6 50 22:20 29.12.2019
1740 Clouds 17 1020 88 10000 5.1 50 21:55 29.12.2019
1741 Clouds 17 1020 88 10000 5.1 50 21:55 29.12.2019
1742 Clouds 17 1020 88 10000 5.1 50 21:37 29.12.2019
1743 Clouds 17 1020 88 10000 5.1 50 21:18 29.12.2019
1744 Clouds 17 1020 88 10000 5.7 60 20:55 29.12.2019
1745 Rain 17 1019 93 10000 2.55 48 20:37 29.12.2019
1746 Rain 17 1019 93 10000 2.08 45 20:37 29.12.2019
1747 Clouds 18 1020 82 10000 4.6 60 20:18 29.12.2019
1748 Clouds 18 1020 82 10000 4.6 60 19:55 29.12.2019
1749 Rain 18 1019 88 10000 4.1 40 19:37 29.12.2019
1750 Rain 18 1019 88 10000 4.1 40 19:37 29.12.2019
1751 Rain 18 1019 88 10000 4.1 40 19:18 29.12.2019
1752 Clouds 17 1020 82 10000 5.7 50 18:54 29.12.2019
1753 Clouds 17 1019 82 10000 4.6 50 18:36 29.12.2019
1754 Clouds 19 1019 73 10000 4.6 50 18:18 29.12.2019
1755 Clouds 19 1019 73 10000 4.6 50 17:54 29.12.2019
1756 Clouds 19 1017 73 10000 3.6 60 17:36 29.12.2019
1757 Clouds 19 1017 73 10000 3.6 60 17:18 29.12.2019
1758 Clouds 18 1018 68 10000 5.1 50 16:54 29.12.2019
1759 Clouds 18 1018 68 10000 5.1 50 16:54 29.12.2019
1760 Clouds 20 1017 64 10000 6.2 70 16:36 29.12.2019
1761 Clouds 19 1017 64 10000 6.2 70 16:18 29.12.2019
1762 Clouds 19 1017 64 10000 6.2 70 15:54 29.12.2019
1763 Clouds 20 1016 60 10000 6.2 80 15:36 29.12.2019
1764 Clouds 21 1016 57 10000 7.2 70 15:18 29.12.2019
1765 Clouds 23 1016 57 10000 7.2 70 14:46 29.12.2019
1766 Clouds 24 1016 60 10000 5.1 280 14:19 29.12.2019
1767 Clouds 25 1016 57 10000 6.2 70 13:59 29.12.2019
1768 Clouds 25 1016 57 10000 6.2 50 13:40 29.12.2019
1769 Clouds 25 1016 57 10000 6.2 50 13:22 29.12.2019
1770 Clouds 25 1017 57 10000 6.2 50 12:58 29.12.2019
1771 Clouds 25 1017 53 10000 9.3 80 12:39 29.12.2019
1772 Clouds 25 1017 53 10000 9.3 80 12:21 29.12.2019
1773 Clouds 25 1017 57 10000 5.1 70 11:43 29.12.2019
1774 Clouds 25 1017 57 10000 5.1 70 11:23 29.12.2019
1775 Clouds 22 1018 61 10000 6.2 60 10:59 29.12.2019
1776 Clouds 23 1018 64 10000 5.7 30 10:40 29.12.2019
1777 Clouds 23 1018 64 10000 5.7 30 10:19 29.12.2019
1778 Clouds 21 1020 78 10000 5.1 50 09:47 29.12.2019
1779 Clouds 22 1020 78 10000 5.1 50 09:28 29.12.2019
1780 Clouds 22 1020 78 10000 5.1 50 09:28 29.12.2019
1781 Clouds 21 1020 73 10000 3.6 30 08:59 29.12.2019
1782 Clouds 20 1019 68 10000 4.1 70 08:41 29.12.2019
1783 Clouds 20 1019 68 10000 4.1 70 08:23 29.12.2019
1784 Clouds 19 1020 82 10000 3.1 30 07:49 29.12.2019
1785 Clouds 19 1020 82 10000 3.1 30 07:27 29.12.2019
1786 Clouds 19 1021 77 10000 4.1 40 06:52 29.12.2019
1787 Clouds 16 1020 93 10000 2.1 10 06:22 29.12.2019
1788 Clouds 18 1020 93 10000 2.1 10 05:45 29.12.2019
1789 Clouds 15 1019 93 10000 2.6 20 04:33 29.12.2019
1790 Clouds 15 1019 93 10000 2.6 20 03:39 29.12.2019
1791 Clouds 15 1018 93 10000 2.6 40 02:49 29.12.2019
1792 Clouds 15 1018 93 10000 4.1 30 02:19 29.12.2019
1793 Clouds 15 1018 100 10000 4.1 50 01:31 29.12.2019
1794 Clouds 15 1018 100 10000 4.1 50 01:31 29.12.2019
1795 Clouds 16 1018 93 10000 3.6 40 00:51 29.12.2019
1796 Clouds 16 1018 93 10000 2.6 30 00:25 29.12.2019
1797 Rain 15 1019 93 10000 1.5 10 23:56 28.12.2019
1798 Rain 15 1019 93 8000 1 0 23:37 28.12.2019
1799 Rain 15 1020 93 6000 2.1 70 23:18 28.12.2019
1800 Clouds 16 1020 88 10000 2.1 250 22:38 28.12.2019
1801 Clouds 16 1020 88 10000 2.1 250 22:38 28.12.2019
1802 Clouds 16 1020 88 10000 2.1 250 22:19 28.12.2019
1803 Clouds 16 1020 88 10000 2.1 240 21:57 28.12.2019
1804 Clouds 16 1019 93 10000 2.1 210 21:38 28.12.2019
1805 Clouds 16 1019 93 10000 2.1 210 21:20 28.12.2019
1806 Clouds 17 1020 88 10000 1.5 10 20:55 28.12.2019
1807 Clouds 17 1020 88 10000 1.5 10 20:55 28.12.2019
1808 Clouds 17 1020 88 10000 1.5 10 20:36 28.12.2019
1809 Clouds 17 1020 88 10000 1.5 10 20:18 28.12.2019
1810 Clouds 16 1019 93 10000 1.5 350 19:54 28.12.2019
1811 Clouds 18 1019 93 10000 1.5 350 19:36 28.12.2019
1812 Clouds 18 1019 88 10000 2.1 360 19:18 28.12.2019
1813 Clouds 18 1018 77 10000 3.33 49 18:43 28.12.2019
1814 Clouds 18 1018 77 10000 3.33 49 18:20 28.12.2019
1815 Clouds 17 1018 88 10000 2.6 40 17:59 28.12.2019
1816 Clouds 17 1018 82 10000 1 30 17:41 28.12.2019
1817 Clouds 18 1017 82 10000 0.5 0 17:21 28.12.2019
1818 Clouds 18 1017 82 10000 0.5 0 16:55 28.12.2019
1819 Clouds 18 1016 82 10000 4.94 44 16:36 28.12.2019
1820 Clouds 18 1016 82 10000 4.94 44 16:36 28.12.2019
1821 Clouds 18 1016 82 10000 4.94 44 16:18 28.12.2019
1822 Clouds 18 1017 82 10000 2.6 140 15:43 28.12.2019
1823 Clouds 18 1017 82 10000 2.6 140 15:21 28.12.2019
1824 Clouds 18 1017 77 10000 1.5 220 14:48 28.12.2019
1825 Rain 22 1016 73 10000 5.7 250 14:26 28.12.2019
1826 Rain 23 1016 69 10000 3.6 10 13:58 28.12.2019
1827 Clouds 24 1016 56 10000 9.3 290 13:40 28.12.2019
1828 Clouds 24 1016 56 10000 9.3 290 13:21 28.12.2019
1829 Clouds 24 1016 61 10000 3.1 80 12:58 28.12.2019
1830 Clouds 22 1016 64 10000 3.6 80 12:40 28.12.2019
1831 Clouds 21 1016 64 10000 3.6 80 12:21 28.12.2019
1832 Clouds 20 1018 64 10000 3.6 80 11:40 28.12.2019
1833 Clouds 22 1018 64 10000 3.6 80 11:21 28.12.2019
1834 Clouds 22 1019 69 10000 2.1 150 10:56 28.12.2019
1835 Clouds 22 1019 69 10000 2.1 190 10:38 28.12.2019
1836 Clouds 22 1019 69 10000 2.1 190 10:19 28.12.2019
1837 Clouds 22 1020 73 10000 2.6 110 09:54 28.12.2019
1838 Clouds 22 1020 73 10000 1.5 0 09:36 28.12.2019
1839 Clouds 22 1020 73 10000 1.5 0 09:18 28.12.2019
1840 Clouds 20 1021 82 10000 1.5 180 08:42 28.12.2019
1841 Clouds 18 1021 82 10000 1.5 180 08:23 28.12.2019
1842 Clouds 18 1021 82 10000 2.1 190 07:47 28.12.2019
1843 Clouds 18 1021 93 10000 2.6 190 07:22 28.12.2019
1844 Clouds 16 1021 100 10000 2.1 160 05:51 28.12.2019
1845 Clouds 15 1019 100 10000 3.1 70 03:48 28.12.2019
1846 Clouds 15 1019 100 10000 4.1 70 02:51 28.12.2019
1847 Rain 16 1018 100 10000 4.6 60 02:20 28.12.2019
1848 Clouds 16 1018 100 10000 4.1 70 01:56 28.12.2019
1849 Clouds 16 1018 100 10000 4.6 50 01:23 28.12.2019
1850 Clouds 17 1019 93 10000 4.6 70 00:48 28.12.2019
1851 Clouds 16 1019 93 10000 4.6 70 00:30 28.12.2019
1852 Clouds 16 1019 93 10000 3.1 50 23:58 27.12.2019
1853 Clouds 17 1019 100 10000 5.1 70 23:39 27.12.2019
1854 Clouds 17 1019 100 10000 5.1 70 23:19 27.12.2019
1855 Clouds 16 1019 93 10000 5.1 70 22:56 27.12.2019
1856 Clouds 16 1019 93 10000 4.1 70 22:37 27.12.2019
1857 Clouds 16 1019 93 10000 4.1 70 22:19 27.12.2019
1858 Clouds 17 1019 94 10000 3.6 60 21:43 27.12.2019
1859 Clouds 17 1019 94 10000 3.6 60 21:25 27.12.2019
1860 Clouds 17 1019 94 10000 3.1 40 20:58 27.12.2019
1861 Clouds 17 1019 94 10000 3.6 40 20:40 27.12.2019
1862 Clouds 18 1019 94 10000 3.6 40 20:21 27.12.2019
1863 Clouds 18 1018 88 10000 3.48 47 19:41 27.12.2019
1864 Clouds 18 1018 88 10000 3.48 47 19:20 27.12.2019
1865 Clouds 18 1019 88 10000 1 0 18:57 27.12.2019
1866 Clouds 17 1018 88 10000 0.5 0 18:37 27.12.2019
1867 Clouds 17 1018 88 10000 0.5 0 18:19 27.12.2019
1868 Clouds 17 1018 88 10000 2.1 220 17:55 27.12.2019
1869 Clouds 17 1017 88 10000 1.5 10 17:37 27.12.2019
1870 Clouds 17 1017 88 10000 1.5 10 17:18 27.12.2019
1871 Clouds 17 1016 93 10000 4.6 360 16:44 27.12.2019
1872 Clouds 18 1016 93 10000 4.6 360 16:26 27.12.2019
1873 Rain 17 1016 93 10000 7.2 330 15:59 27.12.2019
1874 Clouds 20 1016 61 10000 4.1 60 15:40 27.12.2019
1875 Clouds 22 1016 61 10000 4.1 60 15:20 27.12.2019
1876 Rain 22 1015 61 10000 3.1 60 14:56 27.12.2019
1877 Rain 26 1016 61 10000 7.7 270 14:38 27.12.2019
1878 Clouds 26 1016 57 10000 4.1 80 14:20 27.12.2019
1879 Rain 26 1016 61 10000 7.7 270 14:20 27.12.2019
1880 Clouds 26 1016 57 10000 4.1 80 13:48 27.12.2019
1881 Clouds 26 1016 61 10000 4.6 120 13:25 27.12.2019
1882 Clouds 20 1017 61 10000 3.1 100 12:58 27.12.2019
1883 Clouds 21 1018 61 10000 2.6 0 12:39 27.12.2019
1884 Clouds 24 1018 61 10000 2.6 0 12:21 27.12.2019
1885 Clouds 24 1018 65 10000 3.1 120 11:43 27.12.2019
1886 Clouds 24 1018 65 10000 3.1 120 11:43 27.12.2019
1887 Clouds 23 1018 65 10000 3.1 120 11:23 27.12.2019
1888 Clouds 23 1018 64 10000 1.5 0 10:55 27.12.2019
1889 Clouds 23 1018 60 10000 2.1 170 10:37 27.12.2019
1890 Clouds 22 1018 60 10000 2.1 170 10:19 27.12.2019
1891 Clouds 21 1022 77 10000 3.31 27 09:42 27.12.2019
1892 Clouds 20 1022 77 10000 3.31 27 09:21 27.12.2019
1893 Clouds 20 1020 73 10000 1 0 08:56 27.12.2019
1894 Clouds 20 1020 82 10000 3.31 27 08:36 27.12.2019
1895 Clouds 19 1021 88 10000 1.5 60 07:51 27.12.2019
1896 Clouds 18 1021 93 10000 2.6 60 07:32 27.12.2019
1897 Clouds 19 1020 93 10000 3.1 40 06:37 27.12.2019
1898 Drizzle 18 1019 93 10000 2.1 50 05:37 27.12.2019
1899 Clouds 15 1019 100 10000 3.1 80 03:40 27.12.2019
1900 Clouds 15 1020 100 10000 2.6 80 02:21 27.12.2019
1901 Clouds 16 1020 93 10000 1 0 01:38 27.12.2019
1902 Clouds 16 1020 93 10000 1 0 01:19 27.12.2019
1903 Clouds 16 1020 93 10000 2.1 70 00:43 27.12.2019
1904 Clouds 16 1020 93 10000 2.1 70 00:24 27.12.2019
1905 Clouds 16 1021 93 10000 1 20 23:42 26.12.2019
1906 Clouds 17 1021 93 10000 1 20 23:22 26.12.2019
1907 Clouds 16 1021 93 10000 1.5 0 22:48 26.12.2019
1908 Clouds 16 1021 93 10000 2.61 13 22:23 26.12.2019
1909 Clouds 16 1021 93 10000 2.61 13 21:59 26.12.2019
1910 Rain 16 1021 93 6000 1 0 21:39 26.12.2019
1911 Rain 18 1021 93 6000 1 0 21:20 26.12.2019
1912 Rain 18 1021 82 10000 2.6 150 20:46 26.12.2019
1913 Clouds 18 1020 77 10000 4.07 34 20:23 26.12.2019
1914 Clouds 18 1021 88 10000 1.5 150 19:59 26.12.2019
1915 Clouds 17 1020 82 10000 3.6 110 19:40 26.12.2019
1916 Clouds 16 1020 82 10000 3.6 110 19:22 26.12.2019
1917 Clouds 16 1020 82 10000 4.1 120 18:58 26.12.2019
1918 Clouds 17 1019 77 10000 3.1 70 18:40 26.12.2019
1919 Clouds 19 1019 77 10000 3.1 70 18:20 26.12.2019
1920 Clouds 19 1019 77 10000 3.1 40 17:57 26.12.2019
1921 Clouds 17 1018 77 10000 3.6 10 17:38 26.12.2019
1922 Clouds 17 1018 77 10000 3.6 10 17:38 26.12.2019
1923 Clouds 17 1018 77 10000 3.6 10 17:38 26.12.2019
1924 Clouds 19 1018 77 10000 3.6 10 17:19 26.12.2019
1925 Clouds 20 1017 64 10000 6.7 280 16:45 26.12.2019
1926 Clouds 23 1017 64 10000 6.7 280 16:24 26.12.2019
1927 Clouds 22 1017 64 10000 3.1 280 15:56 26.12.2019
1928 Clouds 20 1017 64 10000 3.1 280 15:56 26.12.2019
1929 Clouds 18 1017 68 10000 5.1 260 15:38 26.12.2019
1930 Clouds 19 1017 68 10000 5.1 260 15:18 26.12.2019
1931 Clouds 20 1017 73 10000 6.2 270 14:40 26.12.2019
1932 Clouds 22 1017 73 10000 6.2 270 14:22 26.12.2019
1933 Clouds 23 1017 73 10000 4.1 270 13:44 26.12.2019
1934 Clouds 23 1017 73 10000 4.1 270 13:44 26.12.2019
1935 Clouds 23 1017 73 10000 4.1 270 13:22 26.12.2019
1936 Clouds 26 1018 54 10000 4.1 70 12:58 26.12.2019
1937 Clouds 26 1018 54 10000 4.1 70 12:58 26.12.2019
1938 Clouds 22 1018 54 10000 4.1 70 12:39 26.12.2019
1939 Clouds 21 1018 54 10000 4.1 70 12:21 26.12.2019
1940 Clouds 25 1019 57 10000 3.6 60 11:58 26.12.2019
1941 Clouds 24 1019 60 10000 2.6 70 11:39 26.12.2019
1942 Clouds 22 1019 60 10000 2.6 70 11:20 26.12.2019
1943 Clouds 21 1020 64 10000 2.6 90 10:49 26.12.2019
1944 Clouds 21 1020 60 10000 4.1 80 10:20 26.12.2019
1945 Clouds 23 1021 64 10000 2.6 50 09:53 26.12.2019
1946 Clouds 23 1021 60 10000 3.6 40 09:32 26.12.2019
1947 Clouds 20 1022 68 10000 2.6 60 08:55 26.12.2019
1948 Clouds 21 1022 73 10000 2.1 30 08:37 26.12.2019
1949 Clouds 19 1022 73 10000 2.1 30 08:18 26.12.2019
1950 Clouds 18 1022 77 10000 3.1 40 07:31 26.12.2019
1951 Clouds 18 1022 82 10000 2.1 30 06:54 26.12.2019
1952 Clouds 17 1021 88 10000 3.74 30 06:33 26.12.2019
1953 Clouds 16 1022 93 10000 2.1 40 05:46 26.12.2019
1954 Clouds 17 1021 93 10000 2.1 20 04:59 26.12.2019
1955 Clouds 16 1019 88 10000 1.74 10 04:32 26.12.2019
1956 Clouds 15 1020 93 10000 3.1 30 03:19 26.12.2019
1957 Clouds 16 1020 93 10000 3.1 50 02:40 26.12.2019
1958 Clouds 15 1020 93 10000 3.1 50 02:19 26.12.2019
1959 Clouds 16 1020 93 10000 2.6 50 01:41 26.12.2019
1960 Mist 16 1020 93 5000 3.1 60 01:22 26.12.2019
1961 Clouds 17 1020 93 10000 3.6 70 00:41 26.12.2019
1962 Clouds 16 1020 93 10000 3.6 70 00:22 26.12.2019
1963 Clouds 16 1021 93 10000 3.1 70 23:42 25.12.2019
1964 Clouds 18 1021 93 10000 3.1 70 23:21 25.12.2019
1965 Clouds 18 1021 93 10000 3.1 50 22:59 25.12.2019
1966 Clouds 16 1022 93 10000 3.6 60 22:40 25.12.2019
1967 Clouds 16 1022 93 10000 3.6 60 22:22 25.12.2019
1968 Clouds 16 1022 93 10000 3.6 60 22:22 25.12.2019
1969 Clouds 16 1022 93 10000 3.6 50 21:59 25.12.2019
1970 Clouds 16 1022 93 10000 2.6 40 21:40 25.12.2019
1971 Clouds 18 1022 93 10000 2.6 40 21:22 25.12.2019
1972 Clouds 18 1021 88 10000 2.6 30 20:57 25.12.2019
1973 Clouds 17 1021 88 10000 2.6 50 20:39 25.12.2019
1974 Clouds 18 1021 88 10000 2.6 50 20:18 25.12.2019
1975 Clouds 17 1021 82 10000 2.6 30 19:44 25.12.2019
1976 Clouds 18 1021 82 10000 2.6 30 19:25 25.12.2019
1977 Clouds 18 1020 82 10000 3.6 50 18:59 25.12.2019
1978 Clouds 19 1019 73 10000 4.1 40 18:39 25.12.2019
1979 Clouds 19 1019 73 10000 4.1 40 18:20 25.12.2019
1980 Clouds 20 1018 68 10000 5.1 60 17:43 25.12.2019
1981 Clouds 21 1018 68 10000 5.7 60 17:21 25.12.2019
1982 Clouds 21 1018 68 10000 5.7 60 16:59 25.12.2019
1983 Clouds 21 1017 53 10000 7.2 80 16:39 25.12.2019
1984 Clouds 21 1017 53 10000 7.2 80 16:19 25.12.2019
1985 Clouds 21 1018 57 10000 4.6 60 15:57 25.12.2019
1986 Clouds 21 1018 57 10000 4.6 60 15:57 25.12.2019
1987 Clouds 21 1017 53 10000 6.2 70 15:39 25.12.2019
1988 Clouds 21 1017 53 10000 6.2 70 15:20 25.12.2019
1989 Clouds 22 1017 57 10000 6.2 70 14:58 25.12.2019
1990 Clouds 22 1017 53 10000 5.1 90 14:39 25.12.2019
1991 Clouds 22 1017 53 10000 5.1 90 14:21 25.12.2019
1992 Clouds 23 1018 57 10000 5.1 80 13:55 25.12.2019
1993 Clouds 23 1017 53 10000 5.1 60 13:36 25.12.2019
1994 Clouds 23 1018 57 10000 4.6 80 13:18 25.12.2019
1995 Clouds 23 1019 53 10000 5.1 80 12:39 25.12.2019
1996 Clouds 22 1019 53 10000 5.1 80 12:20 25.12.2019
1997 Clouds 22 1019 57 10000 4.1 60 11:55 25.12.2019
1998 Clouds 22 1019 57 10000 6.2 60 11:37 25.12.2019
1999 Clouds 22 1019 57 10000 6.2 60 11:18 25.12.2019
2000 Clouds 21 1020 68 10000 5.1 40 10:38 25.12.2019
2001 Clouds 21 1020 68 10000 5.1 40 10:19 25.12.2019
2002 Clouds 21 1020 68 10000 5.1 40 10:19 25.12.2019
2003 Clouds 21 1021 69 10000 4.6 30 09:50 25.12.2019
2004 Clouds 22 1021 68 10000 5.1 90 09:32 25.12.2019
2005 Clouds 20 1022 73 10000 5.7 40 08:51 25.12.2019
2006 Clouds 20 1022 73 10000 5.7 40 08:30 25.12.2019
2007 Clouds 19 1022 82 10000 5.1 50 07:50 25.12.2019
2008 Clouds 19 1021 82 10000 5.1 40 07:31 25.12.2019
2009 Clouds 18 1022 93 10000 4.6 30 06:50 25.12.2019
2010 Clouds 17 1022 93 10000 4.1 50 06:22 25.12.2019
2011 Clouds 16 1021 93 10000 3.1 50 05:18 25.12.2019
2012 Clouds 16 1020 100 10000 3.1 40 04:39 25.12.2019
2013 Clouds 16 1020 100 10000 3.1 40 04:20 25.12.2019
2014 Clouds 16 1019 93 10000 2.1 50 03:41 25.12.2019
2015 Clouds 16 1020 93 10000 4.6 60 02:51 25.12.2019
2016 Clouds 16 1020 93 10000 4.6 60 02:20 25.12.2019
2017 Clouds 16 1020 93 10000 4.1 70 01:25 25.12.2019
2018 Clouds 16 1020 93 10000 1.5 40 00:52 25.12.2019
2019 Clouds 16 1021 93 10000 1.5 70 00:29 25.12.2019
2020 Clouds 16 1021 93 10000 2.1 70 23:56 24.12.2019
2021 Rain 17 1021 88 10000 5.1 60 23:38 24.12.2019
2022 Rain 17 1021 88 10000 5.1 60 23:20 24.12.2019
2023 Clouds 17 1021 88 10000 3.1 40 22:40 24.12.2019
2024 Clouds 17 1021 88 10000 3.1 40 22:21 24.12.2019
2025 Clouds 17 1022 88 10000 4.1 40 21:43 24.12.2019
2026 Clouds 17 1022 88 10000 4.1 40 21:23 24.12.2019
2027 Clouds 17 1022 88 10000 4.1 40 21:23 24.12.2019
2028 Clouds 17 1022 88 10000 6.2 40 20:57 24.12.2019
2029 Clouds 17 1022 88 10000 5.1 40 20:39 24.12.2019
2030 Clouds 17 1022 88 10000 5.1 40 20:18 24.12.2019
2031 Clouds 18 1021 77 10000 4.6 50 19:44 24.12.2019
2032 Clouds 20 1020 73 10000 6.2 50 19:20 24.12.2019
2033 Clouds 19 1020 64 10000 4.1 50 18:44 24.12.2019
2034 Clouds 20 1020 64 10000 4.1 50 18:24 24.12.2019
2035 Clouds 20 1019 73 10000 4.6 50 17:59 24.12.2019
2036 Clouds 20 1019 64 10000 4.1 50 17:38 24.12.2019
2037 Clouds 20 1019 64 10000 4.1 50 17:20 24.12.2019
2038 Clouds 20 1019 64 10000 5.7 80 16:55 24.12.2019
2039 Clouds 19 1019 64 10000 5.7 80 16:37 24.12.2019
2040 Clouds 22 1018 60 10000 5.1 80 16:19 24.12.2019
2041 Clouds 22 1018 60 10000 5.1 80 15:55 24.12.2019
2042 Clouds 22 1018 53 10000 5.1 60 15:36 24.12.2019
2043 Clouds 22 1018 53 10000 5.1 60 15:18 24.12.2019
2044 Clouds 22 1018 53 10000 5.1 90 14:55 24.12.2019
2045 Clouds 20 1018 57 10000 5.1 80 14:37 24.12.2019
2046 Clouds 22 1018 57 10000 5.1 80 14:19 24.12.2019
2047 Clouds 22 1018 60 10000 4.1 60 13:55 24.12.2019
2048 Clouds 22 1018 60 10000 4.1 60 13:55 24.12.2019
2049 Clouds 21 1019 60 10000 4.1 70 13:37 24.12.2019
2050 Clouds 22 1019 60 10000 4.1 70 13:19 24.12.2019
2051 Clouds 22 1019 57 10000 4.6 50 12:55 24.12.2019
2052 Clouds 21 1020 60 10000 5.7 90 12:36 24.12.2019
2053 Clouds 22 1020 60 10000 5.7 90 12:18 24.12.2019
2054 Clouds 22 1020 60 10000 3.6 50 11:55 24.12.2019
2055 Clouds 22 1021 64 10000 3.6 40 11:36 24.12.2019
2056 Clouds 21 1021 64 10000 3.6 40 11:18 24.12.2019
2057 Clouds 21 1021 69 10000 3.1 30 10:55 24.12.2019
2058 Clouds 22 1021 73 10000 3.1 10 10:36 24.12.2019
2059 Clouds 21 1021 73 10000 3.1 10 10:18 24.12.2019
2060 Clouds 20 1022 77 10000 3.1 30 09:54 24.12.2019
2061 Clouds 19 1021 82 10000 2.6 30 09:36 24.12.2019
2062 Clouds 19 1021 82 10000 2.6 30 09:18 24.12.2019
2063 Clouds 18 1022 93 10000 3.1 30 08:43 24.12.2019
2064 Clouds 17 1022 93 10000 3.1 30 08:20 24.12.2019
2065 Clouds 18 1022 82 10000 3.68 26 07:45 24.12.2019
2066 Clouds 18 1022 82 10000 3.68 26 07:25 24.12.2019
2067 Clouds 17 1023 88 10000 5.1 70 06:58 24.12.2019
2068 Clouds 17 1021 93 10000 3.6 50 06:38 24.12.2019
2069 Clouds 17 1021 93 10000 3.6 50 06:18 24.12.2019
2070 Clouds 16 1021 100 10000 2.01 30 05:20 24.12.2019
2071 Clouds 15 1022 100 10000 3.1 80 04:44 24.12.2019
2072 Clouds 16 1022 93 10000 3.1 70 03:50 24.12.2019
2073 Rain 15 1021 100 10000 4.1 90 03:18 24.12.2019
2074 Clouds 15 1021 100 10000 3.1 130 02:21 24.12.2019
2075 Clouds 15 1021 100 10000 3.1 130 01:50 24.12.2019
2076 Clouds 15 1021 93 10000 3.6 100 01:21 24.12.2019
2077 Clouds 16 1021 93 10000 3.1 80 00:45 24.12.2019
2078 Clouds 16 1021 93 10000 4.1 80 00:23 24.12.2019
2079 Clouds 16 1022 93 10000 3.6 80 23:56 23.12.2019
2080 Clouds 16 1022 93 10000 4.1 90 23:37 23.12.2019
2081 Clouds 16 1022 93 10000 4.1 90 23:19 23.12.2019
2082 Clouds 16 1022 93 10000 4.1 80 22:56 23.12.2019
2083 Clouds 16 1022 93 10000 3.6 80 22:36 23.12.2019
2084 Clouds 17 1022 93 10000 3.6 80 22:18 23.12.2019
2085 Clouds 17 1022 100 10000 3.6 80 21:55 23.12.2019
2086 Clouds 17 1021 88 10000 6.2 80 21:36 23.12.2019
2087 Clouds 17 1021 88 10000 6.2 80 21:18 23.12.2019
2088 Clouds 17 1022 93 10000 4.1 50 20:56 23.12.2019
2089 Clouds 17 1021 88 10000 4.6 50 20:38 23.12.2019
2090 Clouds 17 1021 88 10000 4.6 50 20:18 23.12.2019
2091 Clouds 17 1022 93 10000 3.6 50 19:55 23.12.2019
2092 Clouds 18 1020 88 10000 3.6 70 19:37 23.12.2019
2093 Clouds 18 1020 88 10000 3.6 70 19:19 23.12.2019
2094 Clouds 17 1021 88 10000 4.1 60 18:55 23.12.2019
2095 Clouds 17 1021 88 10000 3.6 50 18:37 23.12.2019
2096 Clouds 17 1021 88 10000 3.6 50 18:19 23.12.2019
2097 Clouds 18 1021 88 10000 4.6 50 17:55 23.12.2019
2098 Clouds 19 1019 64 10000 4.1 60 17:37 23.12.2019
2099 Clouds 19 1019 64 10000 4.1 60 17:18 23.12.2019
2100 Clouds 20 1018 60 10000 4.1 50 16:42 23.12.2019
2101 Clouds 22 1018 57 10000 6.7 70 16:19 23.12.2019
2102 Clouds 21 1018 57 10000 6.7 70 15:59 23.12.2019
2103 Clouds 20 1018 57 10000 7.2 70 15:38 23.12.2019
2104 Clouds 20 1018 57 10000 7.2 70 15:20 23.12.2019
2105 Clouds 20 1018 57 10000 7.2 60 14:59 23.12.2019
2106 Clouds 21 1018 57 10000 5.7 60 14:41 23.12.2019
2107 Clouds 22 1018 57 10000 5.7 60 14:23 23.12.2019
2108 Clouds 22 1019 53 10000 5.7 70 13:58 23.12.2019
2109 Clouds 21 1019 53 10000 5.7 70 13:40 23.12.2019
2110 Clouds 20 1019 60 10000 4.6 60 13:22 23.12.2019
2111 Clouds 21 1019 53 10000 5.7 70 13:22 23.12.2019
2112 Clouds 20 1019 60 10000 4.6 60 12:57 23.12.2019
2113 Clouds 21 1020 60 10000 4.1 60 12:39 23.12.2019
2114 Clouds 22 1020 60 10000 4.1 60 12:20 23.12.2019
2115 Clouds 24 1020 60 10000 4.1 60 11:44 23.12.2019
2116 Clouds 24 1020 60 10000 4.1 60 11:44 23.12.2019
2117 Clouds 22 1021 64 10000 3.6 60 11:26 23.12.2019
2118 Clouds 22 1021 64 10000 3.6 60 10:59 23.12.2019
2119 Clouds 22 1022 64 10000 2.6 50 10:41 23.12.2019
2120 Clouds 22 1022 64 10000 2.6 50 10:21 23.12.2019
2121 Clouds 22 1023 68 10000 3.6 30 09:59 23.12.2019
2122 Clouds 20 1023 77 10000 3.1 40 09:40 23.12.2019
2123 Clouds 19 1023 77 10000 3.1 40 09:21 23.12.2019
2124 Clouds 19 1023 77 10000 4.1 50 08:58 23.12.2019
2125 Clouds 19 1023 88 10000 2.1 70 08:40 23.12.2019
2126 Clouds 18 1023 88 10000 2.1 70 08:22 23.12.2019
2127 Clouds 17 1023 88 10000 2.6 70 07:47 23.12.2019
2128 Clouds 17 1023 88 10000 2.6 70 07:20 23.12.2019
2129 Clouds 17 1023 93 10000 4.1 70 06:53 23.12.2019
2130 Clouds 18 1022 88 10000 5.1 70 06:26 23.12.2019
2131 Clouds 16 1023 100 10000 3.1 30 05:56 23.12.2019
2132 Clouds 16 1021 93 10000 2.6 70 05:29 23.12.2019
2133 Clouds 16 1022 100 10000 2.6 60 04:31 23.12.2019
2134 Clouds 16 1022 100 10000 3.1 70 03:26 23.12.2019
2135 Clouds 16 1021 93 10000 4.1 60 02:42 23.12.2019
2136 Clouds 16 1021 93 10000 4.1 60 02:19 23.12.2019
2137 Clouds 15 1021 100 10000 4.6 70 01:42 23.12.2019
2138 Clouds 15 1021 100 10000 4.6 70 01:23 23.12.2019
2139 Clouds 16 1021 93 10000 4.1 70 00:43 23.12.2019
2140 Clouds 16 1021 93 10000 4.1 70 00:23 23.12.2019
2141 Clouds 16 1022 93 10000 3.6 60 23:40 22.12.2019
2142 Clouds 17 1022 93 10000 3.6 60 23:21 22.12.2019
2143 Clouds 17 1023 93 10000 3.1 30 22:58 22.12.2019
2144 Clouds 17 1023 93 10000 3.1 30 22:58 22.12.2019
2145 Clouds 17 1022 93 10000 3.6 60 22:40 22.12.2019
2146 Clouds 17 1022 93 10000 3.6 60 22:21 22.12.2019
2147 Clouds 17 1023 100 10000 5.1 50 21:58 22.12.2019
2148 Rain 17 1022 93 10000 3.1 50 21:40 22.12.2019
2149 Rain 17 1022 93 10000 3.1 50 21:21 22.12.2019
2150 Clouds 18 1023 93 10000 3.1 50 20:58 22.12.2019
2151 Clouds 18 1022 88 10000 2.6 20 20:39 22.12.2019
2152 Clouds 17 1022 88 10000 2.6 20 20:19 22.12.2019
2153 Clouds 17 1023 93 10000 2.6 30 19:57 22.12.2019
2154 Clouds 17 1021 82 10000 3.1 20 19:38 22.12.2019
2155 Clouds 17 1021 82 10000 3.1 20 19:19 22.12.2019
2156 Clouds 18 1020 82 10000 5.1 50 18:42 22.12.2019
2157 Clouds 17 1020 82 10000 5.1 50 18:23 22.12.2019
2158 Clouds 18 1021 82 10000 5.1 60 17:56 22.12.2019
2159 Clouds 18 1019 77 10000 3.6 70 17:38 22.12.2019
2160 Clouds 18 1019 77 10000 3.6 70 17:19 22.12.2019
2161 Clouds 19 1020 77 10000 5.7 40 16:57 22.12.2019
2162 Clouds 19 1019 73 10000 6.2 60 16:38 22.12.2019
2163 Clouds 19 1019 73 10000 6.2 60 16:20 22.12.2019
2164 Clouds 20 1019 64 10000 7.7 60 15:56 22.12.2019
2165 Clouds 20 1019 64 10000 7.7 60 15:56 22.12.2019
2166 Clouds 20 1018 56 10000 8.7 50 15:38 22.12.2019
2167 Clouds 21 1018 57 10000 8.2 50 15:19 22.12.2019
2168 Clouds 21 1018 57 10000 8.2 50 14:55 22.12.2019
2169 Clouds 21 1017 57 10000 9.3 90 14:36 22.12.2019
2170 Clouds 21 1017 57 10000 9.3 90 14:18 22.12.2019
2171 Clouds 21 1018 60 10000 6.7 70 13:55 22.12.2019
2172 Clouds 21 1018 53 10000 6.2 80 13:36 22.12.2019
2173 Clouds 21 1018 53 10000 6.2 80 13:18 22.12.2019
2174 Clouds 20 1019 60 10000 6.2 70 12:55 22.12.2019
2175 Clouds 20 1019 60 10000 6.2 70 12:55 22.12.2019
2176 Clouds 20 1019 57 10000 5.7 70 12:37 22.12.2019
2177 Clouds 20 1019 57 10000 5.7 70 12:18 22.12.2019
2178 Clouds 20 1020 53 10000 5.1 60 11:56 22.12.2019
2179 Clouds 21 1020 64 10000 4.1 30 11:37 22.12.2019
2180 Clouds 21 1021 68 10000 5.7 50 11:18 22.12.2019
2181 Clouds 21 1021 68 10000 5.7 50 10:54 22.12.2019
2182 Clouds 21 1021 64 10000 3.6 20 10:36 22.12.2019
2183 Clouds 22 1021 64 10000 3.6 20 10:18 22.12.2019
2184 Clouds 20 1022 73 10000 5.1 30 09:56 22.12.2019
2185 Clouds 19 1021 72 10000 4.6 90 09:37 22.12.2019
2186 Clouds 19 1023 82 10000 5.1 40 09:19 22.12.2019
2187 Clouds 19 1022 82 10000 4.1 30 08:39 22.12.2019
2188 Clouds 19 1022 82 10000 4.1 30 08:21 22.12.2019
2189 Clouds 18 1023 82 10000 0.16 325 07:40 22.12.2019
2190 Clouds 18 1023 82 10000 0.16 325 07:21 22.12.2019
2191 Clouds 16 1022 88 10000 0.16 325 06:41 22.12.2019
2192 Clouds 15 1023 93 10000 0.16 325 05:56 22.12.2019
2193 Clouds 14 1022 93 10000 0.16 325 05:24 22.12.2019
2194 Clouds 14 1021 100 10000 0.73 51 04:31 22.12.2019
2195 Clouds 13 1022 93 10000 1.5 240 03:58 22.12.2019
2196 Clouds 13 1021 93 10000 1 0 02:43 22.12.2019
2197 Clouds 13 1021 93 10000 1 0 02:43 22.12.2019
2198 Clouds 16 1021 93 10000 1 0 01:54 22.12.2019
2199 Clouds 16 1021 93 10000 2.1 80 01:31 22.12.2019
2200 Clouds 14 1021 93 10000 3.6 30 00:48 22.12.2019
2201 Clouds 14 1021 93 10000 3.6 30 00:26 22.12.2019
2202 Clouds 14 1022 87 10000 5.7 30 23:57 21.12.2019
2203 Clouds 14 1022 88 10000 5.7 40 23:38 21.12.2019
2204 Clouds 14 1022 88 10000 5.7 40 23:19 21.12.2019
2205 Clouds 14 1023 93 10000 4.1 30 22:45 21.12.2019
2206 Clouds 14 1023 93 10000 4.1 30 22:20 21.12.2019
2207 Clouds 17 1023 93 10000 3.6 20 21:58 21.12.2019
2208 Clouds 17 1023 93 10000 3.1 10 21:38 21.12.2019
2209 Clouds 17 1023 93 10000 3.1 10 21:20 21.12.2019
2210 Clouds 15 1023 93 10000 2.1 360 20:59 21.12.2019
2211 Clouds 15 1022 93 10000 1.96 63 20:40 21.12.2019
2212 Clouds 15 1022 93 10000 3.04 42 20:22 21.12.2019
2213 Clouds 15 1023 93 10000 1.5 30 19:58 21.12.2019
2214 Clouds 15 1023 93 10000 1 250 19:40 21.12.2019
2215 Clouds 16 1023 93 10000 1 0 19:19 21.12.2019
2216 Clouds 16 1023 93 10000 1 0 18:55 21.12.2019
2217 Clouds 16 1021 88 10000 3.04 42 18:37 21.12.2019
2218 Clouds 16 1021 88 10000 3.04 42 18:19 21.12.2019
2219 Rain 17 1021 93 10000 4.1 30 17:55 21.12.2019
2220 Clouds 17 1019 82 10000 3.04 42 17:36 21.12.2019
2221 Clouds 17 1019 82 10000 3.87 56 17:18 21.12.2019
2222 Clouds 17 1019 82 10000 3.87 56 17:18 21.12.2019
2223 Rain 18 1018 77 10000 3.87 56 16:41 21.12.2019
2224 Rain 17 1018 77 10000 3.87 56 16:19 21.12.2019
2225 Clouds 21 1019 77 10000 5.1 50 15:57 21.12.2019
2226 Clouds 19 1018 60 10000 2.6 330 15:39 21.12.2019
2227 Clouds 19 1018 60 10000 2.6 330 15:20 21.12.2019
2228 Thunderstorm 21 1018 57 10000 7.2 40 14:57 21.12.2019
2229 Clouds 22 1017 53 10000 5.1 70 14:38 21.12.2019
2230 Clouds 22 1017 53 10000 5.1 70 14:20 21.12.2019
2231 Clouds 22 1018 50 10000 5.1 30 13:56 21.12.2019
2232 Clouds 22 1017 50 10000 7.2 50 13:38 21.12.2019
2233 Clouds 22 1017 50 10000 7.2 50 13:18 21.12.2019
2234 Clouds 22 1018 50 10000 5.7 50 12:55 21.12.2019
2235 Clouds 20 1019 50 10000 5.7 50 12:37 21.12.2019
2236 Clouds 22 1019 50 10000 5.7 50 12:18 21.12.2019
2237 Clouds 21 1019 53 10000 4.6 20 11:44 21.12.2019
2238 Clouds 25 1019 53 10000 4.6 20 11:26 21.12.2019
2239 Clouds 23 1020 57 10000 6.2 30 10:57 21.12.2019
2240 Clouds 23 1020 57 10000 6.2 30 10:57 21.12.2019
2241 Clouds 21 1020 60 10000 5.1 30 10:38 21.12.2019
2242 Clouds 21 1020 60 10000 5.1 30 10:20 21.12.2019
2243 Clouds 20 1021 64 10000 5.1 50 09:56 21.12.2019
2244 Clouds 20 1022 64 10000 4.6 50 09:37 21.12.2019
2245 Clouds 20 1022 64 10000 4.6 50 09:18 21.12.2019
2246 Clouds 21 1022 73 10000 4.6 40 08:44 21.12.2019
2247 Clouds 20 1022 73 10000 4.6 40 08:25 21.12.2019
2248 Clouds 16 1022 73 10000 5.7 50 07:46 21.12.2019
2249 Clouds 17 1022 77 10000 5.7 20 07:22 21.12.2019
2250 Clouds 17 1022 88 10000 4.1 40 06:46 21.12.2019
2251 Clouds 18 1022 88 10000 4.1 40 06:26 21.12.2019
2252 Clouds 17 1022 93 10000 4.1 40 05:55 21.12.2019
2253 Clouds 16 1020 93 10000 3.1 50 04:58 21.12.2019
2254 Clouds 16 1020 93 10000 3.1 50 04:58 21.12.2019
2255 Clouds 16 1020 93 10000 2.6 40 03:59 21.12.2019
2256 Clouds 16 1020 93 10000 2.6 40 03:18 21.12.2019
2257 Clouds 16 1020 93 10000 3.6 10 02:18 21.12.2019
2258 Clouds 16 1020 93 10000 2.6 360 01:38 21.12.2019
2259 Clouds 16 1020 93 10000 2.6 360 01:20 21.12.2019
2260 Clouds 16 1021 88 10000 3.1 360 00:37 21.12.2019
2261 Clouds 16 1021 88 10000 3.1 360 00:18 21.12.2019
2262 Clouds 16 1021 88 10000 5.1 30 23:38 20.12.2019
2263 Clouds 17 1021 82 10000 5.1 60 23:19 20.12.2019
2264 Clouds 17 1021 82 10000 5.1 60 22:43 20.12.2019
2265 Clouds 17 1021 82 10000 5.1 60 22:22 20.12.2019
2266 Clouds 17 1022 88 10000 3.1 50 21:59 20.12.2019
2267 Clouds 17 1022 82 10000 4.1 50 21:40 20.12.2019
2268 Clouds 17 1022 82 10000 4.1 50 21:20 20.12.2019
2269 Clouds 17 1022 82 10000 3.6 50 20:56 20.12.2019
2270 Clouds 17 1022 82 10000 3.6 50 20:36 20.12.2019
2271 Clouds 17 1022 82 10000 3.6 50 20:18 20.12.2019
2272 Clouds 18 1022 77 10000 5.1 70 19:42 20.12.2019
2273 Clouds 19 1021 77 10000 4.1 70 19:21 20.12.2019
2274 Clouds 19 1021 77 10000 4.1 70 18:58 20.12.2019
2275 Clouds 18 1021 77 10000 4.1 50 18:39 20.12.2019
2276 Clouds 18 1021 77 10000 4.1 50 18:39 20.12.2019
2277 Clouds 19 1021 77 10000 4.1 50 18:21 20.12.2019
2278 Clouds 19 1020 68 10000 5.1 60 17:55 20.12.2019
2279 Clouds 20 1019 68 10000 5.7 80 17:37 20.12.2019
2280 Clouds 20 1019 68 10000 5.7 80 17:18 20.12.2019
2281 Clouds 21 1018 53 10000 6.2 80 16:40 20.12.2019
2282 Clouds 22 1018 53 10000 6.2 80 16:21 20.12.2019
2283 Clouds 22 1017 50 10000 5.1 90 15:57 20.12.2019
2284 Clouds 22 1017 50 10000 5.1 90 15:39 20.12.2019
2285 Clouds 23 1017 47 10000 5.1 60 15:20 20.12.2019
2286 Clouds 23 1017 47 10000 5.1 20 14:59 20.12.2019
2287 Clouds 23 1017 47 10000 5.1 20 14:41 20.12.2019
2288 Clouds 23 1018 47 10000 4.6 50 14:23 20.12.2019
2289 Clouds 23 1018 47 10000 4.6 60 13:56 20.12.2019
2290 Clouds 24 1019 50 10000 4.1 60 13:37 20.12.2019
2291 Clouds 24 1019 50 10000 4.1 60 13:18 20.12.2019
2292 Clouds 25 1018 44 10000 3.1 80 12:55 20.12.2019
2293 Clouds 24 1019 50 10000 5.1 60 12:36 20.12.2019
2294 Clouds 24 1019 50 10000 5.1 60 12:18 20.12.2019
2295 Clouds 24 1019 47 10000 3.1 60 11:56 20.12.2019
2296 Clouds 23 1019 47 10000 3.1 60 11:37 20.12.2019
2297 Clouds 23 1020 50 10000 5.7 50 11:18 20.12.2019
2298 Clouds 23 1021 43 10000 5.1 90 10:54 20.12.2019
2299 Clouds 22 1011 47 0 0.45 157 10:36 20.12.2019
2300 Clouds 22 1021 43 10000 3.6 60 10:18 20.12.2019
2301 Clouds 22 1022 49 10000 5.7 40 09:41 20.12.2019
2302 Clouds 22 1022 46 10000 5.7 40 09:21 20.12.2019
2303 Clouds 21 1022 46 10000 5.1 40 08:44 20.12.2019
2304 Clouds 20 1023 52 10000 5.1 60 08:26 20.12.2019
2305 Clouds 20 1022 60 10000 4.1 50 07:59 20.12.2019
2306 Clouds 19 1022 60 10000 4.1 50 07:41 20.12.2019
2307 Clouds 17 1023 77 10000 2.6 70 07:20 20.12.2019
2308 Clouds 16 1022 87 10000 5.77 32 06:52 20.12.2019
2309 Mist 15 1023 93 5000 5.77 32 06:33 20.12.2019
2310 Mist 13 1022 87 8000 1.5 240 05:56 20.12.2019
2311 Mist 12 1022 87 8000 1.5 240 05:38 20.12.2019
2312 Clouds 11 1021 93 10000 0.5 0 04:34 20.12.2019
2313 Clouds 14 1021 93 10000 2.3 12 03:31 20.12.2019
2314 Clouds 13 1020 93 10000 1.5 360 02:45 20.12.2019
2315 Clouds 15 1020 87 10000 2.29 25 01:54 20.12.2019
2316 Clouds 15 1021 87 10000 2.1 10 01:34 20.12.2019
2317 Clouds 15 1021 87 10000 2.1 10 00:49 20.12.2019
2318 Clouds 15 1022 87 10000 2.1 360 00:30 20.12.2019
2319 Clouds 15 1022 87 10000 2.1 360 23:57 19.12.2019
2320 Clouds 15 1022 87 10000 2.1 360 23:38 19.12.2019
2321 Clouds 16 1022 87 10000 2.6 10 23:19 19.12.2019
2322 Clouds 16 1022 87 10000 2.6 10 23:19 19.12.2019
2323 Clouds 15 1022 87 10000 3.1 30 22:38 19.12.2019
2324 Clouds 16 1022 87 10000 3.1 30 22:20 19.12.2019
2325 Clouds 15 1022 82 10000 3.6 20 21:56 19.12.2019
2326 Clouds 15 1022 82 10000 3.6 20 21:38 19.12.2019
2327 Clouds 15 1022 82 10000 3.6 30 21:19 19.12.2019
2328 Clouds 15 1022 82 10000 4.6 40 20:56 19.12.2019
2329 Clouds 16 1022 77 10000 4.1 30 20:37 19.12.2019
2330 Clouds 16 1022 77 10000 4.1 30 20:37 19.12.2019
2331 Clouds 17 1022 77 10000 4.1 30 20:18 19.12.2019
2332 Clouds 17 1022 77 10000 4.1 30 20:18 19.12.2019
2333 Clouds 17 1021 63 10000 3.1 40 19:57 19.12.2019
2334 Clouds 17 1021 63 10000 3.1 40 19:39 19.12.2019
2335 Clouds 17 1021 72 10000 5.1 40 19:19 19.12.2019
2336 Clouds 16 1021 72 10000 4.1 40 18:56 19.12.2019
2337 Clouds 16 1021 72 10000 4.1 40 18:38 19.12.2019
2338 Clouds 16 1020 63 10000 5.1 60 18:18 19.12.2019
2339 Clouds 17 1020 52 10000 6.2 70 17:55 19.12.2019
2340 Clouds 17 1019 52 10000 6.2 80 17:37 19.12.2019
2341 Clouds 20 1019 52 10000 6.2 80 17:18 19.12.2019
2342 Clouds 20 1018 33 10000 10.3 90 16:55 19.12.2019
2343 Clouds 21 1019 38 10000 7.7 80 16:36 19.12.2019
2344 Clouds 22 1019 38 10000 7.7 80 16:18 19.12.2019
2345 Clouds 22 1018 41 10000 5.1 90 15:55 19.12.2019
2346 Clouds 23 1018 38 10000 5.7 40 15:36 19.12.2019
2347 Clouds 23 1018 38 10000 5.7 40 15:18 19.12.2019
2348 Clouds 23 1018 36 10000 4.1 60 14:42 19.12.2019
2349 Clouds 24 1018 41 10000 6.2 50 14:20 19.12.2019
2350 Clouds 24 1018 29 10000 5.1 50 13:58 19.12.2019
2351 Clouds 24 1019 33 10000 7.7 60 13:38 19.12.2019
2352 Clouds 24 1019 33 10000 7.7 60 13:19 19.12.2019
2353 Clouds 24 1019 27 10000 10.3 90 12:57 19.12.2019
2354 Clouds 24 1020 31 10000 8.2 70 12:39 19.12.2019
2355 Clouds 24 1020 31 10000 8.2 70 12:38 19.12.2019
2356 Clouds 23 1020 31 10000 8.2 70 12:19 19.12.2019
2357 Clouds 23 1020 31 10000 8.2 70 12:19 19.12.2019
2358 Clouds 23 1020 31 10000 8.2 70 12:19 19.12.2019
2359 Clouds 23 1021 38 10000 7.7 60 11:58 19.12.2019
2360 Clouds 23 1021 38 10000 7.7 60 11:40 19.12.2019
2361 Clouds 23 1020 33 10000 4.1 70 11:18 19.12.2019
2362 Clouds 23 1020 33 10000 4.1 70 10:56 19.12.2019
2363 Clouds 22 1021 46 10000 5.1 50 10:38 19.12.2019
2364 Clouds 21 1021 46 10000 5.1 50 10:19 19.12.2019
2365 Clouds 21 1021 49 10000 4.6 50 09:54 19.12.2019
2366 Clouds 20 1022 52 10000 6.7 50 09:36 19.12.2019
2367 Clouds 21 1022 52 10000 6.7 50 09:18 19.12.2019
2368 Clouds 19 1023 68 10000 5.7 50 08:41 19.12.2019
2369 Clouds 19 1023 68 10000 5.7 50 08:19 19.12.2019
2370 Clouds 18 1022 72 10000 4.6 60 07:58 19.12.2019
2371 Clouds 18 1022 72 10000 4.6 60 07:38 19.12.2019
2372 Clouds 17 1023 88 10000 4.1 20 07:19 19.12.2019
2373 Clouds 17 1022 77 10000 2.1 30 06:50 19.12.2019
2374 Clouds 17 1022 77 10000 2.1 30 06:50 19.12.2019
2375 Clouds 16 1023 93 10000 3.6 20 06:29 19.12.2019
2376 Clouds 15 1021 87 10000 3.6 40 05:55 19.12.2019
2377 Clouds 14 1022 93 10000 2.6 20 05:36 19.12.2019
2378 Clouds 14 1021 93 10000 4 30 04:52 19.12.2019
2379 Clouds 15 1021 93 10000 3.1 20 03:23 19.12.2019
2380 Clouds 14 1021 93 10000 3.1 30 02:23 19.12.2019
2381 Clouds 15 1021 88 10000 4.1 50 01:23 19.12.2019
2382 Clouds 14 1022 93 10000 4.6 50 00:44 19.12.2019
2383 Clouds 15 1022 88 10000 4.1 40 00:24 19.12.2019
2384 Clouds 15 1022 88 10000 3.1 40 23:57 18.12.2019
2385 Clouds 15 1022 88 10000 4.1 50 23:38 18.12.2019
2386 Clouds 15 1022 88 10000 4.1 50 23:18 18.12.2019
2387 Clouds 15 1022 88 10000 4.1 60 22:55 18.12.2019
2388 Clouds 16 1022 88 10000 4.6 60 22:37 18.12.2019
2389 Clouds 17 1022 88 10000 4.6 60 22:19 18.12.2019
2390 Clouds 16 1021 82 10000 5.1 70 21:56 18.12.2019
2391 Clouds 16 1022 88 10000 5.7 50 21:38 18.12.2019
2392 Clouds 17 1022 88 10000 5.7 50 21:19 18.12.2019
2393 Clouds 16 1022 88 10000 5.1 50 20:55 18.12.2019
2394 Clouds 18 1022 82 10000 5.1 60 20:37 18.12.2019
2395 Clouds 18 1022 82 10000 5.1 60 20:19 18.12.2019
2396 Clouds 18 1021 77 10000 7.7 60 19:55 18.12.2019
2397 Clouds 18 1021 77 10000 5.7 60 19:37 18.12.2019
2398 Clouds 18 1021 77 10000 5.7 60 19:18 18.12.2019
2399 Clouds 18 1019 77 10000 6.2 70 18:44 18.12.2019
2400 Clouds 19 1020 77 10000 5.1 70 18:25 18.12.2019
2401 Clouds 19 1018 68 10000 6.7 70 17:57 18.12.2019
2402 Clouds 19 1019 68 10000 6.7 80 17:39 18.12.2019
2403 Clouds 20 1019 68 10000 6.7 80 17:19 18.12.2019
2404 Clouds 20 1018 64 10000 5.7 70 16:57 18.12.2019
2405 Clouds 19 1019 64 10000 6.7 70 16:38 18.12.2019
2406 Clouds 19 1019 64 10000 6.7 70 16:20 18.12.2019
2407 Clouds 20 1018 60 10000 7.7 70 15:55 18.12.2019
2408 Clouds 21 1018 57 10000 7.2 80 15:37 18.12.2019
2409 Clouds 21 1018 57 10000 7.2 80 15:37 18.12.2019
2410 Clouds 21 1018 57 10000 7.2 70 15:19 18.12.2019
2411 Clouds 22 1018 57 10000 6.2 80 14:42 18.12.2019
2412 Clouds 23 1018 57 10000 6.2 80 14:22 18.12.2019
2413 Clouds 24 1018 53 10000 5.7 40 13:57 18.12.2019
2414 Clouds 23 1018 50 10000 6.2 50 13:39 18.12.2019
2415 Clouds 23 1018 50 10000 6.2 50 13:20 18.12.2019
2416 Clouds 23 1018 53 10000 6.7 40 12:59 18.12.2019
2417 Clouds 23 1019 53 10000 5.1 50 12:38 18.12.2019
2418 Clouds 22 1019 53 10000 5.1 50 12:20 18.12.2019
2419 Clouds 22 1019 57 10000 5.7 50 11:56 18.12.2019
2420 Clouds 22 1020 53 10000 5.1 30 11:38 18.12.2019
2421 Clouds 22 1020 53 10000 5.1 30 11:19 18.12.2019
2422 Clouds 22 1020 57 10000 5.7 60 10:56 18.12.2019
2423 Clouds 22 1020 56 10000 4.1 60 10:38 18.12.2019
2424 Clouds 22 1020 56 10000 4.1 60 10:20 18.12.2019
2425 Clouds 22 1021 56 10000 5.7 50 09:50 18.12.2019
2426 Clouds 21 1021 60 10000 5.1 30 09:50 18.12.2019
2427 Clouds 22 1021 60 10000 5.1 30 09:18 18.12.2019
2428 Clouds 20 1022 72 10000 4.1 30 08:41 18.12.2019
2429 Clouds 20 1022 72 10000 4.1 30 08:23 18.12.2019
2430 Clouds 18 1022 88 10000 5.1 20 07:55 18.12.2019
2431 Clouds 18 1022 88 10000 5.1 20 07:36 18.12.2019
2432 Clouds 18 1022 88 10000 5.1 20 07:18 18.12.2019
2433 Clouds 17 1021 88 10000 7.7 50 06:49 18.12.2019
2434 Clouds 17 1021 88 10000 7.7 50 06:22 18.12.2019
2435 Clouds 16 1021 100 9000 5.1 60 05:27 18.12.2019
2436 Clouds 15 1021 100 10000 3.6 50 03:31 18.12.2019
2437 Clouds 15 1020 100 10000 3.6 70 02:41 18.12.2019
2438 Clouds 16 1020 100 10000 3.6 70 02:23 18.12.2019
2439 Clouds 16 1020 93 10000 4.1 50 01:42 18.12.2019
2440 Clouds 16 1020 93 10000 4.1 50 01:24 18.12.2019
2441 Clouds 15 1021 93 10000 4.1 80 00:42 18.12.2019
2442 Clouds 15 1021 93 10000 4.1 80 00:24 18.12.2019
2443 Clouds 15 1021 93 10000 4.1 80 00:24 18.12.2019
2444 Clouds 16 1021 93 10000 3.1 70 23:58 17.12.2019
2445 Clouds 16 1021 93 10000 2.6 90 23:39 17.12.2019
2446 Clouds 15 1021 93 10000 2.6 90 23:20 17.12.2019
2447 Clouds 16 1022 93 10000 3.6 60 22:57 17.12.2019
2448 Clouds 16 1022 93 10000 3.1 70 22:38 17.12.2019
2449 Clouds 17 1022 93 10000 3.1 70 22:19 17.12.2019
2450 Clouds 17 1022 88 10000 3.1 60 21:57 17.12.2019
2451 Clouds 17 1021 88 10000 4.1 30 21:38 17.12.2019
2452 Clouds 17 1021 88 10000 4.1 30 21:20 17.12.2019
2453 Clouds 18 1022 88 10000 2.6 40 20:58 17.12.2019
2454 Clouds 17 1022 88 10000 3.1 40 20:39 17.12.2019
2455 Clouds 18 1022 88 10000 3.1 40 20:19 17.12.2019
2456 Clouds 17 1021 88 10000 3.1 20 19:57 17.12.2019
2457 Clouds 18 1020 88 10000 5.1 60 19:39 17.12.2019
2458 Clouds 17 1020 88 10000 5.1 60 19:19 17.12.2019
2459 Thunderstorm 18 1021 82 10000 4.1 40 18:56 17.12.2019
2460 Thunderstorm 17 1021 82 10000 4.1 50 18:37 17.12.2019
2461 Clouds 19 1020 77 10000 4.6 40 18:19 17.12.2019
2462 Clouds 19 1020 77 10000 4.6 40 18:19 17.12.2019
2463 Clouds 19 1018 68 10000 5.1 70 17:42 17.12.2019
2464 Clouds 20 1019 73 10000 5.1 70 17:21 17.12.2019
2465 Clouds 20 1019 73 10000 5.1 70 16:57 17.12.2019
2466 Clouds 20 1017 60 10000 5.1 90 16:38 17.12.2019
2467 Clouds 21 1015 57 10000 6.2 90 16:19 17.12.2019
2468 Clouds 21 1015 57 10000 6.2 90 15:59 17.12.2019
2469 Clouds 19 1015 57 10000 6.2 90 15:38 17.12.2019
2470 Clouds 21 1015 57 10000 6.2 90 15:19 17.12.2019
2471 Clouds 21 1015 57 10000 5.1 80 14:56 17.12.2019
2472 Clouds 21 1015 57 10000 5.1 80 14:56 17.12.2019
2473 Clouds 21 1015 57 10000 5.1 80 14:38 17.12.2019
2474 Clouds 21 1015 57 10000 5.1 80 14:19 17.12.2019
2475 Clouds 22 1017 60 10000 5.7 90 13:56 17.12.2019
2476 Clouds 21 1017 57 10000 6.2 90 13:38 17.12.2019
2477 Clouds 22 1017 57 10000 6.2 90 13:19 17.12.2019
2478 Clouds 22 1018 53 10000 4.6 70 13:19 17.12.2019
2479 Clouds 22 1018 53 10000 4.6 70 12:58 17.12.2019
2480 Clouds 24 1018 53 10000 7.2 70 12:38 17.12.2019
2481 Clouds 24 1018 60 10000 4.1 70 12:18 17.12.2019
2482 Clouds 24 1018 60 10000 4.1 70 11:56 17.12.2019
2483 Clouds 22 1018 53 10000 5.7 50 11:36 17.12.2019
2484 Clouds 22 1018 53 10000 5.7 50 11:18 17.12.2019
2485 Clouds 22 1019 53 10000 2.6 40 10:57 17.12.2019
2486 Clouds 23 1019 53 10000 2.6 40 10:38 17.12.2019
2487 Clouds 23 1019 53 10000 2.6 40 10:19 17.12.2019
2488 Clouds 22 1020 60 10000 5.7 40 09:55 17.12.2019
2489 Clouds 21 1020 60 10000 2.6 60 09:37 17.12.2019
2490 Clouds 21 1020 60 10000 2.6 60 09:18 17.12.2019
2491 Clouds 21 1021 68 10000 5.1 80 08:40 17.12.2019
2492 Clouds 20 1021 68 10000 5.1 80 08:22 17.12.2019
2493 Clouds 19 1022 77 10000 3.6 50 07:59 17.12.2019
2494 Clouds 18 1021 82 10000 3.6 10 07:41 17.12.2019
2495 Clouds 18 1021 82 10000 3.6 10 07:22 17.12.2019
2496 Clouds 17 1021 93 10000 3.6 40 06:43 17.12.2019
2497 Clouds 17 1021 93 10000 3.6 40 06:24 17.12.2019
2498 Clouds 17 1020 93 10000 3.1 40 05:42 17.12.2019
2499 Clouds 15 1021 100 10000 3.6 30 04:58 17.12.2019
2500 Clouds 14 1020 93 10000 3.6 40 03:55 17.12.2019
2501 Clouds 16 1019 88 10000 2.85 42 02:26 17.12.2019
2502 Clouds 15 1019 93 10000 1.5 10 01:22 17.12.2019
2503 Clouds 15 1019 93 10000 1.5 10 00:48 17.12.2019
2504 Clouds 15 1020 100 10000 2.1 50 00:22 17.12.2019
2505 Clouds 16 1020 93 10000 2.6 40 23:58 16.12.2019
2506 Clouds 16 1020 93 10000 2.1 40 23:40 16.12.2019
2507 Clouds 17 1020 93 10000 2.1 40 23:18 16.12.2019
2508 Clouds 17 1020 93 10000 2.6 40 22:55 16.12.2019
2509 Clouds 16 1020 93 10000 4.1 40 22:36 16.12.2019
2510 Clouds 17 1020 88 10000 3.6 40 22:18 16.12.2019
2511 Clouds 17 1020 88 10000 3.6 40 21:54 16.12.2019
2512 Clouds 17 1019 88 10000 3.6 60 21:36 16.12.2019
2513 Clouds 17 1019 88 10000 3.6 60 21:18 16.12.2019
2514 Clouds 18 1020 82 10000 3.1 60 20:56 16.12.2019
2515 Clouds 18 1019 77 10000 2.6 40 20:37 16.12.2019
2516 Clouds 17 1019 77 10000 2.6 40 20:18 16.12.2019
2517 Clouds 18 1020 82 10000 4.1 30 19:55 16.12.2019
2518 Clouds 17 1019 77 10000 3.1 60 19:36 16.12.2019
2519 Clouds 17 1019 77 10000 3.1 60 19:18 16.12.2019
2520 Clouds 18 1019 82 10000 4.1 30 18:54 16.12.2019
2521 Clouds 18 1018 68 10000 3.6 30 18:36 16.12.2019
2522 Clouds 19 1018 77 10000 4.1 40 18:18 16.12.2019
2523 Clouds 19 1018 77 10000 4.1 40 17:55 16.12.2019
2524 Clouds 19 1017 68 10000 4.1 70 17:37 16.12.2019
2525 Clouds 19 1017 68 10000 4.1 70 17:18 16.12.2019
2526 Clouds 20 1018 64 10000 6.2 50 16:54 16.12.2019
2527 Clouds 21 1017 56 10000 4.1 50 16:36 16.12.2019
2528 Clouds 21 1017 56 10000 4.1 50 16:18 16.12.2019
2529 Clouds 21 1017 60 10000 6.2 60 15:54 16.12.2019
2530 Clouds 22 1016 57 10000 4.6 60 15:36 16.12.2019
2531 Clouds 22 1016 57 10000 4.6 60 15:18 16.12.2019
2532 Clouds 22 1017 57 10000 5.1 80 14:54 16.12.2019
2533 Clouds 22 1017 53 10000 7.7 90 14:36 16.12.2019
2534 Clouds 23 1017 53 10000 7.7 90 14:18 16.12.2019
2535 Clouds 23 1018 50 10000 4.6 100 13:38 16.12.2019
2536 Clouds 23 1018 50 10000 4.6 100 13:20 16.12.2019
2537 Clouds 23 1018 57 10000 4.6 60 12:58 16.12.2019
2538 Clouds 23 1018 57 10000 4.6 60 12:58 16.12.2019
2539 Clouds 23 1020 57 10000 4.6 50 12:40 16.12.2019
2540 Clouds 23 1020 57 10000 4.6 50 12:20 16.12.2019
2541 Clouds 23 1020 57 10000 4.6 50 11:59 16.12.2019
2542 Clouds 23 1019 56 10000 3.6 70 11:41 16.12.2019
2543 Clouds 22 1019 56 10000 3.6 70 11:21 16.12.2019
2544 Clouds 22 1021 60 10000 3.6 40 10:59 16.12.2019
2545 Clouds 22 1020 56 10000 5.1 40 10:40 16.12.2019
2546 Clouds 22 1020 56 10000 5.1 40 10:40 16.12.2019
2547 Clouds 21 1020 56 10000 5.1 40 10:20 16.12.2019
2548 Clouds 21 1021 60 10000 3.6 60 09:46 16.12.2019
2549 Clouds 21 1021 60 10000 3.6 60 09:28 16.12.2019
2550 Clouds 20 1022 68 10000 3.6 40 08:58 16.12.2019
2551 Clouds 21 1021 68 10000 5.1 60 08:38 16.12.2019
2552 Clouds 19 1021 68 10000 5.1 60 08:19 16.12.2019
2553 Clouds 18 1021 77 10000 4.1 80 07:51 16.12.2019
2554 Clouds 18 1021 77 10000 4.1 80 07:31 16.12.2019
2555 Clouds 17 1022 88 10000 3.1 20 06:48 16.12.2019
2556 Clouds 17 1021 88 10000 3.1 30 06:27 16.12.2019
2557 Clouds 16 1022 93 10000 2.6 30 05:58 16.12.2019
2558 Clouds 16 1020 93 10000 5.09 28 05:39 16.12.2019
2559 Clouds 16 1020 93 10000 2.56 20 05:21 16.12.2019
2560 Clouds 16 1020 93 10000 2.56 20 02:50 16.12.2019
2561 Clouds 16 1020 93 10000 3.6 20 01:45 16.12.2019
2562 Clouds 16 1020 93 10000 2.6 70 00:56 16.12.2019
2563 Clouds 16 1020 93 10000 2.6 70 00:37 16.12.2019
2564 Clouds 16 1020 93 10000 4.1 60 00:18 16.12.2019
2565 Clouds 16 1020 93 10000 4.1 60 23:40 15.12.2019
2566 Clouds 16 1020 93 10000 4.1 60 23:40 15.12.2019
2567 Clouds 16 1020 93 10000 4.1 60 23:22 15.12.2019
2568 Clouds 17 1021 93 10000 4.1 10 22:57 15.12.2019
2569 Clouds 17 1021 88 10000 2.27 36 22:38 15.12.2019
2570 Clouds 17 1021 88 10000 2.27 36 22:19 15.12.2019
2571 Clouds 16 1022 93 10000 3.6 20 21:57 15.12.2019
2572 Clouds 16 1021 93 10000 2.6 20 21:38 15.12.2019
2573 Clouds 16 1021 93 10000 2.6 20 21:19 15.12.2019
2574 Clouds 16 1021 93 10000 2.6 20 21:19 15.12.2019
2575 Rain 17 1022 93 10000 3.6 60 20:57 15.12.2019
2576 Clouds 17 1020 93 10000 5.1 70 20:39 15.12.2019
2577 Clouds 17 1020 93 10000 5.1 70 20:39 15.12.2019
2578 Clouds 17 1020 93 10000 5.1 70 20:20 15.12.2019
2579 Clouds 17 1021 93 10000 3.1 30 19:58 15.12.2019
2580 Clouds 17 1020 93 10000 2.6 60 19:39 15.12.2019
2581 Clouds 17 1020 93 10000 2.6 60 19:19 15.12.2019
2582 Clouds 17 1021 93 10000 4.6 60 18:57 15.12.2019
2583 Clouds 17 1020 88 10000 5.1 80 18:39 15.12.2019
2584 Thunderstorm 18 1020 93 10000 6.7 80 18:19 15.12.2019
2585 Thunderstorm 18 1020 93 10000 6.7 80 17:56 15.12.2019
2586 Clouds 18 1020 73 10000 5.7 80 17:37 15.12.2019
2587 Clouds 20 1020 73 10000 5.7 80 17:37 15.12.2019
2588 Clouds 20 1019 68 10000 6.7 90 17:19 15.12.2019
2589 Clouds 20 1019 68 10000 6.7 90 16:57 15.12.2019
2590 Clouds 21 1018 56 10000 5.1 60 16:39 15.12.2019
2591 Clouds 21 1018 56 10000 5.1 60 16:20 15.12.2019
2592 Clouds 21 1018 57 10000 4.6 80 15:55 15.12.2019
2593 Clouds 21 1018 57 10000 4.6 80 15:55 15.12.2019
2594 Clouds 21 1018 57 10000 4.6 80 15:55 15.12.2019
2595 Clouds 22 1018 60 10000 5.1 40 15:37 15.12.2019
2596 Clouds 22 1018 60 10000 5.1 40 15:18 15.12.2019
2597 Clouds 22 1018 53 10000 5.1 80 14:55 15.12.2019
2598 Clouds 22 1018 53 10000 5.1 90 14:36 15.12.2019
2599 Clouds 22 1019 57 10000 4.1 50 14:18 15.12.2019
2600 Clouds 22 1019 57 10000 4.1 50 13:56 15.12.2019
2601 Clouds 22 1019 56 10000 5.1 40 13:37 15.12.2019
2602 Clouds 22 1020 60 10000 2.6 40 13:19 15.12.2019
2603 Clouds 22 1019 56 10000 5.1 40 13:19 15.12.2019
2604 Clouds 22 1020 60 10000 2.6 40 12:56 15.12.2019
2605 Clouds 22 1020 60 10000 2.6 40 12:38 15.12.2019
2606 Clouds 22 1020 60 10000 2.6 40 12:20 15.12.2019
2607 Clouds 21 1021 64 10000 5.1 70 11:39 15.12.2019
2608 Clouds 21 1021 64 10000 5.1 70 11:20 15.12.2019
2609 Clouds 21 1021 64 10000 5.1 70 11:20 15.12.2019
2610 Clouds 21 1021 64 10000 5.1 40 10:58 15.12.2019
2611 Clouds 21 1021 64 10000 5.1 40 10:40 15.12.2019
2612 Clouds 20 1023 68 10000 4.6 40 10:20 15.12.2019
2613 Clouds 20 1023 68 10000 4.6 40 09:59 15.12.2019
2614 Clouds 21 1023 72 10000 2.6 60 09:38 15.12.2019
2615 Clouds 20 1023 72 10000 2.6 60 09:20 15.12.2019
2616 Clouds 20 1023 72 10000 2.6 60 09:20 15.12.2019
2617 Clouds 20 1023 77 10000 4.1 60 08:56 15.12.2019
2618 Clouds 19 1024 82 10000 4.6 50 08:38 15.12.2019
2619 Clouds 18 1024 82 10000 4.6 50 08:20 15.12.2019
2620 Clouds 18 1024 82 10000 4.1 40 07:55 15.12.2019
2621 Clouds 17 1023 93 10000 4.1 30 07:33 15.12.2019
2622 Clouds 17 1022 88 10000 2.6 30 06:31 15.12.2019
2623 Clouds 16 1023 93 10000 3.1 40 05:51 15.12.2019
2624 Clouds 15 1023 93 10000 2.6 30 05:25 15.12.2019
2625 Clouds 14 1022 93 10000 2.6 10 04:24 15.12.2019
2626 Clouds 14 1022 93 10000 2.6 360 03:22 15.12.2019
2627 Clouds 15 1022 93 10000 2.6 10 02:33 15.12.2019
2628 Clouds 15 1022 93 10000 3.1 20 01:44 15.12.2019
2629 Clouds 15 1022 93 10000 3.1 20 01:25 15.12.2019
2630 Clouds 15 1022 93 10000 3.6 30 00:54 15.12.2019
2631 Clouds 15 1022 93 10000 3.6 30 00:35 15.12.2019
2632 Clouds 15 1023 93 10000 4.6 40 23:58 14.12.2019
2633 Clouds 15 1023 93 10000 3.6 40 23:38 14.12.2019
2634 Clouds 16 1023 93 10000 4.1 40 23:18 14.12.2019
2635 Clouds 16 1023 93 10000 4.1 40 22:57 14.12.2019
2636 Clouds 16 1021 88 10000 2.6 60 22:39 14.12.2019
2637 Clouds 16 1021 88 10000 2.6 60 22:39 14.12.2019
2638 Clouds 16 1021 88 10000 2.6 60 22:20 14.12.2019
2639 Clouds 15 1023 93 10000 4.1 50 21:55 14.12.2019
2640 Clouds 15 1023 93 10000 4.1 50 21:55 14.12.2019
2641 Clouds 16 1023 88 10000 4.1 50 21:37 14.12.2019
2642 Clouds 17 1023 88 10000 4.1 50 21:18 14.12.2019
2643 Clouds 16 1023 93 10000 5.7 60 20:55 14.12.2019
2644 Clouds 17 1021 93 10000 5.1 60 20:37 14.12.2019
2645 Clouds 17 1021 93 10000 5.1 60 20:19 14.12.2019
2646 Clouds 17 1021 93 10000 5.1 60 19:40 14.12.2019
2647 Clouds 17 1021 93 10000 5.1 60 19:21 14.12.2019
2648 Clouds 17 1022 93 10000 3.6 70 18:58 14.12.2019
2649 Clouds 17 1021 88 10000 4.1 60 18:39 14.12.2019
2650 Clouds 17 1021 88 10000 4.1 60 18:21 14.12.2019
2651 Clouds 17 1021 88 10000 5.7 70 17:59 14.12.2019
2652 Clouds 17 1020 88 10000 5.1 60 17:41 14.12.2019
2653 Clouds 19 1021 82 10000 6.2 70 17:22 14.12.2019
2654 Clouds 19 1019 77 10000 9.3 90 16:42 14.12.2019
2655 Clouds 20 1019 77 10000 9.3 90 16:19 14.12.2019
2656 Clouds 21 1019 73 10000 8.2 100 15:57 14.12.2019
2657 Clouds 21 1018 57 10000 5.1 90 15:38 14.12.2019
2658 Clouds 21 1018 57 10000 5.1 90 15:38 14.12.2019
2659 Clouds 21 1018 57 10000 5.1 90 15:19 14.12.2019
2660 Clouds 22 1019 68 10000 5.7 100 14:57 14.12.2019
2661 Clouds 23 1019 50 10000 5.1 90 14:38 14.12.2019
2662 Clouds 23 1019 50 10000 5.1 90 14:18 14.12.2019
2663 Clouds 23 1020 64 10000 5.7 90 13:44 14.12.2019
2664 Clouds 22 1020 60 10000 4.1 40 13:20 14.12.2019
2665 Clouds 22 1020 60 10000 4.1 40 12:58 14.12.2019
2666 Rain 21 1010 65 0 0.89 24 12:40 14.12.2019
2667 Rain 21 1010 65 0 0.89 24 12:40 14.12.2019
2668 Clouds 22 1021 56 10000 5.1 40 12:20 14.12.2019
2669 Clouds 22 1021 56 10000 5.1 40 11:58 14.12.2019
2670 Clouds 22 1021 56 10000 5.1 40 11:58 14.12.2019
2671 Clouds 22 1021 56 10000 5.1 40 11:39 14.12.2019
2672 Clouds 22 1023 68 10000 4.1 60 11:19 14.12.2019
2673 Clouds 22 1021 56 10000 5.1 40 11:19 14.12.2019
2674 Clouds 21 1023 68 10000 4.1 60 10:57 14.12.2019
2675 Clouds 21 1022 64 10000 5.1 60 10:39 14.12.2019
2676 Clouds 21 1022 64 10000 5.1 60 10:20 14.12.2019
2677 Clouds 20 1023 73 10000 5.1 40 09:55 14.12.2019
2678 Clouds 20 1023 73 10000 5.1 40 09:55 14.12.2019
2679 Clouds 19 1023 77 10000 4.6 40 09:36 14.12.2019
2680 Clouds 19 1024 77 10000 3.6 30 09:18 14.12.2019
2681 Rain 18 1023 77 8000 5.1 70 08:41 14.12.2019
2682 Rain 17 1023 77 8000 5.1 70 08:19 14.12.2019
2683 Clouds 17 1023 82 10000 6.7 70 07:43 14.12.2019
2684 Clouds 17 1023 82 10000 6.7 70 07:23 14.12.2019
2685 Clouds 18 1023 93 10000 4.6 40 06:55 14.12.2019
2686 Clouds 18 1022 88 10000 3.1 80 06:36 14.12.2019
2687 Clouds 16 1023 88 10000 3.1 40 05:56 14.12.2019
2688 Clouds 16 1023 88 10000 3.1 40 05:56 14.12.2019
2689 Clouds 15 1021 93 10000 3.6 30 04:42 14.12.2019
2690 Clouds 15 1021 93 10000 3.1 20 02:31 14.12.2019
2691 Clouds 16 1021 100 10000 2.1 40 01:46 14.12.2019
2692 Clouds 15 1021 100 10000 1.5 20 01:28 14.12.2019
2693 Rain 15 1022 100 10000 2.1 10 00:44 14.12.2019
2694 Rain 15 1022 100 10000 2.1 10 00:26 14.12.2019
2695 Clouds 16 1022 88 10000 1.5 10 23:44 13.12.2019
2696 Clouds 16 1022 88 10000 1.5 10 23:22 13.12.2019
2697 Clouds 16 1022 93 10000 2.1 20 23:00 13.12.2019
2698 Clouds 16 1021 88 10000 3.1 40 22:40 13.12.2019
2699 Clouds 16 1021 88 10000 3.1 40 22:19 13.12.2019
2700 Clouds 17 1021 88 10000 5.1 50 21:55 13.12.2019
2701 Clouds 16 1021 88 10000 5.1 50 21:37 13.12.2019
2702 Clouds 17 1021 88 10000 5.1 50 21:19 13.12.2019
2703 Clouds 17 1021 88 10000 5.1 30 20:41 13.12.2019
2704 Clouds 17 1021 88 10000 9.8 50 20:22 13.12.2019
2705 Clouds 17 1021 88 10000 9.8 50 19:59 13.12.2019
2706 Clouds 17 1022 88 10000 7.2 50 19:40 13.12.2019
2707 Clouds 18 1022 88 10000 7.2 50 19:22 13.12.2019
2708 Clouds 18 1020 82 10000 5.7 60 18:58 13.12.2019
2709 Clouds 18 1020 82 10000 5.7 60 18:40 13.12.2019
2710 Clouds 19 1020 77 10000 7.2 70 18:19 13.12.2019
2711 Clouds 19 1019 64 10000 8.2 70 17:43 13.12.2019
2712 Clouds 19 1019 64 10000 8.2 70 17:43 13.12.2019
2713 Clouds 21 1019 68 10000 6.2 80 17:20 13.12.2019
2714 Clouds 21 1018 50 10000 7.2 30 16:59 13.12.2019
2715 Clouds 20 1019 57 10000 6.2 60 16:39 13.12.2019
2716 Clouds 21 1019 57 10000 6.2 60 16:20 13.12.2019
2717 Clouds 21 1019 57 10000 6.2 80 15:58 13.12.2019
2718 Clouds 22 1018 53 10000 4.1 80 15:37 13.12.2019
2719 Clouds 22 1018 53 10000 4.1 80 15:18 13.12.2019
2720 Clouds 22 1019 57 10000 4.6 80 14:41 13.12.2019
2721 Clouds 23 1019 50 10000 4.1 80 14:21 13.12.2019
2722 Clouds 23 1020 60 10000 4.6 70 13:58 13.12.2019
2723 Clouds 22 1020 60 10000 4.6 70 13:39 13.12.2019
2724 Clouds 23 1020 60 10000 4.6 70 13:21 13.12.2019
2725 Clouds 23 1020 50 10000 7.7 100 12:42 13.12.2019
2726 Clouds 23 1021 57 10000 4.1 80 12:20 13.12.2019
2727 Clouds 22 1021 57 10000 5.1 30 11:57 13.12.2019
2728 Clouds 21 1022 64 10000 3.6 50 11:39 13.12.2019
2729 Clouds 21 1022 64 10000 3.6 50 11:21 13.12.2019
2730 Clouds 21 1021 68 10000 2.6 100 10:43 13.12.2019
2731 Clouds 21 1023 73 10000 3.6 60 10:23 13.12.2019
2732 Clouds 21 1023 73 10000 3.6 60 09:59 13.12.2019
2733 Clouds 21 1023 73 10000 3.6 40 09:39 13.12.2019
2734 Clouds 20 1023 73 10000 3.6 40 09:19 13.12.2019
2735 Clouds 19 1023 82 10000 4.6 30 08:41 13.12.2019
2736 Clouds 19 1023 82 10000 4.6 30 08:23 13.12.2019
2737 Clouds 18 1022 77 10000 3.1 60 07:46 13.12.2019
2738 Clouds 17 1022 93 10000 3.6 30 07:23 13.12.2019
2739 Clouds 17 1021 93 10000 3.1 30 06:55 13.12.2019
2740 Clouds 17 1022 93 10000 2.1 50 06:29 13.12.2019
2741 Clouds 16 1021 88 10000 2.1 60 05:47 13.12.2019
2742 Clouds 16 1021 93 10000 1.5 50 05:28 13.12.2019
2743 Clouds 14 1021 88 10000 2.1 20 04:46 13.12.2019
2744 Clouds 15 1021 88 10000 1.5 30 03:47 13.12.2019
2745 Clouds 15 1020 93 10000 1 0 02:34 13.12.2019
2746 Clouds 15 1020 93 10000 0.5 0 01:47 13.12.2019
2747 Clouds 16 1020 100 10000 2.31 34 00:57 13.12.2019
2748 Clouds 16 1020 100 10000 2.31 34 00:37 13.12.2019
2749 Clouds 15 1021 93 10000 2.6 360 23:59 12.12.2019
2750 Clouds 15 1021 93 10000 2.6 360 23:59 12.12.2019
2751 Clouds 14 1021 93 10000 2.6 30 23:39 12.12.2019
2752 Clouds 15 1021 93 10000 2.6 30 23:21 12.12.2019
2753 Clouds 15 1021 93 10000 2.1 350 22:56 12.12.2019
2754 Clouds 15 1021 93 10000 2.1 350 22:56 12.12.2019
2755 Clouds 15 1021 93 10000 2.1 350 22:37 12.12.2019
2756 Clouds 15 1021 88 10000 2.6 30 22:19 12.12.2019
2757 Clouds 15 1022 93 10000 2.1 40 21:55 12.12.2019
2758 Clouds 16 1021 93 10000 2.6 40 21:36 12.12.2019
2759 Clouds 15 1022 93 10000 2.1 40 21:36 12.12.2019
2760 Clouds 16 1021 93 10000 2.6 40 21:18 12.12.2019
2761 Clouds 16 1020 93 10000 5.1 90 20:55 12.12.2019
2762 Clouds 17 1021 88 10000 3.1 100 20:37 12.12.2019
2763 Clouds 17 1021 88 10000 3.1 100 20:19 12.12.2019
2764 Clouds 16 1021 93 10000 4.1 80 19:42 12.12.2019
2765 Clouds 17 1021 93 10000 4.1 80 19:23 12.12.2019
2766 Clouds 17 1019 88 10000 5.1 70 18:58 12.12.2019
2767 Clouds 17 1019 88 10000 5.1 70 18:40 12.12.2019
2768 Clouds 17 1019 88 10000 5.1 70 18:40 12.12.2019
2769 Clouds 18 1020 88 10000 4.6 70 18:21 12.12.2019
2770 Clouds 18 1018 82 10000 5.1 70 17:58 12.12.2019
2771 Clouds 18 1018 82 10000 5.1 70 17:40 12.12.2019
2772 Clouds 19 1018 82 10000 6.2 70 17:21 12.12.2019
2773 Clouds 19 1017 73 10000 7.7 70 16:58 12.12.2019
2774 Clouds 19 1017 73 10000 7.7 70 16:40 12.12.2019
2775 Clouds 20 1017 69 10000 8.7 70 16:21 12.12.2019
2776 Clouds 21 1016 56 10000 9.3 80 15:57 12.12.2019
2777 Clouds 22 1016 56 10000 9.3 80 15:39 12.12.2019
2778 Clouds 22 1017 57 10000 6.2 40 15:18 12.12.2019
2779 Clouds 23 1017 53 10000 5.7 60 14:38 12.12.2019
2780 Clouds 23 1017 53 10000 5.7 60 14:38 12.12.2019
2781 Clouds 23 1017 53 10000 5.7 60 14:20 12.12.2019
2782 Clouds 23 1016 57 10000 5.1 70 13:58 12.12.2019
2783 Clouds 23 1018 60 10000 4.1 60 13:40 12.12.2019
2784 Clouds 22 1018 60 10000 4.1 60 13:22 12.12.2019
2785 Clouds 23 1018 60 10000 5.1 60 12:59 12.12.2019
2786 Clouds 23 1018 60 10000 5.1 60 12:40 12.12.2019
2787 Clouds 23 1019 60 10000 4.6 80 12:22 12.12.2019
2788 Clouds 22 1020 64 10000 5.1 60 11:57 12.12.2019
2789 Clouds 20 1021 64 10000 4.1 50 11:38 12.12.2019
2790 Clouds 20 1021 64 10000 4.1 50 11:38 12.12.2019
2791 Clouds 21 1021 64 10000 4.1 50 11:20 12.12.2019
2792 Clouds 21 1020 68 10000 5.1 70 10:57 12.12.2019
2793 Clouds 20 1022 60 10000 3.6 50 10:39 12.12.2019
2794 Clouds 20 1022 60 10000 3.6 50 10:21 12.12.2019
2795 Clouds 21 1021 73 10000 5.1 40 09:55 12.12.2019
2796 Clouds 20 1022 77 10000 3.6 40 09:37 12.12.2019
2797 Clouds 20 1022 77 10000 3.6 40 09:19 12.12.2019
2798 Clouds 20 1021 77 10000 4.6 90 08:43 12.12.2019
2799 Clouds 18 1022 82 10000 2.6 50 08:25 12.12.2019
2800 Clouds 18 1021 88 10000 2.1 60 07:49 12.12.2019
2801 Clouds 17 1022 88 10000 2.1 20 07:27 12.12.2019
2802 Clouds 17 1021 93 10000 2.76 24 06:56 12.12.2019
2803 Clouds 16 1021 93 10000 1 0 06:35 12.12.2019
2804 Clouds 15 1020 93 10000 2.76 24 05:42 12.12.2019
2805 Clouds 15 1019 88 10000 2.65 27 04:55 12.12.2019
2806 Clouds 14 1020 48 10000 2.1 50 04:23 12.12.2019
2807 Clouds 14 1020 93 10000 2.6 20 02:40 12.12.2019
2808 Clouds 15 1020 93 10000 2.6 20 02:22 12.12.2019
2809 Clouds 15 1020 88 10000 2.6 10 01:54 12.12.2019
2810 Clouds 15 1020 93 10000 2.6 350 01:32 12.12.2019
2811 Clouds 15 1020 88 10000 3.1 350 00:47 12.12.2019
2812 Clouds 15 1020 88 10000 3.1 10 00:21 12.12.2019
2813 Clouds 15 1021 93 10000 3.1 360 23:45 11.12.2019
2814 Clouds 16 1021 93 10000 2.6 350 23:21 11.12.2019
2815 Clouds 16 1020 93 10000 2.6 30 22:59 11.12.2019
2816 Clouds 16 1020 93 10000 2.6 30 22:39 11.12.2019
2817 Clouds 17 1021 93 10000 2.6 10 22:21 11.12.2019
2818 Clouds 17 1020 93 10000 2.95 37 21:59 11.12.2019
2819 Clouds 16 1021 93 10000 4.1 40 21:39 11.12.2019
2820 Clouds 17 1021 93 10000 4.1 40 21:20 11.12.2019
2821 Clouds 17 1020 93 10000 3.1 20 20:58 11.12.2019
2822 Clouds 17 1020 93 10000 3.1 20 20:39 11.12.2019
2823 Clouds 17 1021 93 10000 3.6 30 20:19 11.12.2019
2824 Clouds 17 1020 88 10000 3.1 40 19:59 11.12.2019
2825 Clouds 16 1020 93 10000 3.6 50 19:40 11.12.2019
2826 Clouds 16 1020 93 10000 3.6 50 19:40 11.12.2019
2827 Clouds 17 1020 93 10000 3.6 50 19:21 11.12.2019
2828 Clouds 17 1019 82 10000 5.7 40 18:57 11.12.2019
2829 Clouds 18 1019 88 10000 4.1 80 18:38 11.12.2019
2830 Clouds 18 1019 88 10000 4.1 80 18:18 11.12.2019
2831 Rain 18 1018 93 10000 6.2 90 17:55 11.12.2019
2832 Rain 18 1018 93 10000 6.2 90 17:37 11.12.2019
2833 Clouds 19 1019 82 10000 7.7 90 17:18 11.12.2019
2834 Clouds 20 1018 60 10000 5.1 80 16:55 11.12.2019
2835 Clouds 20 1018 60 10000 6.7 80 16:36 11.12.2019
2836 Clouds 21 1018 60 10000 6.7 80 16:18 11.12.2019
2837 Clouds 22 1016 60 10000 7.2 70 15:54 11.12.2019
2838 Clouds 22 1018 57 10000 6.7 70 15:36 11.12.2019
2839 Clouds 22 1018 57 10000 6.7 70 15:18 11.12.2019
2840 Clouds 22 1017 57 10000 4.6 80 14:54 11.12.2019
2841 Clouds 22 1018 57 10000 5.1 70 14:36 11.12.2019
2842 Clouds 22 1018 57 10000 5.1 70 14:36 11.12.2019
2843 Clouds 22 1018 57 10000 5.1 70 14:18 11.12.2019
2844 Clouds 22 1018 60 10000 5.7 70 13:41 11.12.2019
2845 Clouds 23 1019 60 10000 5.7 60 13:21 11.12.2019
2846 Clouds 22 1018 64 10000 4.6 70 12:57 11.12.2019
2847 Clouds 21 1020 64 10000 5.7 70 12:38 11.12.2019
2848 Clouds 22 1020 64 10000 5.7 70 12:20 11.12.2019
2849 Clouds 22 1020 64 10000 8.2 50 11:58 11.12.2019
2850 Clouds 21 1020 64 10000 8.2 50 11:39 11.12.2019
2851 Clouds 22 1021 64 10000 6.2 50 11:19 11.12.2019
2852 Clouds 21 1021 68 10000 7.7 70 10:57 11.12.2019
2853 Clouds 21 1021 68 10000 7.7 70 10:38 11.12.2019
2854 Clouds 20 1022 73 10000 6.7 40 10:19 11.12.2019
2855 Clouds 20 1021 72 10000 7.2 30 09:44 11.12.2019
2856 Clouds 19 1023 77 10000 5.1 40 09:21 11.12.2019
2857 Clouds 19 1022 77 10000 6.7 30 08:58 11.12.2019
2858 Clouds 19 1022 77 10000 6.7 30 08:58 11.12.2019
2859 Clouds 19 1022 77 10000 6.7 30 08:39 11.12.2019
2860 Clouds 18 1023 82 10000 4.6 50 08:20 11.12.2019
2861 Clouds 18 1023 82 10000 4.6 50 08:20 11.12.2019
2862 Clouds 18 1021 77 10000 5.1 60 07:59 11.12.2019
2863 Clouds 18 1021 77 10000 5.1 60 07:41 11.12.2019
2864 Clouds 17 1022 88 10000 3.6 40 07:22 11.12.2019
2865 Clouds 18 1022 88 10000 4.1 50 06:44 11.12.2019
2866 Clouds 16 1022 93 10000 3.6 70 06:23 11.12.2019
2867 Clouds 16 1020 93 10000 2.6 60 05:46 11.12.2019
2868 Clouds 16 1021 93 10000 2.6 50 05:27 11.12.2019
2869 Clouds 15 1020 93 10000 1.93 32 04:47 11.12.2019
2870 Clouds 15 1020 93 10000 3.1 20 02:50 11.12.2019
2871 Clouds 15 1020 93 10000 4.1 40 01:30 11.12.2019
2872 Clouds 15 1021 93 10000 4.1 40 00:56 11.12.2019
2873 Clouds 16 1021 88 10000 4.1 50 00:36 11.12.2019
2874 Clouds 16 1021 88 10000 4.1 50 00:18 11.12.2019
2875 Clouds 16 1021 88 10000 4.6 40 23:41 10.12.2019
2876 Clouds 16 1021 93 10000 4.6 30 23:21 10.12.2019
2877 Clouds 18 1020 93 10000 5.1 30 22:41 10.12.2019
2878 Clouds 17 1021 93 10000 4.6 30 22:22 10.12.2019
2879 Clouds 17 1020 93 10000 2.6 60 21:58 10.12.2019
2880 Clouds 17 1020 93 10000 2.6 60 21:39 10.12.2019
2881 Clouds 17 1021 93 10000 4.6 50 21:21 10.12.2019
2882 Clouds 17 1020 93 10000 3.6 60 20:58 10.12.2019
2883 Clouds 17 1020 93 10000 3.6 60 20:38 10.12.2019
2884 Clouds 17 1021 93 10000 2.6 30 20:19 10.12.2019
2885 Clouds 17 1021 93 10000 2.6 30 20:19 10.12.2019
2886 Clouds 17 1021 93 10000 2.6 30 20:19 10.12.2019
2887 Clouds 17 1021 93 10000 2.6 30 20:19 10.12.2019
2888 Clouds 17 1021 93 10000 2.6 30 20:19 10.12.2019
2889 Clouds 16 1021 93 10000 3.6 30 19:56 10.12.2019
2890 Clouds 16 1021 93 10000 3.6 30 19:38 10.12.2019
2891 Clouds 17 1020 88 10000 3.6 40 19:20 10.12.2019
2892 Clouds 17 1020 93 10000 3.6 40 18:55 10.12.2019
2893 Clouds 18 1019 88 10000 3.6 50 18:36 10.12.2019
2894 Clouds 17 1019 88 10000 3.6 50 18:36 10.12.2019
2895 Clouds 18 1019 88 10000 3.6 50 18:18 10.12.2019
2896 Clouds 18 1018 77 10000 2.6 40 17:42 10.12.2019
2897 Clouds 18 1018 82 10000 4.6 50 17:22 10.12.2019
2898 Clouds 19 1018 72 10000 5.1 30 16:58 10.12.2019
2899 Clouds 18 1018 68 10000 5.7 50 16:39 10.12.2019
2900 Clouds 19 1018 68 10000 5.7 50 16:19 10.12.2019
2901 Clouds 19 1018 68 10000 5.1 40 15:39 10.12.2019
2902 Clouds 21 1018 68 10000 5.1 40 15:19 10.12.2019
2903 Clouds 20 1017 60 10000 5.1 60 14:56 10.12.2019
2904 Clouds 20 1018 77 10000 6.2 30 14:38 10.12.2019
2905 Clouds 20 1018 77 10000 6.2 30 14:20 10.12.2019
2906 Clouds 21 1018 64 10000 4.1 40 13:58 10.12.2019
2907 Clouds 20 1018 73 10000 5.1 40 13:40 10.12.2019
2908 Clouds 20 1018 73 10000 5.1 40 13:20 10.12.2019
2909 Clouds 20 1018 73 10000 5.1 40 13:20 10.12.2019
2910 Clouds 20 1019 73 10000 6.2 50 12:49 10.12.2019
2911 Clouds 20 1020 73 10000 5.7 70 12:28 10.12.2019
2912 Clouds 19 1020 77 10000 7.2 70 11:58 10.12.2019
2913 Clouds 19 1020 77 10000 7.2 70 11:40 10.12.2019
2914 Clouds 19 1021 77 10000 5.7 40 11:21 10.12.2019
2915 Clouds 18 1021 77 10000 5.1 30 10:43 10.12.2019
2916 Clouds 17 1022 88 10000 6.2 40 10:24 10.12.2019
2917 Clouds 18 1021 82 10000 5.1 40 09:57 10.12.2019
2918 Clouds 18 1022 93 10000 4.6 30 09:39 10.12.2019
2919 Clouds 18 1022 93 10000 4.6 30 09:20 10.12.2019
2920 Clouds 17 1023 100 10000 4.6 50 08:58 10.12.2019
2921 Clouds 17 1023 100 10000 4.6 50 08:39 10.12.2019
2922 Clouds 17 1023 93 10000 3.6 30 08:21 10.12.2019
2923 Rain 15 1021 93 8000 5.1 40 07:45 10.12.2019
2924 Rain 15 1022 100 10000 7.7 30 07:27 10.12.2019
2925 Rain 15 1021 100 6000 5.1 30 06:56 10.12.2019
2926 Rain 15 1022 93 10000 5.1 60 06:38 10.12.2019
2927 Rain 15 1022 93 10000 5.1 60 06:19 10.12.2019
2928 Rain 15 1021 93 10000 4.6 60 05:51 10.12.2019
2929 Clouds 15 1020 93 10000 1.5 70 04:23 10.12.2019
2930 Clouds 16 1019 93 10000 4.6 80 03:27 10.12.2019
2931 Clouds 16 1019 93 10000 1.5 70 02:36 10.12.2019
2932 Clouds 15 1020 93 10000 2.1 80 01:40 10.12.2019
2933 Rain 15 1020 93 10000 2.6 90 01:19 10.12.2019
2934 Clouds 16 1021 93 10000 2.6 80 00:31 10.12.2019
2935 Rain 14 1012 94 0 1.28 63 23:59 09.12.2019
2936 Rain 14 1012 94 0 1.28 63 23:59 09.12.2019
2937 Rain 14 1012 94 0 1.28 63 23:39 09.12.2019
2938 Clouds 17 1020 93 10000 1.53 74 23:21 09.12.2019
2939 Clouds 17 1020 93 10000 1.53 74 22:57 09.12.2019
2940 Clouds 17 1020 93 10000 1.53 74 22:39 09.12.2019
2941 Clouds 17 1021 93 10000 4.1 60 22:18 09.12.2019
2942 Clouds 17 1021 93 10000 4.1 60 22:18 09.12.2019
2943 Clouds 17 1020 88 10000 5.1 60 21:56 09.12.2019
2944 Clouds 17 1020 88 10000 5.1 60 21:38 09.12.2019
2945 Clouds 17 1021 93 10000 5.1 60 21:18 09.12.2019
2946 Clouds 17 1019 93 10000 3.6 60 20:56 09.12.2019
2947 Clouds 17 1019 93 10000 3.6 60 20:37 09.12.2019
2948 Clouds 17 1020 93 10000 3.1 50 20:19 09.12.2019
2949 Clouds 17 1018 93 10000 4.1 60 19:55 09.12.2019
2950 Clouds 16 1019 93 10000 4.1 40 19:37 09.12.2019
2951 Clouds 16 1019 93 10000 4.1 40 19:19 09.12.2019
2952 Clouds 17 1018 88 10000 4.6 50 18:55 09.12.2019
2953 Clouds 18 1018 88 10000 4.6 50 18:36 09.12.2019
2954 Clouds 18 1018 88 10000 4.6 50 18:18 09.12.2019
2955 Clouds 18 1017 82 10000 4.1 60 17:56 09.12.2019
2956 Clouds 19 1017 83 10000 4.1 60 17:37 09.12.2019
2957 Clouds 22 1017 83 10000 4.1 60 17:19 09.12.2019
2958 Clouds 19 1016 68 10000 5.1 60 16:55 09.12.2019
2959 Clouds 19 1017 64 10000 4.1 70 16:36 09.12.2019
2960 Clouds 20 1017 64 10000 4.1 70 16:18 09.12.2019
2961 Clouds 20 1016 60 10000 1.44 95 15:55 09.12.2019
2962 Clouds 20 1016 60 10000 1.44 95 15:36 09.12.2019
2963 Clouds 21 1016 64 10000 3.6 90 15:36 09.12.2019
2964 Clouds 21 1016 64 10000 3.6 90 15:18 09.12.2019
2965 Clouds 19 1016 64 10000 3.1 90 14:42 09.12.2019
2966 Clouds 19 1016 64 10000 3.1 90 14:42 09.12.2019
2967 Clouds 21 1016 60 10000 2.6 100 14:19 09.12.2019
2968 Clouds 24 1016 64 10000 4.1 110 13:57 09.12.2019
2969 Clouds 24 1017 60 10000 4.1 70 13:38 09.12.2019
2970 Clouds 23 1017 60 10000 4.1 70 13:19 09.12.2019
2971 Clouds 23 1017 73 10000 4.1 150 12:56 09.12.2019
2972 Clouds 23 1017 73 10000 4.1 150 12:56 09.12.2019
2973 Clouds 23 1017 73 10000 4.1 150 12:37 09.12.2019
2974 Clouds 22 1018 69 10000 2.6 90 12:19 09.12.2019
2975 Clouds 23 1018 78 10000 4.1 150 11:56 09.12.2019
2976 Clouds 22 1020 73 10000 2.6 110 11:37 09.12.2019
2977 Clouds 22 1020 73 10000 2.6 110 11:18 09.12.2019
2978 Clouds 20 1020 68 10000 4.1 60 10:41 09.12.2019
2979 Clouds 20 1021 77 10000 3.1 70 10:20 09.12.2019
2980 Clouds 21 1021 73 10000 4.1 50 09:59 09.12.2019
2981 Clouds 21 1021 73 10000 4.1 50 09:40 09.12.2019
2982 Clouds 18 1022 82 10000 2.1 50 09:21 09.12.2019
2983 Clouds 20 1021 82 10000 2.6 70 08:44 09.12.2019
2984 Clouds 17 1022 88 10000 3.6 60 08:26 09.12.2019
2985 Clouds 17 1022 88 10000 3.6 60 08:26 09.12.2019
2986 Rain 17 1020 93 7000 2.6 60 07:57 09.12.2019
2987 Clouds 16 1022 93 10000 3.6 80 07:38 09.12.2019
2988 Clouds 17 1022 93 10000 3.6 80 07:20 09.12.2019
2989 Rain 17 1020 93 7000 4.1 80 06:47 09.12.2019
2990 Rain 16 1020 93 10000 3.1 90 06:24 09.12.2019
2991 Clouds 16 1018 93 10000 3.03 27 05:27 09.12.2019
2992 Clouds 16 1018 93 10000 3.03 27 04:46 09.12.2019
2993 Clouds 15 1019 93 10000 3.1 330 03:20 09.12.2019
2994 Clouds 15 1019 93 10000 2.6 70 02:24 09.12.2019
2995 Clouds 16 1019 88 10000 2.1 60 01:42 09.12.2019
2996 Clouds 16 1020 88 10000 2.6 70 00:46 09.12.2019
2997 Rain 13 1011 96 0 0.54 129 00:27 09.12.2019
2998 Rain 13 1011 95 0 0.54 129 23:43 08.12.2019
2999 Clouds 16 1020 88 10000 2.1 40 23:24 08.12.2019
3000 Clouds 16 1020 88 10000 2.1 40 22:57 08.12.2019
3001 Clouds 16 1020 88 10000 2.1 40 22:39 08.12.2019
3002 Clouds 16 1020 88 10000 2.1 40 22:39 08.12.2019
3003 Clouds 17 1019 88 10000 2.6 20 22:20 08.12.2019
3004 Clouds 17 1019 82 10000 2.6 40 21:58 08.12.2019
3005 Clouds 17 1019 82 10000 2.6 40 21:40 08.12.2019
3006 Clouds 17 1020 88 10000 2.6 40 21:21 08.12.2019
3007 Clouds 17 1019 82 10000 1.83 56 20:57 08.12.2019
3008 Clouds 16 1020 88 10000 2.6 20 20:38 08.12.2019
3009 Clouds 17 1020 88 10000 2.6 20 20:20 08.12.2019
3010 Clouds 17 1020 88 10000 2.6 20 20:20 08.12.2019
3011 Clouds 17 1019 88 10000 3.35 29 19:59 08.12.2019
3012 Clouds 17 1019 88 10000 3.35 29 19:41 08.12.2019
3013 Clouds 18 1019 82 10000 2.1 30 19:22 08.12.2019
3014 Clouds 18 1018 77 10000 3.35 29 18:55 08.12.2019
3015 Rain 14 1012 95 0 3.35 29 18:37 08.12.2019
3016 Clouds 18 1017 68 10000 2.1 80 18:19 08.12.2019
3017 Clouds 18 1017 68 10000 2.1 80 18:19 08.12.2019
3018 Clouds 18 1017 68 10000 2.1 80 17:57 08.12.2019
3019 Clouds 18 1017 68 10000 2.1 80 17:38 08.12.2019
3020 Clouds 17 1017 77 10000 5.1 70 17:38 08.12.2019
3021 Clouds 19 1017 77 10000 5.1 70 17:20 08.12.2019
3022 Clouds 19 1017 77 10000 5.1 70 17:20 08.12.2019
3023 Clouds 19 1017 77 10000 5.1 70 17:20 08.12.2019
3024 Clouds 19 1016 64 10000 2.6 10 16:57 08.12.2019
3025 Clouds 18 1016 73 10000 2.6 360 16:39 08.12.2019
3026 Clouds 18 1016 73 10000 2.6 360 16:20 08.12.2019
3027 Clouds 19 1016 69 10000 3.6 30 15:55 08.12.2019
3028 Clouds 20 1016 64 10000 3.6 30 15:36 08.12.2019
3029 Clouds 22 1016 64 10000 3.6 30 15:18 08.12.2019
3030 Clouds 21 1016 60 10000 5.1 60 14:43 08.12.2019
3031 Clouds 21 1016 64 10000 3.1 40 14:24 08.12.2019
3032 Clouds 21 1016 64 10000 3.1 40 14:24 08.12.2019
3033 Clouds 21 1016 68 10000 3.1 20 13:59 08.12.2019
3034 Clouds 21 1016 68 10000 3.1 20 13:40 08.12.2019
3035 Clouds 20 1018 73 10000 2.1 0 13:21 08.12.2019
3036 Clouds 20 1018 73 10000 2.1 0 13:21 08.12.2019
3037 Rain 19 1017 68 10000 5.1 40 12:57 08.12.2019
3038 Rain 19 1017 68 10000 5.1 40 12:38 08.12.2019
3039 Clouds 18 1019 72 10000 2.6 20 12:18 08.12.2019
3040 Clouds 18 1019 72 10000 2.6 20 11:57 08.12.2019
3041 Clouds 17 1020 88 10000 2.1 20 11:37 08.12.2019
3042 Clouds 19 1020 88 10000 2.1 20 11:19 08.12.2019
3043 Rain 19 1021 88 10000 3.1 40 10:40 08.12.2019
3044 Rain 18 1021 88 10000 3.1 40 10:22 08.12.2019
3045 Rain 19 1021 93 10000 2.1 90 09:58 08.12.2019
3046 Rain 19 1021 93 10000 2.1 90 09:39 08.12.2019
3047 Rain 18 1022 88 10000 2.6 80 09:20 08.12.2019
3048 Rain 18 1021 93 8000 5.34 40 08:59 08.12.2019
3049 Rain 18 1021 93 8000 5.34 40 08:39 08.12.2019
3050 Clouds 17 1022 93 10000 2.6 70 08:21 08.12.2019
3051 Rain 18 1021 100 8000 4.35 36 07:49 08.12.2019
3052 Clouds 17 1022 93 10000 1 0 07:21 08.12.2019
3053 Rain 17 1020 93 5000 4.35 36 06:53 08.12.2019
3054 Rain 17 1019 100 5000 4.35 36 06:23 08.12.2019
3055 Rain 17 1019 100 5000 4.35 36 05:58 08.12.2019
3056 Clouds 15 1020 100 10000 2.29 37 05:20 08.12.2019
3057 Rain 15 1019 100 10000 2.1 50 03:55 08.12.2019
3058 Rain 16 1019 93 10000 3.6 10 03:37 08.12.2019
3059 Rain 15 1019 100 3000 2.6 340 02:40 08.12.2019
3060 Rain 16 1019 93 10000 1.5 50 01:57 08.12.2019
3061 Clouds 16 1019 93 10000 2.1 260 01:33 08.12.2019
3062 Clouds 15 1019 93 10000 1.5 260 00:45 08.12.2019
3063 Rain 16 1020 93 10000 1 280 00:21 08.12.2019
3064 Rain 15 1020 93 10000 1 280 23:57 07.12.2019
3065 Rain 15 1020 93 10000 1 280 23:36 07.12.2019
3066 Clouds 15 1020 88 10000 2.6 310 23:18 07.12.2019
3067 Clouds 16 1020 88 10000 2.6 310 22:54 07.12.2019
3068 Clouds 16 1020 88 10000 3.1 310 22:36 07.12.2019
3069 Clouds 16 1020 88 10000 3.1 310 22:18 07.12.2019
3070 Clouds 16 1020 93 10000 2.25 46 21:55 07.12.2019
3071 Clouds 16 1020 88 10000 1.5 310 21:36 07.12.2019
3072 Clouds 16 1020 88 10000 1.5 310 21:18 07.12.2019
3073 Clouds 15 1020 93 10000 1.5 20 20:38 07.12.2019
3074 Clouds 16 1020 93 10000 1.5 20 20:20 07.12.2019
3075 Clouds 16 1019 93 10000 2.1 50 19:57 07.12.2019
3076 Clouds 16 1019 93 10000 2.1 50 19:39 07.12.2019
3077 Clouds 17 1020 93 10000 3.6 30 19:21 07.12.2019
3078 Rain 17 1018 88 10000 2.82 40 18:58 07.12.2019
3079 Rain 17 1018 88 10000 2.82 40 18:39 07.12.2019
3080 Drizzle 18 1019 88 10000 3.1 40 18:18 07.12.2019
3081 Clouds 16 1018 88 10000 1 320 17:55 07.12.2019
3082 Clouds 17 1018 88 10000 2.1 10 17:37 07.12.2019
3083 Clouds 18 1018 88 10000 2.1 10 17:18 07.12.2019
3084 Clouds 18 1016 73 10000 4.97 46 16:55 07.12.2019
3085 Rain 18 1017 83 10000 4.1 40 16:36 07.12.2019
3086 Rain 19 1017 83 10000 4.1 40 16:18 07.12.2019
3087 Clouds 19 1016 69 10000 4.1 60 15:40 07.12.2019
3088 Clouds 20 1016 69 10000 4.1 60 15:22 07.12.2019
3089 Clouds 20 1016 69 10000 2.1 60 14:43 07.12.2019
3090 Clouds 21 1016 64 10000 5.1 90 14:20 07.12.2019
3091 Clouds 20 1016 64 10000 5.1 30 13:59 07.12.2019
3092 Clouds 20 1017 69 10000 4.1 70 13:40 07.12.2019
3093 Clouds 20 1017 69 10000 4.1 70 13:20 07.12.2019
3094 Clouds 21 1016 69 10000 6.2 60 12:55 07.12.2019
3095 Clouds 19 1017 68 10000 4.6 100 12:37 07.12.2019
3096 Clouds 20 1017 68 10000 4.6 100 12:18 07.12.2019
3097 Clouds 21 1017 69 10000 6.2 80 11:42 07.12.2019
3098 Clouds 21 1019 73 10000 2.1 0 11:23 07.12.2019
3099 Clouds 21 1018 69 10000 4.1 40 10:58 07.12.2019
3100 Clouds 20 1020 73 10000 3.1 40 10:36 07.12.2019
3101 Clouds 20 1020 73 10000 3.1 40 10:18 07.12.2019
3102 Clouds 19 1021 82 10000 3.6 30 09:40 07.12.2019
3103 Clouds 19 1021 82 10000 3.6 30 09:21 07.12.2019
3104 Clouds 19 1021 82 10000 3.6 30 09:21 07.12.2019
3105 Clouds 19 1020 88 10000 3.1 90 08:46 07.12.2019
3106 Clouds 18 1021 88 10000 3.1 70 08:25 07.12.2019
3107 Clouds 18 1020 93 10000 2.6 50 07:53 07.12.2019
3108 Clouds 17 1021 93 10000 3.6 70 07:30 07.12.2019
3109 Rain 18 1020 93 9000 4.1 50 06:53 07.12.2019
3110 Clouds 17 1021 93 10000 3.1 70 06:28 07.12.2019
3111 Rain 16 1020 100 6000 4.1 60 05:50 07.12.2019
3112 Drizzle 17 1019 88 10000 2.61 39 04:48 07.12.2019
3113 Clouds 18 1019 93 10000 3.6 30 03:52 07.12.2019
3114 Clouds 17 1018 88 10000 3.1 30 02:47 07.12.2019
3115 Clouds 17 1019 93 10000 2.6 20 02:18 07.12.2019
3116 Clouds 16 1019 93 10000 3.1 40 01:25 07.12.2019
3117 Clouds 16 1019 93 10000 3.6 30 00:42 07.12.2019
3118 Clouds 16 1019 93 10000 4.6 20 00:18 07.12.2019
3119 Clouds 16 1020 93 10000 4.6 20 23:44 06.12.2019
3120 Clouds 17 1020 93 10000 4.6 40 23:23 06.12.2019
3121 Clouds 17 1019 93 10000 3.1 40 22:57 06.12.2019
3122 Clouds 16 1020 100 10000 3.6 20 22:36 06.12.2019
3123 Clouds 17 1020 100 10000 3.6 20 22:18 06.12.2019
3124 Clouds 17 1020 100 10000 3.1 10 21:41 06.12.2019
3125 Clouds 18 1020 88 10000 2.6 10 21:21 06.12.2019
3126 Clouds 18 1019 88 10000 2.6 60 20:59 06.12.2019
3127 Clouds 18 1019 88 10000 2.6 60 20:41 06.12.2019
3128 Clouds 18 1019 88 10000 2.6 60 20:41 06.12.2019
3129 Clouds 18 1020 88 10000 3.6 20 20:20 06.12.2019
3130 Clouds 18 1019 82 10000 4.1 40 19:54 06.12.2019
3131 Clouds 17 1020 93 10000 4.6 40 19:36 06.12.2019
3132 Clouds 18 1020 93 10000 4.6 40 19:18 06.12.2019
3133 Clouds 20 1018 77 10000 4.6 80 18:44 06.12.2019
3134 Clouds 19 1018 77 10000 4.6 60 18:22 06.12.2019
3135 Clouds 19 1017 77 10000 2.1 60 17:58 06.12.2019
3136 Clouds 19 1017 77 10000 2.1 60 17:40 06.12.2019
3137 Clouds 20 1018 73 10000 3.6 60 17:22 06.12.2019
3138 Clouds 20 1016 68 10000 6.2 90 16:58 06.12.2019
3139 Clouds 20 1017 64 10000 4.6 70 16:39 06.12.2019
3140 Clouds 21 1017 64 10000 4.6 70 16:20 06.12.2019
3141 Clouds 21 1016 60 10000 5.1 90 15:41 06.12.2019
3142 Clouds 22 1016 60 10000 3.6 90 15:23 06.12.2019
3143 Clouds 22 1016 60 10000 3.6 90 14:58 06.12.2019
3144 Clouds 22 1016 60 10000 3.6 90 14:40 06.12.2019
3145 Clouds 22 1016 60 10000 4.1 80 14:20 06.12.2019
3146 Clouds 22 1016 60 10000 3.6 110 13:55 06.12.2019
3147 Clouds 22 1017 60 10000 4.6 100 13:37 06.12.2019
3148 Clouds 22 1017 60 10000 4.6 100 13:18 06.12.2019
3149 Clouds 21 1017 64 10000 4.1 110 12:39 06.12.2019
3150 Clouds 21 1018 73 10000 4.6 70 12:21 06.12.2019
3151 Clouds 21 1018 64 10000 2.6 80 11:43 06.12.2019
3152 Clouds 21 1019 69 10000 3.1 90 11:23 06.12.2019
3153 Clouds 22 1019 68 10000 3.6 120 10:57 06.12.2019
3154 Clouds 21 1020 73 10000 2.1 60 10:38 06.12.2019
3155 Clouds 21 1020 73 10000 2.1 60 10:20 06.12.2019
3156 Clouds 20 1020 82 10000 4.1 100 09:56 06.12.2019
3157 Clouds 19 1021 82 10000 3.1 60 09:37 06.12.2019
3158 Clouds 19 1021 82 10000 2.6 40 09:19 06.12.2019
3159 Clouds 18 1021 82 10000 2.6 40 08:43 06.12.2019
3160 Clouds 18 1021 93 10000 5.1 40 08:25 06.12.2019
3161 Clouds 17 1021 93 10000 5.1 40 07:43 06.12.2019
3162 Clouds 17 1022 93 10000 2.6 10 07:23 06.12.2019
3163 Clouds 17 1022 93 10000 2.6 10 07:23 06.12.2019
3164 Rain 17 1021 100 10000 2.6 20 06:55 06.12.2019
3165 Clouds 17 1022 100 10000 3.1 70 06:26 06.12.2019
3166 Rain 16 1020 93 10000 3.6 40 05:52 06.12.2019
3167 Clouds 16 1021 93 10000 2.1 20 04:34 06.12.2019
3168 Clouds 16 1019 93 10000 1.46 23 01:48 06.12.2019
3169 Clouds 16 1019 93 10000 1.85 27 00:57 06.12.2019
3170 Clouds 16 1019 93 10000 1.85 27 00:37 06.12.2019
3171 Clouds 16 1021 100 10000 1.85 27 00:19 06.12.2019
3172 Clouds 17 1021 93 10000 1 0 23:37 05.12.2019
3173 Clouds 17 1021 93 10000 1 0 23:18 05.12.2019
3174 Clouds 17 1021 93 10000 1.86 34 22:55 05.12.2019
3175 Clouds 17 1021 93 10000 2.6 120 22:36 05.12.2019
3176 Clouds 17 1021 93 10000 2.6 120 22:18 05.12.2019
3177 Rain 17 1020 93 10000 3.1 150 21:42 05.12.2019
3178 Clouds 17 1021 88 10000 3.6 130 21:24 05.12.2019
3179 Rain 17 1020 93 10000 1.86 34 20:58 05.12.2019
3180 Rain 17 1020 93 10000 1.86 34 20:40 05.12.2019
3181 Rain 17 1020 93 10000 2.53 62 20:20 05.12.2019
3182 Clouds 17 1020 93 10000 3.1 70 19:44 05.12.2019
3183 Clouds 17 1020 93 10000 3.1 70 19:44 05.12.2019
3184 Clouds 17 1020 93 10000 3.1 70 19:26 05.12.2019
3185 Clouds 17 1021 88 10000 4.6 50 18:59 05.12.2019
3186 Clouds 17 1019 93 10000 3.6 40 18:39 05.12.2019
3187 Clouds 17 1019 93 10000 3.6 40 18:21 05.12.2019
3188 Clouds 17 1019 93 10000 3.6 40 18:21 05.12.2019
3189 Clouds 17 1020 88 10000 3.1 70 17:59 05.12.2019
3190 Clouds 18 1018 93 10000 2.53 62 17:38 05.12.2019
3191 Clouds 19 1018 93 10000 2.57 63 17:19 05.12.2019
3192 Clouds 20 1019 77 10000 2.6 90 16:55 05.12.2019
3193 Clouds 20 1018 82 10000 2.6 140 16:37 05.12.2019
3194 Clouds 20 1018 82 10000 2.6 140 16:18 05.12.2019
3195 Clouds 18 1018 82 10000 3.6 120 15:55 05.12.2019
3196 Clouds 18 1017 82 10000 2.57 63 15:37 05.12.2019
3197 Clouds 19 1017 82 10000 2.57 63 15:18 05.12.2019
3198 Clouds 19 1018 77 10000 5.7 160 14:54 05.12.2019
3199 Clouds 20 1017 73 10000 5.1 210 14:36 05.12.2019
3200 Clouds 22 1017 73 10000 5.1 210 14:18 05.12.2019
3201 Clouds 21 1018 78 10000 5.7 200 13:55 05.12.2019
3202 Rain 22 1018 73 10000 9.3 150 13:36 05.12.2019
3203 Rain 22 1018 73 10000 9.3 150 13:18 05.12.2019
3204 Clouds 23 1017 64 10000 3.1 90 12:43 05.12.2019
3205 Clouds 23 1017 64 10000 3.1 90 12:23 05.12.2019
3206 Clouds 23 1019 68 10000 4.1 50 11:56 05.12.2019
3207 Clouds 23 1019 64 10000 2.6 30 11:38 05.12.2019
3208 Clouds 23 1019 64 10000 2.6 30 11:20 05.12.2019
3209 Clouds 23 1019 64 10000 2.6 30 11:20 05.12.2019
3210 Clouds 23 1020 73 10000 3.1 20 10:56 05.12.2019
3211 Clouds 22 1020 69 10000 3.1 30 10:38 05.12.2019
3212 Clouds 20 1021 77 10000 2.6 350 10:18 05.12.2019
3213 Clouds 21 1021 82 10000 1.09 143 09:45 05.12.2019
3214 Clouds 21 1021 82 10000 1.09 143 09:21 05.12.2019
3215 Clouds 20 1022 77 10000 1.5 360 08:58 05.12.2019
3216 Clouds 20 1023 77 10000 1 0 08:38 05.12.2019
3217 Clouds 19 1023 77 10000 1 0 08:19 05.12.2019
3218 Clouds 19 1023 82 10000 2.6 330 07:50 05.12.2019
3219 Clouds 18 1022 88 10000 3.1 360 07:32 05.12.2019
3220 Clouds 17 1023 88 10000 2.1 350 06:57 05.12.2019
3221 Clouds 17 1023 93 10000 1.5 10 06:38 05.12.2019
3222 Clouds 17 1022 93 10000 1 0 06:19 05.12.2019
3223 Clouds 17 1022 93 10000 2.6 60 05:47 05.12.2019
3224 Clouds 16 1022 93 10000 2.6 60 05:22 05.12.2019
3225 Clouds 15 1020 93 10000 0.5 40 03:59 05.12.2019
3226 Clouds 15 1020 93 10000 0.5 40 03:59 05.12.2019
3227 Clouds 17 1019 93 10000 1.5 360 02:43 05.12.2019
3228 Clouds 17 1019 93 10000 1.5 360 02:24 05.12.2019
3229 Clouds 14 1019 93 10000 1 0 01:52 05.12.2019
3230 Clouds 15 1019 93 10000 1.5 30 01:24 05.12.2019
3231 Rain 15 1020 93 10000 1.5 40 00:50 05.12.2019
3232 Rain 15 1020 93 10000 2.1 40 00:31 05.12.2019
3233 Rain 15 1020 93 10000 2.6 100 23:57 04.12.2019
3234 Thunderstorm 15 1021 93 10000 2.6 80 23:39 04.12.2019
3235 Thunderstorm 15 1021 93 10000 2.6 80 23:20 04.12.2019
3236 Rain 15 1021 93 7000 1.5 40 22:55 04.12.2019
3237 Rain 16 1021 93 6000 0.5 0 22:36 04.12.2019
3238 Rain 16 1021 100 10000 3.6 210 22:18 04.12.2019
3239 Rain 16 1021 100 10000 3.6 210 21:54 04.12.2019
3240 Clouds 16 1020 93 10000 2.57 32 21:36 04.12.2019
3241 Clouds 16 1020 93 10000 2.57 32 21:18 04.12.2019
3242 Rain 16 1021 93 10000 1.5 230 20:55 04.12.2019
3243 Thunderstorm 16 1019 93 10000 2.57 32 20:37 04.12.2019
3244 Thunderstorm 16 1019 93 10000 1.44 61 20:19 04.12.2019
3245 Thunderstorm 16 1019 93 10000 1.5 60 19:40 04.12.2019
3246 Thunderstorm 16 1019 93 10000 1.5 60 19:21 04.12.2019
3247 Thunderstorm 17 1020 93 10000 3.6 240 18:58 04.12.2019
3248 Rain 17 1018 88 10000 1.5 300 18:40 04.12.2019
3249 Rain 17 1018 88 10000 1.5 300 18:21 04.12.2019
3250 Clouds 17 1019 93 10000 2.1 310 17:55 04.12.2019
3251 Rain 17 1017 88 10000 2.1 230 17:36 04.12.2019
3252 Rain 17 1017 88 10000 2.1 230 17:18 04.12.2019
3253 Rain 18 1018 93 4000 5.7 140 16:40 04.12.2019
3254 Clouds 19 1017 77 10000 7.2 190 16:20 04.12.2019
3255 Clouds 18 1017 77 10000 7.2 190 15:57 04.12.2019
3256 Clouds 20 1017 60 10000 4.6 80 15:38 04.12.2019
3257 Clouds 20 1017 60 10000 4.6 80 15:20 04.12.2019
3258 Clouds 21 1016 57 10000 4.6 90 14:57 04.12.2019
3259 Clouds 21 1016 57 10000 2.6 120 14:39 04.12.2019
3260 Clouds 21 1016 57 10000 2.6 120 14:20 04.12.2019
3261 Clouds 21 1017 53 10000 1 0 13:39 04.12.2019
3262 Clouds 20 1017 53 10000 1 0 13:21 04.12.2019
3263 Clouds 21 1017 57 10000 2.1 90 12:59 04.12.2019
3264 Clouds 21 1018 57 10000 3.1 130 12:41 04.12.2019
3265 Clouds 20 1018 57 10000 3.1 130 12:23 04.12.2019
3266 Clouds 19 1019 64 10000 2.1 40 11:43 04.12.2019
3267 Clouds 20 1019 64 10000 2.6 20 11:24 04.12.2019
3268 Clouds 19 1019 64 10000 2.1 40 11:24 04.12.2019
3269 Clouds 20 1019 64 10000 2.6 20 10:58 04.12.2019
3270 Clouds 20 1020 69 10000 2.1 90 10:39 04.12.2019
3271 Clouds 19 1020 69 10000 2.1 90 10:21 04.12.2019
3272 Clouds 19 1021 69 10000 1.5 0 09:43 04.12.2019
3273 Clouds 20 1021 69 10000 1.5 0 09:23 04.12.2019
3274 Clouds 19 1021 68 10000 1.5 90 08:44 04.12.2019
3275 Clouds 18 1022 77 10000 1.5 0 08:26 04.12.2019
3276 Clouds 17 1022 77 10000 1.5 0 07:59 04.12.2019
3277 Clouds 16 1022 77 10000 1.5 240 07:40 04.12.2019
3278 Clouds 16 1022 88 10000 2.1 280 07:22 04.12.2019
3279 Clouds 16 1020 93 10000 0.58 262 06:32 04.12.2019
3280 Clouds 15 1020 93 10000 4.1 270 05:47 04.12.2019
3281 Clouds 15 1020 93 10000 0.34 336 04:39 04.12.2019
3282 Rain 15 1020 100 10000 2.6 180 03:52 04.12.2019
3283 Rain 15 1019 93 10000 2.6 190 02:19 04.12.2019
3284 Rain 16 1020 93 10000 2.1 60 00:49 04.12.2019
3285 Rain 16 1019 93 10000 2.6 70 00:22 04.12.2019
3286 Rain 16 1020 93 9000 4.6 70 23:55 03.12.2019
3287 Rain 15 1020 93 10000 5.1 60 23:37 03.12.2019
3288 Rain 16 1020 93 10000 5.1 60 23:18 03.12.2019
3289 Clouds 17 1020 93 10000 3.1 40 22:39 03.12.2019
3290 Clouds 16 1020 93 10000 3.1 40 22:39 03.12.2019
3291 Clouds 17 1020 93 10000 3.1 40 22:39 03.12.2019
3292 Clouds 16 1020 93 10000 3.1 40 22:18 03.12.2019
3293 Clouds 16 1021 93 10000 4.1 60 21:57 03.12.2019
3294 Rain 16 1020 93 10000 2.6 40 21:37 03.12.2019
3295 Clouds 17 1021 93 10000 3.6 40 21:18 03.12.2019
3296 Clouds 16 1021 93 10000 3.6 40 20:54 03.12.2019
3297 Rain 17 1020 93 10000 0.69 82 20:36 03.12.2019
3298 Rain 17 1020 93 10000 1.88 67 20:18 03.12.2019
3299 Clouds 17 1021 93 10000 3.6 50 19:54 03.12.2019
3300 Clouds 17 1019 93 10000 1.88 67 19:36 03.12.2019
3301 Clouds 18 1018 88 10000 1.88 67 19:18 03.12.2019
3302 Clouds 17 1018 88 10000 1.88 67 18:55 03.12.2019
3303 Clouds 17 1018 88 10000 1.88 67 18:36 03.12.2019
3304 Clouds 18 1018 88 10000 1.88 67 18:18 03.12.2019
3305 Clouds 17 1018 93 10000 1.88 67 17:40 03.12.2019
3306 Clouds 19 1018 93 10000 2.46 109 17:19 03.12.2019
3307 Clouds 19 1018 93 10000 2.6 50 16:59 03.12.2019
3308 Clouds 19 1017 93 10000 3.1 90 16:39 03.12.2019
3309 Clouds 19 1017 93 10000 3.1 90 16:21 03.12.2019
3310 Clouds 19 1017 93 10000 3.1 90 16:21 03.12.2019
3311 Rain 18 1016 88 8000 5.1 140 15:58 03.12.2019
3312 Rain 19 1016 88 8000 5.1 140 15:38 03.12.2019
3313 Rain 19 1016 88 8000 5.1 140 15:19 03.12.2019
3314 Clouds 20 1016 83 10000 4.1 70 14:44 03.12.2019
3315 Clouds 21 1017 78 10000 4.6 60 14:21 03.12.2019
3316 Clouds 21 1017 78 10000 4.6 60 13:59 03.12.2019
3317 Rain 21 1016 60 10000 5.1 90 13:38 03.12.2019
3318 Rain 21 1016 60 10000 5.1 90 13:20 03.12.2019
3319 Clouds 22 1017 69 10000 3.1 50 12:57 03.12.2019
3320 Clouds 21 1017 69 10000 2.6 20 12:37 03.12.2019
3321 Clouds 21 1018 78 10000 1.5 10 12:18 03.12.2019
3322 Clouds 21 1018 78 10000 1.5 10 11:56 03.12.2019
3323 Clouds 21 1018 78 10000 3.1 340 11:37 03.12.2019
3324 Clouds 20 1018 78 10000 3.1 340 11:18 03.12.2019
3325 Clouds 19 1019 93 10000 3.1 20 10:43 03.12.2019
3326 Clouds 19 1019 93 10000 3.1 20 10:21 03.12.2019
3327 Clouds 19 1020 82 10000 1.19 14 09:59 03.12.2019
3328 Clouds 20 1021 82 10000 3.6 80 09:40 03.12.2019
3329 Clouds 19 1021 82 10000 3.6 80 09:22 03.12.2019
3330 Clouds 19 1021 77 10000 3.1 150 08:56 03.12.2019
3331 Clouds 19 1021 93 10000 4.1 120 08:38 03.12.2019
3332 Clouds 17 1022 93 10000 3.1 150 08:19 03.12.2019
3333 Clouds 17 1022 93 10000 3.1 150 07:50 03.12.2019
3334 Clouds 16 1021 93 10000 4.6 140 07:24 03.12.2019
3335 Rain 16 1020 100 5000 1.5 150 06:24 03.12.2019
3336 Rain 16 1020 100 5000 1.5 150 06:24 03.12.2019
3337 Rain 15 1021 93 6000 2.6 110 05:59 03.12.2019
3338 Clouds 16 1020 100 10000 2.1 90 04:55 03.12.2019
3339 Clouds 15 1019 100 10000 2.1 60 03:41 03.12.2019
3340 Clouds 16 1019 100 10000 2.1 60 03:20 03.12.2019
3341 Clouds 16 1019 100 10000 3.1 80 02:50 03.12.2019
3342 Rain 16 1018 93 8000 5.1 350 02:31 03.12.2019
3343 Rain 15 1019 100 10000 3.1 40 01:53 03.12.2019
3344 Clouds 15 1019 93 10000 2.6 50 01:34 03.12.2019
3345 Clouds 16 1019 93 10000 2.1 20 00:57 03.12.2019
3346 Clouds 16 1019 93 10000 2.1 10 00:39 03.12.2019
3347 Clouds 16 1019 93 10000 2.1 10 00:20 03.12.2019
3348 Clouds 16 1020 100 10000 3.6 30 23:43 02.12.2019
3349 Clouds 15 1020 100 10000 3.6 30 23:20 02.12.2019
3350 Clouds 16 1020 93 10000 4.1 80 22:43 02.12.2019
3351 Clouds 17 1020 93 10000 4.1 80 22:23 02.12.2019
3352 Clouds 17 1020 93 10000 5.7 70 21:59 02.12.2019
3353 Clouds 17 1020 93 10000 5.7 70 21:59 02.12.2019
3354 Clouds 18 1019 93 10000 5.1 80 21:39 02.12.2019
3355 Clouds 18 1019 93 10000 5.1 80 21:39 02.12.2019
3356 Clouds 17 1019 93 10000 5.1 80 21:20 02.12.2019
3357 Clouds 18 1020 93 10000 4.6 80 20:57 02.12.2019
3358 Clouds 18 1019 93 10000 4.1 70 20:38 02.12.2019
3359 Clouds 18 1019 93 10000 4.1 70 20:20 02.12.2019
3360 Clouds 18 1020 93 10000 4.6 80 19:56 02.12.2019
3361 Rain 18 1019 93 10000 3.6 60 19:38 02.12.2019
3362 Rain 18 1019 93 10000 3.6 60 19:19 02.12.2019
3363 Clouds 18 1020 88 10000 4.6 70 18:46 02.12.2019
3364 Clouds 18 1018 93 10000 1.6 68 18:21 02.12.2019
3365 Clouds 18 1018 88 10000 4.1 80 17:59 02.12.2019
3366 Clouds 18 1018 93 10000 1.6 68 17:40 02.12.2019
3367 Clouds 18 1018 93 10000 2.69 93 17:20 02.12.2019
3368 Clouds 19 1018 82 10000 2.6 120 16:57 02.12.2019
3369 Clouds 18 1018 82 10000 3.1 140 16:38 02.12.2019
3370 Clouds 19 1018 82 10000 3.1 140 16:18 02.12.2019
3371 Clouds 19 1018 82 10000 3.1 140 16:18 02.12.2019
3372 Clouds 20 1017 77 10000 6.2 120 15:55 02.12.2019
3373 Clouds 21 1016 73 10000 3.1 180 15:37 02.12.2019
3374 Clouds 21 1016 73 10000 3.1 180 15:19 02.12.2019
3375 Clouds 20 1017 73 10000 2.1 180 14:40 02.12.2019
3376 Clouds 22 1017 73 10000 2.1 180 14:20 02.12.2019
3377 Clouds 22 1017 73 10000 2.1 150 13:58 02.12.2019
3378 Clouds 21 1018 83 10000 3.6 140 13:40 02.12.2019
3379 Clouds 22 1018 83 10000 3.6 140 13:20 02.12.2019
3380 Clouds 22 1018 83 10000 3.6 140 13:20 02.12.2019
3381 Clouds 22 1018 73 10000 6.2 130 12:59 02.12.2019
3382 Clouds 22 1019 73 10000 1.5 0 12:40 02.12.2019
3383 Clouds 21 1019 73 10000 1.5 0 12:20 02.12.2019
3384 Clouds 21 1019 73 10000 1.5 0 11:56 02.12.2019
3385 Clouds 22 1019 77 10000 2.52 119 11:37 02.12.2019
3386 Clouds 19 1020 83 10000 2.6 330 11:18 02.12.2019
3387 Clouds 19 1020 83 10000 2.6 330 10:56 02.12.2019
3388 Clouds 18 1020 88 10000 1.82 67 10:37 02.12.2019
3389 Rain 17 1021 93 3000 2.6 60 10:19 02.12.2019
3390 Rain 19 1021 93 3000 2.6 60 09:41 02.12.2019
3391 Rain 19 1021 93 3000 2.6 60 09:19 02.12.2019
3392 Clouds 18 1022 93 10000 3.6 70 08:58 02.12.2019
3393 Rain 18 1021 93 10000 3.1 360 08:39 02.12.2019
3394 Rain 17 1021 93 10000 3.1 360 08:21 02.12.2019
3395 Rain 17 1021 100 7000 4.1 120 07:44 02.12.2019
3396 Drizzle 17 1022 93 4000 3.1 90 07:21 02.12.2019
3397 Rain 17 1021 100 7000 4.1 120 07:21 02.12.2019
3398 Drizzle 16 1022 93 4000 3.1 90 06:57 02.12.2019
3399 Drizzle 16 1022 93 4000 3.1 90 06:57 02.12.2019
3400 Rain 16 1021 100 6000 4.1 120 06:38 02.12.2019
3401 Rain 16 1020 93 6000 2.28 40 05:36 02.12.2019
3402 Clouds 15 1020 93 10000 1.37 37 04:40 02.12.2019
3403 Clouds 15 1020 100 10000 3.1 20 02:55 02.12.2019
3404 Clouds 15 1020 100 10000 3.1 30 02:31 02.12.2019
3405 Clouds 15 1020 100 10000 3.6 30 01:27 02.12.2019
3406 Clouds 15 1020 100 10000 3.6 30 00:59 02.12.2019
3407 Clouds 15 1021 100 10000 3.1 30 00:28 02.12.2019
3408 Clouds 16 1021 100 10000 3.6 50 23:56 01.12.2019
3409 Clouds 16 1021 93 10000 3.6 60 23:38 01.12.2019
3410 Clouds 16 1021 93 10000 3.6 60 23:19 01.12.2019
3411 Clouds 17 1021 93 10000 3.6 60 22:56 01.12.2019
3412 Rain 16 1021 100 10000 4.1 70 22:37 01.12.2019
3413 Rain 16 1021 100 10000 4.1 70 22:18 01.12.2019
3414 Clouds 16 1021 93 10000 2.1 40 21:55 01.12.2019
3415 Rain 16 1021 100 10000 5.1 70 21:37 01.12.2019
3416 Rain 16 1021 100 10000 5.1 70 21:18 01.12.2019
3417 Rain 17 1022 100 10000 5.1 60 20:56 01.12.2019
3418 Rain 17 1022 100 10000 4.6 60 20:37 01.12.2019
3419 Rain 17 1022 100 10000 4.6 60 20:19 01.12.2019
3420 Rain 17 1022 93 10000 5.7 70 19:54 01.12.2019
3421 Rain 17 1021 93 10000 2.6 70 19:36 01.12.2019
3422 Clouds 18 1021 88 10000 4.6 60 19:18 01.12.2019
3423 Clouds 18 1021 88 10000 4.6 60 18:54 01.12.2019
3424 Clouds 18 1019 82 10000 2.6 30 18:36 01.12.2019
3425 Clouds 17 1019 82 10000 2.6 30 18:18 01.12.2019
3426 Clouds 18 1020 93 10000 3.6 70 17:55 01.12.2019
3427 Clouds 18 1019 88 10000 5.1 60 17:37 01.12.2019
3428 Clouds 18 1019 88 10000 5.1 60 17:37 01.12.2019
3429 Clouds 17 1019 88 10000 5.1 60 17:19 01.12.2019
3430 Clouds 18 1018 77 10000 5.1 70 16:42 01.12.2019
3431 Clouds 19 1018 77 10000 5.1 70 16:23 01.12.2019
3432 Clouds 19 1019 82 10000 5.7 100 15:51 01.12.2019
3433 Clouds 20 1018 68 10000 7.7 70 15:33 01.12.2019
3434 Clouds 20 1018 68 10000 7.7 70 15:33 01.12.2019
3435 Clouds 21 1018 68 10000 7.7 70 15:33 01.12.2019
3436 Clouds 21 1018 68 10000 5.7 70 14:56 01.12.2019
3437 Clouds 21 1018 68 10000 5.7 70 14:56 01.12.2019
3438 Clouds 21 1018 68 10000 5.7 70 14:56 01.12.2019
3439 Clouds 21 1017 64 10000 6.2 70 14:37 01.12.2019
3440 Clouds 21 1017 64 10000 6.2 70 14:18 01.12.2019
3441 Clouds 21 1018 64 10000 4.1 40 13:40 01.12.2019
3442 Clouds 21 1018 64 10000 4.1 40 13:20 01.12.2019
3443 Clouds 21 1019 73 10000 4.1 70 12:46 01.12.2019
3444 Clouds 21 1019 73 10000 4.1 70 12:18 01.12.2019
3445 Clouds 21 1019 73 10000 4.1 70 12:18 01.12.2019
3446 Clouds 21 1019 73 10000 4.1 70 12:18 01.12.2019
3447 Clouds 21 1019 73 10000 4.1 70 12:18 01.12.2019
3448 Clouds 21 1019 73 10000 4.1 70 12:18 01.12.2019
3449 Clouds 20 1020 82 10000 4.1 60 11:43 01.12.2019
3450 Clouds 20 1020 82 10000 4.1 60 11:43 01.12.2019
3451 Clouds 20 1020 82 10000 4.1 60 11:43 01.12.2019
3452 Clouds 20 1020 82 10000 4.1 60 11:43 01.12.2019
3453 Clouds 20 1020 82 10000 4.1 60 11:24 01.12.2019
3454 Clouds 19 1021 82 10000 4.1 40 10:45 01.12.2019
3455 Clouds 18 1021 82 10000 4.1 40 10:22 01.12.2019
3456 Clouds 18 1022 88 10000 4.1 30 09:59 01.12.2019
3457 Clouds 19 1022 88 10000 4.6 30 09:40 01.12.2019
3458 Rain 17 1022 93 10000 4.1 30 09:21 01.12.2019
3459 Rain 17 1022 93 10000 4.1 30 08:48 01.12.2019
3460 Rain 17 1022 93 10000 4.1 30 08:21 01.12.2019
3461 Rain 16 1023 93 10000 4.1 30 07:52 01.12.2019
3462 Rain 16 1022 100 7000 5.1 30 07:31 01.12.2019
3463 Rain 16 1023 93 10000 4.1 30 06:57 01.12.2019
3464 Drizzle 17 1022 100 6000 4.1 20 06:36 01.12.2019
3465 Rain 16 1022 93 10000 4.6 40 05:50 01.12.2019
3466 Rain 15 1021 93 10000 4.1 20 04:53 01.12.2019
3467 Clouds 16 1020 100 7000 2.6 20 03:39 01.12.2019
3468 Rain 16 1020 93 7000 2.1 40 02:38 01.12.2019
3469 Clouds 15 1020 100 10000 4.1 60 02:19 01.12.2019
3470 Clouds 15 1020 100 10000 4.1 60 01:52 01.12.2019
3471 Clouds 15 1020 100 10000 4.1 60 01:26 01.12.2019
3472 Rain 16 1021 93 10000 3.6 20 00:43 01.12.2019
3473 Rain 15 1021 93 10000 3.6 20 00:24 01.12.2019
3474 Clouds 16 1021 93 10000 3.1 20 23:44 30.11.2019
3475 Clouds 17 1021 93 10000 3.1 20 23:24 30.11.2019
3476 Clouds 17 1021 93 10000 3.1 20 22:57 30.11.2019
3477 Clouds 16 1021 93 10000 3.1 40 22:38 30.11.2019
3478 Clouds 16 1021 93 10000 3.1 40 22:20 30.11.2019
3479 Clouds 16 1021 93 10000 3.6 70 21:44 30.11.2019
3480 Clouds 17 1021 93 10000 3.6 70 21:25 30.11.2019
3481 Clouds 17 1022 93 10000 4.1 70 20:57 30.11.2019
3482 Rain 17 1020 100 7000 4.6 70 20:38 30.11.2019
3483 Rain 17 1020 100 7000 4.6 70 20:19 30.11.2019
3484 Rain 17 1021 93 10000 6.2 80 19:56 30.11.2019
3485 Clouds 17 1021 93 10000 6.2 60 19:38 30.11.2019
3486 Clouds 17 1021 93 10000 6.2 60 19:20 30.11.2019
3487 Clouds 17 1020 93 10000 4.6 90 18:58 30.11.2019
3488 Rain 17 1019 100 6000 5.1 10 18:38 30.11.2019
3489 Rain 17 1019 100 6000 5.1 10 18:38 30.11.2019
3490 Rain 17 1019 100 6000 5.1 10 18:19 30.11.2019
3491 Clouds 17 1020 93 10000 6.2 70 17:58 30.11.2019
3492 Rain 18 1018 93 5000 3.1 290 17:39 30.11.2019
3493 Rain 18 1018 93 5000 3.1 290 17:20 30.11.2019
3494 Clouds 18 1019 94 10000 6.2 60 16:56 30.11.2019
3495 Rain 19 1017 72 10000 5.1 90 16:38 30.11.2019
3496 Rain 19 1017 72 10000 5.1 90 16:20 30.11.2019
3497 Clouds 21 1017 64 10000 2.1 80 15:42 30.11.2019
3498 Clouds 21 1017 64 10000 2.1 80 15:19 30.11.2019
3499 Clouds 21 1017 64 10000 4.1 80 14:57 30.11.2019
3500 Clouds 21 1017 64 10000 4.1 80 14:57 30.11.2019
3501 Clouds 20 1018 64 10000 4.6 80 14:38 30.11.2019
3502 Clouds 20 1018 64 10000 4.6 80 14:38 30.11.2019
3503 Clouds 22 1018 64 10000 4.6 80 14:19 30.11.2019
3504 Clouds 24 1018 64 10000 4.6 80 13:58 30.11.2019
3505 Clouds 25 1018 57 10000 3.6 80 13:38 30.11.2019
3506 Clouds 24 1018 57 10000 3.6 80 13:19 30.11.2019
3507 Clouds 24 1018 64 10000 4.1 90 12:47 30.11.2019
3508 Clouds 22 1018 64 10000 4.1 90 12:28 30.11.2019
3509 Clouds 22 1020 69 10000 3.1 110 11:57 30.11.2019
3510 Clouds 22 1020 69 10000 3.1 110 11:57 30.11.2019
3511 Clouds 21 1021 69 10000 2.6 60 11:38 30.11.2019
3512 Clouds 20 1021 69 10000 2.6 60 11:18 30.11.2019
3513 Clouds 23 1021 69 10000 3.6 80 10:44 30.11.2019
3514 Clouds 23 1021 69 10000 3.6 80 10:21 30.11.2019
3515 Clouds 21 1022 77 10000 2.6 40 09:50 30.11.2019
3516 Clouds 19 1022 77 10000 3.1 60 09:30 30.11.2019
3517 Clouds 19 1023 82 10000 3.1 30 08:56 30.11.2019
3518 Clouds 19 1023 82 10000 3.1 30 08:56 30.11.2019
3519 Clouds 19 1022 88 10000 2.1 40 08:38 30.11.2019
3520 Clouds 18 1022 88 10000 2.1 40 08:18 30.11.2019
3521 Clouds 17 1022 88 10000 2.6 48 07:42 30.11.2019
3522 Clouds 17 1022 88 10000 2.6 48 07:23 30.11.2019
3523 Clouds 17 1021 93 10000 2.6 48 06:45 30.11.2019
3524 Clouds 16 1021 93 10000 2.6 48 06:27 30.11.2019
3525 Clouds 16 1020 93 10000 2.02 17 04:59 30.11.2019
3526 Clouds 16 1020 100 10000 2.02 17 03:38 30.11.2019
3527 Clouds 15 1020 100 10000 3.6 50 02:25 30.11.2019
3528 Clouds 15 1021 100 10000 2.1 30 01:50 30.11.2019
3529 Rain 15 1021 100 8000 2.1 10 01:24 30.11.2019
3530 Rain 15 1021 100 10000 2.1 30 00:45 30.11.2019
3531 Rain 16 1021 100 8000 3.1 40 00:21 30.11.2019
3532 Rain 15 1022 93 6000 3.6 80 23:44 29.11.2019
3533 Rain 15 1022 93 6000 3.6 80 23:25 29.11.2019
3534 Rain 15 1022 93 6000 3.6 80 23:25 29.11.2019
3535 Rain 15 1022 93 9000 4.6 110 22:49 29.11.2019
3536 Rain 17 1022 100 8000 6.2 90 22:27 29.11.2019
3537 Rain 17 1022 93 10000 4.1 20 21:58 29.11.2019
3538 Rain 17 1021 100 10000 2.36 32 21:40 29.11.2019
3539 Rain 17 1021 100 10000 2.36 32 21:22 29.11.2019
3540 Clouds 17 1022 88 10000 4.1 30 20:56 29.11.2019
3541 Rain 17 1021 100 10000 4.1 20 20:36 29.11.2019
3542 Rain 17 1021 100 10000 4.1 20 20:18 29.11.2019
3543 Clouds 17 1021 93 10000 0.5 0 19:54 29.11.2019
3544 Rain 17 1018 93 10000 2.43 55 19:36 29.11.2019
3545 Rain 17 1018 93 10000 2.43 55 19:18 29.11.2019
3546 Clouds 17 1019 88 10000 2.43 55 18:41 29.11.2019
3547 Clouds 17 1019 88 10000 2.43 55 18:41 29.11.2019
3548 Clouds 17 1019 88 10000 2.43 55 18:23 29.11.2019
3549 Clouds 17 1020 88 10000 0.5 0 17:56 29.11.2019
3550 Clouds 17 1019 88 10000 2.43 55 17:38 29.11.2019
3551 Clouds 17 1019 88 10000 3.23 74 17:19 29.11.2019
3552 Rain 17 1019 93 10000 4.6 350 16:42 29.11.2019
3553 Rain 18 1019 93 10000 4.6 350 16:21 29.11.2019
3554 Rain 18 1019 93 10000 4.6 350 16:21 29.11.2019
3555 Rain 18 1019 93 10000 6.2 340 15:56 29.11.2019
3556 Rain 19 1018 88 10000 4.1 30 15:37 29.11.2019
3557 Rain 19 1018 88 10000 4.1 30 15:19 29.11.2019
3558 Clouds 21 1018 60 10000 3.6 20 14:40 29.11.2019
3559 Clouds 21 1018 60 10000 3.6 20 14:21 29.11.2019
3560 Clouds 22 1018 57 10000 3.6 90 13:57 29.11.2019
3561 Clouds 23 1018 57 10000 3.1 170 13:37 29.11.2019
3562 Clouds 24 1018 57 10000 3.1 170 13:19 29.11.2019
3563 Clouds 22 1019 64 10000 3 107 12:42 29.11.2019
3564 Clouds 21 1019 64 10000 3 107 12:24 29.11.2019
3565 Clouds 20 1020 69 10000 3.1 230 11:56 29.11.2019
3566 Rain 20 1020 82 10000 3 107 11:38 29.11.2019
3567 Rain 21 1020 82 10000 2.29 24 11:19 29.11.2019
3568 Clouds 22 1021 60 10000 2.6 0 10:57 29.11.2019
3569 Rain 22 1021 64 10000 2.6 280 10:38 29.11.2019
3570 Rain 22 1021 64 10000 2.6 280 10:20 29.11.2019
3571 Clouds 23 1022 69 10000 1.5 0 09:57 29.11.2019
3572 Clouds 23 1022 69 10000 1.5 0 09:57 29.11.2019
3573 Clouds 23 1022 64 10000 2.6 180 09:38 29.11.2019
3574 Clouds 23 1022 64 10000 2.6 180 09:20 29.11.2019
3575 Clouds 22 1023 68 10000 1 0 08:54 29.11.2019
3576 Clouds 21 1022 68 10000 2.29 24 08:36 29.11.2019
3577 Clouds 20 1022 68 10000 2.36 348 08:18 29.11.2019
3578 Clouds 18 1022 77 10000 2.36 348 07:41 29.11.2019
3579 Clouds 18 1022 77 10000 2.36 348 07:22 29.11.2019
3580 Clouds 18 1023 88 10000 2.36 348 06:46 29.11.2019
3581 Clouds 18 1022 93 9000 2.36 348 06:27 29.11.2019
3582 Clouds 17 1021 93 10000 2.36 348 05:32 29.11.2019
3583 Clouds 15 1021 93 10000 2.1 100 04:49 29.11.2019
3584 -273 0 0 0 0 0 03:23 29.11.2019
3585 Clouds 15 1021 93 10000 2.1 40 02:53 29.11.2019
3586 Clouds 16 1021 93 10000 2.6 50 02:21 29.11.2019
3587 Clouds 14 1021 93 10000 3.1 70 01:27 29.11.2019
3588 Clouds 14 1021 93 10000 3.1 70 00:51 29.11.2019
3589 Clouds 15 1022 100 10000 3.6 70 00:23 29.11.2019
3590 Clouds 15 1022 100 10000 3.6 70 23:58 28.11.2019
3591 Clouds 15 1022 88 10000 3.6 70 23:39 28.11.2019
3592 Clouds 15 1022 88 10000 3.6 70 23:20 28.11.2019
3593 Clouds 15 1022 88 10000 3.6 70 23:20 28.11.2019
3594 Clouds 15 1022 88 10000 3.6 70 23:20 28.11.2019
3595 Clouds 15 1022 88 10000 3.6 60 22:56 28.11.2019
3596 Clouds 16 1022 88 10000 3.6 60 22:36 28.11.2019
3597 Clouds 16 1022 88 10000 3.6 60 22:18 28.11.2019
3598 Clouds 16 1022 88 10000 4.1 50 21:42 28.11.2019
3599 Clouds 17 1022 88 10000 4.1 50 21:21 28.11.2019
3600 Clouds 17 1022 88 10000 4.6 60 20:59 28.11.2019
3601 Clouds 16 1022 82 10000 4.1 60 20:40 28.11.2019
3602 Clouds 17 1022 82 10000 5.1 70 20:21 28.11.2019
3603 Clouds 17 1022 82 10000 5.1 70 19:57 28.11.2019
3604 Clouds 17 1021 68 10000 3.1 60 19:38 28.11.2019
3605 Clouds 17 1021 68 10000 3.1 60 19:19 28.11.2019
3606 Clouds 17 1021 68 10000 3.1 60 19:19 28.11.2019
3607 Clouds 16 1021 72 10000 4.1 50 18:57 28.11.2019
3608 Clouds 16 1021 72 10000 4.1 40 18:39 28.11.2019
3609 Clouds 18 1021 72 10000 4.1 40 18:18 28.11.2019
3610 Clouds 18 1020 68 10000 4.6 50 17:56 28.11.2019
3611 Clouds 18 1020 60 10000 3.1 70 17:38 28.11.2019
3612 Clouds 18 1020 60 10000 3.1 70 17:20 28.11.2019
3613 Clouds 18 1019 53 10000 6.7 50 16:40 28.11.2019
3614 Clouds 18 1018 43 10000 7.2 60 16:19 28.11.2019
3615 Clouds 18 1018 43 10000 7.2 60 15:58 28.11.2019
3616 Clouds 19 1018 53 10000 7.2 70 15:39 28.11.2019
3617 Clouds 19 1018 53 10000 7.2 70 15:20 28.11.2019
3618 Clouds 19 1018 53 10000 6.7 60 14:58 28.11.2019
3619 Clouds 19 1018 57 10000 6.2 70 14:39 28.11.2019
3620 Clouds 24 1018 57 10000 6.2 70 14:19 28.11.2019
3621 Clouds 23 1018 50 10000 5.1 50 13:43 28.11.2019
3622 Clouds 24 1019 57 10000 6.2 50 13:24 28.11.2019
3623 Clouds 24 1019 57 10000 6.2 50 12:57 28.11.2019
3624 Clouds 23 1020 53 10000 3.1 100 12:38 28.11.2019
3625 Clouds 24 1020 53 10000 3.1 100 12:20 28.11.2019
3626 Clouds 24 1020 50 10000 6.2 60 11:56 28.11.2019
3627 Clouds 24 1020 47 10000 5.1 90 11:37 28.11.2019
3628 Clouds 24 1020 47 10000 5.1 90 11:19 28.11.2019
3629 Clouds 24 1020 47 10000 5.1 90 11:19 28.11.2019
3630 Clouds 24 1020 49 10000 4.1 60 10:42 28.11.2019
3631 Clouds 21 1020 49 10000 4.1 60 10:22 28.11.2019
3632 Clouds 21 1021 53 10000 5.7 60 09:56 28.11.2019
3633 Clouds 22 1021 56 10000 3.1 80 09:38 28.11.2019
3634 Clouds 22 1021 56 10000 3.1 80 09:20 28.11.2019
3635 Clouds 21 1021 60 10000 5.1 30 08:44 28.11.2019
3636 Clouds 19 1022 77 10000 4.1 10 08:22 28.11.2019
3637 Clouds 19 1022 77 10000 4.1 10 07:58 28.11.2019
3638 Clouds 19 1021 72 10000 4.1 80 07:39 28.11.2019
3639 Clouds 19 1021 72 10000 4.1 80 07:21 28.11.2019
3640 Clouds 18 1021 82 10000 3.6 30 06:41 28.11.2019
3641 Clouds 16 1022 93 10000 3.1 40 05:56 28.11.2019
3642 Clouds 16 1022 93 10000 3.1 40 05:56 28.11.2019
3643 Clouds 17 1021 93 10000 5.1 80 05:38 28.11.2019
3644 Clouds 15 1021 100 10000 2.6 50 04:51 28.11.2019
3645 Clouds 15 1020 93 10000 3.1 80 02:32 28.11.2019
3646 Clouds 16 1019 93 10000 6.2 70 01:25 28.11.2019
3647 Clouds 16 1021 100 10000 4.6 50 00:42 28.11.2019
3648 Clouds 16 1021 100 10000 4.6 50 00:19 28.11.2019
3649 Clouds 16 1021 82 10000 5.1 60 23:39 27.11.2019
3650 Clouds 16 1021 82 10000 5.1 60 23:21 27.11.2019
3651 Clouds 17 1021 93 10000 5.1 70 22:56 27.11.2019
3652 Clouds 17 1021 82 10000 5.1 60 22:38 27.11.2019
3653 Clouds 17 1021 82 10000 5.1 60 22:19 27.11.2019
3654 Clouds 17 1022 93 10000 5.7 70 21:56 27.11.2019
3655 Clouds 17 1022 93 10000 5.7 70 21:56 27.11.2019
3656 Clouds 17 1022 93 10000 5.7 70 21:56 27.11.2019
3657 Clouds 17 1021 82 10000 5.1 70 21:37 27.11.2019
3658 Clouds 17 1022 88 10000 6.2 80 21:19 27.11.2019
3659 Clouds 17 1022 88 10000 6.2 80 20:57 27.11.2019
3660 Clouds 17 1022 88 10000 6.2 80 20:57 27.11.2019
3661 Clouds 17 1020 72 10000 4.1 70 20:37 27.11.2019
3662 Clouds 17 1020 72 10000 4.1 70 20:19 27.11.2019
3663 Clouds 18 1021 82 10000 5.7 70 19:56 27.11.2019
3664 Clouds 18 1020 72 10000 6.7 70 19:37 27.11.2019
3665 Clouds 17 1020 72 10000 6.7 70 19:19 27.11.2019
3666 Clouds 18 1021 77 10000 3.6 40 18:57 27.11.2019
3667 Clouds 18 1019 68 10000 5.1 60 18:36 27.11.2019
3668 Clouds 18 1019 68 10000 5.1 60 18:18 27.11.2019
3669 Clouds 18 1019 72 10000 5.1 50 17:55 27.11.2019
3670 Clouds 18 1018 68 10000 5.1 80 17:37 27.11.2019
3671 Clouds 18 1018 68 10000 5.1 80 17:18 27.11.2019
3672 Clouds 19 1019 64 10000 6.2 50 16:55 27.11.2019
3673 Clouds 19 1019 64 10000 6.2 50 16:55 27.11.2019
3674 Clouds 19 1018 53 10000 5.1 60 16:36 27.11.2019
3675 Clouds 19 1018 53 10000 5.1 60 16:18 27.11.2019
3676 Clouds 19 1018 49 10000 7.7 60 15:55 27.11.2019
3677 Clouds 19 1017 49 10000 6.7 60 15:37 27.11.2019
3678 Clouds 19 1017 49 10000 6.7 60 15:19 27.11.2019
3679 Clouds 20 1018 49 10000 7.7 60 14:55 27.11.2019
3680 Clouds 20 1017 53 10000 5.1 60 14:36 27.11.2019
3681 Clouds 20 1017 53 10000 5.1 60 14:18 27.11.2019
3682 Clouds 21 1018 53 10000 9.3 70 13:55 27.11.2019
3683 Clouds 21 1017 47 10000 8.2 90 13:36 27.11.2019
3684 Clouds 21 1017 47 10000 8.2 90 13:18 27.11.2019
3685 Clouds 22 1018 47 10000 7.7 40 12:41 27.11.2019
3686 Clouds 22 1018 47 10000 7.7 40 12:21 27.11.2019
3687 Clouds 22 1019 50 10000 7.2 90 11:55 27.11.2019
3688 Clouds 23 1019 50 10000 7.2 90 11:36 27.11.2019
3689 Clouds 23 1019 53 10000 7.2 60 11:18 27.11.2019
3690 Clouds 22 1019 47 10000 6.7 80 10:43 27.11.2019
3691 Clouds 22 1019 47 10000 6.7 80 10:24 27.11.2019
3692 Clouds 22 1020 56 10000 6.7 50 09:50 27.11.2019
3693 Clouds 23 1020 60 10000 6.2 40 09:27 27.11.2019
3694 Clouds 21 1021 68 10000 5.7 50 08:59 27.11.2019
3695 Clouds 22 1021 68 10000 5.1 20 08:41 27.11.2019
3696 Clouds 20 1021 68 10000 5.1 20 08:22 27.11.2019
3697 Clouds 19 1021 77 10000 5.1 50 07:47 27.11.2019
3698 Clouds 18 1021 77 10000 5.1 50 07:29 27.11.2019
3699 Clouds 17 1021 88 10000 4.1 30 06:54 27.11.2019
3700 Clouds 17 1021 88 10000 4.1 40 06:35 27.11.2019
3701 Clouds 16 1021 93 10000 2.6 20 05:46 27.11.2019
3702 Clouds 15 1021 93 10000 2.6 20 05:21 27.11.2019
3703 Clouds 15 1020 93 10000 2.27 38 04:48 27.11.2019
3704 Clouds 15 1020 93 10000 2.27 38 04:29 27.11.2019
3705 Clouds 15 1019 93 10000 2.27 38 03:40 27.11.2019
3706 Clouds 15 1019 93 10000 2.27 38 03:19 27.11.2019
3707 Clouds 16 1020 93 10000 2.1 40 02:28 27.11.2019
3708 Clouds 15 1021 93 10000 4.1 40 00:50 27.11.2019
3709 Clouds 15 1021 93 10000 4.1 40 00:30 27.11.2019
3710 Clouds 15 1021 93 10000 4.1 40 23:55 26.11.2019
3711 Clouds 15 1021 88 10000 4.6 50 23:37 26.11.2019
3712 Clouds 16 1021 93 10000 5.1 50 23:18 26.11.2019
3713 Clouds 18 1021 88 10000 2.1 50 22:39 26.11.2019
3714 Clouds 17 1021 88 10000 2.1 50 22:20 26.11.2019
3715 Clouds 17 1021 88 10000 2.1 50 22:20 26.11.2019
3716 Clouds 17 1022 93 10000 4.6 50 21:59 26.11.2019
3717 Clouds 16 1022 93 10000 3.6 60 21:38 26.11.2019
3718 Clouds 16 1022 93 10000 3.6 60 21:20 26.11.2019
3719 Clouds 16 1022 93 10000 3.6 60 20:57 26.11.2019
3720 Clouds 17 1022 93 10000 4.6 70 20:37 26.11.2019
3721 Clouds 17 1022 93 10000 4.6 70 20:19 26.11.2019
3722 Rain 17 1021 93 10000 5.1 60 19:55 26.11.2019
3723 Clouds 17 1020 82 10000 6.23 39 19:37 26.11.2019
3724 Clouds 16 1021 82 10000 4.1 60 19:19 26.11.2019
3725 Clouds 16 1021 82 10000 4.1 60 18:57 26.11.2019
3726 Clouds 16 1020 82 10000 4.6 50 18:39 26.11.2019
3727 Clouds 18 1019 82 10000 3.6 50 18:20 26.11.2019
3728 Clouds 18 1019 82 10000 3.6 50 17:58 26.11.2019
3729 Clouds 18 1018 68 10000 6.23 39 17:39 26.11.2019
3730 Clouds 18 1018 68 10000 4.05 40 17:21 26.11.2019
3731 Clouds 18 1018 72 10000 4.1 50 16:57 26.11.2019
3732 Clouds 19 1017 64 10000 3.1 30 16:37 26.11.2019
3733 Clouds 19 1018 68 10000 5.1 60 16:18 26.11.2019
3734 Clouds 20 1018 68 10000 5.1 60 15:58 26.11.2019
3735 Clouds 20 1018 68 10000 5.1 60 15:58 26.11.2019
3736 Clouds 20 1018 60 10000 4.1 20 15:37 26.11.2019
3737 Clouds 20 1018 60 10000 4.1 20 15:19 26.11.2019
3738 Clouds 20 1018 73 10000 5.1 90 14:47 26.11.2019
3739 Clouds 20 1018 73 10000 5.1 90 14:25 26.11.2019
3740 Clouds 20 1018 73 10000 5.1 90 14:25 26.11.2019
3741 Clouds 21 1018 56 10000 6.2 50 13:57 26.11.2019
3742 Clouds 21 1017 64 10000 4.1 90 13:38 26.11.2019
3743 Clouds 22 1017 64 10000 4.1 90 13:19 26.11.2019
3744 Clouds 21 1019 64 10000 4.1 70 12:38 26.11.2019
3745 Clouds 21 1019 64 10000 4.1 70 12:38 26.11.2019
3746 Clouds 19 1020 68 10000 4.1 20 12:20 26.11.2019
3747 Clouds 19 1020 68 10000 4.1 20 11:58 26.11.2019
3748 Clouds 19 1020 77 10000 5.1 30 11:39 26.11.2019
3749 Clouds 19 1020 77 10000 5.1 30 11:39 26.11.2019
3750 Clouds 18 1021 82 10000 3.6 360 11:20 26.11.2019
3751 Clouds 17 1021 82 10000 3.6 360 10:58 26.11.2019
3752 Rain 18 1021 88 10000 3.1 30 10:39 26.11.2019
3753 Rain 18 1021 88 10000 3.1 30 10:20 26.11.2019
3754 Rain 17 1023 82 10000 4.6 20 09:56 26.11.2019
3755 Rain 17 1023 93 8000 2.87 31 09:37 26.11.2019
3756 Rain 17 1023 93 8000 2.87 31 09:18 26.11.2019
3757 Rain 17 1022 93 10000 4.1 60 08:43 26.11.2019
3758 Rain 15 1022 93 10000 4.1 60 08:22 26.11.2019
3759 Rain 16 1022 93 7000 0.61 294 07:44 26.11.2019
3760 Rain 16 1022 93 7000 0.61 294 07:25 26.11.2019
3761 Clouds 16 1023 93 0 2.6 60 06:55 26.11.2019
3762 Rain 16 1022 93 7000 0.61 294 06:30 26.11.2019
3763 Rain 15 1021 100 8000 0.61 294 05:41 26.11.2019
3764 Rain 15 1019 93 10000 0.38 291 03:59 26.11.2019
3765 Rain 15 1020 93 10000 0.38 291 02:49 26.11.2019
3766 Clouds 14 1021 93 10000 1 230 01:33 26.11.2019
3767 Clouds 15 1021 93 10000 1.5 260 00:51 26.11.2019
3768 Clouds 15 1021 93 10000 1.5 260 00:26 26.11.2019
3769 Clouds 15 1021 93 10000 2.6 240 23:41 25.11.2019
3770 Clouds 15 1021 93 10000 2.6 240 23:21 25.11.2019
3771 Drizzle 15 1022 93 10000 2.6 230 22:59 25.11.2019
3772 Rain 15 1021 93 10000 2.49 16 22:38 25.11.2019
3773 Rain 15 1021 93 10000 2.49 16 22:18 25.11.2019
3774 Clouds 15 1022 93 10000 2.49 16 21:58 25.11.2019
3775 Clouds 15 1023 93 10000 2.49 16 21:39 25.11.2019
3776 Clouds 15 1023 93 10000 2.49 16 21:21 25.11.2019
3777 Clouds 15 1023 93 10000 1 0 20:57 25.11.2019
3778 Clouds 15 1021 100 10000 2.49 16 20:39 25.11.2019
3779 Clouds 15 1021 100 10000 2.24 32 20:19 25.11.2019
3780 Clouds 15 1022 93 10000 2.1 210 19:56 25.11.2019
3781 Rain 15 1021 93 10000 2.24 32 19:37 25.11.2019
3782 Rain 15 1021 93 10000 2.24 32 19:37 25.11.2019
3783 Clouds 16 1021 93 10000 3.1 210 19:18 25.11.2019
3784 Clouds 15 1021 93 10000 3.1 210 18:57 25.11.2019
3785 Rain 16 1020 93 10000 2.24 32 18:39 25.11.2019
3786 Rain 16 1020 93 10000 2.24 32 18:21 25.11.2019
3787 Clouds 16 1020 93 10000 1.5 210 17:57 25.11.2019
3788 Rain 16 1019 93 10000 2.24 32 17:38 25.11.2019
3789 Rain 16 1019 93 10000 1.83 64 17:20 25.11.2019
3790 Rain 16 1019 93 10000 2.1 140 16:57 25.11.2019
3791 Rain 16 1018 93 10000 1.83 64 16:39 25.11.2019
3792 Rain 16 1018 93 10000 1.83 64 16:20 25.11.2019
3793 Clouds 17 1019 88 10000 1 0 15:54 25.11.2019
3794 Clouds 16 1018 88 10000 1.83 64 15:36 25.11.2019
3795 Clouds 17 1018 88 10000 2.6 280 15:18 25.11.2019
3796 Rain 17 1018 88 10000 1.83 64 14:41 25.11.2019
3797 Rain 17 1018 88 10000 2.43 230 14:22 25.11.2019
3798 Rain 16 1019 93 10000 6.2 260 13:55 25.11.2019
3799 Rain 18 1019 93 10000 6.2 260 13:36 25.11.2019
3800 Rain 18 1019 93 10000 6.2 260 13:18 25.11.2019
3801 Rain 18 1019 68 10000 5.1 300 12:41 25.11.2019
3802 Rain 17 1019 68 10000 5.1 300 12:22 25.11.2019
3803 Rain 20 1020 64 10000 4.1 70 11:59 25.11.2019
3804 Rain 19 1020 60 10000 5.1 270 11:40 25.11.2019
3805 Rain 19 1020 60 10000 5.1 270 11:20 25.11.2019
3806 Clouds 19 1021 64 10000 3.1 30 10:54 25.11.2019
3807 Clouds 19 1022 68 10000 3.1 70 10:36 25.11.2019
3808 Clouds 19 1022 68 10000 2.6 0 10:18 25.11.2019
3809 Clouds 19 1021 60 10000 2.44 238 09:41 25.11.2019
3810 Clouds 19 1021 60 10000 2.44 238 09:23 25.11.2019
3811 Clouds 19 1023 72 10000 3.1 20 08:42 25.11.2019
3812 Clouds 19 1023 72 10000 3.1 20 08:23 25.11.2019
3813 Clouds 18 1021 72 10000 3.1 30 07:47 25.11.2019
3814 Clouds 18 1021 72 10000 3.1 30 07:29 25.11.2019
3815 Clouds 16 1022 88 10000 2.6 350 06:59 25.11.2019
3816 Clouds 16 1022 93 10000 1.5 340 06:24 25.11.2019
3817 Clouds 15 1021 88 10000 2.17 349 05:51 25.11.2019
3818 Clouds 15 1021 88 10000 2.17 349 05:31 25.11.2019
3819 Clouds 15 1020 93 10000 0.39 61 04:48 25.11.2019
3820 Clouds 14 1020 100 10000 0.5 350 02:36 25.11.2019
3821 Rain 14 1021 100 10000 1.5 50 01:43 25.11.2019
3822 Rain 14 1021 100 10000 1.5 50 01:24 25.11.2019
3823 Rain 14 1022 100 10000 4.1 100 00:45 25.11.2019
3824 Rain 14 1022 100 10000 4.1 100 00:20 25.11.2019
3825 Rain 15 1022 93 7000 2.6 100 23:44 24.11.2019
3826 Rain 15 1022 93 7000 2.6 100 23:20 24.11.2019
3827 Rain 15 1022 93 5000 2.1 150 22:58 24.11.2019
3828 Clouds 15 1023 93 10000 1 0 22:39 24.11.2019
3829 Clouds 14 1023 93 10000 1 0 22:19 24.11.2019
3830 Rain 15 1023 93 7000 0.5 0 21:57 24.11.2019
3831 Rain 15 1023 93 7000 0.5 0 21:38 24.11.2019
3832 Rain 15 1023 93 7000 0.5 0 21:20 24.11.2019
3833 Rain 14 1023 87 6000 2.1 10 20:57 24.11.2019
3834 Clouds 14 1023 100 10000 1.5 330 20:37 24.11.2019
3835 Clouds 14 1023 100 10000 1.5 330 20:18 24.11.2019
3836 Clouds 14 1022 93 4000 2.6 300 19:56 24.11.2019
3837 Clouds 14 1022 93 4000 2.6 300 19:56 24.11.2019
3838 Rain 14 1022 100 4000 3.1 320 19:38 24.11.2019
3839 Rain 14 1022 100 4000 3.1 320 19:19 24.11.2019
3840 Rain 15 1022 100 2200 3.6 330 18:56 24.11.2019
3841 Clouds 16 1021 82 10000 5.1 60 18:36 24.11.2019
3842 Clouds 16 1020 82 10000 6.2 40 18:18 24.11.2019
3843 Clouds 16 1020 82 10000 6.2 40 17:55 24.11.2019
3844 Clouds 16 1019 77 10000 7.7 50 17:37 24.11.2019
3845 Clouds 16 1019 77 10000 7.7 50 17:37 24.11.2019
3846 Clouds 18 1018 77 10000 8.2 70 17:19 24.11.2019
3847 Clouds 18 1018 77 10000 8.2 70 16:56 24.11.2019
3848 Clouds 18 1018 82 10000 2.1 56 16:38 24.11.2019
3849 Clouds 18 1018 69 10000 6.7 80 16:19 24.11.2019
3850 Clouds 18 1018 69 10000 6.7 80 16:19 24.11.2019
3851 Clouds 19 1017 64 10000 5.7 80 15:43 24.11.2019
3852 Clouds 21 1017 60 10000 5.1 80 15:25 24.11.2019
3853 Clouds 21 1017 60 10000 5.1 80 14:57 24.11.2019
3854 Clouds 21 1016 57 10000 2.1 56 14:38 24.11.2019
3855 Clouds 21 1017 57 10000 2.6 80 14:18 24.11.2019
3856 Clouds 22 1017 57 10000 5.94 16 13:41 24.11.2019
3857 Clouds 22 1017 57 10000 5.94 16 13:22 24.11.2019
3858 Clouds 21 1018 57 10000 1.5 0 12:59 24.11.2019
3859 Clouds 21 1018 64 10000 2.1 0 12:41 24.11.2019
3860 Clouds 21 1019 57 10000 2.6 100 12:19 24.11.2019
3861 Clouds 20 1019 57 10000 2.6 100 11:57 24.11.2019
3862 Clouds 20 1020 57 10000 2.1 0 11:37 24.11.2019
3863 Clouds 21 1020 57 10000 1.5 0 11:18 24.11.2019
3864 Clouds 21 1020 60 10000 2.92 38 10:47 24.11.2019
3865 Clouds 21 1020 60 10000 2.92 38 10:29 24.11.2019
3866 Clouds 21 1021 60 10000 2.1 30 09:57 24.11.2019
3867 Clouds 21 1021 56 10000 4.1 70 09:37 24.11.2019
3868 Clouds 20 1021 56 10000 4.1 70 09:18 24.11.2019
3869 Clouds 19 1021 68 10000 2.1 90 08:45 24.11.2019
3870 Clouds 19 1021 68 10000 2.1 90 08:22 24.11.2019
3871 Clouds 18 1022 72 10000 1 0 07:58 24.11.2019
3872 Clouds 18 1021 72 10000 1.14 39 07:38 24.11.2019
3873 Clouds 18 1021 72 10000 1.14 39 07:19 24.11.2019
3874 Clouds 17 1021 82 10000 1.14 39 06:20 24.11.2019
3875 Clouds 17 1021 82 10000 1.14 39 06:20 24.11.2019
3876 Clouds 13 1021 87 10000 1 270 04:49 24.11.2019
3877 Clouds 13 1020 87 10000 1.5 200 03:37 24.11.2019
3878 Clouds 13 1019 87 10000 1 0 02:26 24.11.2019
3879 Clouds 13 1019 93 10000 1.5 310 01:40 24.11.2019
3880 Clouds 13 1019 93 10000 1.5 310 01:21 24.11.2019
3881 Clouds 13 1020 93 10000 1.5 300 00:47 24.11.2019
3882 Clouds 14 1020 93 10000 1.5 300 00:24 24.11.2019
3883 Clouds 15 1020 93 10000 1.5 330 23:46 23.11.2019
3884 Clouds 15 1020 93 10000 1.5 330 23:23 23.11.2019
3885 Mist 14 1021 93 6000 0.5 0 22:59 23.11.2019
3886 Mist 15 1021 100 7000 1 340 22:40 23.11.2019
3887 Mist 15 1021 100 7000 1 340 22:22 23.11.2019
3888 Clouds 15 1021 93 10000 1 0 21:59 23.11.2019
3889 Clouds 15 1021 100 10000 1.5 20 21:41 23.11.2019
3890 Clouds 16 1021 100 10000 1.5 20 21:22 23.11.2019
3891 Clouds 16 1021 100 10000 1.5 20 21:22 23.11.2019
3892 Clouds 15 1022 93 10000 2.1 40 20:58 23.11.2019
3893 Clouds 15 1021 93 10000 3.1 40 20:37 23.11.2019
3894 Clouds 16 1021 93 10000 2.6 40 20:18 23.11.2019
3895 Clouds 16 1021 93 10000 2.6 40 19:55 23.11.2019
3896 Clouds 16 1020 88 10000 2.59 47 19:37 23.11.2019
3897 Clouds 17 1021 88 10000 3.6 50 19:18 23.11.2019
3898 Clouds 17 1021 88 10000 3.6 50 19:18 23.11.2019
3899 Clouds 17 1019 82 10000 2.6 30 18:40 23.11.2019
3900 Clouds 17 1019 82 10000 2.6 30 18:40 23.11.2019
3901 Clouds 17 1019 82 10000 2.6 30 18:21 23.11.2019
3902 Clouds 16 1019 88 10000 3.1 40 17:58 23.11.2019
3903 Clouds 16 1019 88 10000 3.1 40 17:40 23.11.2019
3904 Clouds 18 1019 88 10000 3.1 40 17:20 23.11.2019
3905 Clouds 17 1019 82 10000 4.1 40 16:56 23.11.2019
3906 Clouds 17 1018 82 10000 6.7 60 16:38 23.11.2019
3907 Clouds 18 1018 82 10000 6.7 60 16:20 23.11.2019
3908 Clouds 18 1018 77 10000 6.2 50 15:57 23.11.2019
3909 Clouds 18 1018 73 10000 5.7 50 15:38 23.11.2019
3910 Clouds 19 1018 73 10000 5.7 50 15:18 23.11.2019
3911 Clouds 20 1017 73 10000 6.2 70 14:46 23.11.2019
3912 Clouds 20 1017 73 10000 6.2 70 14:23 23.11.2019
3913 Clouds 20 1017 73 10000 6.2 70 14:23 23.11.2019
3914 Clouds 21 1018 68 10000 6.2 50 13:59 23.11.2019
3915 Clouds 20 1018 68 10000 6.2 60 13:41 23.11.2019
3916 Clouds 21 1018 68 10000 5.7 60 13:19 23.11.2019
3917 Clouds 22 1018 68 10000 5.7 60 12:55 23.11.2019
3918 Clouds 21 1018 60 10000 7.2 40 12:37 23.11.2019
3919 Clouds 21 1018 53 10000 4.1 30 12:18 23.11.2019
3920 Clouds 21 1018 53 10000 4.1 30 11:41 23.11.2019
3921 Clouds 21 1020 68 10000 4.6 30 11:19 23.11.2019
3922 Clouds 21 1019 60 10000 5.1 60 10:43 23.11.2019
3923 Clouds 21 1019 60 10000 5.1 60 10:21 23.11.2019
3924 Clouds 19 1020 68 10000 3.1 20 09:41 23.11.2019
3925 Clouds 19 1020 68 10000 3.1 20 09:20 23.11.2019
3926 Clouds 17 1021 87 10000 4.45 38 08:43 23.11.2019
3927 Clouds 17 1021 87 10000 2.55 31 08:19 23.11.2019
3928 Clouds 16 1022 88 10000 4.1 330 07:54 23.11.2019
3929 Rain 16 1021 87 10000 4.1 350 07:35 23.11.2019
3930 Rain 16 1020 87 10000 5.1 350 06:46 23.11.2019
3931 Rain 16 1020 87 10000 5.1 350 06:21 23.11.2019
3932 Rain 17 1019 93 10000 4.1 350 05:50 23.11.2019
3933 Rain 17 1019 93 10000 4.1 350 05:29 23.11.2019
3934 Rain 16 1020 100 10000 4.1 20 04:48 23.11.2019
3935 Rain 16 1020 100 10000 4.1 20 04:27 23.11.2019
3936 Rain 16 1019 93 10000 4.1 50 02:45 23.11.2019
3937 Clouds 17 1018 100 10000 3.1 50 01:43 23.11.2019
3938 Clouds 17 1018 100 10000 3.1 50 01:21 23.11.2019
3939 Clouds 17 1019 93 10000 2.1 20 00:40 23.11.2019
3940 Clouds 16 1019 93 10000 2.1 20 00:18 23.11.2019
3941 Clouds 16 1019 93 10000 2.6 30 23:42 22.11.2019
3942 Clouds 17 1019 93 10000 2.6 30 23:20 22.11.2019
3943 Clouds 17 1019 93 10000 3.1 40 22:57 22.11.2019
3944 Clouds 17 1019 88 10000 4.1 90 22:38 22.11.2019
3945 Clouds 17 1019 88 10000 4.1 90 22:20 22.11.2019
3946 Clouds 17 1020 88 10000 4.1 70 21:58 22.11.2019
3947 Clouds 17 1020 93 10000 5.1 80 21:39 22.11.2019
3948 Clouds 18 1020 93 10000 5.1 80 21:19 22.11.2019
3949 Clouds 18 1020 88 10000 5.7 80 20:43 22.11.2019
3950 Clouds 18 1020 88 10000 5.7 80 20:43 22.11.2019
3951 Clouds 19 1020 88 10000 5.7 80 20:22 22.11.2019
3952 Clouds 19 1020 88 10000 5.7 80 19:56 22.11.2019
3953 Clouds 19 1019 88 10000 4.1 70 19:37 22.11.2019
3954 Clouds 19 1019 88 10000 4.1 70 19:19 22.11.2019
3955 Clouds 19 1018 82 10000 6.2 50 18:39 22.11.2019
3956 Clouds 19 1018 82 10000 6.2 50 18:21 22.11.2019
3957 Clouds 20 1018 83 10000 7.2 70 17:57 22.11.2019
3958 Clouds 20 1016 68 10000 7.2 80 17:39 22.11.2019
3959 Clouds 20 1016 68 10000 7.2 80 17:20 22.11.2019
3960 Clouds 22 1016 57 10000 6.2 90 16:42 22.11.2019
3961 Clouds 22 1016 57 10000 6.2 90 16:23 22.11.2019
3962 Clouds 22 1015 47 10000 6.2 80 15:44 22.11.2019
3963 Clouds 23 1015 47 10000 6.2 80 15:24 22.11.2019
3964 Clouds 24 1015 50 10000 6.7 80 14:56 22.11.2019
3965 Clouds 23 1016 50 10000 6.7 80 14:38 22.11.2019
3966 Clouds 24 1016 50 10000 6.7 80 14:19 22.11.2019
3967 Clouds 24 1016 54 10000 6.2 70 13:57 22.11.2019
3968 Clouds 24 1016 54 10000 6.2 70 13:57 22.11.2019
3969 Clouds 24 1015 57 10000 2.6 60 13:37 22.11.2019
3970 Clouds 24 1015 57 10000 2.6 60 13:18 22.11.2019
3971 Clouds 24 1016 54 10000 5.1 60 12:55 22.11.2019
3972 Clouds 24 1016 54 10000 5.1 60 12:55 22.11.2019
3973 Clouds 24 1017 57 10000 4.1 40 12:36 22.11.2019
3974 Clouds 24 1017 57 10000 4.1 40 12:18 22.11.2019
3975 Clouds 24 1017 57 10000 5.1 40 11:40 22.11.2019
3976 Clouds 25 1017 57 10000 5.1 40 11:22 22.11.2019
3977 Clouds 23 1018 64 10000 3.6 20 10:59 22.11.2019
3978 Clouds 23 1018 64 10000 3.1 20 10:40 22.11.2019
3979 Clouds 22 1019 69 10000 3.6 40 10:22 22.11.2019
3980 Clouds 22 1019 69 10000 3.6 40 09:57 22.11.2019
3981 Clouds 21 1020 69 10000 4.1 40 09:39 22.11.2019
3982 Clouds 21 1020 69 10000 4.1 40 09:21 22.11.2019
3983 Clouds 21 1020 73 10000 3.6 20 08:47 22.11.2019
3984 Clouds 20 1019 73 10000 3.1 20 08:27 22.11.2019
3985 Clouds 19 1021 77 10000 3.1 30 07:55 22.11.2019
3986 Clouds 19 1020 82 10000 3.1 30 07:37 22.11.2019
3987 Clouds 18 1019 82 10000 2.26 37 07:18 22.11.2019
3988 Clouds 18 1019 82 10000 2.26 37 06:40 22.11.2019
3989 Clouds 16 1020 100 10000 0.5 0 05:54 22.11.2019
3990 Clouds 16 1020 100 10000 0.5 0 04:51 22.11.2019
3991 Clouds 16 1019 93 10000 3.1 40 02:55 22.11.2019
3992 Clouds 16 1018 93 10000 1.63 38 02:32 22.11.2019
3993 Clouds 15 1018 100 10000 2.6 80 01:45 22.11.2019
3994 Clouds 16 1018 100 10000 2.6 80 01:20 22.11.2019
3995 Rain 15 1019 93 10000 3.1 70 00:53 22.11.2019
3996 Rain 16 1019 93 10000 4.1 80 00:24 22.11.2019
3997 Rain 16 1019 93 10000 4.6 90 23:49 21.11.2019
3998 Drizzle 16 1019 93 10000 4.1 90 23:31 21.11.2019
3999 Clouds 16 1020 93 10000 3.6 80 22:59 21.11.2019
4000 Clouds 16 1020 93 10000 3.6 90 22:40 21.11.2019
4001 Clouds 16 1020 93 10000 3.6 90 22:22 21.11.2019
4002 Clouds 16 1020 93 10000 3.6 80 21:57 21.11.2019
4003 Clouds 16 1020 93 10000 4.6 100 21:38 21.11.2019
4004 Clouds 17 1020 93 10000 4.6 100 21:19 21.11.2019
4005 Clouds 17 1020 93 10000 5.7 90 20:58 21.11.2019
4006 Clouds 17 1018 93 10000 5.1 80 20:39 21.11.2019
4007 Clouds 17 1018 93 10000 5.1 80 20:19 21.11.2019
4008 Clouds 17 1018 93 10000 5.1 80 20:19 21.11.2019
4009 Clouds 18 1020 93 10000 5.7 80 19:59 21.11.2019
4010 Clouds 18 1020 93 10000 5.7 80 19:59 21.11.2019
4011 Rain 18 1018 72 10000 5.1 70 19:41 21.11.2019
4012 Rain 18 1018 72 10000 5.1 70 19:22 21.11.2019
4013 Clouds 17 1019 68 10000 6.7 80 18:57 21.11.2019
4014 Clouds 18 1019 64 10000 7.2 90 18:38 21.11.2019
4015 Clouds 20 1019 64 10000 7.2 90 18:19 21.11.2019
4016 Clouds 20 1017 73 10000 6.2 90 17:57 21.11.2019
4017 Clouds 20 1017 73 10000 6.2 90 17:57 21.11.2019
4018 Clouds 20 1016 60 10000 53 80 17:38 21.11.2019
4019 Clouds 20 1016 60 10000 53 80 17:19 21.11.2019
4020 Clouds 21 1017 60 10000 6.2 70 17:19 21.11.2019
4021 Clouds 21 1016 60 10000 5.1 90 16:42 21.11.2019
4022 Clouds 22 1015 47 10000 6.2 40 16:22 21.11.2019
4023 Clouds 22 1015 47 10000 6.2 40 15:58 21.11.2019
4024 Clouds 22 1015 47 10000 6.2 40 15:40 21.11.2019
4025 Clouds 22 1015 47 10000 6.2 40 15:20 21.11.2019
4026 Clouds 19 1015 93 10000 6.7 70 14:56 21.11.2019
4027 Clouds 22 1015 47 10000 6.7 60 14:37 21.11.2019
4028 Clouds 27 1015 47 10000 6.7 60 14:18 21.11.2019
4029 Clouds 22 1015 50 10000 4.6 60 13:40 21.11.2019
4030 Clouds 24 1016 50 10000 5.1 50 13:21 21.11.2019
4031 Clouds 24 1016 50 10000 5.1 50 12:59 21.11.2019
4032 Clouds 24 1018 54 10000 3.6 80 12:39 21.11.2019
4033 Clouds 24 1018 54 10000 3.6 80 12:20 21.11.2019
4034 Clouds 23 1017 53 10000 2.6 70 11:43 21.11.2019
4035 Clouds 25 1017 53 10000 2.6 70 11:23 21.11.2019
4036 Clouds 24 1019 57 10000 4.1 70 10:59 21.11.2019
4037 Clouds 24 1019 69 10000 4.1 100 10:41 21.11.2019
4038 Clouds 24 1019 69 10000 4.1 100 10:23 21.11.2019
4039 Clouds 24 1019 69 10000 4.1 100 10:23 21.11.2019
4040 Clouds 23 1020 60 10000 3.1 90 09:57 21.11.2019
4041 Clouds 23 1020 60 10000 3.1 90 09:57 21.11.2019
4042 Clouds 24 1020 73 10000 3.1 30 09:39 21.11.2019
4043 Clouds 24 1020 73 10000 3.1 30 09:20 21.11.2019
4044 Clouds 21 1020 82 10000 2.37 45 08:42 21.11.2019
4045 Clouds 19 1020 82 10000 2.21 33 08:21 21.11.2019
4046 Clouds 19 1020 82 10000 2.21 33 07:43 21.11.2019
4047 Clouds 19 1020 82 10000 2.21 33 07:19 21.11.2019
4048 Clouds 18 1021 82 10000 2.1 70 06:58 21.11.2019
4049 Clouds 20 1020 82 10000 2.21 33 06:34 21.11.2019
4050 Clouds 18 1020 88 10000 2.21 33 05:42 21.11.2019
4051 Clouds 14 1019 93 10000 2.1 20 03:35 21.11.2019
4052 Clouds 15 1019 93 10000 2.1 40 02:42 21.11.2019
4053 Clouds 16 1019 93 10000 2.1 40 02:23 21.11.2019
4054 Clouds 16 1018 93 10000 2.6 40 01:45 21.11.2019
4055 Clouds 16 1018 88 10000 0.25 265 01:20 21.11.2019
4056 Clouds 16 1018 93 10000 0.25 265 00:38 21.11.2019
4057 Rain 13 1009 95 0 0.25 265 00:19 21.11.2019
4058 Clouds 16 1020 88 10000 3.1 60 23:42 20.11.2019
4059 Clouds 16 1020 88 10000 3.1 60 23:21 20.11.2019
4060 Clouds 16 1020 88 10000 3.1 60 22:57 20.11.2019
4061 Clouds 16 1020 88 10000 2.6 50 22:37 20.11.2019
4062 Clouds 16 1020 88 10000 2.6 50 22:19 20.11.2019
4063 Clouds 16 1020 88 10000 3.1 40 21:57 20.11.2019
4064 Clouds 16 1021 88 10000 3.1 50 21:38 20.11.2019
4065 Clouds 18 1021 88 10000 3.1 50 21:19 20.11.2019
4066 Clouds 18 1021 88 10000 3.1 50 21:19 20.11.2019
4067 Clouds 18 1020 82 10000 3.1 60 20:56 20.11.2019
4068 Clouds 18 1021 88 10000 3.1 40 20:56 20.11.2019
4069 Clouds 18 1020 82 10000 3.1 60 20:38 20.11.2019
4070 Clouds 18 1020 82 10000 3.1 60 20:19 20.11.2019
4071 Clouds 18 1021 77 10000 4.1 50 19:56 20.11.2019
4072 Clouds 18 1019 77 10000 7.2 70 19:36 20.11.2019
4073 Clouds 18 1019 77 10000 7.2 70 19:18 20.11.2019
4074 Clouds 19 1020 82 10000 5.1 70 18:58 20.11.2019
4075 Clouds 19 1018 68 10000 5.1 60 18:38 20.11.2019
4076 Clouds 19 1018 68 10000 5.1 60 18:20 20.11.2019
4077 Clouds 18 1019 73 10000 4.6 90 17:55 20.11.2019
4078 Clouds 18 1018 73 10000 3.6 80 17:37 20.11.2019
4079 Clouds 21 1018 64 10000 4.6 50 17:19 20.11.2019
4080 Clouds 21 1016 60 10000 6.2 50 16:43 20.11.2019
4081 Clouds 22 1017 60 10000 7.2 60 16:21 20.11.2019
4082 Clouds 22 1017 60 10000 7.2 60 15:59 20.11.2019
4083 Clouds 23 1016 47 10000 5.1 70 15:41 20.11.2019
4084 Clouds 23 1016 47 10000 5.1 70 15:20 20.11.2019
4085 Clouds 23 1016 50 10000 6.2 60 14:58 20.11.2019
4086 Clouds 23 1016 44 10000 5.1 90 14:39 20.11.2019
4087 Clouds 26 1016 44 10000 5.1 90 14:21 20.11.2019
4088 Clouds 27 1017 50 10000 3.6 70 13:57 20.11.2019
4089 Clouds 26 1017 54 10000 3.6 90 13:38 20.11.2019
4090 Clouds 26 1017 54 10000 3.6 90 13:19 20.11.2019
4091 Clouds 26 1017 54 10000 3.6 90 13:19 20.11.2019
4092 Clouds 25 1018 57 10000 2.1 110 12:43 20.11.2019
4093 Clouds 25 1018 57 10000 2.1 110 12:43 20.11.2019
4094 Clouds 22 1018 57 10000 2.6 90 12:24 20.11.2019
4095 Clouds 23 1018 57 10000 2.6 90 11:58 20.11.2019
4096 Clouds 23 1019 57 10000 2.1 0 11:38 20.11.2019
4097 Clouds 22 1020 64 10000 2.6 40 11:20 20.11.2019
4098 Clouds 23 1020 64 10000 2.6 40 10:55 20.11.2019
4099 Clouds 23 1020 60 10000 2.6 70 10:37 20.11.2019
4100 Clouds 23 1020 60 10000 2.6 70 10:19 20.11.2019
4101 Clouds 22 1021 68 10000 3.1 50 09:43 20.11.2019
4102 Clouds 21 1021 68 10000 3.1 50 09:21 20.11.2019
4103 Clouds 20 1021 73 10000 3.1 60 08:56 20.11.2019
4104 Clouds 20 1021 73 10000 3.28 72 08:37 20.11.2019
4105 Clouds 20 1021 73 10000 2.78 22 08:19 20.11.2019
4106 Clouds 19 1021 77 10000 1.5 0 07:45 20.11.2019
4107 Clouds 19 1021 88 10000 2.78 22 07:25 20.11.2019
4108 Clouds 17 1021 88 10000 3.6 30 06:48 20.11.2019
4109 Clouds 16 1021 93 10000 3.1 30 06:21 20.11.2019
4110 Clouds 15 1021 100 10000 2.6 40 05:26 20.11.2019
4111 Clouds 15 1020 93 10000 1.5 70 03:36 20.11.2019
4112 Clouds 15 1020 93 10000 2.1 30 02:21 20.11.2019
4113 Clouds 15 1019 93 10000 2.6 30 01:33 20.11.2019
4114 Rain 16 1020 88 10000 2.55 78 00:41 20.11.2019
4115 Rain 15 1021 93 10000 3.1 30 23:55 19.11.2019
4116 Rain 16 1021 93 10000 3.1 30 23:26 19.11.2019
4117 Clouds 17 1021 93 10000 3.1 60 22:58 19.11.2019
4118 Clouds 17 1021 88 10000 2.6 140 22:40 19.11.2019
4119 Clouds 16 1022 93 10000 3.1 110 22:19 19.11.2019
4120 Clouds 16 1022 93 10000 3.1 110 21:56 19.11.2019
4121 Clouds 17 1021 88 10000 3.1 130 21:37 19.11.2019
4122 Clouds 17 1022 88 10000 3.1 110 21:19 19.11.2019
4123 Clouds 17 1022 88 10000 3.1 110 20:56 19.11.2019
4124 Clouds 18 1021 82 10000 5.1 100 20:38 19.11.2019
4125 Clouds 17 1021 82 10000 5.1 100 20:19 19.11.2019
4126 Clouds 18 1022 77 10000 4.6 90 19:56 19.11.2019
4127 Clouds 18 1020 77 10000 2.6 80 19:38 19.11.2019
4128 Clouds 18 1020 77 10000 2.6 80 19:19 19.11.2019
4129 Clouds 19 1021 82 10000 4.6 90 18:55 19.11.2019
4130 Clouds 19 1020 60 10000 6.2 80 18:36 19.11.2019
4131 Clouds 19 1020 60 10000 6.2 80 18:18 19.11.2019
4132 Clouds 17 1020 77 10000 5.7 90 17:55 19.11.2019
4133 Clouds 18 1019 68 10000 6.2 70 17:36 19.11.2019
4134 Clouds 20 1019 68 10000 6.2 70 17:18 19.11.2019
4135 -273 0 0 0 0 0 16:42 19.11.2019
4136 Clouds 20 1017 56 10000 5.1 30 16:23 19.11.2019
4137 Clouds 21 1018 47 10000 6.2 60 15:57 19.11.2019
4138 Clouds 23 1018 47 10000 6.2 60 15:39 19.11.2019
4139 Clouds 22 1018 47 10000 6.2 60 15:20 19.11.2019
4140 Clouds 22 1017 50 10000 6.7 70 14:55 19.11.2019
4141 Clouds 22 1016 41 10000 6.7 40 14:37 19.11.2019
4142 Clouds 22 1016 41 10000 6.7 40 14:37 19.11.2019
4143 Clouds 24 1016 41 10000 6.7 40 14:19 19.11.2019
4144 Clouds 24 1017 39 10000 6.2 90 13:40 19.11.2019
4145 Clouds 24 1018 41 10000 6.7 80 13:19 19.11.2019
4146 Rain 21 1007 65 0 3.58 174 12:41 19.11.2019
4147 Clouds 23 1020 50 10000 6.2 60 12:22 19.11.2019
4148 Clouds 23 1020 50 10000 6.2 60 11:58 19.11.2019
4149 Clouds 22 1020 50 10000 6.2 50 11:38 19.11.2019
4150 Clouds 23 1020 50 10000 6.2 50 11:19 19.11.2019
4151 Clouds 22 1020 50 10000 6.2 50 10:48 19.11.2019
4152 Clouds 22 1023 53 10000 5.7 70 10:23 19.11.2019
4153 Clouds 22 1023 53 10000 5.7 70 10:23 19.11.2019
4154 Clouds 22 1021 68 10000 5.1 40 09:58 19.11.2019
4155 Clouds 21 1022 68 10000 4.6 50 09:40 19.11.2019
4156 Clouds 21 1022 68 10000 4.6 50 09:19 19.11.2019
4157 Clouds 20 1022 77 10000 4.1 50 08:41 19.11.2019
4158 Clouds 19 1022 77 10000 4.1 50 08:23 19.11.2019
4159 Clouds 19 1022 82 10000 5.7 30 07:58 19.11.2019
4160 Clouds 19 1022 82 10000 4.1 30 07:39 19.11.2019
4161 Clouds 19 1022 82 10000 4.1 30 07:20 19.11.2019
4162 Clouds 18 1022 88 10000 3.6 20 06:50 19.11.2019
4163 Clouds 18 1022 88 10000 3.6 20 06:50 19.11.2019
4164 Clouds 17 1021 88 10000 4.6 30 06:30 19.11.2019
4165 Clouds 17 1021 88 10000 3.1 50 05:39 19.11.2019
4166 Clouds 16 1021 93 10000 2.6 70 04:22 19.11.2019
4167 Clouds 16 1021 88 10000 3.1 50 03:32 19.11.2019
4168 Clouds 16 1021 93 10000 3.1 50 02:57 19.11.2019
4169 Clouds 17 1019 88 10000 3.1 50 02:31 19.11.2019
4170 Clouds 16 1021 88 10000 3.1 40 01:40 19.11.2019
4171 Clouds 16 1021 93 10000 4.6 30 00:22 19.11.2019
4172 Clouds 16 1021 93 10000 4.6 30 23:57 18.11.2019
4173 Clouds 16 1021 88 10000 4.6 40 23:37 18.11.2019
4174 Clouds 17 1021 88 10000 4.6 40 23:18 18.11.2019
4175 Clouds 17 1021 88 10000 4.6 6 22:44 18.11.2019
4176 Clouds 17 1021 88 10000 4.6 6 22:23 18.11.2019
4177 Clouds 17 1022 88 10000 3.6 50 21:56 18.11.2019
4178 Clouds 17 1021 77 10000 5.1 50 21:37 18.11.2019
4179 Clouds 17 1021 77 10000 5.1 50 21:19 18.11.2019
4180 Clouds 16 1022 88 10000 4.6 50 20:56 18.11.2019
4181 Clouds 18 1022 77 10000 4.6 40 20:38 18.11.2019
4182 Clouds 18 1022 77 10000 4.6 40 20:18 18.11.2019
4183 Rain 18 1021 82 10000 4.1 30 19:55 18.11.2019
4184 Rain 18 1021 82 10000 4.1 30 19:55 18.11.2019
4185 Rain 17 1021 77 10000 4.1 30 19:37 18.11.2019
4186 Rain 18 1021 77 10000 4.1 30 19:18 18.11.2019
4187 Rain 18 1020 72 10000 4.1 40 18:55 18.11.2019
4188 Clouds 18 1019 64 10000 4.1 50 18:36 18.11.2019
4189 Clouds 18 1019 64 10000 4.1 50 18:18 18.11.2019
4190 Clouds 19 1018 64 10000 7.2 60 17:39 18.11.2019
4191 Clouds 19 1018 64 10000 7.2 60 17:20 18.11.2019
4192 Clouds 20 1019 64 10000 7.7 70 16:55 18.11.2019
4193 Clouds 20 1019 64 10000 7.7 70 16:55 18.11.2019
4194 Clouds 19 1018 49 10000 6.7 70 16:37 18.11.2019
4195 Clouds 21 1018 49 10000 6.7 70 16:19 18.11.2019
4196 -273 0 0 0 0 0 15:56 18.11.2019
4197 Clouds 22 1016 47 10000 6.2 50 15:56 18.11.2019
4198 Clouds 23 1016 47 10000 6.2 50 15:37 18.11.2019
4199 Clouds 22 1018 47 10000 6.7 70 15:18 18.11.2019
4200 Clouds 22 1018 53 10000 6.2 70 14:42 18.11.2019
4201 Clouds 22 1018 53 10000 6.2 70 14:23 18.11.2019
4202 Clouds 22 1018 53 10000 6.7 70 13:55 18.11.2019
4203 Clouds 22 1018 53 10000 6.7 70 13:54 18.11.2019
4204 Clouds 23 1018 50 10000 6.2 70 13:36 18.11.2019
4205 Clouds 23 1018 50 10000 6.2 70 13:18 18.11.2019
4206 Clouds 23 1018 50 10000 3.6 40 13:18 18.11.2019
4207 Clouds 23 1019 53 10000 5.7 60 12:38 18.11.2019
4208 Clouds 23 1019 53 10000 5.7 60 12:19 18.11.2019
4209 Clouds 23 1020 50 10000 5.7 50 11:45 18.11.2019
4210 Clouds 23 1020 50 10000 5.7 50 11:27 18.11.2019
4211 Clouds 23 1021 53 10000 4.6 30 10:59 18.11.2019
4212 Clouds 23 1021 57 10000 5.7 30 10:40 18.11.2019
4213 Clouds 22 1021 57 10000 5.7 30 10:22 18.11.2019
4214 Clouds 22 1022 56 10000 6.2 40 09:56 18.11.2019
4215 Clouds 22 1022 64 10000 7.2 40 09:37 18.11.2019
4216 Clouds 22 1022 64 10000 7.2 40 09:18 18.11.2019
4217 Clouds 22 1022 64 10000 7.2 40 09:18 18.11.2019
4218 Clouds 21 1023 64 10000 6.7 50 08:44 18.11.2019
4219 Clouds 20 1023 64 10000 6.7 50 08:21 18.11.2019
4220 Clouds 19 1022 60 10000 7.2 60 07:48 18.11.2019
4221 Clouds 19 1021 68 10000 6.2 40 07:29 18.11.2019
4222 Clouds 18 1022 82 10000 4.6 30 06:56 18.11.2019
4223 Clouds 19 1021 82 10000 5.1 50 06:37 18.11.2019
4224 Clouds 17 1021 82 10000 5.1 50 06:18 18.11.2019
4225 Clouds 17 1020 88 10000 4.1 60 05:25 18.11.2019
4226 Clouds 17 1020 88 10000 3.1 50 02:59 18.11.2019
4227 Clouds 17 1019 82 10000 5.1 60 01:31 18.11.2019
4228 Clouds 17 1020 77 10000 2.6 60 00:39 18.11.2019
4229 Clouds 17 1021 88 10000 2.6 60 23:56 17.11.2019
4230 Clouds 17 1020 77 10000 2.6 40 23:38 17.11.2019
4231 Clouds 17 1020 77 10000 2.6 40 23:18 17.11.2019
4232 Clouds 17 1020 77 10000 5.1 60 22:41 17.11.2019
4233 Clouds 17 1020 77 10000 5.1 60 22:23 17.11.2019
4234 Clouds 18 1021 82 10000 3.6 50 21:59 17.11.2019
4235 Clouds 18 1020 77 10000 5.1 80 21:41 17.11.2019
4236 Clouds 18 1020 77 10000 5.1 80 21:19 17.11.2019
4237 Clouds 18 1021 82 10000 4.6 40 20:57 17.11.2019
4238 Clouds 18 1020 72 10000 4.1 60 20:38 17.11.2019
4239 Clouds 18 1020 72 10000 4.1 60 20:20 17.11.2019
4240 Clouds 18 1020 72 10000 4.1 60 20:20 17.11.2019
4241 Clouds 18 1021 77 10000 4.6 50 19:56 17.11.2019
4242 Clouds 18 1019 72 10000 3.6 60 19:38 17.11.2019
4243 Clouds 18 1019 72 10000 3.6 60 19:38 17.11.2019
4244 Clouds 18 1019 72 10000 3.6 60 19:20 17.11.2019
4245 Clouds 18 1019 72 10000 5.7 50 18:56 17.11.2019
4246 Clouds 19 1018 72 10000 6.2 60 18:38 17.11.2019
4247 Clouds 19 1018 72 10000 6.2 60 18:19 17.11.2019
4248 Clouds 19 1018 68 10000 7.2 60 17:57 17.11.2019
4249 Clouds 20 1016 60 10000 6.7 70 17:39 17.11.2019
4250 Clouds 20 1016 60 10000 6.7 70 17:20 17.11.2019
4251 Clouds 21 1016 56 10000 5.1 60 16:58 17.11.2019
4252 Clouds 21 1016 56 10000 5.1 60 16:40 17.11.2019
4253 Clouds 21 1016 49 10000 7.2 60 16:21 17.11.2019
4254 Clouds 22 1015 53 10000 7.7 70 15:55 17.11.2019
4255 Clouds 22 1015 53 10000 7.7 70 15:37 17.11.2019
4256 Clouds 23 1016 50 10000 7.7 70 15:18 17.11.2019
4257 Clouds 23 1016 50 10000 7.7 70 14:56 17.11.2019
4258 Clouds 23 1015 50 10000 6.2 90 14:37 17.11.2019
4259 Clouds 24 1015 50 10000 6.2 90 14:19 17.11.2019
4260 Clouds 23 1016 53 10000 6.7 50 13:55 17.11.2019
4261 Clouds 24 1016 47 10000 5.1 40 13:37 17.11.2019
4262 Clouds 24 1016 47 10000 5.1 40 13:18 17.11.2019
4263 Clouds 24 1016 47 10000 5.1 40 13:18 17.11.2019
4264 Clouds 24 1017 50 10000 7.2 70 13:18 17.11.2019
4265 Clouds 23 1016 44 10000 5.7 70 12:42 17.11.2019
4266 Clouds 23 1016 44 10000 5.7 70 12:22 17.11.2019
4267 Clouds 23 1018 53 10000 7.2 50 11:57 17.11.2019
4268 Clouds 23 1018 50 10000 5.1 90 11:38 17.11.2019
4269 Clouds 23 1018 50 10000 5.1 90 11:20 17.11.2019
4270 Clouds 23 1019 56 10000 7.7 80 10:44 17.11.2019
4271 Clouds 23 1019 56 10000 7.7 80 10:23 17.11.2019
4272 Clouds 22 1020 64 10000 7.2 50 09:57 17.11.2019
4273 Clouds 21 1020 68 10000 4.1 70 09:39 17.11.2019
4274 Clouds 22 1020 68 10000 4.1 70 09:20 17.11.2019
4275 Clouds 20 1020 77 10000 2.6 60 08:40 17.11.2019
4276 Clouds 20 1020 77 10000 2.6 60 08:20 17.11.2019
4277 Clouds 19 1020 72 10000 3.1 20 07:48 17.11.2019
4278 Clouds 19 1020 72 10000 3.1 20 07:24 17.11.2019
4279 Clouds 18 1021 82 10000 5.7 30 06:57 17.11.2019
4280 Clouds 18 1020 82 10000 4.6 20 06:33 17.11.2019
4281 Clouds 17 1020 93 10000 2.6 20 05:54 17.11.2019
4282 Clouds 14 1020 93 10000 1 50 04:24 17.11.2019
4283 Clouds 14 1020 93 10000 1 60 03:47 17.11.2019
4284 Clouds 14 1019 93 10000 1.5 40 03:29 17.11.2019
4285 Clouds 16 1018 93 10000 2.6 50 02:28 17.11.2019
4286 Clouds 15 1018 82 10000 4.6 50 01:41 17.11.2019
4287 Clouds 16 1018 88 10000 5.1 60 00:54 17.11.2019
4288 Clouds 16 1018 88 10000 4.1 50 00:22 17.11.2019
4289 Clouds 16 1019 88 10000 6.2 70 23:47 16.11.2019
4290 Clouds 17 1019 88 10000 6.2 70 23:20 16.11.2019
4291 Clouds 17 1018 82 10000 7.7 70 22:59 16.11.2019
4292 Clouds 17 1018 82 10000 7.7 70 22:40 16.11.2019
4293 Clouds 17 1019 88 10000 5.1 60 22:19 16.11.2019
4294 Clouds 17 1019 88 10000 5.1 60 21:56 16.11.2019
4295 Clouds 18 1018 82 10000 4.6 70 21:37 16.11.2019
4296 Clouds 17 1018 82 10000 4.6 70 21:19 16.11.2019
4297 Clouds 18 1018 82 10000 8.7 40 20:42 16.11.2019
4298 Clouds 17 1018 82 10000 8.7 40 20:21 16.11.2019
4299 Clouds 18 1019 77 10000 4.6 50 19:59 16.11.2019
4300 Clouds 18 1018 77 10000 4.6 70 19:40 16.11.2019
4301 Clouds 18 1018 77 10000 4.6 70 19:21 16.11.2019
4302 Clouds 18 1018 72 10000 6.2 50 18:47 16.11.2019
4303 Clouds 19 1017 72 10000 5.1 60 18:29 16.11.2019
4304 Clouds 19 1017 68 10000 7.2 60 17:58 16.11.2019
4305 Clouds 19 1016 68 10000 5.7 60 17:39 16.11.2019
4306 Clouds 19 1016 68 10000 5.7 60 17:20 16.11.2019
4307 Clouds 20 1016 64 10000 7.7 60 16:55 16.11.2019
4308 Clouds 20 1016 64 10000 7.7 60 16:37 16.11.2019
4309 Clouds 20 1016 64 10000 7.7 60 16:18 16.11.2019
4310 Clouds 21 1015 53 10000 8.2 80 15:41 16.11.2019
4311 Clouds 21 1015 53 10000 8.2 80 15:21 16.11.2019
4312 Clouds 22 1016 50 10000 6.7 70 14:58 16.11.2019
4313 Clouds 22 1016 50 10000 6.7 70 14:58 16.11.2019
4314 Clouds 23 1015 50 10000 8.7 30 14:39 16.11.2019
4315 Clouds 23 1015 50 10000 8.7 30 14:21 16.11.2019
4316 Clouds 24 1016 50 10000 6.2 60 13:56 16.11.2019
4317 Clouds 23 1016 50 10000 4.1 20 13:38 16.11.2019
4318 Clouds 23 1016 50 10000 4.1 20 13:18 16.11.2019
4319 Clouds 23 1017 53 10000 5.7 50 12:54 16.11.2019
4320 Clouds 24 1016 50 10000 5.1 80 12:36 16.11.2019
4321 Clouds 23 1018 53 10000 5.7 50 12:18 16.11.2019
4322 Clouds 23 1018 53 10000 6.2 60 11:41 16.11.2019
4323 Clouds 23 1018 53 10000 6.2 60 11:23 16.11.2019
4324 Clouds 23 1019 53 10000 7.2 50 10:55 16.11.2019
4325 Clouds 23 1018 50 10000 7.2 30 10:37 16.11.2019
4326 Clouds 23 1018 50 10000 7.2 30 10:18 16.11.2019
4327 Clouds 23 1019 56 10000 6.7 70 09:40 16.11.2019
4328 Clouds 23 1019 56 10000 6.7 70 09:20 16.11.2019
4329 Clouds 21 1020 64 10000 6.2 40 08:56 16.11.2019
4330 Clouds 21 1019 64 10000 5.7 80 08:36 16.11.2019
4331 Clouds 20 1021 68 10000 5.7 50 08:18 16.11.2019
4332 Clouds 19 1020 82 10000 6.22 33 07:40 16.11.2019
4333 Clouds 19 1020 82 10000 6.22 33 07:18 16.11.2019
4334 Clouds 18 1019 88 10000 0.5 10 06:43 16.11.2019
4335 Clouds 18 1019 88 10000 0.5 10 06:20 16.11.2019
4336 Clouds 15 1019 93 10000 5.7 40 04:47 16.11.2019
4337 Clouds 13 1009 84 0 2.24 67 03:26 16.11.2019
4338 Clouds 13 1008 87 0 2.68 61 02:54 16.11.2019
4339 Clouds 15 1018 93 10000 4.6 60 01:41 16.11.2019
4340 Clouds 15 1018 93 10000 4.6 60 01:41 16.11.2019
4341 Clouds 16 1018 93 10000 3.6 70 00:56 16.11.2019
4342 Clouds 16 1018 93 10000 3.6 70 00:36 16.11.2019
4343 Clouds 15 1018 93 10000 3.6 70 00:18 16.11.2019
4344 Clouds 16 1019 93 10000 4.1 60 23:39 15.11.2019
4345 Clouds 17 1019 93 10000 4.1 60 23:20 15.11.2019
4346 Clouds 17 1020 82 10000 4.1 60 22:42 15.11.2019
4347 Clouds 17 1020 82 10000 4.1 60 22:20 15.11.2019
4348 Clouds 16 1020 82 10000 4.1 50 21:59 15.11.2019
4349 Clouds 16 1020 82 10000 3.1 30 21:40 15.11.2019
4350 Clouds 16 1020 82 10000 3.1 10 21:20 15.11.2019
4351 Clouds 16 1020 82 10000 3.1 10 20:57 15.11.2019
4352 Clouds 17 1020 82 10000 3.6 10 20:39 15.11.2019
4353 Clouds 18 1020 82 10000 3.6 10 20:39 15.11.2019
4354 Clouds 18 1020 82 10000 3.6 10 20:21 15.11.2019
4355 Clouds 18 1020 77 10000 3.6 30 19:58 15.11.2019
4356 Clouds 16 1020 77 10000 5.1 30 19:39 15.11.2019
4357 Clouds 18 1020 77 10000 5.1 30 19:20 15.11.2019
4358 Clouds 18 1020 72 10000 5.1 40 18:58 15.11.2019
4359 Clouds 18 1018 60 10000 3.6 60 18:39 15.11.2019
4360 Clouds 18 1018 60 10000 3.6 60 18:21 15.11.2019
4361 Clouds 18 1019 60 10000 6.2 50 17:42 15.11.2019
4362 Clouds 19 1019 60 10000 6.2 50 17:24 15.11.2019
4363 Clouds 20 1018 53 10000 7.2 50 16:57 15.11.2019
4364 Clouds 18 1018 53 10000 7.2 40 16:38 15.11.2019
4365 Clouds 18 1018 53 10000 7.2 40 16:19 15.11.2019
4366 Clouds 18 1017 50 10000 7.7 70 15:39 15.11.2019
4367 Clouds 20 1017 44 10000 7.2 50 15:20 15.11.2019
4368 Clouds 20 1017 44 10000 7.2 50 14:57 15.11.2019
4369 Clouds 19 1017 44 10000 7.2 50 14:38 15.11.2019
4370 Clouds 25 1017 44 10000 7.2 50 14:20 15.11.2019
4371 Clouds 25 1018 47 10000 6.7 40 13:58 15.11.2019
4372 Clouds 25 1018 47 10000 6.7 40 13:39 15.11.2019
4373 Clouds 25 1018 47 10000 6.7 40 13:21 15.11.2019
4374 Clouds 22 1018 47 10000 8.2 60 12:59 15.11.2019
4375 Rain 19 1009 70 0 1.34 117 12:40 15.11.2019
4376 Clouds 22 1020 50 10000 6.2 50 12:20 15.11.2019
4377 Clouds 22 1020 50 10000 6.2 50 11:58 15.11.2019
4378 Clouds 22 1020 50 10000 6.2 60 11:39 15.11.2019
4379 Clouds 22 1020 50 10000 6.2 60 11:20 15.11.2019
4380 Clouds 22 1020 50 10000 6.2 60 10:56 15.11.2019
4381 Clouds 22 1021 57 10000 5.7 50 10:38 15.11.2019
4382 Clouds 22 1022 64 10000 5.1 40 10:18 15.11.2019
4383 Clouds 22 1022 64 10000 5.1 30 09:41 15.11.2019
4384 Clouds 21 1022 64 10000 5.1 30 09:20 15.11.2019
4385 Clouds 21 1021 68 10000 4.1 50 08:44 15.11.2019
4386 Clouds 21 1021 68 10000 4.1 50 08:23 15.11.2019
4387 Clouds 19 1022 77 10000 5.1 30 07:49 15.11.2019
4388 Clouds 18 1021 77 10000 4.6 350 07:28 15.11.2019
4389 Clouds 18 1022 88 10000 3.1 30 06:59 15.11.2019
4390 Clouds 18 1021 82 10000 3.1 350 06:34 15.11.2019
4391 Clouds 16 1020 93 10000 2.17 141 05:49 15.11.2019
4392 Clouds 16 1020 93 10000 2.17 141 05:27 15.11.2019
4393 Clouds 14 1021 93 10000 3.6 50 04:40 15.11.2019
4394 Clouds 15 1020 93 10000 3.1 50 03:32 15.11.2019
4395 Clouds 15 1020 93 10000 3.1 80 02:23 15.11.2019
4396 Clouds 15 1020 93 10000 4.1 70 01:46 15.11.2019
4397 Clouds 15 1020 93 10000 3.1 50 01:24 15.11.2019
4398 Clouds 15 1020 93 10000 3.6 40 00:35 15.11.2019
4399 Clouds 16 1021 93 10000 3.6 30 23:58 14.11.2019
4400 Clouds 16 1021 93 10000 4.1 40 23:38 14.11.2019
4401 Clouds 15 1021 93 10000 4.1 40 23:19 14.11.2019
4402 Clouds 16 1021 93 10000 3.6 40 22:41 14.11.2019
4403 Clouds 15 1021 93 10000 3.6 40 22:22 14.11.2019
4404 Clouds 15 1022 93 10000 4.1 40 21:57 14.11.2019
4405 Clouds 16 1022 100 10000 4.1 30 21:39 14.11.2019
4406 Clouds 15 1022 100 10000 4.1 30 21:39 14.11.2019
4407 Clouds 16 1022 100 10000 4.1 30 21:21 14.11.2019
4408 Clouds 16 1022 93 10000 3.6 40 20:54 14.11.2019
4409 Clouds 16 1022 100 10000 4.6 30 20:36 14.11.2019
4410 Clouds 16 1022 100 10000 4.6 30 20:18 14.11.2019
4411 Clouds 16 1021 100 10000 4.6 40 19:54 14.11.2019
4412 Clouds 17 1020 93 10000 3.6 30 19:36 14.11.2019
4413 Clouds 17 1020 93 10000 3.6 30 19:18 14.11.2019
4414 Rain 17 1019 93 10000 4.6 70 18:41 14.11.2019
4415 Clouds 18 1020 77 10000 7.2 80 18:22 14.11.2019
4416 Clouds 18 1020 77 10000 7.2 80 17:57 14.11.2019
4417 Clouds 18 1018 82 10000 7.2 90 17:37 14.11.2019
4418 Clouds 19 1019 77 10000 5.7 80 17:19 14.11.2019
4419 Clouds 19 1019 77 10000 5.7 80 16:57 14.11.2019
4420 Clouds 20 1018 68 10000 5.1 50 16:37 14.11.2019
4421 Clouds 20 1018 73 10000 6.7 70 16:19 14.11.2019
4422 Clouds 20 1018 73 10000 6.7 70 15:57 14.11.2019
4423 Clouds 20 1017 73 10000 5.1 80 15:38 14.11.2019
4424 Clouds 20 1017 73 10000 5.1 80 15:19 14.11.2019
4425 Clouds 21 1017 57 10000 12.9 80 14:45 14.11.2019
4426 Clouds 22 1017 57 10000 12.9 80 14:22 14.11.2019
4427 Clouds 22 1018 60 10000 6.2 70 13:57 14.11.2019
4428 Clouds 22 1018 60 10000 7.7 80 13:38 14.11.2019
4429 Clouds 22 1018 60 10000 7.7 80 13:19 14.11.2019
4430 Clouds 22 1018 60 10000 5.1 50 12:56 14.11.2019
4431 Clouds 23 1018 56 10000 4.6 70 12:37 14.11.2019
4432 Clouds 22 1018 56 10000 4.6 70 12:19 14.11.2019
4433 Clouds 21 1020 64 10000 6.2 40 11:39 14.11.2019
4434 Clouds 21 1020 64 10000 6.2 40 11:20 14.11.2019
4435 Clouds 21 1021 68 10000 4.6 30 10:59 14.11.2019
4436 Clouds 20 1021 68 10000 5.1 80 10:41 14.11.2019
4437 Clouds 20 1021 68 10000 5.1 80 10:20 14.11.2019
4438 Clouds 20 1022 68 10000 5.1 50 09:57 14.11.2019
4439 Clouds 19 1021 72 10000 6.2 80 09:39 14.11.2019
4440 Clouds 21 1022 72 10000 5.1 60 09:21 14.11.2019
4441 Clouds 21 1022 72 10000 5.1 60 08:47 14.11.2019
4442 Clouds 21 1022 72 10000 5.1 60 08:26 14.11.2019
4443 Clouds 19 1023 77 10000 4.6 40 07:57 14.11.2019
4444 Clouds 19 1021 82 10000 5.1 50 07:38 14.11.2019
4445 Clouds 19 1021 82 10000 5.1 50 07:19 14.11.2019
4446 Clouds 18 1022 88 10000 3.6 40 06:43 14.11.2019
4447 Clouds 18 1022 88 10000 3.6 40 06:19 14.11.2019
4448 Clouds 17 1020 93 10000 2.6 30 04:42 14.11.2019
4449 Clouds 17 1020 93 10000 2.6 30 04:23 14.11.2019
4450 Clouds 17 1020 93 10000 2.6 10 02:47 14.11.2019
4451 Clouds 17 1020 93 10000 2.6 10 02:25 14.11.2019
4452 Clouds 17 1020 93 10000 4.6 60 01:33 14.11.2019
4453 Clouds 17 1020 93 10000 6.2 40 00:53 14.11.2019
4454 Clouds 17 1020 93 10000 5.7 40 00:30 14.11.2019
4455 Clouds 18 1020 93 10000 3.1 60 23:42 13.11.2019
4456 Clouds 18 1020 93 10000 3.1 60 23:22 13.11.2019
4457 Clouds 18 1021 93 10000 4.6 90 22:57 13.11.2019
4458 Clouds 18 1021 93 10000 6.7 90 22:39 13.11.2019
4459 Clouds 14 1021 93 10000 6.7 90 22:21 13.11.2019
4460 Clouds 15 1022 93 10000 6.2 80 21:56 13.11.2019
4461 Clouds 15 1022 93 10000 7.2 80 21:38 13.11.2019
4462 Clouds 17 1022 93 10000 7.2 80 21:19 13.11.2019
4463 Clouds 17 1021 88 10000 5.1 80 20:57 13.11.2019
4464 Clouds 16 1021 82 10000 5.7 70 20:37 13.11.2019
4465 Clouds 16 1021 82 10000 5.7 70 20:37 13.11.2019
4466 Clouds 16 1021 82 10000 5.7 70 20:37 13.11.2019
4467 Clouds 18 1021 88 10000 4.6 60 20:19 13.11.2019
4468 Clouds 18 1021 88 10000 4.6 60 19:56 13.11.2019
4469 Clouds 18 1020 82 10000 6.2 70 19:37 13.11.2019
4470 Clouds 18 1020 82 10000 6.2 70 19:18 13.11.2019
4471 Clouds 18 1020 82 10000 4.6 80 18:54 13.11.2019
4472 Clouds 18 1020 82 10000 4.6 80 18:54 13.11.2019
4473 Clouds 17 1020 77 10000 5.1 80 18:36 13.11.2019
4474 Clouds 18 1019 72 10000 4.6 70 18:18 13.11.2019
4475 Clouds 18 1019 72 10000 4.6 70 18:18 13.11.2019
4476 Clouds 17 1020 77 10000 5.1 80 18:18 13.11.2019
4477 Clouds 18 1019 72 10000 4.6 70 17:54 13.11.2019
4478 Clouds 18 1019 72 10000 4.6 70 17:36 13.11.2019
4479 Clouds 19 1019 72 10000 4.6 70 17:18 13.11.2019
4480 Clouds 20 1016 64 10000 4.1 80 16:41 13.11.2019
4481 Clouds 20 1016 64 10000 4.1 80 16:41 13.11.2019
4482 Clouds 20 1016 64 10000 4.1 80 16:22 13.11.2019
4483 Clouds 19 1017 64 10000 5.7 80 15:59 13.11.2019
4484 Clouds 19 1017 69 10000 5.7 80 15:41 13.11.2019
4485 Clouds 21 1017 69 10000 5.7 80 15:23 13.11.2019
4486 Clouds 21 1017 64 10000 5.7 70 14:59 13.11.2019
4487 Clouds 22 1016 64 10000 5.1 60 14:39 13.11.2019
4488 Clouds 22 1017 60 10000 5.1 70 14:20 13.11.2019
4489 Clouds 21 1017 69 10000 4.6 90 13:38 13.11.2019
4490 Clouds 20 1018 69 10000 5.1 70 13:19 13.11.2019
4491 Clouds 20 1018 69 10000 5.1 70 12:58 13.11.2019
4492 Clouds 20 1018 73 10000 5.1 70 12:40 13.11.2019
4493 Clouds 21 1018 73 10000 5.1 70 12:21 13.11.2019
4494 Clouds 20 1018 77 10000 3.1 50 11:55 13.11.2019
4495 Clouds 20 1018 77 10000 3.1 50 11:36 13.11.2019
4496 Clouds 20 1018 77 10000 3.1 50 11:18 13.11.2019
4497 Clouds 19 1020 88 10000 4.6 70 10:54 13.11.2019
4498 Rain 19 1019 93 6000 4.08 35 10:36 13.11.2019
4499 Clouds 18 1021 93 10000 5.1 70 10:18 13.11.2019
4500 Clouds 19 1021 82 10000 6.7 50 09:40 13.11.2019
4501 Clouds 20 1021 82 10000 6.7 50 09:20 13.11.2019
4502 Clouds 20 1021 82 10000 6.7 50 09:20 13.11.2019
4503 Clouds 19 1021 82 10000 5.1 40 08:41 13.11.2019
4504 Clouds 17 1021 82 10000 5.1 40 08:22 13.11.2019
4505 Clouds 17 1021 88 10000 4.6 40 07:57 13.11.2019
4506 Clouds 17 1020 93 10000 4.6 50 07:38 13.11.2019
4507 Clouds 16 1021 93 10000 4.1 70 07:18 13.11.2019
4508 Clouds 17 1020 88 10000 2.6 50 06:40 13.11.2019
4509 Clouds 16 1020 100 10000 4.6 60 06:18 13.11.2019
4510 Clouds 16 1020 100 10000 4.6 60 05:46 13.11.2019
4511 Drizzle 15 1020 100 4000 5.1 80 04:56 13.11.2019
4512 Drizzle 15 1019 93 6000 4.1 60 03:51 13.11.2019
4513 Clouds 14 1018 93 10000 3.1 100 01:50 13.11.2019
4514 Clouds 15 1018 93 10000 4.1 80 01:25 13.11.2019
4515 Clouds 15 1019 93 10000 3.1 70 00:42 13.11.2019
4516 Clouds 15 1019 93 10000 3.6 70 23:56 12.11.2019
4517 Clouds 16 1020 88 10000 4.1 70 23:37 12.11.2019
4518 Clouds 15 1020 88 10000 4.1 70 23:18 12.11.2019
4519 Clouds 18 1020 88 10000 4.6 80 22:40 12.11.2019
4520 Clouds 18 1020 88 10000 4.6 80 22:18 12.11.2019
4521 Clouds 18 1020 88 10000 4.1 80 21:54 12.11.2019
4522 Clouds 18 1019 93 10000 5.1 80 21:36 12.11.2019
4523 Clouds 18 1019 93 10000 5.1 80 21:36 12.11.2019
4524 Clouds 18 1019 93 10000 5.1 80 21:18 12.11.2019
4525 Clouds 18 1020 93 10000 6.2 80 20:54 12.11.2019
4526 Clouds 18 1019 93 10000 5.1 70 20:36 12.11.2019
4527 Clouds 18 1019 93 10000 5.1 70 20:18 12.11.2019
4528 Clouds 19 1020 93 10000 5.1 70 19:54 12.11.2019
4529 Clouds 19 1019 82 10000 4.6 60 19:36 12.11.2019
4530 Clouds 19 1019 82 10000 6.2 70 19:18 12.11.2019
4531 Clouds 19 1019 82 10000 6.2 70 18:54 12.11.2019
4532 Clouds 17 1018 82 10000 3.1 40 18:36 12.11.2019
4533 Clouds 17 1018 82 10000 3.1 40 18:18 12.11.2019
4534 Clouds 18 1017 82 10000 2.6 30 17:55 12.11.2019
4535 Clouds 18 1017 82 10000 2.6 30 17:36 12.11.2019
4536 Clouds 19 1018 82 10000 4.6 50 17:18 12.11.2019
4537 Clouds 19 1016 77 10000 3.1 20 16:42 12.11.2019
4538 Clouds 19 1016 77 10000 3.1 20 16:24 12.11.2019
4539 Clouds 20 1016 68 10000 3.6 150 15:55 12.11.2019
4540 Clouds 20 1016 68 10000 3.6 150 15:37 12.11.2019
4541 Clouds 20 1016 68 10000 3.6 150 15:18 12.11.2019
4542 Clouds 20 1016 68 10000 2.6 10 14:41 12.11.2019
4543 Clouds 19 1016 78 10000 1.5 0 14:20 12.11.2019
4544 Clouds 19 1016 78 10000 1.5 0 13:58 12.11.2019
4545 Clouds 20 1016 77 10000 5.45 107 13:39 12.11.2019
4546 Clouds 20 1017 82 10000 3.1 340 13:19 12.11.2019
4547 Clouds 20 1017 82 10000 3.1 340 12:59 12.11.2019
4548 Rain 19 1016 68 8000 4.6 90 12:39 12.11.2019
4549 Rain 19 1016 68 8000 4.6 90 12:18 12.11.2019
4550 Rain 20 1018 73 10000 3.1 30 11:43 12.11.2019
4551 Rain 20 1018 73 10000 3.1 30 11:24 12.11.2019
4552 Clouds 22 1019 69 10000 3.1 130 10:58 12.11.2019
4553 Clouds 21 1018 69 10000 5.1 130 10:40 12.11.2019
4554 Clouds 21 1019 73 10000 5.7 170 10:21 12.11.2019
4555 Clouds 22 1019 73 10000 5.7 170 09:59 12.11.2019
4556 Clouds 22 1019 73 10000 5.7 170 09:38 12.11.2019
4557 Clouds 21 1020 73 10000 3.1 100 09:18 12.11.2019
4558 Clouds 21 1020 73 10000 3.1 100 08:48 12.11.2019
4559 Clouds 21 1019 82 10000 5.1 150 08:28 12.11.2019
4560 Clouds 20 1020 77 10000 2.6 180 07:42 12.11.2019
4561 Clouds 19 1020 77 10000 2.6 180 07:24 12.11.2019
4562 Clouds 20 1020 77 10000 2.6 180 06:51 12.11.2019
4563 Clouds 18 1019 93 10000 3.1 190 06:24 12.11.2019
4564 Clouds 17 1019 93 10000 4.1 100 05:52 12.11.2019
4565 Rain 17 1018 93 10000 2.1 170 04:51 12.11.2019
4566 Rain 17 1018 100 10000 2.6 130 04:20 12.11.2019
4567 Clouds 16 1017 93 10000 3.1 70 01:58 12.11.2019
4568 Clouds 16 1017 93 10000 4.1 70 01:27 12.11.2019
4569 Clouds 16 1017 93 10000 4.1 50 00:53 12.11.2019
4570 Clouds 16 1017 93 10000 3.6 60 00:33 12.11.2019
4571 Clouds 17 1018 93 10000 3.1 80 23:55 11.11.2019
4572 Clouds 17 1018 93 10000 3.6 50 23:37 11.11.2019
4573 Clouds 18 1018 93 10000 3.6 50 23:18 11.11.2019
4574 Clouds 18 1019 93 10000 3.1 60 22:39 11.11.2019
4575 Clouds 18 1019 93 10000 4.1 70 22:20 11.11.2019
4576 Clouds 18 1019 93 10000 4.1 70 21:58 11.11.2019
4577 Clouds 18 1019 93 10000 3.1 80 21:39 11.11.2019
4578 Clouds 19 1019 93 10000 3.1 80 21:20 11.11.2019
4579 Clouds 19 1019 93 10000 3.1 80 21:20 11.11.2019
4580 Clouds 19 1019 93 10000 4.1 80 20:56 11.11.2019
4581 Rain 19 1019 82 10000 4.6 80 20:38 11.11.2019
4582 Rain 19 1019 82 10000 4.6 80 20:19 11.11.2019
4583 Clouds 19 1019 77 10000 4.6 100 19:55 11.11.2019
4584 Clouds 19 1018 82 10000 3.6 70 19:37 11.11.2019
4585 Clouds 20 1018 82 10000 3.6 70 19:18 11.11.2019
4586 Clouds 20 1017 68 10000 5.1 80 18:41 11.11.2019
4587 Clouds 20 1017 68 10000 5.1 80 18:21 11.11.2019
4588 Clouds 21 1016 56 10000 4.1 80 17:45 11.11.2019
4589 Clouds 21 1016 56 10000 4.1 80 17:27 11.11.2019
4590 Clouds 23 1016 60 10000 5.7 80 16:58 11.11.2019
4591 Clouds 23 1015 53 10000 7.7 90 16:38 11.11.2019
4592 Clouds 23 1015 53 10000 7.7 90 16:20 11.11.2019
4593 Clouds 22 1015 50 10000 7.7 110 15:41 11.11.2019
4594 Clouds 22 1015 50 10000 7.7 110 15:20 11.11.2019
4595 Clouds 23 1016 50 10000 6.2 90 14:56 11.11.2019
4596 Clouds 23 1015 47 10000 8.2 90 14:38 11.11.2019
4597 Clouds 23 1015 47 10000 8.2 90 14:20 11.11.2019
4598 Clouds 23 1016 50 10000 5.1 90 13:56 11.11.2019
4599 Clouds 23 1015 47 10000 4.1 80 13:36 11.11.2019
4600 Clouds 23 1015 47 10000 4.1 80 13:36 11.11.2019
4601 Clouds 23 1015 47 10000 4.1 80 13:18 11.11.2019
4602 Clouds 23 1016 50 10000 4.6 80 12:55 11.11.2019
4603 Clouds 23 1018 53 10000 5.7 80 12:37 11.11.2019
4604 Clouds 23 1018 53 10000 5.7 80 12:19 11.11.2019
4605 Clouds 24 1018 57 10000 3.1 60 11:41 11.11.2019
4606 Clouds 23 1018 57 10000 3.1 60 11:21 11.11.2019
4607 Clouds 22 1019 60 10000 5.1 70 10:44 11.11.2019
4608 Clouds 21 1019 60 10000 5.1 70 10:20 11.11.2019
4609 Clouds 21 1020 69 10000 2.6 60 09:59 11.11.2019
4610 Clouds 22 1020 73 10000 3.1 100 09:41 11.11.2019
4611 Clouds 20 1021 77 10000 2.6 80 09:20 11.11.2019
4612 Clouds 21 1020 82 10000 3.1 160 08:43 11.11.2019
4613 Clouds 21 1020 82 10000 3.1 160 08:23 11.11.2019
4614 Clouds 19 1021 77 10000 3.1 130 07:57 11.11.2019
4615 Clouds 19 1021 82 10000 4.6 130 07:38 11.11.2019
4616 Clouds 18 1021 82 10000 4.6 130 07:19 11.11.2019
4617 Clouds 18 1021 82 10000 4.6 130 06:56 11.11.2019
4618 Clouds 19 1020 88 10000 5.1 120 06:37 11.11.2019
4619 Clouds 19 1020 88 10000 5.1 120 06:19 11.11.2019
4620 Clouds 18 1019 93 10000 3.6 110 05:43 11.11.2019
4621 Clouds 17 1019 93 10000 2.1 190 03:27 11.11.2019
4622 Clouds 17 1019 93 10000 1.5 110 02:33 11.11.2019
4623 Clouds 17 1019 93 10000 3.1 70 01:58 11.11.2019
4624 Clouds 17 1019 93 10000 3.1 70 01:36 11.11.2019
4625 Clouds 17 1019 93 10000 3.1 40 00:55 11.11.2019
4626 Clouds 17 1019 93 10000 3.1 40 00:33 11.11.2019
4627 Clouds 17 1019 93 10000 3.6 50 23:58 10.11.2019
4628 Clouds 18 1019 88 10000 3.1 40 23:37 10.11.2019
4629 Clouds 18 1019 88 10000 3.1 40 23:19 10.11.2019
4630 Clouds 18 1020 88 10000 4.6 60 22:55 10.11.2019
4631 Clouds 18 1020 88 10000 4.1 60 22:37 10.11.2019
4632 Clouds 18 1020 88 10000 4.1 60 22:19 10.11.2019
4633 Clouds 18 1020 88 10000 4.1 50 21:55 10.11.2019
4634 Rain 18 1020 82 10000 3.1 30 21:36 10.11.2019
4635 Rain 19 1020 82 10000 3.1 30 21:18 10.11.2019
4636 Rain 19 1020 77 10000 3.1 50 20:41 10.11.2019
4637 Rain 20 1020 77 10000 3.1 50 20:22 10.11.2019
4638 Rain 20 1020 77 10000 3.1 50 20:22 10.11.2019
4639 Rain 20 1020 77 10000 3.6 80 19:56 10.11.2019
4640 Rain 20 1020 77 10000 3.6 80 19:56 10.11.2019
4641 Rain 20 1020 72 10000 3.6 70 19:37 10.11.2019
4642 Rain 20 1020 72 10000 3.6 70 19:37 10.11.2019
4643 Rain 20 1020 72 10000 3.6 70 19:18 10.11.2019
4644 Rain 20 1019 72 10000 4.1 80 18:58 10.11.2019
4645 Rain 20 1019 72 10000 4.1 80 18:58 10.11.2019
4646 Rain 20 1019 72 10000 4.1 80 18:58 10.11.2019
4647 Clouds 21 1018 68 10000 4.6 90 18:39 10.11.2019
4648 Clouds 22 1018 68 10000 5.1 80 18:19 10.11.2019
4649 Clouds 22 1018 68 10000 5.1 80 17:56 10.11.2019
4650 Clouds 22 1017 56 10000 4.1 70 17:38 10.11.2019
4651 Clouds 22 1017 56 10000 4.1 70 17:19 10.11.2019
4652 Clouds 23 1018 56 10000 5.1 80 16:57 10.11.2019
4653 Clouds 24 1017 50 10000 5.1 90 16:38 10.11.2019
4654 Clouds 24 1017 50 10000 5.1 90 16:19 10.11.2019
4655 Clouds 25 1017 47 10000 5.7 80 15:55 10.11.2019
4656 Clouds 26 1017 41 10000 5.7 100 15:36 10.11.2019
4657 Clouds 26 1017 41 10000 5.7 100 15:36 10.11.2019
4658 Clouds 26 1017 41 10000 5.7 100 15:18 10.11.2019
4659 Clouds 26 1016 47 10000 6.2 90 14:41 10.11.2019
4660 Clouds 26 1016 47 10000 6.2 90 14:23 10.11.2019
4661 Clouds 26 1017 47 10000 4.6 80 13:58 10.11.2019
4662 Clouds 26 1017 47 10000 4.6 90 13:40 10.11.2019
4663 Clouds 26 1017 47 10000 4.6 90 13:20 10.11.2019
4664 Clouds 25 1018 47 10000 5.7 90 12:44 10.11.2019
4665 Clouds 24 1018 47 10000 5.7 90 12:21 10.11.2019
4666 Clouds 25 1019 53 10000 3.6 90 11:57 10.11.2019
4667 Clouds 25 1019 53 10000 3.6 90 11:39 10.11.2019
4668 Clouds 24 1019 53 10000 3.6 90 11:20 10.11.2019
4669 Clouds 23 1020 57 10000 3.1 80 10:59 10.11.2019
4670 Clouds 20 1020 60 10000 3.1 30 10:40 10.11.2019
4671 Clouds 21 1020 60 10000 3.1 30 10:20 10.11.2019
4672 Clouds 21 1021 68 10000 2.1 40 09:43 10.11.2019
4673 Clouds 21 1021 68 10000 2.1 40 09:24 10.11.2019
4674 Clouds 20 1021 73 10000 3.1 40 08:56 10.11.2019
4675 Clouds 19 1021 77 10000 2.6 90 08:36 10.11.2019
4676 Clouds 19 1022 77 10000 4.1 60 08:18 10.11.2019
4677 Clouds 18 1022 77 10000 4.1 80 07:42 10.11.2019
4678 Clouds 18 1022 77 10000 4.1 80 07:23 10.11.2019
4679 Clouds 19 1021 82 10000 4.6 80 06:33 10.11.2019
4680 Clouds 18 1021 88 10000 3.1 60 05:33 10.11.2019
4681 Clouds 17 1019 93 10000 3.1 30 03:22 10.11.2019
4682 Clouds 17 1020 93 10000 2.6 50 01:47 10.11.2019
4683 Clouds 18 1020 88 10000 3.6 50 01:19 10.11.2019
4684 Clouds 18 1020 88 10000 3.1 30 00:41 10.11.2019
4685 Clouds 18 1020 88 10000 3.1 30 00:41 10.11.2019
4686 Clouds 18 1021 88 10000 3.6 30 23:56 09.11.2019
4687 Clouds 18 1021 93 10000 3.1 30 23:37 09.11.2019
4688 Clouds 18 1021 93 10000 3.1 30 23:18 09.11.2019
4689 Clouds 18 1022 88 10000 2.6 30 22:41 09.11.2019
4690 Clouds 18 1022 88 10000 2.6 40 22:21 09.11.2019
4691 Clouds 18 1022 88 10000 2.6 40 21:56 09.11.2019
4692 Clouds 18 1022 88 10000 2.6 40 21:56 09.11.2019
4693 Clouds 19 1022 82 10000 2.6 60 21:37 09.11.2019
4694 Clouds 19 1022 82 10000 2.6 60 21:19 09.11.2019
4695 Clouds 20 1022 72 10000 5.7 90 20:42 09.11.2019
4696 Clouds 20 1022 72 10000 5.7 90 20:22 09.11.2019
4697 Clouds 20 1022 72 10000 4.6 90 19:58 09.11.2019
4698 Clouds 20 1022 64 10000 4.6 80 19:39 09.11.2019
4699 Clouds 20 1022 64 10000 4.6 80 19:21 09.11.2019
4700 Clouds 21 1021 72 10000 4.6 80 18:56 09.11.2019
4701 Clouds 21 1020 53 10000 3.6 80 18:38 09.11.2019
4702 Clouds 21 1020 64 10000 3.6 80 18:18 09.11.2019
4703 Clouds 22 1020 60 10000 4.6 90 17:41 09.11.2019
4704 Clouds 23 1020 60 10000 4.6 90 17:22 09.11.2019
4705 Clouds 21 1020 50 10000 5.7 90 16:56 09.11.2019
4706 Clouds 21 1019 46 10000 9.3 80 16:37 09.11.2019
4707 Clouds 22 1019 46 10000 9.3 80 16:18 09.11.2019
4708 Clouds 21 1018 50 10000 5.1 90 15:41 09.11.2019
4709 Clouds 23 1018 50 10000 5.1 90 15:23 09.11.2019
4710 Clouds 23 1018 50 10000 5.1 90 15:23 09.11.2019
4711 Clouds 23 1018 50 10000 5.1 80 14:46 09.11.2019
4712 Clouds 24 1019 47 10000 4.1 80 14:23 09.11.2019
4713 Clouds 23 1019 47 10000 4.1 80 13:58 09.11.2019
4714 Clouds 23 1019 44 10000 4.6 90 13:40 09.11.2019
4715 Clouds 23 1019 47 10000 5.1 100 13:21 09.11.2019
4716 Clouds 22 1019 47 10000 5.1 100 12:57 09.11.2019
4717 Clouds 23 1021 44 10000 4.6 80 12:39 09.11.2019
4718 Clouds 23 1021 44 10000 4.6 80 12:21 09.11.2019
4719 Clouds 23 1021 44 10000 4.6 80 11:48 09.11.2019
4720 Clouds 23 1021 53 10000 4.1 100 11:22 09.11.2019
4721 Clouds 22 1022 53 10000 2.1 30 10:57 09.11.2019
4722 Clouds 22 1021 46 10000 4.1 110 10:39 09.11.2019
4723 Clouds 24 1021 46 10000 4.1 110 10:18 09.11.2019
4724 Clouds 22 1023 60 10000 2.6 100 09:44 09.11.2019
4725 Clouds 21 1023 60 10000 2.6 100 09:21 09.11.2019
4726 Clouds 21 1023 64 10000 2.6 50 08:57 09.11.2019
4727 Clouds 20 1023 72 10000 3.1 50 08:38 09.11.2019
4728 Clouds 20 1023 72 10000 3.1 50 08:19 09.11.2019
4729 Clouds 19 1023 77 10000 2.1 40 07:43 09.11.2019
4730 Clouds 19 1023 77 10000 2.1 40 07:22 09.11.2019
4731 Clouds 18 1023 82 10000 3.1 90 06:48 09.11.2019
4732 Clouds 17 1023 88 10000 2.1 60 06:30 09.11.2019
4733 Clouds 16 1021 88 10000 2.3 56 05:42 09.11.2019
4734 Clouds 16 1022 100 10000 1 30 04:51 09.11.2019
4735 Clouds 17 1021 93 10000 2.1 30 02:57 09.11.2019
4736 Clouds 17 1021 93 10000 2.1 30 02:39 09.11.2019
4737 Drizzle 17 1021 93 10000 2.6 60 01:43 09.11.2019
4738 Clouds 17 1021 88 10000 2.6 50 00:49 09.11.2019
4739 Clouds 18 1021 88 10000 2.6 50 00:29 09.11.2019
4740 Clouds 17 1021 77 10000 3.6 30 23:57 08.11.2019
4741 Clouds 17 1021 77 10000 3.6 30 23:38 08.11.2019
4742 Clouds 17 1021 77 10000 3.6 30 23:19 08.11.2019
4743 Clear 17 1022 88 10000 3.6 40 22:42 08.11.2019
4744 Clear 18 1022 88 10000 3.6 40 22:21 08.11.2019
4745 Clear 19 1023 77 10000 3.6 50 21:56 08.11.2019
4746 Clear 18 1021 72 10000 3.6 70 21:37 08.11.2019
4747 Clear 18 1021 72 10000 3.6 70 21:18 08.11.2019
4748 Clear 19 1021 68 10000 3.1 80 20:41 08.11.2019
4749 Clouds 18 1022 72 10000 4.1 70 20:21 08.11.2019
4750 Clouds 18 1022 72 10000 4.1 70 19:58 08.11.2019
4751 Clouds 18 1022 72 10000 4.1 70 19:58 08.11.2019
4752 Clouds 18 1021 68 10000 5.1 90 19:38 08.11.2019
4753 Clouds 18 1021 68 10000 5.1 90 19:18 08.11.2019
4754 Clouds 18 1021 68 10000 5.1 90 19:18 08.11.2019
4755 Clouds 18 1021 68 10000 5.1 90 19:18 08.11.2019
4756 Clouds 18 1021 72 10000 4.1 80 18:55 08.11.2019
4757 Clouds 19 1020 60 10000 4.6 90 18:37 08.11.2019
4758 Clouds 19 1020 60 10000 4.6 90 18:19 08.11.2019
4759 Clouds 18 1019 56 10000 6.7 80 17:55 08.11.2019
4760 Clouds 19 1019 56 10000 6.7 80 17:37 08.11.2019
4761 Clouds 18 1019 56 10000 6.7 80 17:18 08.11.2019
4762 Clouds 20 1020 56 10000 5.7 90 16:57 08.11.2019
4763 Clouds 21 1018 53 10000 8.2 60 16:39 08.11.2019
4764 Clouds 21 1018 53 10000 8.2 60 16:19 08.11.2019
4765 Clouds 25 1018 50 10000 7.2 80 15:56 08.11.2019
4766 Clouds 25 1018 50 10000 7.2 80 15:38 08.11.2019
4767 Clouds 24 1019 50 10000 4.6 70 15:19 08.11.2019
4768 Clouds 24 1019 50 10000 4.6 70 14:55 08.11.2019
4769 Clouds 25 1018 53 10000 3.6 100 14:36 08.11.2019
4770 Clouds 26 1019 53 10000 3.6 90 14:18 08.11.2019
4771 Clouds 25 1019 47 10000 5.1 90 13:43 08.11.2019
4772 Clouds 25 1019 47 10000 5.1 90 13:22 08.11.2019
4773 Clouds 25 1020 50 10000 3.1 130 12:58 08.11.2019
4774 Clouds 24 1021 53 10000 3.6 80 12:39 08.11.2019
4775 Clouds 24 1021 53 10000 3.6 80 12:21 08.11.2019
4776 Clouds 24 1021 53 10000 3.6 80 11:55 08.11.2019
4777 Clouds 24 1021 53 10000 3.6 80 11:55 08.11.2019
4778 Clouds 25 1021 47 10000 3.6 50 11:37 08.11.2019
4779 Clouds 25 1021 47 10000 3.6 50 11:19 08.11.2019
4780 Clouds 23 1022 56 10000 2.6 130 10:43 08.11.2019
4781 Clouds 23 1022 56 10000 2.6 130 10:22 08.11.2019
4782 Clouds 22 1023 60 10000 3.1 80 09:59 08.11.2019
4783 Clouds 22 1023 64 10000 3.6 100 09:40 08.11.2019
4784 Clouds 22 1023 64 10000 3.6 100 09:19 08.11.2019
4785 Clouds 21 1024 73 10000 3.1 0 08:46 08.11.2019
4786 Clouds 20 1024 73 10000 3.1 0 08:25 08.11.2019
4787 Clouds 20 1024 73 10000 2.6 90 07:57 08.11.2019
4788 Clouds 20 1024 77 10000 3.1 130 07:38 08.11.2019
4789 Clouds 20 1024 77 10000 3.1 130 07:19 08.11.2019
4790 Clouds 20 1024 82 10000 2.6 80 06:38 08.11.2019
4791 Clouds 20 1024 82 10000 2.6 80 06:20 08.11.2019
4792 Clouds 18 1023 93 10000 2.1 90 05:39 08.11.2019
4793 Clouds 17 1021 93 10000 3.1 160 04:43 08.11.2019
4794 Clouds 18 1021 93 10000 3.1 80 03:43 08.11.2019
4795 Clouds 18 1021 93 10000 3.1 80 03:20 08.11.2019
4796 Clouds 18 1021 93 10000 2.6 70 02:26 08.11.2019
4797 Clouds 17 1020 100 10000 1.5 70 01:46 08.11.2019
4798 Clouds 18 1020 93 10000 1 40 00:59 08.11.2019
4799 Clouds 18 1021 93 10000 2.6 30 00:24 08.11.2019
4800 Clouds 18 1021 93 10000 2.1 50 23:55 07.11.2019
4801 Clouds 18 1021 93 10000 2.1 50 23:36 07.11.2019
4802 Clouds 18 1021 93 10000 2.1 50 23:18 07.11.2019
4803 Clouds 18 1021 93 10000 2.1 40 22:41 07.11.2019
4804 Clouds 18 1021 93 10000 2.1 40 22:21 07.11.2019
4805 Clouds 18 1021 93 10000 3.1 50 21:55 07.11.2019
4806 Clouds 18 1022 93 10000 3.1 60 21:37 07.11.2019
4807 Clouds 19 1022 88 10000 4.6 70 21:18 07.11.2019
4808 Clouds 19 1022 88 10000 4.6 70 20:55 07.11.2019
4809 Clouds 19 1022 88 10000 4.1 60 20:37 07.11.2019
4810 Clouds 19 1022 88 10000 4.1 60 20:19 07.11.2019
4811 Clouds 19 1021 88 10000 4.6 70 19:41 07.11.2019
4812 Clouds 19 1021 88 10000 4.6 70 19:23 07.11.2019
4813 Clouds 20 1021 77 10000 4.1 70 18:58 07.11.2019
4814 Clouds 20 1020 77 10000 3.6 50 18:40 07.11.2019
4815 Clouds 20 1020 77 10000 4.1 80 18:20 07.11.2019
4816 Clouds 20 1020 77 10000 3.6 50 18:20 07.11.2019
4817 Clouds 20 1020 77 10000 4.1 80 17:59 07.11.2019
4818 Clouds 21 1019 73 10000 6.7 90 17:39 07.11.2019
4819 Clouds 21 1019 73 10000 6.7 90 17:20 07.11.2019
4820 Clouds 24 1018 53 10000 5.1 80 16:58 07.11.2019
4821 Clouds 24 1018 53 10000 5.1 80 16:39 07.11.2019
4822 Clouds 25 1018 53 10000 4.6 80 16:19 07.11.2019
4823 Clouds 25 1018 50 10000 4.1 140 15:54 07.11.2019
4824 Clouds 25 1018 53 10000 3.1 70 15:36 07.11.2019
4825 Clouds 25 1018 53 10000 3.1 70 15:18 07.11.2019
4826 Clouds 25 1018 53 10000 3.1 80 14:43 07.11.2019
4827 Clouds 26 1018 50 10000 3.6 0 14:25 07.11.2019
4828 Clouds 25 1018 44 10000 3.1 150 13:56 07.11.2019
4829 Clouds 25 1018 44 10000 3.1 150 13:56 07.11.2019
4830 Clouds 26 1019 47 10000 1.5 0 13:38 07.11.2019
4831 Clouds 26 1019 47 10000 1.5 0 13:20 07.11.2019
4832 Clouds 25 1019 41 10000 3.96 126 12:58 07.11.2019
4833 Clouds 25 1019 41 10000 3.96 126 12:39 07.11.2019
4834 Clouds 24 1020 53 10000 2.1 110 12:20 07.11.2019
4835 Clouds 24 1020 60 10000 4.6 110 11:43 07.11.2019
4836 Clouds 25 1021 53 10000 2.1 110 11:23 07.11.2019
4837 Clouds 25 1021 53 10000 2.1 110 11:23 07.11.2019
4838 -273 0 0 0 0 0 10:59 07.11.2019
4839 Clouds 25 1021 57 10000 5.1 140 10:40 07.11.2019
4840 Clouds 23 1022 60 10000 1.5 0 10:18 07.11.2019
4841 Clouds 22 1023 64 10000 3.1 140 09:42 07.11.2019
4842 Clouds 21 1023 64 10000 3.1 140 09:22 07.11.2019
4843 Clouds 22 1022 77 10000 3.6 140 08:55 07.11.2019
4844 Clouds 20 1023 73 10000 3.1 150 08:37 07.11.2019
4845 Clouds 20 1023 73 10000 3.1 150 08:18 07.11.2019
4846 -273 0 0 0 0 0 07:41 07.11.2019
4847 Clouds 20 1022 88 10000 4.1 140 07:41 07.11.2019
4848 Clouds 18 1023 82 10000 3.6 180 07:21 07.11.2019
4849 Clouds 18 1022 93 10000 5.7 130 06:48 07.11.2019
4850 Clouds 17 1023 88 10000 3.1 190 06:28 07.11.2019
4851 Clouds 18 1021 93 10000 3.1 170 05:53 07.11.2019
4852 Clouds 17 1022 93 10000 3.1 130 05:34 07.11.2019
4853 Clouds 18 1020 93 10000 2.93 131 04:57 07.11.2019
4854 Clouds 18 1021 93 10000 2.6 130 04:39 07.11.2019
4855 Clouds 18 1019 93 10000 2.1 90 02:57 07.11.2019
4856 Clouds 18 1020 88 10000 3.1 50 00:47 07.11.2019
4857 Clouds 19 1021 82 10000 2.6 50 00:20 07.11.2019
4858 Clouds 19 1021 82 10000 3.6 50 23:47 06.11.2019
4859 Clouds 20 1021 77 10000 4.1 60 23:22 06.11.2019
4860 Clouds 20 1021 72 10000 6.2 80 22:56 06.11.2019
4861 Clouds 20 1021 72 10000 3.6 50 22:37 06.11.2019
4862 Clouds 20 1021 72 10000 3.6 50 22:18 06.11.2019
4863 Clouds 20 1021 72 10000 4.6 70 21:42 06.11.2019
4864 Clouds 21 1021 72 10000 4.1 50 21:21 06.11.2019
4865 Clouds 20 1020 68 10000 4.1 50 20:59 06.11.2019
4866 Clouds 20 1020 68 10000 4.1 50 20:40 06.11.2019
4867 Clouds 21 1021 72 10000 4.1 50 20:22 06.11.2019
4868 Clouds 21 1020 68 10000 5.1 60 19:59 06.11.2019
4869 Clouds 21 1020 60 10000 4.1 60 19:40 06.11.2019
4870 Clouds 22 1020 60 10000 4.1 60 19:21 06.11.2019
4871 Clouds 22 1020 60 10000 4.1 60 18:58 06.11.2019
4872 Clouds 19 1019 53 10000 3.6 70 18:39 06.11.2019
4873 Clouds 19 1019 53 10000 3.6 70 18:19 06.11.2019
4874 Clouds 20 1019 56 10000 5.1 80 17:57 06.11.2019
4875 Clouds 20 1018 53 10000 5.1 70 17:39 06.11.2019
4876 Clouds 20 1018 53 10000 5.1 70 17:21 06.11.2019
4877 Clouds 24 1018 53 10000 5.7 80 16:55 06.11.2019
4878 Clouds 22 1017 44 10000 4.1 110 16:37 06.11.2019
4879 Clouds 22 1017 44 10000 4.1 110 16:18 06.11.2019
4880 Clouds 24 1017 39 10000 5.1 120 15:55 06.11.2019
4881 Clouds 24 1016 39 10000 5.1 140 15:36 06.11.2019
4882 Clouds 24 1016 39 10000 5.1 140 15:18 06.11.2019
4883 Clouds 24 1017 36 10000 2.6 140 14:55 06.11.2019
4884 Clouds 25 1016 39 10000 5.1 130 14:37 06.11.2019
4885 Clouds 24 1016 39 10000 5.1 130 14:19 06.11.2019
4886 Clouds 25 1017 39 10000 6.2 140 13:40 06.11.2019
4887 Clouds 25 1017 39 10000 6.2 140 13:40 06.11.2019
4888 Clouds 24 1017 39 10000 6.2 140 13:22 06.11.2019
4889 Clouds 25 1018 39 10000 3.6 200 12:58 06.11.2019
4890 Clouds 23 1019 41 10000 3.1 100 12:39 06.11.2019
4891 Clouds 24 1019 41 10000 3.6 120 12:21 06.11.2019
4892 Clouds 23 1019 41 10000 3.6 120 11:58 06.11.2019
4893 Clouds 23 1019 41 10000 3.6 120 11:58 06.11.2019
4894 Clouds 23 1020 41 10000 3.6 0 11:38 06.11.2019
4895 Clouds 24 1020 41 10000 3.6 0 11:19 06.11.2019
4896 Clouds 23 1020 50 10000 5.1 160 10:57 06.11.2019
4897 Clouds 23 1020 50 10000 5.1 160 10:38 06.11.2019
4898 Clouds 23 1020 50 10000 5.1 160 10:20 06.11.2019
4899 Clouds 23 1020 50 10000 5.1 160 10:20 06.11.2019
4900 Clouds 23 1020 50 10000 5.1 160 10:20 06.11.2019
4901 Clouds 22 1021 56 10000 2.1 160 09:56 06.11.2019
4902 Clouds 23 1021 53 10000 5.7 100 09:36 06.11.2019
4903 Clouds 23 1021 53 10000 5.7 100 09:18 06.11.2019
4904 Clouds 22 1022 56 10000 2.6 130 08:54 06.11.2019
4905 Clouds 21 1021 60 10000 4.1 120 08:36 06.11.2019
4906 Clouds 21 1021 60 10000 4.1 120 08:36 06.11.2019
4907 Clouds 20 1022 72 10000 0.5 0 08:18 06.11.2019
4908 Clouds 19 1021 72 10000 0.65 348 07:40 06.11.2019
4909 Clouds 18 1021 72 10000 0.65 348 07:22 06.11.2019
4910 Clouds 18 1022 82 10000 0.65 348 06:47 06.11.2019
4911 Clouds 18 1022 82 10000 0.65 348 06:27 06.11.2019
4912 Clouds 15 1021 93 10000 2.1 250 04:52 06.11.2019
4913 Clouds 15 1020 93 10000 1.5 260 02:28 06.11.2019
4914 Clouds 15 1020 88 10000 2.1 230 01:38 06.11.2019
4915 Clouds 16 1020 88 10000 0.82 66 00:40 06.11.2019
4916 Clouds 16 1021 88 10000 1 0 23:58 05.11.2019
4917 Clouds 15 1021 88 10000 1 360 23:39 05.11.2019
4918 Clouds 15 1021 88 10000 1 360 23:39 05.11.2019
4919 Clouds 15 1021 88 10000 1 360 23:21 05.11.2019
4920 Clouds 15 1021 88 10000 1 360 23:21 05.11.2019
4921 Clouds 15 1022 82 10000 3.6 70 22:46 05.11.2019
4922 Clouds 16 1022 82 10000 3.6 70 22:20 05.11.2019
4923 Clouds 16 1022 82 10000 4.6 70 21:59 05.11.2019
4924 Clouds 16 1022 82 10000 4.6 70 21:59 05.11.2019
4925 Clouds 16 1022 72 10000 4.1 60 21:41 05.11.2019
4926 Clouds 18 1022 72 10000 4.1 60 21:21 05.11.2019
4927 Clouds 17 1022 77 10000 3.1 50 20:59 05.11.2019
4928 Clouds 17 1021 77 10000 4.1 50 20:39 05.11.2019
4929 Clouds 17 1021 77 10000 4.1 50 20:20 05.11.2019
4930 Clouds 18 1021 77 10000 3.6 40 19:57 05.11.2019
4931 Clouds 17 1021 72 10000 5.1 70 19:38 05.11.2019
4932 Clouds 17 1021 72 10000 5.1 70 19:38 05.11.2019
4933 Clouds 19 1021 72 10000 5.1 70 19:20 05.11.2019
4934 Clouds 19 1021 64 10000 3.6 70 18:57 05.11.2019
4935 Clouds 19 1020 53 10000 6.2 90 18:39 05.11.2019
4936 Clouds 19 1020 60 10000 5.1 80 18:20 05.11.2019
4937 Clouds 19 1020 53 10000 6.2 90 18:20 05.11.2019
4938 Clouds 19 1020 60 10000 5.1 80 17:57 05.11.2019
4939 Clouds 18 1020 56 10000 4.6 80 17:38 05.11.2019
4940 Clouds 20 1020 56 10000 4.6 80 17:18 05.11.2019
4941 Clouds 21 1019 53 10000 5.7 90 16:54 05.11.2019
4942 Clouds 20 1019 50 10000 5.1 90 16:36 05.11.2019
4943 Clouds 20 1019 50 10000 5.1 90 16:18 05.11.2019
4944 Clouds 21 1018 44 10000 4.1 90 15:37 05.11.2019
4945 Clouds 23 1018 44 10000 4.1 90 15:19 05.11.2019
4946 Clouds 23 1018 44 10000 4.1 90 15:19 05.11.2019
4947 Clouds 24 1019 44 10000 3.1 140 14:57 05.11.2019
4948 Clouds 23 1019 44 10000 2.6 50 14:38 05.11.2019
4949 Clouds 23 1019 44 10000 2.6 50 14:38 05.11.2019
4950 Clouds 23 1019 44 10000 2.6 50 14:20 05.11.2019
4951 Clouds 22 1019 41 10000 3.1 70 13:43 05.11.2019
4952 Clouds 23 1019 41 10000 3.1 70 13:24 05.11.2019
4953 Clouds 23 1020 44 10000 2.6 160 12:59 05.11.2019
4954 Clouds 23 1020 44 10000 3.1 130 12:39 05.11.2019
4955 Clouds 23 1020 44 10000 3.1 130 12:39 05.11.2019
4956 Clouds 24 1020 44 10000 3.1 130 12:20 05.11.2019
4957 Clouds 23 1021 47 10000 2.6 0 11:55 05.11.2019
4958 Clouds 23 1021 50 10000 3.1 130 11:36 05.11.2019
4959 Clouds 23 1022 50 10000 2.6 0 11:18 05.11.2019
4960 Clouds 22 1023 53 10000 2.6 20 10:42 05.11.2019
4961 Clouds 22 1023 53 10000 2.6 20 10:42 05.11.2019
4962 Clouds 22 1023 53 10000 2.6 20 10:23 05.11.2019
4963 Clouds 22 1023 53 10000 2.6 90 09:58 05.11.2019
4964 Clouds 21 1023 60 10000 2.1 0 09:39 05.11.2019
4965 Clouds 21 1023 72 10000 3.55 155 09:19 05.11.2019
4966 Clouds 20 1023 72 10000 3.55 155 08:55 05.11.2019
4967 Clouds 21 1024 68 10000 2.1 20 08:36 05.11.2019
4968 Clouds 19 1024 68 10000 2.1 20 08:18 05.11.2019
4969 Clouds 18 1023 77 10000 4.1 130 07:42 05.11.2019
4970 Clouds 18 1023 77 10000 4.1 130 07:23 05.11.2019
4971 Clouds 17 1023 88 10000 2.6 150 06:51 05.11.2019
4972 Clouds 17 1023 88 10000 0.5 0 05:54 05.11.2019
4973 Clouds 17 1023 88 10000 0.5 0 05:36 05.11.2019
4974 Clouds 15 1023 93 10000 1.5 200 05:18 05.11.2019
4975 Clouds 15 1021 93 10000 0.76 332 04:18 05.11.2019
4976 Clouds 15 1022 93 10000 1.5 60 03:23 05.11.2019
4977 Clouds 15 1021 88 10000 0.76 332 02:41 05.11.2019
4978 Clouds 15 1021 93 10000 2.6 90 01:48 05.11.2019
4979 Clouds 15 1022 87 10000 3.6 40 00:41 05.11.2019
4980 Clouds 15 1022 87 10000 3.6 40 00:23 05.11.2019
4981 Clouds 15 1022 88 10000 3.6 40 23:41 04.11.2019
4982 Clouds 17 1022 88 10000 3.6 40 23:19 04.11.2019
4983 Clouds 17 1023 88 10000 3.6 60 22:55 04.11.2019
4984 Clouds 16 1022 72 10000 4.1 50 22:37 04.11.2019
4985 Clouds 16 1022 72 10000 4.1 50 22:19 04.11.2019
4986 Clouds 17 1023 82 10000 3.6 40 21:54 04.11.2019
4987 Clouds 17 1022 72 10000 4.6 40 21:36 04.11.2019
4988 Clouds 17 1023 82 10000 3.1 50 21:18 04.11.2019
4989 Clouds 17 1023 82 10000 3.1 50 20:54 04.11.2019
4990 Clouds 17 1023 68 10000 4.6 70 20:36 04.11.2019
4991 Clouds 17 1023 68 10000 4.6 70 20:18 04.11.2019
4992 Clouds 18 1021 64 10000 5.1 80 19:42 04.11.2019
4993 Clouds 18 1021 64 10000 5.1 80 19:23 04.11.2019
4994 Clouds 19 1022 72 10000 3.6 70 18:58 04.11.2019
4995 Clouds 19 1021 60 10000 4.1 70 18:40 04.11.2019
4996 Clouds 19 1021 60 10000 4.1 70 18:39 04.11.2019
4997 Clouds 18 1021 60 10000 4.1 70 18:21 04.11.2019
4998 Clouds 19 1021 68 10000 4.6 80 17:58 04.11.2019
4999 Clouds 19 1020 60 10000 5.7 80 17:36 04.11.2019
5000 Clouds 19 1020 60 10000 5.7 80 17:18 04.11.2019
5001 Clouds 21 1019 53 10000 5.1 80 16:43 04.11.2019
5002 Clouds 21 1019 53 10000 5.1 80 16:24 04.11.2019
5003 Clouds 22 1020 47 10000 6.7 90 15:59 04.11.2019
5004 Clouds 22 1020 47 10000 6.7 90 15:59 04.11.2019
5005 Clouds 22 1019 47 10000 4.6 80 15:41 04.11.2019
5006 Clouds 23 1020 44 10000 5.7 80 15:21 04.11.2019
5007 Clouds 23 1020 44 10000 5.7 80 14:58 04.11.2019
5008 Clouds 23 1019 44 10000 5.7 40 14:39 04.11.2019
5009 Clouds 23 1019 44 10000 5.7 40 14:20 04.11.2019
5010 Clouds 23 1020 44 10000 5.1 70 13:58 04.11.2019
5011 Clouds 23 1020 44 10000 4.6 100 13:39 04.11.2019
5012 Clouds 23 1020 44 10000 4.6 100 13:21 04.11.2019
5013 Clouds 23 1020 47 10000 4.1 60 12:55 04.11.2019
5014 Clouds 23 1020 47 10000 4.6 90 12:37 04.11.2019
5015 Clouds 23 1020 47 10000 4.6 90 12:18 04.11.2019
5016 Clouds 23 1021 44 10000 4.1 80 11:42 04.11.2019
5017 Clouds 23 1022 53 10000 4.1 40 11:23 04.11.2019
5018 Clouds 23 1022 53 10000 4.1 40 11:23 04.11.2019
5019 Clouds 22 1022 53 10000 4.1 40 10:58 04.11.2019
5020 Clouds 22 1022 49 10000 3.6 90 10:39 04.11.2019
5021 Clouds 22 1024 60 10000 2.1 0 10:20 04.11.2019
5022 Clouds 21 1023 64 10000 2.1 50 09:44 04.11.2019
5023 Clouds 21 1023 64 10000 2.1 50 09:26 04.11.2019
5024 Clouds 19 1024 64 10000 1.5 0 08:56 04.11.2019
5025 Clouds 19 1023 77 10000 2.1 170 08:37 04.11.2019
5026 Clouds 19 1023 77 10000 2.1 170 08:18 04.11.2019
5027 Clouds 18 1024 82 10000 3.1 150 07:42 04.11.2019
5028 Clouds 18 1024 82 10000 3.1 150 07:20 04.11.2019
5029 Clouds 18 1025 82 10000 1.5 210 06:49 04.11.2019
5030 Clouds 18 1025 82 10000 1.5 210 06:49 04.11.2019
5031 Clouds 18 1025 82 10000 1.5 210 06:49 04.11.2019
5032 Clouds 16 1024 93 10000 1.5 90 06:18 04.11.2019
5033 Clouds 15 1024 93 10000 1.5 50 05:38 04.11.2019
5034 Clouds 15 1022 93 10000 3.1 60 04:41 04.11.2019
5035 Clouds 14 1023 93 10000 2.1 50 03:48 04.11.2019
5036 Clouds 15 1022 93 10000 3.1 40 01:46 04.11.2019
5037 Clouds 15 1022 93 10000 3.1 20 01:20 04.11.2019
5038 Clouds 14 1022 93 10000 2.1 20 00:39 04.11.2019
5039 Clouds 14 1022 93 10000 2.1 20 00:19 04.11.2019
5040 Clouds 15 1023 88 10000 1.5 30 23:40 03.11.2019
5041 Clouds 15 1023 88 10000 1.5 30 23:21 03.11.2019
5042 Clouds 15 1023 82 10000 1.5 20 22:57 03.11.2019
5043 Clouds 15 1023 82 10000 1.5 10 22:39 03.11.2019
5044 Clouds 15 1023 82 10000 1.5 10 22:19 03.11.2019
5045 Clouds 16 1023 77 10000 3.1 40 21:46 03.11.2019
5046 Clouds 16 1023 72 10000 2.6 50 21:22 03.11.2019
5047 Clouds 16 1023 72 10000 2.6 50 20:59 03.11.2019
5048 Clouds 17 1023 68 10000 2.6 50 20:38 03.11.2019
5049 Clouds 17 1023 68 10000 2.6 50 20:38 03.11.2019
5050 Clouds 17 1023 68 10000 2.6 50 20:38 03.11.2019
5051 Clouds 18 1023 68 10000 2.6 50 20:20 03.11.2019
5052 Clouds 18 1023 68 10000 3.6 100 19:58 03.11.2019
5053 Clouds 17 1022 60 10000 4.6 100 19:39 03.11.2019
5054 Clouds 18 1022 60 10000 4.6 100 19:21 03.11.2019
5055 Clouds 18 1022 64 10000 5.1 100 18:59 03.11.2019
5056 Clouds 18 1021 72 10000 2.6 140 18:38 03.11.2019
5057 Clouds 18 1021 72 10000 2.6 140 18:18 03.11.2019
5058 Clouds 19 1021 64 10000 4.1 120 17:56 03.11.2019
5059 Clouds 18 1021 60 10000 4.1 80 17:37 03.11.2019
5060 Clouds 18 1021 60 10000 4.1 80 17:18 03.11.2019
5061 Clouds 18 1020 60 10000 4.6 100 16:54 03.11.2019
5062 Clouds 19 1020 56 10000 5.7 110 16:36 03.11.2019
5063 Clouds 19 1020 56 10000 5.7 110 16:18 03.11.2019
5064 Clouds 21 1020 50 10000 6.7 110 15:43 03.11.2019
5065 Clouds 21 1020 50 10000 6.7 110 15:24 03.11.2019
5066 Clouds 22 1019 47 10000 6.2 130 14:56 03.11.2019
5067 Clouds 22 1019 44 10000 5.1 70 14:38 03.11.2019
5068 Clouds 25 1019 44 10000 5.1 70 14:18 03.11.2019
5069 Clouds 26 1019 50 10000 3.1 130 13:43 03.11.2019
5070 Clouds 23 1019 50 10000 3.1 130 13:20 03.11.2019
5071 Clouds 22 1020 44 10000 4.1 110 12:59 03.11.2019
5072 Clouds 22 1021 47 10000 3.6 150 12:37 03.11.2019
5073 Clouds 23 1021 47 10000 3.6 150 12:19 03.11.2019
5074 Clouds 22 1021 57 10000 4.1 140 11:44 03.11.2019
5075 Clouds 23 1021 57 10000 4.1 140 11:22 03.11.2019
5076 Clouds 22 1022 53 10000 3.1 150 10:58 03.11.2019
5077 Clouds 21 1022 56 10000 2.6 230 10:40 03.11.2019
5078 Clouds 20 1022 56 10000 2.6 230 10:22 03.11.2019
5079 Clouds 21 1023 60 10000 3.1 210 09:56 03.11.2019
5080 Clouds 22 1022 64 10000 2.1 110 09:38 03.11.2019
5081 Clouds 22 1022 64 10000 2.1 110 09:20 03.11.2019
5082 Clouds 21 1024 68 10000 3.1 200 08:40 03.11.2019
5083 Clouds 18 1024 68 10000 3.1 200 08:22 03.11.2019
5084 Clouds 18 1024 72 10000 2.6 170 07:46 03.11.2019
5085 Clouds 17 1023 82 10000 0.96 75 07:25 03.11.2019
5086 Clouds 17 1024 82 10000 2.6 190 06:50 03.11.2019
5087 Clouds 18 1023 82 10000 0.96 75 06:31 03.11.2019
5088 Clouds 15 1021 93 5000 2.6 270 05:39 03.11.2019
5089 Clouds 15 1022 93 10000 2.1 230 04:58 03.11.2019
5090 Clouds 15 1021 87 10000 0.29 93 04:36 03.11.2019
5091 Clouds 14 1022 93 10000 2.1 70 03:35 03.11.2019
5092 Clouds 15 1021 93 10000 4.1 70 02:42 03.11.2019
5093 Clouds 15 1021 93 10000 4.1 70 02:20 03.11.2019
5094 Clouds 15 1020 82 10000 3.6 30 01:39 03.11.2019
5095 Clouds 15 1020 82 10000 3.6 30 01:20 03.11.2019
5096 Clouds 15 1021 87 10000 2.6 50 00:45 03.11.2019
5097 Clouds 15 1021 87 10000 2.6 50 00:26 03.11.2019
5098 Clouds 15 1022 87 10000 3.6 30 23:58 02.11.2019
5099 Clouds 16 1022 87 10000 4.1 20 23:38 02.11.2019
5100 Clouds 16 1022 87 10000 4.1 20 23:19 02.11.2019
5101 Clouds 16 1022 87 10000 4.1 20 23:19 02.11.2019
5102 Clouds 16 1022 88 10000 3.1 10 22:55 02.11.2019
5103 Clouds 16 1021 82 10000 3.6 50 22:37 02.11.2019
5104 Clouds 15 1021 88 10000 2.15 96 22:18 02.11.2019
5105 Clouds 16 1021 88 10000 2.15 96 21:56 02.11.2019
5106 Clear 15 1022 82 10000 2.6 40 21:38 02.11.2019
5107 Clear 16 1022 82 10000 2.6 40 21:18 02.11.2019
5108 Clear 16 1022 82 10000 2.6 40 21:18 02.11.2019
5109 Clear 16 1022 82 10000 2.6 40 20:58 02.11.2019
5110 Clouds 16 1021 82 10000 2.15 96 20:39 02.11.2019
5111 Clouds 16 1021 82 10000 3.96 99 20:19 02.11.2019
5112 Clouds 17 1020 77 10000 3.96 99 19:41 02.11.2019
5113 Clouds 17 1020 77 10000 3.96 99 19:23 02.11.2019
5114 Clouds 18 1020 77 10000 3.96 99 18:57 02.11.2019
5115 Clouds 18 1020 77 10000 3.96 99 18:38 02.11.2019
5116 Clouds 18 1020 77 10000 3.96 99 18:20 02.11.2019
5117 Clouds 19 1019 60 10000 3.6 130 17:58 02.11.2019
5118 Clouds 19 1019 60 10000 3.6 130 17:39 02.11.2019
5119 Clouds 20 1019 53 10000 4.6 130 17:21 02.11.2019
5120 Clouds 20 1019 53 10000 4.6 130 16:57 02.11.2019
5121 Clouds 20 1018 56 10000 5.1 120 16:37 02.11.2019
5122 Clouds 22 1019 50 10000 5.1 140 16:18 02.11.2019
5123 Clouds 22 1018 53 10000 6.2 130 15:42 02.11.2019
5124 Clouds 22 1018 57 10000 6.2 120 15:20 02.11.2019
5125 Clouds 23 1018 50 10000 3.1 160 14:43 02.11.2019
5126 Clouds 25 1018 50 10000 3.1 160 14:24 02.11.2019
5127 Clouds 23 1018 53 10000 4.1 140 13:58 02.11.2019
5128 Clouds 23 1018 53 10000 4.1 140 13:39 02.11.2019
5129 Clouds 23 1018 53 10000 4.1 140 13:19 02.11.2019
5130 Clouds 23 1019 50 10000 3.6 170 12:56 02.11.2019
5131 Clouds 23 1019 57 10000 3.1 140 12:37 02.11.2019
5132 Clouds 23 1020 53 10000 2.1 100 12:18 02.11.2019
5133 Clouds 24 1019 60 10000 5.1 150 11:41 02.11.2019
5134 Clouds 22 1019 60 10000 5.1 150 11:23 02.11.2019
5135 Clouds 21 1021 60 10000 2.1 0 10:56 02.11.2019
5136 Clouds 21 1020 64 10000 1.54 135 10:38 02.11.2019
5137 Clouds 21 1020 64 10000 1.54 135 10:18 02.11.2019
5138 Clouds 21 1021 68 10000 1.54 135 09:40 02.11.2019
5139 Clouds 21 1021 68 10000 1.54 135 09:21 02.11.2019
5140 Clouds 19 1022 68 10000 2.1 130 08:50 02.11.2019
5141 Clouds 19 1022 82 10000 2.1 160 08:24 02.11.2019
5142 Clouds 19 1022 82 10000 2.1 160 08:24 02.11.2019
5143 Clouds 18 1023 72 10000 2.1 0 07:57 02.11.2019
5144 Clouds 18 1022 88 10000 1.63 131 07:39 02.11.2019
5145 Clouds 17 1023 77 10000 2.1 210 07:20 02.11.2019
5146 Clouds 17 1022 88 10000 2.1 240 06:46 02.11.2019
5147 Clouds 15 1022 88 10000 2.1 240 06:21 02.11.2019
5148 Clouds 16 1021 93 6000 1.5 180 05:38 02.11.2019
5149 Clouds 14 1021 93 10000 2.6 180 04:24 02.11.2019
5150 Clouds 14 1021 93 10000 1 0 03:51 02.11.2019
5151 Clouds 15 1021 93 10000 1 0 03:28 02.11.2019
5152 Clouds 15 1021 93 10000 1 0 02:19 02.11.2019
5153 Clouds 15 1021 93 10000 2.6 10 01:29 02.11.2019
5154 Clouds 15 1021 93 10000 2.6 10 00:56 02.11.2019
5155 Clouds 15 1021 93 10000 3.1 360 00:30 02.11.2019
5156 Clouds 14 1021 93 10000 1 0 23:56 01.11.2019
5157 Clouds 14 1021 93 10000 0.5 0 23:37 01.11.2019
5158 Clouds 15 1021 87 10000 1.5 240 23:19 01.11.2019
5159 Clouds 15 1022 88 10000 1 0 22:42 01.11.2019
5160 Clouds 16 1022 88 10000 1 0 22:20 01.11.2019
5161 Clouds 16 1021 88 10000 0.92 81 21:43 01.11.2019
5162 Clouds 16 1021 88 10000 0.92 81 21:43 01.11.2019
5163 Clouds 16 1021 88 10000 0.92 81 21:24 01.11.2019
5164 Clouds 15 1022 88 10000 2.1 40 20:59 01.11.2019
5165 Clouds 16 1022 82 10000 2.1 50 20:41 01.11.2019
5166 Clouds 15 1022 82 10000 2.1 50 20:22 01.11.2019
5167 Clouds 15 1022 82 10000 2.1 50 19:59 01.11.2019
5168 Clouds 16 1022 82 10000 2.1 40 19:40 01.11.2019
5169 Clouds 17 1022 82 10000 2.1 40 19:21 01.11.2019
5170 Clouds 17 1020 72 10000 3.1 120 18:41 01.11.2019
5171 Clouds 17 1020 72 10000 3.1 120 18:21 01.11.2019
5172 Clouds 17 1020 72 10000 3.1 90 17:58 01.11.2019
5173 Clouds 20 1020 68 10000 4.1 90 17:40 01.11.2019
5174 Clouds 20 1020 68 10000 4.1 90 17:22 01.11.2019
5175 Clouds 21 1019 49 10000 5.1 130 16:40 01.11.2019
5176 Clouds 21 1019 49 10000 5.1 130 16:20 01.11.2019
5177 Clouds 22 1019 44 10000 5.1 150 15:58 01.11.2019
5178 Clouds 22 1018 50 10000 7.2 120 15:40 01.11.2019
5179 Clouds 23 1019 47 10000 4.6 140 15:21 01.11.2019
5180 Clouds 23 1018 44 10000 5.1 140 14:44 01.11.2019
5181 Clouds 23 1018 44 10000 5.1 140 14:25 01.11.2019
5182 Clouds 23 1019 47 10000 4.6 120 13:59 01.11.2019
5183 Clouds 23 1019 47 10000 5.1 120 13:40 01.11.2019
5184 Clouds 23 1019 47 10000 5.1 120 13:40 01.11.2019
5185 Clouds 23 1019 47 10000 5.1 120 13:21 01.11.2019
5186 Clouds 23 1019 50 10000 4.6 140 12:55 01.11.2019
5187 Clouds 23 1019 50 10000 4.6 140 12:55 01.11.2019
5188 Clouds 23 1019 60 10000 4.16 146 12:37 01.11.2019
5189 Clouds 22 1020 57 10000 4.6 180 12:19 01.11.2019
5190 Clouds 22 1020 60 10000 3.6 170 11:41 01.11.2019
5191 Clouds 22 1020 60 10000 3.6 170 11:23 01.11.2019
5192 Clouds 22 1021 64 10000 4.1 140 10:44 01.11.2019
5193 Clouds 22 1021 64 10000 4.1 140 10:25 01.11.2019
5194 Clouds 22 1022 60 10000 2.6 110 09:59 01.11.2019
5195 Clouds 22 1022 60 10000 2.6 110 09:59 01.11.2019
5196 Clouds 22 1021 60 10000 4.1 130 09:41 01.11.2019
5197 Clouds 21 1023 64 10000 2.6 0 09:21 01.11.2019
5198 Clouds 21 1023 64 10000 2.6 0 08:54 01.11.2019
5199 Clouds 21 1022 68 10000 2.6 140 08:36 01.11.2019
5200 Clouds 20 1023 77 10000 2.1 70 08:18 01.11.2019
5201 Clouds 20 1022 77 10000 4.1 150 07:44 01.11.2019
5202 Clouds 20 1022 77 10000 4.1 150 07:22 01.11.2019
5203 Clouds 19 1023 82 10000 1.5 110 06:53 01.11.2019
5204 Clouds 17 1022 88 10000 1.5 80 06:22 01.11.2019
5205 Clouds 17 1022 93 10000 2.1 0 05:44 01.11.2019
5206 Clouds 15 1021 93 10000 2.1 30 04:55 01.11.2019
5207 Clouds 15 1021 87 10000 2.1 350 03:32 01.11.2019
5208 Clouds 14 1021 82 10000 2.6 180 01:46 01.11.2019
5209 Clouds 14 1022 88 10000 3.1 170 00:58 01.11.2019
5210 Clouds 14 1022 88 10000 3.1 170 00:20 01.11.2019
5211 Clouds 15 1022 88 10000 3.1 160 23:44 31.10.2019
5212 Clouds 16 1022 88 10000 3.1 160 23:24 31.10.2019
5213 Clouds 16 1022 93 10000 2.1 0 22:58 31.10.2019
5214 Clouds 16 1021 93 10000 2.6 90 22:40 31.10.2019
5215 Clouds 16 1021 93 10000 2.6 90 22:40 31.10.2019
5216 Clouds 16 1021 93 10000 2.6 90 22:21 31.10.2019
5217 Clouds 17 1021 88 10000 3.6 80 21:45 31.10.2019
5218 Clouds 17 1021 88 10000 3.6 80 21:23 31.10.2019
5219 Clouds 18 1022 82 10000 3.1 60 20:59 31.10.2019
5220 Clouds 18 1021 88 10000 4.6 90 20:40 31.10.2019
5221 Clouds 17 1021 88 10000 4.6 90 20:22 31.10.2019
5222 Clouds 18 1021 77 10000 2.1 70 19:46 31.10.2019
5223 Clouds 18 1021 77 10000 2.1 70 19:27 31.10.2019
5224 Clouds 19 1021 82 10000 4.1 70 18:59 31.10.2019
5225 Clouds 19 1020 73 10000 8.2 90 18:41 31.10.2019
5226 Clouds 18 1020 73 10000 8.2 90 18:22 31.10.2019
5227 Clouds 19 1020 73 10000 5.7 80 17:55 31.10.2019
5228 Clouds 19 1019 68 10000 6.2 80 17:36 31.10.2019
5229 Clouds 19 1019 68 10000 6.2 80 17:18 31.10.2019
5230 Clouds 21 1018 56 10000 5.1 70 16:41 31.10.2019
5231 Clouds 22 1019 57 10000 4.6 90 16:20 31.10.2019
5232 Clouds 21 1018 56 10000 5.1 70 16:20 31.10.2019
5233 Clouds 22 1019 57 10000 4.6 90 15:59 31.10.2019
5234 Clouds 22 1018 53 10000 5.1 100 15:40 31.10.2019
5235 Clouds 22 1018 53 10000 5.1 100 15:20 31.10.2019
5236 Clouds 23 1018 57 10000 3.1 90 14:57 31.10.2019
5237 Clouds 23 1018 53 10000 3.1 80 14:39 31.10.2019
5238 Clouds 23 1018 53 10000 3.1 80 14:39 31.10.2019
5239 Clouds 23 1018 53 10000 3.1 80 14:21 31.10.2019
5240 Clouds 23 1018 53 10000 3.6 80 13:57 31.10.2019
5241 Clouds 23 1018 53 10000 3.6 80 13:38 31.10.2019
5242 Clouds 23 1018 53 10000 3.6 80 13:19 31.10.2019
5243 Clouds 23 1020 57 10000 2.1 60 12:55 31.10.2019
5244 Clouds 23 1020 57 10000 2.1 60 12:55 31.10.2019
5245 Clouds 24 1020 60 10000 4.77 105 12:37 31.10.2019
5246 Clouds 22 1021 64 10000 2.6 70 12:18 31.10.2019
5247 Clouds 22 1021 60 10000 3.6 80 11:44 31.10.2019
5248 Clouds 20 1022 68 10000 2.6 40 11:20 31.10.2019
5249 Clouds 21 1022 68 10000 2.6 40 10:57 31.10.2019
5250 Clouds 21 1022 68 10000 2.6 40 10:57 31.10.2019
5251 Clouds 20 1023 77 10000 3.1 30 10:38 31.10.2019
5252 Clouds 19 1024 77 10000 3.1 20 10:20 31.10.2019
5253 Clouds 18 1024 88 10000 4.6 360 09:45 31.10.2019
5254 Clouds 18 1024 88 10000 4.6 360 09:20 31.10.2019
5255 Clouds 19 1024 88 10000 2.6 20 08:57 31.10.2019
5256 Rain 18 1024 93 10000 2.6 20 08:39 31.10.2019
5257 Rain 18 1024 93 10000 2.6 20 08:20 31.10.2019
5258 Clouds 18 1023 88 10000 3.1 10 07:45 31.10.2019
5259 Clouds 18 1023 88 10000 3.1 10 07:24 31.10.2019
5260 Clouds 16 1024 88 10000 3.1 360 06:52 31.10.2019
5261 Clouds 18 1023 93 10000 3.1 50 06:31 31.10.2019
5262 Clouds 15 1023 93 10000 2.6 70 05:20 31.10.2019
5263 Clouds 15 1021 93 10000 1.31 55 02:50 31.10.2019
5264 Clouds 15 1021 93 10000 3.1 30 02:25 31.10.2019
5265 Clouds 15 1021 93 10000 2.1 30 01:20 31.10.2019
5266 Clouds 15 1021 93 10000 3.1 30 00:26 31.10.2019
5267 Clouds 18 1021 93 10000 2.6 10 23:49 30.10.2019
5268 Clouds 17 1021 93 10000 2.6 10 23:25 30.10.2019
5269 Rain 16 1021 100 10000 1.67 49 22:42 30.10.2019
5270 Rain 16 1021 100 10000 1.67 49 22:20 30.10.2019
5271 Rain 17 1022 93 10000 3.6 60 21:55 30.10.2019
5272 Clouds 17 1021 93 10000 1.67 49 21:37 30.10.2019
5273 Clouds 17 1021 93 10000 1.67 49 21:18 30.10.2019
5274 Clouds 17 1021 88 10000 2.6 40 20:58 30.10.2019
5275 Clouds 17 1021 88 10000 2.6 40 20:39 30.10.2019
5276 Clouds 17 1021 88 10000 2.6 40 20:20 30.10.2019
5277 Clouds 17 1022 88 10000 4.1 30 19:54 30.10.2019
5278 Rain 16 1021 88 10000 3.1 50 19:36 30.10.2019
5279 Rain 18 1021 88 10000 3.1 50 19:18 30.10.2019
5280 Clouds 18 1020 64 10000 4.1 70 18:39 30.10.2019
5281 Clouds 19 1020 77 10000 5.1 70 18:19 30.10.2019
5282 Clouds 19 1020 77 10000 5.1 70 17:56 30.10.2019
5283 Clouds 19 1019 64 10000 3.1 70 17:38 30.10.2019
5284 Clouds 19 1019 64 10000 3.1 70 17:38 30.10.2019
5285 Clouds 19 1019 64 10000 3.1 70 17:18 30.10.2019
5286 Clouds 20 1019 77 10000 6.7 80 16:55 30.10.2019
5287 Clouds 19 1018 60 10000 5.1 50 16:36 30.10.2019
5288 Clouds 20 1018 60 10000 5.1 50 16:18 30.10.2019
5289 Clouds 22 1017 50 10000 5.1 50 15:41 30.10.2019
5290 Clouds 22 1017 50 10000 5.1 50 15:21 30.10.2019
5291 Clouds 21 1018 53 10000 5.7 60 14:59 30.10.2019
5292 Clouds 21 1018 57 10000 5.1 60 14:41 30.10.2019
5293 Clouds 23 1018 57 10000 5.1 60 14:22 30.10.2019
5294 Clouds 23 1018 53 10000 5.1 80 13:58 30.10.2019
5295 Clouds 22 1019 53 10000 5.7 60 13:39 30.10.2019
5296 Clouds 24 1019 53 10000 5.7 60 13:20 30.10.2019
5297 Clouds 23 1019 57 10000 5.7 60 12:56 30.10.2019
5298 Clouds 22 1019 53 10000 4.6 50 12:37 30.10.2019
5299 Clouds 23 1019 53 10000 4.6 50 12:19 30.10.2019
5300 Clouds 22 1020 64 10000 3.1 50 11:41 30.10.2019
5301 Clouds 22 1020 64 10000 3.1 50 11:22 30.10.2019
5302 Clouds 21 1021 68 10000 2.6 70 10:45 30.10.2019
5303 Clouds 21 1021 68 10000 2.6 70 10:26 30.10.2019
5304 Clouds 21 1022 68 10000 2.1 80 09:58 30.10.2019
5305 Clouds 20 1022 73 10000 1.5 0 09:39 30.10.2019
5306 Clouds 19 1022 73 10000 1.5 0 09:19 30.10.2019
5307 Clouds 19 1022 82 10000 2.99 83 08:41 30.10.2019
5308 Clouds 19 1022 82 10000 2.72 40 08:22 30.10.2019
5309 Clouds 18 1023 88 10000 1 0 07:51 30.10.2019
5310 Clouds 17 1022 93 10000 2.6 80 07:33 30.10.2019
5311 Clouds 16 1022 93 10000 2.1 40 06:43 30.10.2019
5312 Clouds 16 1022 93 10000 2.1 40 06:43 30.10.2019
5313 Clouds 15 1022 93 10000 2.1 40 06:23 30.10.2019
5314 Clouds 14 1022 93 10000 2.1 30 05:54 30.10.2019
5315 Clouds 14 1022 93 10000 2.6 50 05:35 30.10.2019
5316 Clouds 15 1021 93 10000 2.1 70 03:47 30.10.2019
5317 Clouds 16 1019 93 10000 2.1 30 03:20 30.10.2019
5318 Clouds 15 1019 93 10000 1.5 20 02:39 30.10.2019
5319 Clouds 15 1019 88 10000 2.1 50 01:42 30.10.2019
5320 Clouds 16 1019 82 10000 3.6 40 00:32 30.10.2019
5321 Clouds 16 1021 93 10000 2.6 10 23:49 29.10.2019
5322 Clouds 16 1021 93 10000 2.6 10 23:30 29.10.2019
5323 Clouds 16 1021 93 10000 3.1 360 22:57 29.10.2019
5324 Clouds 16 1021 88 10000 3.6 360 22:39 29.10.2019
5325 Clouds 15 1021 88 10000 3.6 360 22:19 29.10.2019
5326 Clouds 15 1021 93 10000 2.6 320 21:55 29.10.2019
5327 Clouds 16 1021 88 10000 2.22 62 21:36 29.10.2019
5328 Clouds 15 1021 88 10000 2.22 62 21:18 29.10.2019
5329 Clouds 16 1022 82 10000 1.5 70 20:41 29.10.2019
5330 Clouds 15 1022 82 10000 1.5 70 20:22 29.10.2019
5331 Clouds 15 1021 88 10000 1 0 19:58 29.10.2019
5332 Drizzle 16 1021 88 10000 2.1 120 19:39 29.10.2019
5333 Drizzle 15 1021 88 10000 2.1 120 19:20 29.10.2019
5334 Clouds 15 1020 88 10000 2.1 300 18:57 29.10.2019
5335 Rain 16 1020 88 10000 3.6 150 18:38 29.10.2019
5336 Rain 16 1020 88 10000 3.6 150 18:19 29.10.2019
5337 Thunderstorm 16 1020 93 10000 3.1 210 17:56 29.10.2019
5338 Thunderstorm 16 1020 93 9000 5.7 170 17:37 29.10.2019
5339 Thunderstorm 18 1018 68 10000 5.7 90 17:19 29.10.2019
5340 Rain 19 1017 53 10000 3.6 50 16:40 29.10.2019
5341 Rain 19 1017 53 10000 3.6 50 16:21 29.10.2019
5342 Rain 20 1017 53 10000 4.1 50 15:58 29.10.2019
5343 Clouds 20 1017 53 10000 5.7 50 15:39 29.10.2019
5344 Clouds 21 1017 53 10000 5.7 50 15:20 29.10.2019
5345 Clouds 21 1016 53 10000 6.7 70 14:56 29.10.2019
5346 Clouds 22 1016 53 10000 7.2 60 14:38 29.10.2019
5347 Clouds 22 1016 53 10000 7.2 60 14:19 29.10.2019
5348 Clouds 23 1017 50 10000 5.1 50 13:40 29.10.2019
5349 Clouds 23 1017 50 10000 5.1 50 13:40 29.10.2019
5350 Clouds 23 1017 50 10000 5.1 50 13:22 29.10.2019
5351 Clouds 23 1017 50 10000 5.1 50 13:22 29.10.2019
5352 Clouds 23 1017 50 10000 5.1 70 12:56 29.10.2019
5353 Clouds 23 1018 53 10000 5.7 80 12:37 29.10.2019
5354 Clouds 23 1018 53 10000 5.7 80 12:19 29.10.2019
5355 Rain 22 1008 58 0 2.68 114 11:42 29.10.2019
5356 Rain 22 1008 54 0 1.79 128 11:42 29.10.2019
5357 Rain 22 1008 59 0 1.79 157 11:22 29.10.2019
5358 Clouds 23 1020 57 10000 4.1 60 10:58 29.10.2019
5359 Clouds 22 1021 60 10000 4.6 20 10:39 29.10.2019
5360 Clouds 21 1021 60 10000 4.6 20 10:20 29.10.2019
5361 Clouds 23 1021 60 10000 4.6 20 09:58 29.10.2019
5362 Clouds 22 1021 68 10000 5.1 40 09:40 29.10.2019
5363 Clouds 20 1021 68 10000 5.1 40 09:21 29.10.2019
5364 Clouds 21 1021 73 10000 4.6 30 08:45 29.10.2019
5365 Clouds 20 1022 68 10000 3.1 40 08:26 29.10.2019
5366 Clouds 19 1022 72 10000 2.6 40 07:55 29.10.2019
5367 Clouds 18 1022 88 10000 1.5 40 07:37 29.10.2019
5368 Clouds 18 1022 88 10000 1.5 40 07:18 29.10.2019
5369 Clouds 17 1021 88 10000 2.6 80 06:45 29.10.2019
5370 Clouds 17 1021 88 10000 2.6 80 06:26 29.10.2019
5371 Clouds 16 1020 93 10000 3.1 80 05:50 29.10.2019
5372 Clouds 15 1020 93 10000 2.6 70 05:30 29.10.2019
5373 Clouds 15 1018 93 10000 1.15 57 04:32 29.10.2019
5374 Clouds 15 1018 93 10000 1.5 60 02:33 29.10.2019
5375 Clouds 14 1018 93 10000 1 10 01:47 29.10.2019
5376 Clouds 14 1018 93 10000 1 10 01:22 29.10.2019
5377 Clouds 14 1019 93 10000 1.5 40 00:48 29.10.2019
5378 Clouds 15 1019 88 10000 2.1 40 23:44 28.10.2019
5379 Clouds 16 1019 88 10000 2.1 40 23:21 28.10.2019
5380 Clouds 17 1020 82 10000 2.6 60 22:59 28.10.2019
5381 Clouds 16 1019 88 10000 1.98 22 22:38 28.10.2019
5382 Clouds 16 1019 88 10000 1.98 22 22:18 28.10.2019
5383 Clouds 17 1020 82 10000 1.98 22 21:56 28.10.2019
5384 Clouds 17 1020 82 10000 1.98 22 21:38 28.10.2019
5385 Clouds 17 1020 82 10000 1.98 22 21:20 28.10.2019
5386 Clouds 17 1021 82 10000 3.6 10 20:54 28.10.2019
5387 Clouds 17 1019 82 10000 3.1 350 20:36 28.10.2019
5388 Clouds 18 1020 82 10000 6.2 40 20:18 28.10.2019
5389 Clouds 17 1020 77 10000 5.7 30 19:40 28.10.2019
5390 Clouds 18 1019 77 10000 6.7 70 19:21 28.10.2019
5391 Clouds 18 1019 77 10000 6.7 70 18:59 28.10.2019
5392 Clouds 18 1018 73 10000 4.6 90 18:41 28.10.2019
5393 Clouds 20 1018 73 10000 4.6 90 18:22 28.10.2019
5394 Clouds 20 1018 73 10000 4.6 80 17:57 28.10.2019
5395 Clouds 20 1016 64 10000 7.2 70 17:39 28.10.2019
5396 Clouds 20 1016 64 10000 7.2 70 17:20 28.10.2019
5397 Clouds 20 1017 64 10000 6.2 80 16:58 28.10.2019
5398 Clouds 19 1016 60 10000 5.7 80 16:40 28.10.2019
5399 Clouds 21 1016 60 10000 5.7 80 16:21 28.10.2019
5400 Clouds 22 1016 53 10000 7.2 90 15:59 28.10.2019
5401 Clouds 22 1015 53 10000 4.1 50 15:40 28.10.2019
5402 Clouds 23 1015 53 10000 4.1 50 15:21 28.10.2019
5403 Clouds 23 1016 50 10000 6.2 70 14:58 28.10.2019
5404 Clouds 23 1016 47 10000 4.6 90 14:40 28.10.2019
5405 Clouds 23 1016 47 10000 4.6 90 14:19 28.10.2019
5406 Clouds 24 1016 50 10000 4.6 90 13:58 28.10.2019
5407 Clouds 24 1016 47 10000 6.2 70 13:40 28.10.2019
5408 Clouds 24 1016 47 10000 6.2 70 13:18 28.10.2019
5409 Clouds 23 1017 53 10000 5.1 90 12:43 28.10.2019
5410 Clouds 23 1017 53 10000 5.1 90 12:21 28.10.2019
5411 Clouds 23 1018 57 10000 5.7 50 11:57 28.10.2019
5412 Clouds 23 1020 60 10000 3.1 50 11:37 28.10.2019
5413 Clouds 23 1020 60 10000 3.1 50 11:18 28.10.2019
5414 Clouds 22 1021 60 10000 2.6 70 10:40 28.10.2019
5415 Clouds 22 1021 60 10000 2.6 70 10:21 28.10.2019
5416 Clouds 22 1021 60 10000 3.1 50 09:57 28.10.2019
5417 Clouds 21 1021 68 10000 3.1 90 09:39 28.10.2019
5418 Clouds 21 1021 68 10000 3.1 60 09:19 28.10.2019
5419 Clouds 20 1021 68 10000 3.1 60 08:57 28.10.2019
5420 Clouds 21 1021 73 10000 2.1 90 08:38 28.10.2019
5421 Clouds 19 1021 73 10000 2.1 90 08:19 28.10.2019
5422 Clouds 19 1021 73 10000 2.1 90 07:56 28.10.2019
5423 Clouds 19 1021 73 10000 2.1 90 07:56 28.10.2019
5424 Clouds 18 1020 88 10000 1.8 103 07:36 28.10.2019
5425 Clouds 17 1012 78 0 0.89 130 07:18 28.10.2019
5426 Clouds 19 1015 77 0 1.8 103 06:39 28.10.2019
5427 Clouds 13 1010 86 0 1.8 103 05:41 28.10.2019
5428 Rain 13 1009 87 0 2.68 86 03:48 28.10.2019
5429 Rain 13 1008 86 0 1.34 82 02:46 28.10.2019
5430 Rain 13 1008 86 0 1.79 76 02:27 28.10.2019
5431 Rain 14 1008 86 0 4.92 88 00:57 28.10.2019
5432 Rain 14 1008 84 0 3.58 71 00:33 28.10.2019
5433 Rain 14 1009 85 0 4.47 100 23:47 27.10.2019
5434 Rain 14 1009 86 0 4.02 104 23:24 27.10.2019
5435 Rain 14 1010 87 0 4.92 108 22:58 27.10.2019
5436 Rain 14 1010 87 0 4.47 109 22:40 27.10.2019
5437 Rain 14 1010 87 0 4.02 99 22:21 27.10.2019
5438 Rain 14 1010 87 0 4.02 99 22:21 27.10.2019
5439 Rain 15 1010 87 0 4.47 102 21:57 27.10.2019
5440 Rain 15 1010 86 0 4.47 107 21:39 27.10.2019
5441 Rain 15 1010 86 0 4.47 107 21:39 27.10.2019
5442 Rain 15 1010 87 0 4.47 112 21:21 27.10.2019
5443 Rain 15 1010 87 0 4.47 94 20:56 27.10.2019
5444 Rain 15 1011 86 0 3.13 107 20:38 27.10.2019
5445 Rain 15 1011 86 0 4.02 117 20:20 27.10.2019
5446 Rain 16 1010 86 0 4.92 121 19:55 27.10.2019
5447 Rain 16 1010 85 0 4.92 110 19:36 27.10.2019
5448 Rain 16 1010 85 0 3.13 103 19:18 27.10.2019
5449 Rain 16 1010 84 0 3.13 124 18:55 27.10.2019
5450 Rain 16 1009 85 0 4.02 98 18:36 27.10.2019
5451 Rain 16 1009 84 0 3.13 92 18:18 27.10.2019
5452 Rain 16 1009 84 0 3.13 101 17:40 27.10.2019
5453 Rain 16 1008 83 0 2.68 98 17:20 27.10.2019
5454 Clouds 21 1017 50 10000 6.2 80 16:58 27.10.2019
5455 Clouds 21 1017 50 10000 6.2 80 16:39 27.10.2019
5456 Clouds 23 1017 50 10000 6.2 80 16:21 27.10.2019
5457 Clouds 23 1017 50 10000 6.2 80 15:56 27.10.2019
5458 Clouds 23 1016 47 10000 3.6 80 15:38 27.10.2019
5459 Clouds 23 1016 47 10000 3.6 80 15:19 27.10.2019
5460 Clouds 23 1016 44 10000 5.1 90 14:43 27.10.2019
5461 Clouds 24 1016 44 10000 5.1 90 14:21 27.10.2019
5462 Clouds 23 1017 50 10000 3.6 100 13:58 27.10.2019
5463 Clouds 23 1017 50 10000 7.2 100 13:39 27.10.2019
5464 Clouds 24 1017 50 10000 7.2 100 13:21 27.10.2019
5465 Clouds 23 1018 47 10000 3.6 80 12:59 27.10.2019
5466 Clouds 23 1019 53 10000 3.6 70 12:40 27.10.2019
5467 Clouds 23 1019 57 10000 3.6 100 12:22 27.10.2019
5468 Clouds 23 1019 57 10000 4.1 80 11:41 27.10.2019
5469 Clouds 23 1019 57 10000 4.1 80 11:23 27.10.2019
5470 Clouds 22 1021 64 10000 2.1 0 10:45 27.10.2019
5471 Clouds 21 1021 64 10000 2.1 0 10:26 27.10.2019
5472 Clouds 22 1021 60 10000 1.5 0 09:58 27.10.2019
5473 Clouds 22 1021 60 10000 3.6 150 09:39 27.10.2019
5474 Clouds 22 1022 64 10000 2.1 80 09:19 27.10.2019
5475 Clouds 22 1022 64 10000 2.1 80 08:56 27.10.2019
5476 Clouds 21 1021 60 10000 2.6 170 08:37 27.10.2019
5477 Clouds 21 1021 60 10000 2.6 170 08:37 27.10.2019
5478 Clouds 21 1021 60 10000 2.6 170 08:37 27.10.2019
5479 Clouds 21 1021 60 10000 2.6 170 08:18 27.10.2019
5480 Clouds 18 1022 77 10000 1.5 0 07:45 27.10.2019
5481 Clouds 18 1022 77 10000 1.5 0 07:25 27.10.2019
5482 Clouds 18 1022 77 10000 1.5 0 07:25 27.10.2019
5483 Clouds 18 1022 82 10000 2.1 40 06:52 27.10.2019
5484 Clouds 18 1021 88 10000 1.89 93 06:29 27.10.2019
5485 Clouds 16 1021 93 10000 1.89 93 05:46 27.10.2019
5486 Clouds 16 1020 93 10000 1 10 04:56 27.10.2019
5487 Clouds 12 1011 93 0 0.45 121 03:34 27.10.2019
5488 Clouds 15 1019 93 10000 3.6 40 02:25 27.10.2019
5489 Clouds 16 1020 93 10000 2.6 50 01:24 27.10.2019
5490 Clouds 16 1020 88 10000 2.6 70 00:52 27.10.2019
5491 Clouds 17 1020 88 10000 2.6 70 00:52 27.10.2019
5492 Clouds 16 1020 88 10000 2.6 70 00:33 27.10.2019
5493 Clouds 16 1020 88 10000 2.6 80 23:57 26.10.2019
5494 Clouds 15 1021 93 10000 3.1 50 23:39 26.10.2019
5495 Clouds 16 1021 88 10000 1 0 23:21 26.10.2019
5496 Clouds 16 1021 88 10000 1 0 22:57 26.10.2019
5497 Clouds 15 1022 93 10000 1 0 22:38 26.10.2019
5498 Clouds 16 1022 93 10000 1 0 22:19 26.10.2019
5499 Clouds 15 1021 88 10000 2.1 30 21:55 26.10.2019
5500 Clouds 15 1022 88 10000 2.6 60 21:36 26.10.2019
5501 Clouds 16 1022 88 10000 2.6 60 21:18 26.10.2019
5502 Clouds 17 1020 88 10000 4.1 40 20:42 26.10.2019
5503 Clouds 16 1020 88 10000 4.1 40 20:19 26.10.2019
5504 Clouds 16 1021 82 10000 4.1 90 19:42 26.10.2019
5505 Clouds 17 1021 82 10000 4.1 90 19:21 26.10.2019
5506 Clouds 17 1020 82 10000 4.1 70 18:58 26.10.2019
5507 Clouds 17 1019 77 10000 5.7 80 18:39 26.10.2019
5508 Clouds 17 1019 77 10000 5.7 80 18:20 26.10.2019
5509 Clouds 17 1019 77 10000 5.7 80 18:20 26.10.2019
5510 Clouds 18 1019 77 10000 3.6 90 17:58 26.10.2019
5511 Clouds 18 1018 82 10000 4.1 100 17:39 26.10.2019
5512 Clouds 18 1018 82 10000 4.1 100 17:20 26.10.2019
5513 Clouds 19 1018 82 10000 5.39 108 16:46 26.10.2019
5514 Clouds 19 1018 82 10000 5.39 108 16:25 26.10.2019
5515 Clouds 19 1019 77 10000 2.6 140 15:59 26.10.2019
5516 Clouds 20 1018 64 10000 6.2 80 15:40 26.10.2019
5517 Clouds 22 1018 68 10000 6.2 90 15:18 26.10.2019
5518 Clouds 22 1018 64 10000 5.1 70 14:40 26.10.2019
5519 Rain 23 1011 64 0 4.81 117 14:20 26.10.2019
5520 Rain 23 1011 64 0 4.81 117 13:58 26.10.2019
5521 Rain 23 1011 64 0 4.81 117 13:37 26.10.2019
5522 Rain 23 1011 64 0 4.81 117 13:19 26.10.2019
5523 Rain 17 1011 86 0 0.89 294 12:44 26.10.2019
5524 Rain 17 1011 86 0 0.89 294 12:44 26.10.2019
5525 Rain 19 1021 93 5000 3.1 20 12:21 26.10.2019
5526 Rain 18 1021 93 5000 3.1 20 11:48 26.10.2019
5527 Rain 19 1021 93 5000 3.1 20 11:25 26.10.2019
5528 Rain 18 1022 100 5000 4.03 117 10:47 26.10.2019
5529 Rain 18 1022 100 5000 4.03 117 10:27 26.10.2019
5530 Rain 18 1022 100 5000 4.03 117 10:27 26.10.2019
5531 Clouds 18 1022 88 10000 3.6 80 09:50 26.10.2019
5532 Drizzle 18 1022 93 5000 3.6 80 09:30 26.10.2019
5533 Rain 18 1023 93 6000 3.1 60 08:57 26.10.2019
5534 Drizzle 18 1021 88 10000 3.6 60 08:39 26.10.2019
5535 Drizzle 18 1021 88 10000 3.6 60 08:21 26.10.2019
5536 Drizzle 17 1021 93 10000 3.6 70 07:43 26.10.2019
5537 Drizzle 17 1021 93 10000 3.6 70 07:23 26.10.2019
5538 Clouds 17 1020 93 10000 3.6 60 06:41 26.10.2019
5539 Drizzle 16 1019 93 10000 3.1 60 05:59 26.10.2019
5540 Drizzle 16 1019 93 10000 3.1 60 05:19 26.10.2019
5541 Clouds 15 1020 93 10000 4.1 70 03:56 26.10.2019
5542 Clouds 15 1020 93 10000 2.6 30 02:37 26.10.2019
5543 Clouds 15 1020 93 10000 4.6 100 01:48 26.10.2019
5544 Clouds 15 1020 93 10000 4.6 100 00:58 26.10.2019
5545 Clouds 16 1020 93 10000 4.6 100 00:18 26.10.2019
5546 Clouds 17 1020 93 10000 5.1 90 23:40 25.10.2019
5547 Clouds 17 1020 93 10000 5.1 90 23:19 25.10.2019
5548 Clouds 16 1022 88 10000 6.2 90 22:40 25.10.2019
5549 Clouds 17 1022 88 10000 6.2 90 22:22 25.10.2019
5550 Clouds 18 1021 88 10000 5.7 80 21:57 25.10.2019
5551 Clouds 18 1020 82 10000 5.7 70 21:39 25.10.2019
5552 Clouds 17 1020 82 10000 5.7 70 21:19 25.10.2019
5553 Clouds 18 1021 82 10000 5.7 80 20:45 25.10.2019
5554 Clouds 18 1020 82 10000 5.1 70 20:20 25.10.2019
5555 Clouds 18 1021 82 10000 5.7 80 20:20 25.10.2019
5556 Clouds 18 1020 82 10000 5.1 70 19:59 25.10.2019
5557 Clouds 18 1019 77 10000 5.7 50 19:40 25.10.2019
5558 Clouds 18 1019 77 10000 5.7 50 19:22 25.10.2019
5559 Clouds 19 1018 68 10000 6.7 70 18:43 25.10.2019
5560 Clouds 19 1018 68 10000 6.7 70 18:21 25.10.2019
5561 Clouds 20 1018 60 10000 6.7 80 17:41 25.10.2019
5562 Clouds 20 1018 60 10000 6.7 80 17:21 25.10.2019
5563 Clouds 21 1019 56 10000 5.7 70 16:54 25.10.2019
5564 Clouds 21 1018 56 10000 5.7 60 16:36 25.10.2019
5565 Clouds 21 1018 56 10000 5.7 60 16:18 25.10.2019
5566 Clouds 22 1017 53 10000 4.1 80 15:40 25.10.2019
5567 Clouds 23 1018 57 10000 5.1 80 15:21 25.10.2019
5568 Clouds 23 1018 57 10000 5.1 80 14:57 25.10.2019
5569 Clouds 23 1018 53 10000 5.7 70 14:38 25.10.2019
5570 Clouds 22 1018 60 10000 5.7 80 14:20 25.10.2019
5571 Clouds 21 1019 60 10000 4.6 80 13:41 25.10.2019
5572 Clouds 22 1019 60 10000 4.6 80 13:22 25.10.2019
5573 Clouds 21 1019 64 10000 4.6 90 12:55 25.10.2019
5574 Clouds 21 1020 64 10000 5.1 70 12:37 25.10.2019
5575 Clouds 21 1020 64 10000 5.1 70 12:18 25.10.2019
5576 Clouds 20 1022 73 10000 4.6 80 11:40 25.10.2019
5577 Clouds 20 1022 73 10000 4.6 80 11:22 25.10.2019
5578 Rain 22 1022 68 10000 4.1 50 10:57 25.10.2019
5579 Clouds 21 1023 68 10000 5.1 50 10:38 25.10.2019
5580 Clouds 21 1023 68 10000 5.1 50 10:19 25.10.2019
5581 Clouds 20 1022 68 10000 7.2 90 09:42 25.10.2019
5582 Clouds 20 1022 68 10000 7.2 90 09:21 25.10.2019
5583 Clouds 19 1023 77 10000 4.6 50 08:59 25.10.2019
5584 Clouds 18 1022 77 10000 6.7 30 08:41 25.10.2019
5585 Clouds 18 1022 77 10000 6.7 30 08:22 25.10.2019
5586 Clouds 17 1023 88 10000 3.1 40 07:47 25.10.2019
5587 Clouds 17 1023 88 10000 3.1 40 07:28 25.10.2019
5588 Clouds 17 1021 93 10000 2.6 60 06:38 25.10.2019
5589 Clouds 14 1021 93 10000 2.6 20 05:49 25.10.2019
5590 Clouds 15 1021 93 10000 2.6 20 05:30 25.10.2019
5591 Clouds 15 1021 93 10000 2.6 30 04:36 25.10.2019
5592 Clouds 15 1020 93 10000 4.6 80 02:42 25.10.2019
5593 Clouds 15 1020 93 10000 4.6 80 01:53 25.10.2019
5594 Clouds 16 1021 93 10000 2.6 50 00:36 25.10.2019
5595 Clouds 16 1021 88 10000 2.6 60 23:56 24.10.2019
5596 Clouds 16 1022 88 10000 3.1 90 23:37 24.10.2019
5597 Clouds 16 1022 82 10000 5.1 80 23:19 24.10.2019
5598 Clouds 17 1022 77 10000 4.6 80 22:39 24.10.2019
5599 Rain 18 1022 82 10000 5.1 70 22:19 24.10.2019
5600 Rain 18 1022 82 10000 5.1 70 21:58 24.10.2019
5601 Clouds 18 1021 72 10000 2.6 60 21:40 24.10.2019
5602 Clouds 18 1022 77 10000 3.6 50 21:20 24.10.2019
5603 Clouds 18 1022 77 10000 3.6 50 20:59 24.10.2019
5604 Clouds 18 1020 72 10000 3.1 60 20:40 24.10.2019
5605 Clouds 18 1020 72 10000 3.1 60 20:22 24.10.2019
5606 Clouds 17 1021 68 10000 4.1 70 19:58 24.10.2019
5607 Clouds 18 1021 72 10000 3.1 70 19:40 24.10.2019
5608 Clouds 19 1020 68 10000 3.1 70 19:22 24.10.2019
5609 Clouds 19 1020 68 10000 3.1 70 18:57 24.10.2019
5610 Clouds 19 1019 68 10000 3.1 80 18:38 24.10.2019
5611 Rain 16 1010 82 0 1.34 44 18:19 24.10.2019
5612 Clouds 19 1019 56 10000 4.6 80 17:42 24.10.2019
5613 Clouds 20 1019 56 10000 4.6 80 17:21 24.10.2019
5614 Clouds 20 1018 73 10000 7.7 70 16:58 24.10.2019
5615 Clouds 21 1018 73 10000 7.7 70 16:40 24.10.2019
5616 Clouds 21 1018 73 10000 7.7 70 16:22 24.10.2019
5617 Clouds 22 1019 60 10000 9.3 70 15:59 24.10.2019
5618 Clouds 22 1018 69 10000 5.1 30 15:40 24.10.2019
5619 Clouds 23 1018 69 10000 5.1 30 15:22 24.10.2019
5620 Clouds 22 1019 57 10000 4.6 90 14:58 24.10.2019
5621 Clouds 22 1019 64 10000 3.6 80 14:40 24.10.2019
5622 Clouds 22 1019 64 10000 3.6 80 14:20 24.10.2019
5623 Clouds 23 1020 57 10000 5.1 80 13:42 24.10.2019
5624 Clouds 23 1020 57 10000 5.1 80 13:20 24.10.2019
5625 Clouds 23 1020 57 10000 5.1 80 12:58 24.10.2019
5626 Clouds 23 1020 60 10000 5.1 60 12:40 24.10.2019
5627 Clouds 22 1020 60 10000 5.1 60 12:20 24.10.2019
5628 Clouds 22 1021 64 10000 4.6 50 11:57 24.10.2019
5629 Clouds 21 1022 68 10000 3.1 50 11:38 24.10.2019
5630 Clouds 21 1023 73 10000 4.1 80 11:20 24.10.2019
5631 Clouds 21 1023 73 10000 4.1 80 10:59 24.10.2019
5632 Clouds 21 1023 73 10000 4.1 70 10:39 24.10.2019
5633 Clouds 20 1024 77 10000 3.6 50 10:21 24.10.2019
5634 Clouds 19 1024 82 10000 4.1 30 09:39 24.10.2019
5635 Clouds 19 1024 82 10000 4.1 30 09:39 24.10.2019
5636 Clouds 18 1024 88 10000 5.1 30 09:19 24.10.2019
5637 Clouds 18 1024 88 10000 4.6 40 08:55 24.10.2019
5638 Clouds 18 1024 88 10000 4.6 40 08:37 24.10.2019
5639 Clouds 17 1024 88 10000 4.6 40 08:18 24.10.2019
5640 Clouds 17 1023 88 10000 5.1 50 07:45 24.10.2019
5641 Clouds 16 1023 88 10000 5.1 50 07:22 24.10.2019
5642 Clouds 17 1023 88 10000 3.1 30 06:47 24.10.2019
5643 Clouds 15 1022 93 10000 2.6 20 06:24 24.10.2019
5644 Clouds 14 1022 93 10000 2.6 20 05:49 24.10.2019
5645 Clouds 13 1022 100 10000 2.1 350 05:28 24.10.2019
5646 Rain 13 1021 100 10000 3.6 30 03:38 24.10.2019
5647 Rain 14 1021 100 10000 3.6 30 03:18 24.10.2019
5648 Rain 15 1020 100 10000 2.6 50 02:26 24.10.2019
5649 Rain 15 1020 100 7000 3.1 60 01:52 24.10.2019
5650 Rain 15 1020 93 7000 3.1 60 01:28 24.10.2019
5651 Rain 15 1020 93 10000 4.1 40 00:44 24.10.2019
5652 Rain 15 1020 93 10000 4.1 40 00:23 24.10.2019
5653 Rain 15 1021 93 10000 3.1 10 23:43 23.10.2019
5654 Rain 17 1021 93 10000 3.1 10 23:23 23.10.2019
5655 Rain 16 1021 88 10000 3.1 40 22:57 23.10.2019
5656 Clouds 16 1021 88 10000 3.1 20 22:38 23.10.2019
5657 Clouds 16 1021 88 10000 3.1 20 22:19 23.10.2019
5658 Rain 17 1021 88 10000 4.1 120 21:57 23.10.2019
5659 Rain 17 1021 88 10000 4.1 120 21:38 23.10.2019
5660 Rain 16 1021 88 10000 4.1 120 21:20 23.10.2019
5661 Clouds 17 1021 77 10000 3.1 80 20:58 23.10.2019
5662 Clouds 17 1020 77 10000 4.1 50 20:39 23.10.2019
5663 Clouds 19 1020 77 10000 4.1 50 20:20 23.10.2019
5664 Clouds 19 1020 72 10000 4.1 80 19:57 23.10.2019
5665 Clouds 19 1018 68 10000 4.6 70 19:38 23.10.2019
5666 Clouds 19 1018 68 10000 4.6 70 19:18 23.10.2019
5667 Clouds 19 1018 77 10000 5.7 70 18:55 23.10.2019
5668 Clouds 19 1018 77 10000 5.7 70 18:55 23.10.2019
5669 Clouds 19 1018 60 10000 4.6 70 18:36 23.10.2019
5670 Clouds 19 1018 60 10000 4.6 70 18:36 23.10.2019
5671 Clouds 20 1018 68 10000 4.1 70 18:18 23.10.2019
5672 Clouds 21 1016 56 10000 7.7 60 17:43 23.10.2019
5673 Clouds 22 1017 57 10000 5.7 50 17:20 23.10.2019
5674 Clouds 22 1017 57 10000 5.7 50 16:56 23.10.2019
5675 Clouds 22 1016 50 10000 5.1 40 16:38 23.10.2019
5676 Clouds 22 1016 50 10000 5.1 40 16:19 23.10.2019
5677 Clouds 22 1016 50 10000 5.1 40 16:19 23.10.2019
5678 Clouds 25 1016 53 10000 6.7 90 15:42 23.10.2019
5679 Clouds 23 1016 53 10000 6.7 90 15:22 23.10.2019
5680 Clouds 22 1017 57 10000 6.2 70 14:58 23.10.2019
5681 Clouds 22 1016 60 10000 5.1 40 14:38 23.10.2019
5682 Clouds 22 1016 60 10000 5.1 40 14:19 23.10.2019
5683 Clouds 22 1018 69 10000 5.7 70 13:57 23.10.2019
5684 Clouds 22 1018 64 10000 5.1 50 13:39 23.10.2019
5685 Clouds 22 1018 64 10000 5.1 50 13:21 23.10.2019
5686 Clouds 23 1019 64 10000 3.6 70 12:55 23.10.2019
5687 Clouds 21 1020 77 10000 3.6 50 12:37 23.10.2019
5688 Rain 19 1021 82 10000 2.6 30 12:18 23.10.2019
5689 Rain 19 1021 82 10000 2.6 30 11:55 23.10.2019
5690 Rain 19 1021 93 10000 5.1 30 11:37 23.10.2019
5691 Rain 19 1021 93 10000 5.1 30 11:19 23.10.2019
5692 Clouds 21 1021 73 10000 7.2 50 10:42 23.10.2019
5693 Clouds 20 1022 77 10000 5.1 30 10:24 23.10.2019
5694 Clouds 20 1022 77 10000 4.1 30 09:42 23.10.2019
5695 Clouds 18 1022 77 10000 4.1 30 09:23 23.10.2019
5696 Clouds 18 1023 88 10000 4.1 80 08:59 23.10.2019
5697 Clouds 16 1023 88 10000 4.1 30 08:41 23.10.2019
5698 Clouds 16 1023 88 10000 4.1 30 08:41 23.10.2019
5699 Clouds 17 1023 88 10000 4.1 30 08:22 23.10.2019
5700 Clouds 16 1021 88 10000 5.1 50 07:45 23.10.2019
5701 Clouds 16 1021 88 10000 5.1 50 07:22 23.10.2019
5702 Clouds 17 1021 93 10000 3.6 50 06:46 23.10.2019
5703 Clouds 14 1020 93 10000 3.6 80 06:22 23.10.2019
5704 Rain 15 1020 93 8000 4.6 40 05:41 23.10.2019
5705 Rain 17 1018 93 10000 3.1 80 04:41 23.10.2019
5706 Clouds 15 1018 93 10000 1 10 03:34 23.10.2019
5707 Clouds 15 1018 93 10000 2.1 60 02:40 23.10.2019
5708 Rain 16 1019 93 10000 2.6 80 01:32 23.10.2019
5709 Rain 16 1020 93 10000 2.6 80 00:56 23.10.2019
5710 Rain 17 1020 93 10000 3.6 80 00:28 23.10.2019
5711 Rain 17 1020 93 10000 2.39 113 23:40 22.10.2019
5712 Rain 17 1020 93 10000 2.39 113 23:18 22.10.2019
5713 Rain 17 1020 82 10000 2.6 50 22:56 22.10.2019
5714 Clouds 17 1020 82 10000 3.1 20 22:38 22.10.2019
5715 Clouds 17 1020 82 10000 3.1 20 22:19 22.10.2019
5716 Clouds 17 1020 82 10000 5.1 30 21:56 22.10.2019
5717 Clouds 17 1020 82 10000 5.7 40 21:37 22.10.2019
5718 Clouds 17 1020 77 10000 5.7 40 21:18 22.10.2019
5719 Clouds 18 1020 77 10000 5.7 40 20:55 22.10.2019
5720 Clouds 18 1019 68 10000 4.6 60 20:37 22.10.2019
5721 Clouds 18 1019 68 10000 4.6 60 20:19 22.10.2019
5722 Clouds 18 1018 64 10000 3.6 60 19:45 22.10.2019
5723 Clouds 18 1018 64 10000 3.6 60 19:27 22.10.2019
5724 Clouds 18 1018 60 10000 4.1 50 18:58 22.10.2019
5725 Clouds 18 1017 64 10000 6.2 60 18:40 22.10.2019
5726 Clouds 21 1017 64 10000 6.2 60 18:21 22.10.2019
5727 Clouds 21 1017 56 10000 7.7 70 17:57 22.10.2019
5728 Clouds 20 1016 57 10000 6.2 80 17:38 22.10.2019
5729 Clouds 20 1016 57 10000 6.2 80 17:20 22.10.2019
5730 Clouds 22 1016 47 10000 6.7 80 17:20 22.10.2019
5731 Clouds 20 1016 57 10000 6.2 80 17:20 22.10.2019
5732 Clouds 22 1016 47 10000 6.7 80 16:57 22.10.2019
5733 Clouds 22 1016 47 10000 6.2 90 16:37 22.10.2019
5734 Clouds 23 1016 47 10000 6.2 90 16:19 22.10.2019
5735 Clouds 23 1016 47 10000 6.2 90 16:19 22.10.2019
5736 Clouds 24 1016 44 10000 5.1 110 15:44 22.10.2019
5737 Clouds 24 1016 44 10000 5.1 110 15:21 22.10.2019
5738 Clouds 25 1016 47 10000 5.1 110 14:58 22.10.2019
5739 Clouds 23 1017 50 10000 4.1 110 14:40 22.10.2019
5740 Clouds 24 1017 50 10000 4.1 110 14:19 22.10.2019
5741 Clouds 23 1018 50 10000 3.1 90 13:42 22.10.2019
5742 Clouds 23 1018 50 10000 3.1 90 13:21 22.10.2019
5743 Clouds 23 1018 50 10000 3.1 90 12:58 22.10.2019
5744 Clouds 23 1019 53 10000 3.1 40 12:40 22.10.2019
5745 Clouds 23 1019 53 10000 3.1 40 12:21 22.10.2019
5746 Clouds 23 1020 57 10000 4.1 60 11:54 22.10.2019
5747 Clouds 23 1020 53 10000 3.1 90 11:36 22.10.2019
5748 Clouds 22 1020 53 10000 3.1 90 11:18 22.10.2019
5749 Clouds 21 1021 68 10000 3.1 50 10:55 22.10.2019
5750 Clouds 22 1021 68 10000 2.6 80 10:36 22.10.2019
5751 Clouds 21 1021 68 10000 2.6 80 10:18 22.10.2019
5752 Clouds 20 1022 77 10000 2.6 50 09:42 22.10.2019
5753 Clouds 19 1022 77 10000 2.6 50 09:22 22.10.2019
5754 Clouds 19 1022 82 10000 2.6 50 08:59 22.10.2019
5755 Clouds 19 1020 77 10000 4.1 90 08:41 22.10.2019
5756 Clouds 18 1020 77 10000 4.1 90 08:19 22.10.2019
5757 Clouds 18 1021 82 10000 3.6 80 07:45 22.10.2019
5758 Clouds 17 1021 82 10000 3.6 80 07:26 22.10.2019
5759 Clouds 17 1021 88 10000 2.6 50 06:47 22.10.2019
5760 Clouds 16 1019 93 10000 2.1 30 06:29 22.10.2019
5761 Clouds 15 1020 100 10000 1.5 10 05:48 22.10.2019
5762 Clouds 15 1019 93 10000 0.44 39 05:18 22.10.2019
5763 Clouds 16 1019 88 10000 3.1 30 02:32 22.10.2019
5764 Clear 16 1019 88 10000 3.1 30 01:50 22.10.2019
5765 Clear 15 1019 88 10000 3.1 30 01:24 22.10.2019
5766 Clear 16 1020 88 10000 3.1 60 00:56 22.10.2019
5767 Clear 15 1020 88 10000 3.1 60 00:38 22.10.2019
5768 Clear 15 1020 88 10000 3.1 60 00:19 22.10.2019
5769 Clear 16 1020 82 10000 3.1 50 23:39 21.10.2019
5770 Clear 16 1020 82 10000 3.1 50 23:20 21.10.2019
5771 Clear 16 1021 82 10000 3.1 60 22:59 21.10.2019
5772 Clouds 17 1021 77 10000 3.6 50 22:40 21.10.2019
5773 Clouds 18 1021 77 10000 3.6 50 22:21 21.10.2019
5774 Clouds 18 1021 77 10000 3.6 70 21:59 21.10.2019
5775 Clouds 18 1019 72 10000 2.6 50 21:40 21.10.2019
5776 Clouds 18 1019 72 10000 2.6 50 21:22 21.10.2019
5777 Clouds 17 1020 72 10000 4.1 80 20:58 21.10.2019
5778 Clouds 17 1020 77 10000 3.6 70 20:40 21.10.2019
5779 Clouds 17 1020 77 10000 3.6 70 20:40 21.10.2019
5780 Clouds 19 1020 77 10000 3.6 70 20:21 21.10.2019
5781 Clouds 19 1020 72 10000 4.6 80 19:58 21.10.2019
5782 Clouds 19 1018 64 10000 4.1 90 19:40 21.10.2019
5783 Clouds 19 1018 64 10000 4.1 90 19:40 21.10.2019
5784 Clouds 19 1018 64 10000 4.1 90 19:21 21.10.2019
5785 Clouds 20 1018 68 10000 4.6 80 18:56 21.10.2019
5786 Clouds 20 1017 53 10000 5.1 90 18:37 21.10.2019
5787 Clouds 20 1017 53 10000 5.1 90 18:18 21.10.2019
5788 Clouds 21 1017 53 10000 5.1 90 17:55 21.10.2019
5789 Clouds 20 1017 50 10000 5.7 90 17:37 21.10.2019
5790 Clouds 22 1017 50 10000 5.7 90 17:18 21.10.2019
5791 Clouds 22 1017 47 10000 6.2 100 16:56 21.10.2019
5792 Clouds 22 1016 50 10000 7.2 130 16:37 21.10.2019
5793 Clouds 22 1016 50 10000 7.2 130 16:19 21.10.2019
5794 Clouds 23 1016 44 10000 5.1 110 15:42 21.10.2019
5795 Clouds 24 1016 44 10000 5.1 110 15:24 21.10.2019
5796 Clouds 23 1017 50 10000 4.1 90 14:58 21.10.2019
5797 Clouds 23 1018 50 10000 4.1 100 14:38 21.10.2019
5798 Clouds 24 1018 50 10000 4.1 100 14:19 21.10.2019
5799 Clouds 23 1018 53 10000 5.1 20 13:56 21.10.2019
5800 Clouds 23 1019 53 10000 3.1 90 13:37 21.10.2019
5801 Clouds 22 1019 53 10000 3.1 90 13:19 21.10.2019
5802 Clouds 22 1020 57 10000 3.1 80 12:41 21.10.2019
5803 Clouds 22 1020 57 10000 3.1 80 12:22 21.10.2019
5804 Clouds 22 1020 57 10000 2.1 0 11:57 21.10.2019
5805 Clouds 22 1021 60 10000 3.1 60 11:38 21.10.2019
5806 Clouds 22 1021 60 10000 3.1 60 11:20 21.10.2019
5807 Clouds 21 1022 64 10000 2.6 50 10:56 21.10.2019
5808 Clouds 22 1022 68 10000 1.5 350 10:38 21.10.2019
5809 Clouds 20 1022 68 10000 1.5 350 10:18 21.10.2019
5810 Clouds 20 1023 72 10000 1 0 09:44 21.10.2019
5811 Clouds 19 1023 72 10000 1 0 09:26 21.10.2019
5812 Clouds 18 1023 82 10000 2.6 20 08:56 21.10.2019
5813 Clouds 18 1022 82 10000 2.15 103.409 08:37 21.10.2019
5814 Clouds 18 1022 82 10000 2.15 103.409 08:18 21.10.2019
5815 Clouds 17 1021 88 10000 3.1 60 07:39 21.10.2019
5816 Clouds 16 1021 88 10000 3.1 60 07:20 21.10.2019
5817 Clouds 16 1022 93 10000 1.5 40 06:54 21.10.2019
5818 Clouds 17 1021 93 10000 2.15 103.409 06:36 21.10.2019
5819 Clouds 15 1022 93 10000 1 0 05:56 21.10.2019
5820 Clouds 16 1020 93 10000 1.72 51.506 04:45 21.10.2019
5821 Clouds 15 1021 93 10000 2.1 50 03:37 21.10.2019
5822 Clouds 15 1021 88 10000 1.5 40 02:24 21.10.2019
5823 Clouds 15 1021 88 10000 1.5 40 01:59 21.10.2019
5824 Clouds 15 1021 88 10000 1.5 40 01:23 21.10.2019
5825 Clouds 15 1021 88 10000 5.1 90 00:47 21.10.2019
5826 Clouds 16 1021 88 10000 5.1 90 00:25 21.10.2019
5827 Clouds 17 1021 82 10000 5.1 60 23:42 20.10.2019
5828 Clouds 17 1021 82 10000 5.1 60 23:22 20.10.2019
5829 Clouds 16 1022 82 10000 3.6 70 22:57 20.10.2019
5830 Clouds 16 1022 82 10000 3.6 70 22:38 20.10.2019
5831 Clouds 17 1022 82 10000 3.6 70 22:18 20.10.2019
5832 Clouds 17 1021 82 10000 2.1 70 21:57 20.10.2019
5833 Clouds 18 1021 82 10000 2.1 70 21:39 20.10.2019
5834 Clouds 17 1021 82 10000 2.1 70 21:21 20.10.2019
5835 Clouds 17 1021 77 10000 4.6 80 20:42 20.10.2019
5836 Clouds 18 1021 77 10000 4.6 80 20:19 20.10.2019
5837 Clouds 18 1019 77 10000 4.1 80 19:57 20.10.2019
5838 Clouds 18 1019 77 10000 4.1 80 19:39 20.10.2019
5839 Clouds 18 1019 77 10000 4.1 80 19:20 20.10.2019
5840 Clouds 18 1019 77 10000 4.1 80 19:20 20.10.2019
5841 Clouds 18 1019 77 10000 4.6 90 18:56 20.10.2019
5842 Clouds 18 1019 77 10000 4.6 90 18:56 20.10.2019
5843 Clouds 18 1018 72 10000 2.6 60 18:38 20.10.2019
5844 Clouds 18 1018 72 10000 2.6 60 18:38 20.10.2019
5845 Clouds 18 1018 72 10000 2.6 60 18:19 20.10.2019
5846 Rain 19 1019 77 10000 5.7 70 17:54 20.10.2019
5847 Clouds 19 1018 68 10000 2.6 20 17:36 20.10.2019
5848 Clouds 19 1018 68 10000 2.6 20 17:18 20.10.2019
5849 Thunderstorm 20 1018 78 10000 6.2 60 16:41 20.10.2019
5850 Thunderstorm 20 1018 78 10000 6.2 60 16:23 20.10.2019
5851 Clouds 20 1018 78 10000 6.7 30 15:57 20.10.2019
5852 Clouds 20 1018 68 10000 3.6 60 15:38 20.10.2019
5853 Clouds 20 1018 68 10000 3.6 60 15:19 20.10.2019
5854 Clouds 20 1018 68 10000 3.6 60 15:19 20.10.2019
5855 Clouds 21 1019 83 10000 2.1 70 14:57 20.10.2019
5856 Clouds 21 1018 68 10000 3.1 30 14:37 20.10.2019
5857 Clouds 21 1018 68 10000 3.1 30 14:19 20.10.2019
5858 Rain 21 1019 69 10000 2.1 0 13:55 20.10.2019
5859 Rain 20 1020 93 10000 5.1 140 13:36 20.10.2019
5860 Rain 20 1020 93 10000 5.1 140 13:18 20.10.2019
5861 Rain 21 1021 82 10000 4.1 190 12:55 20.10.2019
5862 Rain 21 1021 82 10000 4.1 190 12:55 20.10.2019
5863 Rain 21 1020 78 10000 5.1 130 12:37 20.10.2019
5864 Rain 21 1020 78 10000 5.1 130 12:19 20.10.2019
5865 Clouds 23 1021 64 10000 3.6 160 11:42 20.10.2019
5866 Clouds 21 1021 64 10000 3.6 160 11:23 20.10.2019
5867 Clouds 22 1022 64 10000 2.6 0 10:59 20.10.2019
5868 Clouds 22 1022 73 10000 5.1 150 10:40 20.10.2019
5869 Clouds 22 1022 73 10000 5.1 150 10:21 20.10.2019
5870 Clouds 20 1023 73 10000 3.6 180 09:57 20.10.2019
5871 Clouds 21 1023 82 10000 4.1 170 09:38 20.10.2019
5872 Clouds 18 1023 82 10000 4.1 170 09:20 20.10.2019
5873 Clouds 17 1023 88 10000 3.1 120 08:45 20.10.2019
5874 Clouds 17 1023 88 10000 3.1 120 08:22 20.10.2019
5875 Clouds 18 1022 93 10000 3.6 160 07:50 20.10.2019
5876 Clouds 18 1022 93 10000 3.6 160 07:30 20.10.2019
5877 Clouds 17 1021 100 10000 2.86 107.909 06:32 20.10.2019
5878 Clouds 15 1021 93 10000 1.56 88.565 05:58 20.10.2019
5879 Clouds 15 1021 93 10000 3.1 170 04:25 20.10.2019
5880 Clouds 15 1021 93 10000 3.6 170 03:41 20.10.2019
5881 Clouds 16 1021 93 10000 3.6 170 03:20 20.10.2019
5882 Clouds 16 1021 88 10000 2.1 150 02:36 20.10.2019
5883 Rain 14 1011 90 0 1.79 24 01:58 20.10.2019
5884 Clouds 16 1021 88 10000 3.1 60 01:23 20.10.2019
5885 Clouds 16 1021 88 10000 3.1 60 00:55 20.10.2019
5886 Clouds 17 1021 88 10000 3.1 60 00:22 20.10.2019
5887 Clouds 17 1021 88 10000 3.07 77.884 23:59 19.10.2019
5888 Clouds 17 1021 88 10000 3.07 77.884 23:40 19.10.2019
5889 Clouds 17 1021 88 10000 3.07 77.884 23:21 19.10.2019
5890 Clouds 17 1022 93 10000 2.1 20 22:55 19.10.2019
5891 Clouds 16 1022 93 10000 2.1 10 22:37 19.10.2019
5892 Clouds 17 1022 93 10000 2.1 10 22:18 19.10.2019
5893 Clouds 17 1022 93 10000 2.1 10 21:45 19.10.2019
5894 Clouds 17 1020 88 10000 4.65 96.045 21:21 19.10.2019
5895 Clouds 17 1020 88 10000 5.13 84.402 20:44 19.10.2019
5896 Clouds 17 1020 88 10000 5.13 84.402 20:22 19.10.2019
5897 Clouds 17 1021 88 10000 3.1 360 19:57 19.10.2019
5898 Clouds 17 1019 88 10000 5.13 84.402 19:39 19.10.2019
5899 Clouds 17 1019 88 10000 5.13 84.402 19:20 19.10.2019
5900 Clouds 17 1018 93 10000 2.6 20 18:41 19.10.2019
5901 Clouds 17 1018 93 10000 2.6 20 18:23 19.10.2019
5902 Clouds 18 1019 82 10000 2.6 360 17:55 19.10.2019
5903 Clouds 18 1018 88 10000 4.63 106.661 17:36 19.10.2019
5904 Clouds 18 1018 88 10000 4.63 106.661 17:18 19.10.2019
5905 Clouds 18 1018 88 10000 4.63 106.661 16:39 19.10.2019
5906 Clouds 18 1018 88 10000 4.63 106.661 16:20 19.10.2019
5907 Rain 18 1019 82 10000 4.1 20 16:20 19.10.2019
5908 Clouds 18 1019 82 10000 2.1 20 15:44 19.10.2019
5909 Clouds 18 1019 82 10000 2.1 20 15:44 19.10.2019
5910 Rain 18 1019 82 10000 2.1 20 15:26 19.10.2019
5911 Rain 18 1019 88 10000 3.6 40 14:55 19.10.2019
5912 Rain 18 1019 88 4000 6.2 100 14:37 19.10.2019
5913 Rain 18 1019 88 4000 6.2 100 14:19 19.10.2019
5914 Rain 18 1019 88 4000 6.2 100 14:19 19.10.2019
5915 Rain 19 1019 82 10000 5.7 80 13:54 19.10.2019
5916 Rain 19 1019 88 10000 5.68 125.484 13:36 19.10.2019
5917 Rain 19 1019 88 10000 5.65 134.233 13:18 19.10.2019
5918 Clouds 20 1020 88 10000 4.1 180 12:39 19.10.2019
5919 Clouds 20 1020 88 10000 4.1 180 12:21 19.10.2019
5920 Clouds 20 1021 77 10000 3.1 80 11:56 19.10.2019
5921 Clouds 20 1021 77 10000 3.1 80 11:36 19.10.2019
5922 Clouds 19 1021 77 10000 3.1 80 11:18 19.10.2019
5923 Clouds 19 1021 82 10000 3.1 10 10:40 19.10.2019
5924 Clouds 18 1022 82 10000 2.6 20 10:22 19.10.2019
5925 Clouds 18 1022 82 10000 2.6 20 09:58 19.10.2019
5926 Clouds 19 1022 88 10000 4.58 124.902 09:39 19.10.2019
5927 Clouds 18 1022 88 10000 1.5 50 09:21 19.10.2019
5928 Clouds 17 1021 93 10000 2.1 50 08:41 19.10.2019
5929 Drizzle 16 1022 93 10000 2.6 70 08:22 19.10.2019
5930 Clouds 16 1022 93 10000 2.1 40 07:46 19.10.2019
5931 Rain 16 1022 93 10000 2.1 40 07:27 19.10.2019
5932 Rain 15 1021 93 6000 2.54 106.193 06:52 19.10.2019
5933 Rain 16 1022 100 5000 2.1 20 06:32 19.10.2019
5934 Rain 14 1021 93 3000 2.6 40 05:36 19.10.2019
5935 Clouds 14 1021 93 10000 3.1 190 04:26 19.10.2019
5936 Clouds 15 1021 93 10000 3.1 190 04:26 19.10.2019
5937 Clouds 14 1021 93 10000 2.6 180 03:18 19.10.2019
5938 Clouds 15 1020 93 10000 1.5 220 02:20 19.10.2019
5939 Clouds 15 1021 93 10000 2.6 210 01:48 19.10.2019
5940 Clouds 15 1021 93 10000 3.6 200 00:52 19.10.2019
5941 Clouds 15 1021 93 10000 3.6 230 00:29 19.10.2019
5942 Clouds 15 1021 93 10000 1 0 23:57 18.10.2019
5943 Clouds 15 1021 93 10000 2.1 230 23:38 18.10.2019
5944 Clouds 15 1021 93 10000 2.1 230 23:20 18.10.2019
5945 Clouds 16 1021 93 9000 1.5 330 22:54 18.10.2019
5946 Rain 16 1022 93 4000 1.5 30 22:36 18.10.2019
5947 Rain 16 1022 93 4000 1.5 30 22:18 18.10.2019
5948 Clouds 16 1021 88 10000 2.1 310 22:18 18.10.2019
5949 Clouds 16 1021 88 10000 2.1 310 21:55 18.10.2019
5950 Clouds 16 1020 93 10000 2.41 85.791 21:36 18.10.2019
5951 Clouds 16 1020 93 10000 3.62 81.03 21:18 18.10.2019
5952 Clouds 16 1020 93 10000 3.62 81.03 21:18 18.10.2019
5953 Clouds 16 1021 93 10000 3.6 290 20:43 18.10.2019
5954 Clouds 17 1021 93 10000 3.6 290 20:22 18.10.2019
5955 Clouds 17 1021 88 10000 1.5 140 19:58 18.10.2019
5956 Clouds 17 1019 82 10000 1.5 170 19:40 18.10.2019
5957 Clouds 17 1019 82 10000 1.5 170 19:22 18.10.2019
5958 Rain 17 1019 88 10000 2.6 140 18:59 18.10.2019
5959 Rain 18 1018 82 10000 3.62 81.03 18:41 18.10.2019
5960 Rain 18 1018 82 10000 4.37 110.203 18:22 18.10.2019
5961 Clouds 19 1019 73 10000 2.6 170 17:56 18.10.2019
5962 Clouds 19 1018 73 10000 4.1 120 17:37 18.10.2019
5963 Clouds 19 1018 73 10000 4.1 130 17:19 18.10.2019
5964 Clouds 20 1018 73 10000 5.7 120 16:40 18.10.2019
5965 Clouds 19 1018 73 10000 5.7 120 16:21 18.10.2019
5966 Clouds 18 1018 73 10000 5.1 150 15:57 18.10.2019
5967 Clouds 22 1018 69 10000 6.2 140 15:38 18.10.2019
5968 Clouds 25 1018 69 10000 6.2 140 15:19 18.10.2019
5969 Clouds 25 1018 60 10000 2.6 20 14:57 18.10.2019
5970 Clouds 24 1018 50 10000 4.1 140 14:38 18.10.2019
5971 Clouds 24 1018 50 10000 4.1 140 14:19 18.10.2019
5972 Clouds 22 1019 64 10000 3.1 160 13:55 18.10.2019
5973 Clouds 21 1020 73 10000 2.6 0 13:36 18.10.2019
5974 Clouds 20 1020 73 10000 2.6 0 13:18 18.10.2019
5975 Clouds 20 1020 73 10000 2.6 0 12:55 18.10.2019
5976 Clouds 20 1020 77 10000 4.1 180 12:37 18.10.2019
5977 Rain 18 1022 77 10000 2.1 0 12:18 18.10.2019
5978 Clouds 19 1022 82 10000 1.5 170 11:41 18.10.2019
5979 Rain 17 1022 82 10000 1.5 170 11:20 18.10.2019
5980 Rain 17 1023 88 10000 2.1 210 10:57 18.10.2019
5981 Rain 16 1023 93 8000 2.6 120 10:39 18.10.2019
5982 Rain 16 1023 93 8000 2.6 120 10:20 18.10.2019
5983 Rain 16 1023 93 10000 1 0 09:57 18.10.2019
5984 Clouds 15 1023 93 10000 2.1 360 09:39 18.10.2019
5985 Clouds 15 1023 93 10000 2.1 360 09:19 18.10.2019
5986 Rain 14 1023 100 5000 4.6 30 08:45 18.10.2019
5987 Rain 14 1023 100 7000 4.1 30 08:25 18.10.2019
5988 Rain 14 1023 100 7000 4.1 30 08:25 18.10.2019
5989 Rain 15 1023 100 7000 4.1 30 07:57 18.10.2019
5990 Rain 14 1022 93 10000 3.1 40 07:38 18.10.2019
5991 Rain 15 1023 93 3000 4.1 40 06:56 18.10.2019
5992 Rain 14 1022 93 8000 4.1 40 06:36 18.10.2019
5993 Rain 15 1022 93 8000 4.1 40 06:18 18.10.2019
5994 Clouds 14 1022 93 10000 2.6 180 05:52 18.10.2019
5995 Clouds 14 1022 93 10000 2.6 180 05:19 18.10.2019
5996 Clouds 14 1021 93 10000 3.1 150 03:38 18.10.2019
5997 Clouds 14 1021 93 10000 3.1 170 02:54 18.10.2019
5998 Clouds 14 1021 93 10000 4.1 160 02:32 18.10.2019
5999 Drizzle 15 1021 93 10000 3.1 170 01:40 18.10.2019
6000 Drizzle 14 1021 93 10000 3.1 170 01:21 18.10.2019
6001 Clouds 15 1022 88 10000 4.1 160 00:43 18.10.2019
6002 Clouds 16 1022 88 10000 4.1 160 00:20 18.10.2019
6003 Clouds 16 1021 93 10000 2.6 140 23:40 17.10.2019
6004 Clouds 16 1021 93 10000 2.6 140 23:21 17.10.2019
6005 Clouds 17 1022 82 10000 3.6 150 22:57 17.10.2019
6006 Clouds 17 1022 82 10000 2.6 160 22:39 17.10.2019
6007 Clouds 17 1022 82 10000 2.6 160 22:19 17.10.2019
6008 Clouds 17 1022 88 10000 2.1 180 21:57 17.10.2019
6009 Clouds 16 1022 88 10000 2.6 190 21:39 17.10.2019
6010 Clouds 16 1022 88 10000 2.6 190 21:20 17.10.2019
6011 Clouds 16 1021 88 10000 3.6 200 20:58 17.10.2019
6012 Clouds 16 1021 88 10000 3.6 210 20:39 17.10.2019
6013 Clouds 15 1021 88 10000 3.6 210 20:19 17.10.2019
6014 Clouds 15 1021 82 10000 3.1 200 19:59 17.10.2019
6015 Clouds 15 1021 82 10000 2.1 190 19:39 17.10.2019
6016 Clouds 15 1021 82 10000 2.1 190 19:19 17.10.2019
6017 Clouds 15 1020 82 10000 3.1 210 18:58 17.10.2019
6018 Clouds 15 1020 88 10000 2.6 190 18:38 17.10.2019
6019 Clouds 15 1020 88 10000 2.6 190 18:19 17.10.2019
6020 Clouds 16 1019 68 10000 3.6 180 17:42 17.10.2019
6021 Clouds 16 1019 68 10000 3.6 180 17:23 17.10.2019
6022 Clouds 17 1019 68 10000 3.6 170 16:57 17.10.2019
6023 Clouds 17 1018 73 10000 4.1 160 16:38 17.10.2019
6024 Clouds 16 1018 73 10000 4.1 160 16:18 17.10.2019
6025 Clouds 16 1019 73 10000 5.1 160 15:55 17.10.2019
6026 Clouds 16 1010 82 10000 5.1 140 15:37 17.10.2019
6027 Clouds 20 1010 82 10000 5.1 140 15:19 17.10.2019
6028 Rain 19 1019 82 10000 6.2 180 14:43 17.10.2019
6029 Rain 19 1019 82 10000 6.2 180 14:24 17.10.2019
6030 Rain 19 1019 82 10000 6.2 180 14:24 17.10.2019
6031 Rain 19 1019 82 10000 6.2 180 14:24 17.10.2019
6032 Drizzle 19 1019 82 10000 6.2 190 13:57 17.10.2019
6033 Clouds 17 1020 73 10000 7.2 190 13:39 17.10.2019
6034 Clouds 19 1020 73 10000 7.2 190 13:19 17.10.2019
6035 Clouds 20 1020 73 10000 1.5 170 12:41 17.10.2019
6036 Clouds 20 1020 73 10000 1.5 170 12:21 17.10.2019
6037 Clouds 19 1021 68 10000 2.1 120 11:59 17.10.2019
6038 Clouds 19 1022 82 10000 3.1 250 11:41 17.10.2019
6039 Clouds 19 1022 82 10000 3.1 250 11:41 17.10.2019
6040 Clouds 19 1022 82 10000 3.1 250 11:41 17.10.2019
6041 Clouds 19 1022 82 10000 3.1 250 11:41 17.10.2019
6042 Clouds 19 1022 82 10000 3.1 250 11:19 17.10.2019
6043 Clouds 19 1022 82 10000 3.1 250 10:56 17.10.2019
6044 Clouds 19 1022 82 10000 3.1 250 10:56 17.10.2019
6045 Clouds 20 1022 88 10000 4.1 160 10:38 17.10.2019
6046 Clouds 19 1022 88 10000 4.1 160 10:18 17.10.2019
6047 Clouds 18 1023 88 10000 1 0 09:54 17.10.2019
6048 Clouds 19 1023 93 10000 1 0 09:36 17.10.2019
6049 Clouds 18 1023 93 10000 1 0 09:18 17.10.2019
6050 Clouds 18 1023 93 10000 1 0 09:18 17.10.2019
6051 Clouds 17 1023 93 4000 1.5 20 08:42 17.10.2019
6052 Clouds 17 1023 93 4000 1.5 20 08:24 17.10.2019
6053 Rain 16 1023 93 4000 2.1 360 07:56 17.10.2019
6054 Rain 16 1023 93 3000 4.1 10 07:38 17.10.2019
6055 Rain 15 1023 93 3000 4.1 10 07:18 17.10.2019
6056 Rain 15 1023 93 3000 4.1 10 07:18 17.10.2019
6057 Clouds 17 1022 93 10000 2.1 200 06:40 17.10.2019
6058 Clouds 14 1021 100 10000 2.1 200 06:21 17.10.2019
6059 Clouds 13 1021 100 10000 2.1 200 05:57 17.10.2019
6060 Clouds 14 1021 93 10000 2.6 210 05:32 17.10.2019
6061 Clouds 14 1021 93 10000 2.1 210 04:56 17.10.2019
6062 Clouds 15 1020 88 10000 2.041 114 03:55 17.10.2019
6063 Clouds 15 1020 88 10000 3.1 180 02:50 17.10.2019
6064 Clouds 15 1020 88 10000 3.6 200 01:39 17.10.2019
6065 Clouds 16 1021 88 10000 2.1 20 00:40 17.10.2019
6066 Clouds 15 1021 88 10000 2.1 20 00:19 17.10.2019
6067 Clouds 16 1021 88 10000 2.6 70 23:42 16.10.2019
6068 Clouds 16 1021 88 10000 2.6 70 23:21 16.10.2019
6069 Clouds 16 1021 88 10000 2.6 70 23:21 16.10.2019
6070 Clouds 16 1021 82 10000 3.1 80 22:56 16.10.2019
6071 Clouds 16 1021 82 10000 3.1 80 22:56 16.10.2019
6072 Thunderstorm 17 1021 77 10000 4.6 90 22:37 16.10.2019
6073 Thunderstorm 18 1021 77 10000 4.6 80 22:19 16.10.2019
6074 Thunderstorm 18 1021 77 10000 4.6 80 21:58 16.10.2019
6075 Clouds 18 1020 68 10000 5.1 80 21:38 16.10.2019
6076 Clouds 18 1020 68 10000 5.1 80 21:19 16.10.2019
6077 Clouds 19 1021 68 10000 3.1 90 20:58 16.10.2019
6078 Clouds 19 1020 60 10000 6.2 80 20:40 16.10.2019
6079 Clouds 19 1020 60 10000 6.2 80 20:21 16.10.2019
6080 Clouds 19 1020 60 10000 4.1 80 19:59 16.10.2019
6081 Clouds 19 1018 56 10000 4.1 80 19:39 16.10.2019
6082 Clouds 19 1018 56 10000 4.1 80 19:39 16.10.2019
6083 Clouds 19 1018 56 10000 4.1 80 19:21 16.10.2019
6084 Clouds 20 1019 56 10000 5.7 90 18:55 16.10.2019
6085 Clouds 20 1018 53 10000 7.7 90 18:36 16.10.2019
6086 Clouds 20 1018 53 10000 7.7 90 18:18 16.10.2019
6087 Clouds 21 1018 49 10000 6.2 90 17:54 16.10.2019
6088 Clouds 21 1018 49 10000 6.2 90 17:54 16.10.2019
6089 Clouds 21 1017 47 10000 4.1 80 17:36 16.10.2019
6090 Clouds 22 1017 44 10000 5.1 70 17:18 16.10.2019
6091 Clouds 23 1016 41 10000 4.1 60 16:43 16.10.2019
6092 Clouds 23 1016 41 10000 4.1 60 16:21 16.10.2019
6093 Clouds 23 1017 41 10000 7.2 60 15:58 16.10.2019
6094 Clouds 22 1017 41 10000 7.2 80 15:39 16.10.2019
6095 Clouds 24 1017 39 10000 10.3 90 15:19 16.10.2019
6096 Clouds 24 1017 39 10000 10.3 90 14:58 16.10.2019
6097 Clouds 24 1017 39 10000 10.3 90 14:39 16.10.2019
6098 Clouds 24 1017 39 10000 10.3 90 14:19 16.10.2019
6099 Clouds 24 1018 44 10000 5.1 70 13:57 16.10.2019
6100 Clouds 24 1018 41 10000 2.6 50 13:38 16.10.2019
6101 Clouds 24 1018 41 10000 2.6 50 13:20 16.10.2019
6102 Clouds 24 1019 44 10000 5.1 80 12:42 16.10.2019
6103 Clouds 24 1019 44 10000 5.1 80 12:19 16.10.2019
6104 Clouds 23 1020 47 10000 5.1 90 11:45 16.10.2019
6105 Clouds 23 1021 50 10000 3.1 70 11:19 16.10.2019
6106 Clouds 23 1021 50 10000 3.1 90 10:55 16.10.2019
6107 Clouds 23 1021 56 10000 2.6 40 10:36 16.10.2019
6108 Clouds 21 1022 56 10000 2.1 80 10:18 16.10.2019
6109 Clouds 22 1022 56 10000 4.1 90 09:40 16.10.2019
6110 Clouds 20 1022 56 10000 4.1 90 09:21 16.10.2019
6111 Clouds 19 1022 68 10000 4.1 110 08:46 16.10.2019
6112 Clouds 19 1022 68 10000 4.1 110 08:26 16.10.2019
6113 Clouds 18 1023 82 10000 2.1 60 07:58 16.10.2019
6114 Clouds 18 1021 77 10000 2.1 70 07:40 16.10.2019
6115 Clouds 17 1021 77 10000 2.1 70 07:21 16.10.2019
6116 Clouds 16 1020 88 10000 3.1 30 06:46 16.10.2019
6117 Clouds 17 1021 93 10000 2.6 10 06:27 16.10.2019
6118 Clouds 14 1020 93 10000 2.1 30 04:24 16.10.2019
6119 Clouds 16 1020 93 10000 1.5 350 02:50 16.10.2019
6120 Clouds 16 1020 93 10000 1 350 01:20 16.10.2019
6121 Clouds 16 1020 93 10000 1 350 01:20 16.10.2019
6122 Clouds 16 1020 93 10000 1 350 00:58 16.10.2019
6123 Clouds 16 1020 82 10000 0.868 2 00:39 16.10.2019
6124 Clouds 15 1021 88 10000 1 0 23:58 15.10.2019
6125 Clouds 15 1021 88 10000 1.5 20 23:38 15.10.2019
6126 Clouds 17 1021 88 10000 1.5 20 23:19 15.10.2019
6127 Clouds 17 1021 82 10000 3.1 50 22:55 15.10.2019
6128 Clear 17 1020 77 10000 3.1 60 22:37 15.10.2019
6129 Clear 17 1020 77 10000 3.1 60 22:18 15.10.2019
6130 Clear 17 1020 77 10000 3.1 60 22:18 15.10.2019
6131 Clouds 18 1021 72 10000 4.6 60 21:54 15.10.2019
6132 Clouds 18 1020 72 10000 3.1 50 21:36 15.10.2019
6133 Clouds 18 1020 72 10000 3.1 50 21:18 15.10.2019
6134 Clouds 18 1021 72 10000 3.6 60 20:54 15.10.2019
6135 Clouds 18 1021 72 10000 3.6 60 20:54 15.10.2019
6136 Clouds 18 1021 72 10000 3.6 60 20:54 15.10.2019
6137 Clouds 18 1019 68 10000 3.1 30 20:36 15.10.2019
6138 Clouds 18 1019 68 10000 3.1 30 20:18 15.10.2019
6139 Clouds 19 1019 64 10000 3.1 70 19:41 15.10.2019
6140 Clouds 19 1019 64 10000 3.1 70 19:20 15.10.2019
6141 Clouds 19 1019 64 10000 3.1 70 19:20 15.10.2019
6142 Clouds 19 1019 64 10000 5.7 90 18:57 15.10.2019
6143 Clouds 20 1018 60 10000 3.6 100 18:39 15.10.2019
6144 Clouds 20 1018 60 10000 3.6 100 18:20 15.10.2019
6145 Clouds 21 1018 60 10000 6.2 110 17:43 15.10.2019
6146 Clouds 21 1018 60 10000 6.2 110 17:21 15.10.2019
6147 Clouds 22 1018 50 10000 4.1 90 16:59 15.10.2019
6148 Clouds 22 1018 57 10000 4.1 180 16:41 15.10.2019
6149 Clouds 22 1018 53 10000 3.6 70 16:21 15.10.2019
6150 Clouds 22 1018 53 10000 3.6 70 15:56 15.10.2019
6151 Clouds 22 1018 64 10000 2.6 170 15:38 15.10.2019
6152 Clouds 22 1018 64 10000 2.6 170 15:19 15.10.2019
6153 Clouds 22 1019 57 10000 2.1 360 14:55 15.10.2019
6154 Drizzle 22 1018 56 10000 3.6 20 14:36 15.10.2019
6155 Clouds 22 1019 53 10000 1.5 0 14:18 15.10.2019
6156 Clouds 22 1019 56 10000 3.6 40 13:43 15.10.2019
6157 Clouds 23 1019 56 10000 3.6 40 13:20 15.10.2019
6158 Clouds 22 1020 60 10000 3.6 70 12:56 15.10.2019
6159 Clouds 23 1020 56 10000 5.1 60 12:37 15.10.2019
6160 Clouds 22 1021 60 10000 3.1 110 12:18 15.10.2019
6161 Clouds 21 1021 60 10000 3.6 100 11:42 15.10.2019
6162 Clouds 22 1021 60 10000 3.6 100 11:20 15.10.2019
6163 Clouds 22 1021 60 10000 3.6 100 11:20 15.10.2019
6164 Clouds 21 1023 60 10000 3.6 140 10:55 15.10.2019
6165 Clouds 20 1023 64 10000 3.1 150 10:37 15.10.2019
6166 Clouds 20 1023 68 10000 3.6 180 10:18 15.10.2019
6167 Clouds 20 1022 77 10000 4.1 170 09:40 15.10.2019
6168 Clouds 20 1022 77 10000 4.1 170 09:40 15.10.2019
6169 Clouds 19 1023 73 10000 4.1 180 09:21 15.10.2019
6170 Clouds 19 1023 73 10000 4.1 180 08:58 15.10.2019
6171 Clouds 18 1022 77 10000 3.1 170 08:40 15.10.2019
6172 Clouds 17 1022 93 10000 2.6 170 08:20 15.10.2019
6173 Clouds 17 1022 93 10000 2.6 170 08:19 15.10.2019
6174 Clouds 17 1022 93 10000 2.6 170 08:19 15.10.2019
6175 Clouds 18 1022 93 10000 2.6 170 07:43 15.10.2019
6176 Clouds 17 1022 93 10000 2.6 170 07:22 15.10.2019
6177 Clouds 16 1022 88 10000 2.6 170 06:56 15.10.2019
6178 Clouds 16 1021 93 10000 3.1 150 06:37 15.10.2019
6179 Clouds 15 1021 93 10000 1 0 05:56 15.10.2019
6180 Clouds 14 1021 93 10000 1 0 05:36 15.10.2019
6181 Clouds 14 1021 100 10000 1.5 79.661 04:48 15.10.2019
6182 Clouds 15 1021 93 10000 1 0 04:18 15.10.2019
6183 Clouds 15 1021 93 10000 3.6 110 03:35 15.10.2019
6184 Clouds 15 1021 93 10000 3.6 110 03:35 15.10.2019
6185 Clouds 16 1021 93 10000 3.1 60 01:57 15.10.2019
6186 Clouds 16 1021 93 10000 4.1 50 01:39 15.10.2019
6187 Clouds 15 1022 93 10000 4.6 70 00:59 15.10.2019
6188 Clouds 15 1022 93 10000 2.6 50 00:25 15.10.2019
6189 Clouds 15 1022 93 10000 2.6 30 23:59 14.10.2019
6190 Clouds 16 1023 93 10000 3.1 30 23:37 14.10.2019
6191 Clouds 16 1023 93 10000 1.5 10 23:18 14.10.2019
6192 Clouds 15 1022 93 10000 1.5 350 22:39 14.10.2019
6193 Clouds 16 1022 93 10000 1.5 350 22:21 14.10.2019
6194 Clear 16 1022 93 10000 2.1 40 21:58 14.10.2019
6195 Clouds 16 1021 88 10000 2.46 76.162 21:39 14.10.2019
6196 Clouds 16 1021 88 10000 4.69 80.349 21:21 14.10.2019
6197 Clouds 16 1021 88 10000 4.69 80.349 21:21 14.10.2019
6198 Clear 16 1022 93 10000 2.6 40 20:58 14.10.2019
6199 Clouds 16 1020 82 10000 3.1 60 20:38 14.10.2019
6200 Clouds 16 1020 82 10000 3.1 60 20:38 14.10.2019
6201 Clouds 16 1020 82 10000 3.1 60 20:19 14.10.2019
6202 -273 0 0 0 0 0 19:55 14.10.2019
6203 Clouds 17 1021 88 10000 3.1 80 19:54 14.10.2019
6204 Clouds 17 1020 77 10000 3.1 60 19:36 14.10.2019
6205 Clouds 17 1020 77 10000 3.1 60 19:18 14.10.2019
6206 Clouds 18 1020 77 10000 4.6 80 18:54 14.10.2019
6207 Clouds 18 1019 68 10000 3.1 90 18:36 14.10.2019
6208 Clouds 19 1020 72 10000 5.1 80 18:18 14.10.2019
6209 Clouds 19 1019 68 10000 4.1 120 17:41 14.10.2019
6210 Clouds 19 1019 68 10000 4.1 120 17:22 14.10.2019
6211 Clouds 20 1018 64 10000 4.1 120 16:46 14.10.2019
6212 Clouds 20 1018 64 10000 4.1 120 16:23 14.10.2019
6213 Clouds 20 1019 64 10000 5.1 120 15:59 14.10.2019
6214 Clouds 21 1017 68 10000 5.1 60 15:40 14.10.2019
6215 Clouds 21 1017 68 10000 5.1 60 15:40 14.10.2019
6216 Rain 21 1019 64 10000 3.6 130 15:21 14.10.2019
6217 Clouds 20 1020 64 10000 4.6 110 14:44 14.10.2019
6218 Clouds 22 1020 64 10000 4.6 110 14:25 14.10.2019
6219 Clouds 22 1020 60 10000 3.6 100 13:57 14.10.2019
6220 Clouds 21 1020 60 10000 7.7 90 13:39 14.10.2019
6221 Clouds 23 1020 60 10000 7.7 90 13:20 14.10.2019
6222 Clouds 21 1022 68 10000 3.6 110 12:42 14.10.2019
6223 Clouds 20 1022 68 10000 3.6 110 12:21 14.10.2019
6224 Clouds 21 1022 68 10000 5.1 70 11:55 14.10.2019
6225 Clouds 21 1022 68 10000 5.1 70 11:54 14.10.2019
6226 Clouds 20 1022 68 10000 5.1 70 11:36 14.10.2019
6227 Clouds 19 1023 68 10000 4.1 120 11:18 14.10.2019
6228 Clouds 20 1024 72 10000 3.1 100 10:43 14.10.2019
6229 Clouds 19 1024 72 10000 3.1 100 10:21 14.10.2019
6230 -273 0 0 0 0 0 09:59 14.10.2019
6231 Clouds 19 1024 72 10000 3.6 140 09:38 14.10.2019
6232 Clouds 17 1024 72 10000 3.6 140 09:19 14.10.2019
6233 Clouds 16 1023 88 10000 5.1 120 08:47 14.10.2019
6234 Clouds 16 1023 88 10000 5.1 120 08:23 14.10.2019
6235 Clouds 16 1022 93 10000 4.1 120 07:44 14.10.2019
6236 Clouds 18 1022 93 10000 4.1 120 07:21 14.10.2019
6237 Clouds 16 1022 88 10000 3.1 140 06:55 14.10.2019
6238 Clouds 15 1022 88 10000 2.6 150 06:27 14.10.2019
6239 Clouds 15 1021 93 10000 2.6 0 05:52 14.10.2019
6240 Clouds 14 1021 93 10000 3.6 150 04:51 14.10.2019
6241 Rain 17 1020 100 10000 3.1 140 03:48 14.10.2019
6242 Rain 15 1019 93 9000 1.07 91.452 03:22 14.10.2019
6243 Clouds 14 1021 93 10000 1 10 01:46 14.10.2019
6244 Clouds 14 1021 93 10000 1.5 40 01:18 14.10.2019
6245 Clouds 15 1021 93 10000 2.1 30 00:36 14.10.2019
6246 Clouds 15 1022 93 10000 1.5 20 00:18 14.10.2019
6247 Clouds 15 1021 93 10000 1.51 80.012 23:40 13.10.2019
6248 Clouds 15 1021 93 10000 1.51 80.012 23:19 13.10.2019
6249 Clouds 16 1022 93 10000 0.5 300 22:54 13.10.2019
6250 Clouds 16 1021 88 10000 1.51 80.012 22:36 13.10.2019
6251 Rain 16 1022 93 10000 1.5 120 22:18 13.10.2019
6252 Rain 16 1022 93 10000 1.5 120 22:18 13.10.2019
6253 Rain 16 1022 93 10000 1.5 120 21:55 13.10.2019
6254 Rain 16 1021 88 10000 4.1 90 21:36 13.10.2019
6255 Rain 16 1022 93 10000 3.6 80 21:18 13.10.2019
6256 Rain 16 1022 93 10000 3.6 80 21:18 13.10.2019
6257 Rain 16 1022 93 10000 3.6 80 20:55 13.10.2019
6258 Rain 16 1022 93 10000 3.6 80 20:55 13.10.2019
6259 Clouds 16 1020 88 10000 4.4 84.938 20:36 13.10.2019
6260 Clouds 16 1021 93 10000 2.1 70 20:18 13.10.2019
6261 Clouds 16 1019 88 10000 4.4 84.938 19:40 13.10.2019
6262 Clouds 15 1019 88 10000 4.4 84.938 19:22 13.10.2019
6263 Clouds 16 1019 82 10000 4.1 70 18:59 13.10.2019
6264 Clouds 16 1019 82 10000 4.1 70 18:38 13.10.2019
6265 Clouds 16 1019 82 10000 4.1 70 18:20 13.10.2019
6266 Clouds 17 1019 82 10000 4.1 90 17:59 13.10.2019
6267 Clouds 17 1018 88 10000 3.6 80 17:40 13.10.2019
6268 Clouds 17 1018 88 10000 3.6 80 17:22 13.10.2019
6269 Clouds 17 1019 82 10000 6.2 110 16:43 13.10.2019
6270 Clouds 19 1019 82 10000 5.1 120 16:19 13.10.2019
6271 Clouds 19 1019 82 10000 5.1 120 15:57 13.10.2019
6272 Rain 20 1017 73 10000 8.7 120 15:39 13.10.2019
6273 Rain 20 1017 73 10000 8.7 120 15:20 13.10.2019
6274 Rain 20 1018 73 10000 3.6 170 14:57 13.10.2019
6275 Clouds 20 1018 60 10000 3.6 120 14:39 13.10.2019
6276 Clouds 21 1018 60 10000 3.6 120 14:20 13.10.2019
6277 Clouds 18 1019 73 10000 4.1 130 13:55 13.10.2019
6278 Clouds 23 1019 69 10000 4.6 110 13:37 13.10.2019
6279 Clouds 23 1019 69 10000 4.6 110 13:37 13.10.2019
6280 Clouds 21 1019 69 10000 4.6 110 13:18 13.10.2019
6281 Rain 21 1020 68 10000 5.7 110 12:55 13.10.2019
6282 Rain 20 1020 68 10000 5.7 110 12:36 13.10.2019
6283 Rain 20 1020 68 10000 5.7 110 12:36 13.10.2019
6284 Clouds 20 1020 68 10000 3.6 80 12:18 13.10.2019
6285 Clouds 20 1020 68 10000 3.6 80 11:54 13.10.2019
6286 Rain 19 1021 73 10000 4.1 100 11:36 13.10.2019
6287 Clouds 21 1021 73 10000 2.6 70 11:18 13.10.2019
6288 Clouds 21 1022 64 10000 3.1 100 10:40 13.10.2019
6289 Clouds 19 1022 64 10000 3.1 100 10:22 13.10.2019
6290 Clouds 19 1022 64 10000 3.1 100 10:22 13.10.2019
6291 Clouds 19 1022 64 10000 3.1 100 10:22 13.10.2019
6292 Clouds 19 1022 82 10000 4.1 160 09:40 13.10.2019
6293 Rain 17 1022 82 10000 4.1 160 09:21 13.10.2019
6294 Rain 17 1022 82 10000 4.1 160 09:21 13.10.2019
6295 Rain 17 1022 82 10000 3.6 150 08:57 13.10.2019
6296 Rain 17 1021 93 10000 3.1 150 08:37 13.10.2019
6297 Clouds 16 1022 88 10000 3.1 180 08:18 13.10.2019
6298 Clouds 18 1021 93 10000 5.1 150 07:45 13.10.2019
6299 Clouds 16 1021 93 10000 1.5 60 06:58 13.10.2019
6300 Clouds 17 1020 100 10000 3.31 132.38 06:31 13.10.2019
6301 Clouds 15 1021 93 10000 2.1 140 05:34 13.10.2019
6302 Clouds 15 1021 93 10000 2.1 140 05:34 13.10.2019
6303 Clouds 15 1020 93 10000 2.6 140 04:46 13.10.2019
6304 Rain 15 1019 93 6000 2.1 130 03:40 13.10.2019
6305 Clouds 15 1019 93 10000 3.1 170 02:39 13.10.2019
6306 Rain 14 1020 93 7000 2.6 150 01:53 13.10.2019
6307 Rain 14 1020 93 7000 4.1 160 01:26 13.10.2019
6308 Clouds 15 1021 93 10000 2.6 180 00:46 13.10.2019
6309 Clouds 15 1021 93 10000 2.6 180 00:21 13.10.2019
6310 Rain 15 1021 100 10000 4.1 180 23:55 12.10.2019
6311 Rain 15 1021 100 10000 4.1 180 23:36 12.10.2019
6312 Rain 15 1021 100 10000 4.1 180 23:18 12.10.2019
6313 Clouds 15 1021 88 10000 3.1 50 22:56 12.10.2019
6314 Clouds 16 1021 88 10000 3.1 40 22:37 12.10.2019
6315 Clouds 16 1021 88 10000 3.1 40 22:19 12.10.2019
6316 Clouds 16 1020 93 10000 4.1 60 21:42 12.10.2019
6317 Clouds 16 1020 93 10000 4.1 60 21:24 12.10.2019
6318 Rain 17 1021 82 10000 4.6 80 20:58 12.10.2019
6319 Rain 17 1021 82 10000 4.6 80 20:58 12.10.2019
6320 Clouds 16 1021 82 10000 5.1 70 20:39 12.10.2019
6321 Clouds 17 1021 82 10000 5.1 70 20:21 12.10.2019
6322 Clouds 16 1020 82 10000 4.1 50 19:37 12.10.2019
6323 Clouds 18 1020 82 10000 4.6 60 19:19 12.10.2019
6324 -273 0 0 0 0 0 18:56 12.10.2019
6325 Clouds 18 1018 82 10000 3.1 120 18:37 12.10.2019
6326 Clouds 19 1019 77 10000 5.1 130 18:19 12.10.2019
6327 Rain 17 1018 77 10000 5.1 120 17:42 12.10.2019
6328 Rain 19 1018 77 10000 5.1 120 17:19 12.10.2019
6329 Clouds 20 1018 68 10000 4.1 60 16:54 12.10.2019
6330 Clouds 19 1018 68 10000 6.2 30 16:36 12.10.2019
6331 Clouds 21 1018 64 10000 4.6 50 16:18 12.10.2019
6332 Clouds 21 1018 60 10000 6.2 30 15:43 12.10.2019
6333 Clouds 21 1018 60 10000 6.2 30 15:23 12.10.2019
6334 Clouds 20 1018 53 10000 7.2 110 14:43 12.10.2019
6335 Clouds 21 1018 53 10000 7.2 110 14:22 12.10.2019
6336 Clouds 21 1018 57 10000 6.2 80 13:58 12.10.2019
6337 Clouds 21 1019 57 10000 7.7 80 13:40 12.10.2019
6338 Clouds 20 1019 57 10000 7.7 80 13:21 12.10.2019
6339 Clouds 19 1021 60 10000 6.7 80 12:39 12.10.2019
6340 Clouds 22 1021 60 10000 6.7 80 12:21 12.10.2019
6341 Clouds 22 1021 60 10000 6.7 80 11:58 12.10.2019
6342 Clouds 19 1021 64 10000 6.2 80 11:39 12.10.2019
6343 Clouds 20 1021 64 10000 6.2 80 11:19 12.10.2019
6344 Clouds 21 1022 68 10000 6.7 60 10:43 12.10.2019
6345 Clouds 19 1022 68 10000 6.7 60 10:23 12.10.2019
6346 -273 0 0 0 0 0 09:58 12.10.2019
6347 Clouds 19 1021 77 10000 4.6 70 09:39 12.10.2019
6348 Clouds 16 1022 77 10000 4.1 70 09:21 12.10.2019
6349 Clouds 16 1022 77 10000 4.1 70 08:57 12.10.2019
6350 Clouds 16 1022 77 10000 4.1 70 08:57 12.10.2019
6351 Clouds 16 1022 77 10000 4.1 70 08:57 12.10.2019
6352 Clouds 16 1021 88 10000 4.6 140 08:38 12.10.2019
6353 Clouds 16 1021 88 10000 4.6 140 08:19 12.10.2019
6354 Clouds 15 1020 88 10000 3.6 140 07:34 12.10.2019
6355 Clouds 16 1020 100 10000 3.1 80 06:51 12.10.2019
6356 Clouds 14 1020 100 10000 3.1 50 05:47 12.10.2019
6357 Clouds 14 1020 100 10000 2.6 60 05:23 12.10.2019
6358 Clouds 12 1011 95 0 1.34 117 04:24 12.10.2019
6359 Clouds 12 1010 94 0 1.79 90 03:31 12.10.2019
6360 Drizzle 15 1020 93 10000 4.6 100 01:45 12.10.2019
6361 Drizzle 14 1020 93 10000 4.6 100 01:21 12.10.2019
6362 Clouds 15 1020 93 10000 5.1 80 00:42 12.10.2019
6363 Rain 16 1019 93 10000 3.1 70 23:59 11.10.2019
6364 Rain 15 1020 93 10000 4.6 70 23:40 11.10.2019
6365 Rain 16 1020 93 10000 4.6 70 23:20 11.10.2019
6366 Rain 16 1020 93 10000 4.1 80 22:41 11.10.2019
6367 Rain 16 1020 93 10000 4.1 80 22:21 11.10.2019
6368 Rain 16 1021 93 4000 5.7 100 21:57 11.10.2019
6369 Rain 15 1021 93 6000 5.1 100 21:39 11.10.2019
6370 Rain 15 1021 93 6000 5.1 100 21:20 11.10.2019
6371 Rain 16 1020 93 10000 5.7 110 20:44 11.10.2019
6372 Rain 16 1020 93 10000 5.7 110 20:26 11.10.2019
6373 Clouds 16 1020 88 10000 4.1 70 19:58 11.10.2019
6374 Clouds 16 1019 88 10000 4.1 70 19:39 11.10.2019
6375 Clouds 18 1019 88 10000 4.1 70 19:39 11.10.2019
6376 Clouds 18 1019 88 10000 4.1 70 19:18 11.10.2019
6377 Rain 18 1019 82 10000 4.1 70 18:59 11.10.2019
6378 Rain 18 1017 77 10000 3.1 60 18:38 11.10.2019
6379 Clouds 18 1018 82 10000 4.6 30 18:19 11.10.2019
6380 Clouds 18 1018 82 10000 4.6 30 18:19 11.10.2019
6381 Clouds 18 1018 82 10000 4.6 30 17:58 11.10.2019
6382 Clouds 19 1018 77 10000 4.6 40 17:38 11.10.2019
6383 Clouds 19 1018 77 10000 4.6 40 17:19 11.10.2019
6384 Rain 18 1018 64 10000 7.7 70 16:58 11.10.2019
6385 Clouds 19 1017 53 10000 7.2 80 16:39 11.10.2019
6386 Clouds 20 1017 53 10000 6.2 100 16:19 11.10.2019
6387 Clouds 21 1017 64 10000 3.1 120 15:41 11.10.2019
6388 Clouds 21 1018 60 10000 7.2 110 15:21 11.10.2019
6389 Clouds 22 1018 60 10000 7.2 110 14:58 11.10.2019
6390 Clouds 22 1018 60 10000 7.2 110 14:58 11.10.2019
6391 Rain 21 1018 60 10000 6.2 90 14:39 11.10.2019
6392 Rain 21 1018 68 10000 7.2 100 14:19 11.10.2019
6393 Clouds 20 1019 82 10000 8.7 120 13:45 11.10.2019
6394 Clouds 21 1019 82 10000 8.7 120 13:25 11.10.2019
6395 Rain 21 1019 60 10000 6.7 80 12:57 11.10.2019
6396 Clouds 21 1020 64 10000 5.1 70 12:38 11.10.2019
6397 Clouds 20 1021 68 10000 5.1 60 12:20 11.10.2019
6398 Clouds 20 1021 68 10000 5.1 60 11:58 11.10.2019
6399 Clouds 20 1021 68 10000 8.2 70 11:38 11.10.2019
6400 Clouds 20 1021 68 10000 8.2 70 11:20 11.10.2019
6401 Clouds 20 1022 68 10000 5.7 80 10:55 11.10.2019
6402 Clouds 21 1021 72 10000 4.1 70 10:36 11.10.2019
6403 Clouds 19 1023 72 10000 6.2 70 10:18 11.10.2019
6404 Clouds 20 1023 72 10000 6.7 80 09:41 11.10.2019
6405 Clouds 17 1023 77 10000 4.6 70 09:21 11.10.2019
6406 Clouds 16 1023 77 10000 4.6 70 08:56 11.10.2019
6407 Clouds 16 1023 88 10000 4.6 80 08:38 11.10.2019
6408 Clouds 16 1023 88 10000 4.6 80 08:20 11.10.2019
6409 Clouds 17 1022 93 10000 4.1 80 07:52 11.10.2019
6410 Clouds 17 1021 93 10000 4.1 70 07:33 11.10.2019
6411 Clouds 16 1020 100 10000 5.1 70 06:50 11.10.2019
6412 Clouds 15 1020 100 10000 5.1 70 06:25 11.10.2019
6413 Clouds 14 1021 93 10000 4.1 60 05:47 11.10.2019
6414 Clouds 14 1021 93 10000 2.6 60 05:29 11.10.2019
6415 Rain 13 1011 94 0 1.79 185 04:50 11.10.2019
6416 Rain 13 1010 94 0 0.45 238 03:21 11.10.2019
6417 Rain 13 1011 93 0 1.34 146 01:18 11.10.2019
6418 Rain 13 1010 93 0 1.34 123 01:18 11.10.2019
6419 Clouds 14 1011 93 0 1.79 115 00:31 11.10.2019
6420 Clouds 13 1011 92 0 0.89 123 23:58 10.10.2019
6421 Clouds 14 1011 93 0 1.34 109 23:40 10.10.2019
6422 Clouds 14 1011 93 0 4.3 78.672 23:19 10.10.2019
6423 Clouds 14 1012 92 0 0.89 180 22:55 10.10.2019
6424 Clouds 14 1012 92 0 0.45 97 22:36 10.10.2019
6425 Rain 16 1021 93 10000 4.1 130 22:18 10.10.2019
6426 Rain 16 1021 93 10000 4.1 130 21:42 10.10.2019
6427 Rain 17 1021 93 10000 4.1 130 21:22 10.10.2019
6428 Drizzle 17 1021 82 10000 3.1 40 20:58 10.10.2019
6429 Clouds 18 1019 82 10000 4.1 60 20:39 10.10.2019
6430 Clouds 17 1020 77 10000 3.6 60 20:20 10.10.2019
6431 Clouds 17 1020 77 10000 3.6 60 19:57 10.10.2019
6432 Clouds 17 1020 77 10000 3.6 60 19:57 10.10.2019
6433 Clouds 17 1019 82 10000 5.1 70 19:39 10.10.2019
6434 Clouds 17 1019 72 10000 4.1 80 19:19 10.10.2019
6435 Clouds 17 1019 72 10000 4.6 70 18:42 10.10.2019
6436 Clouds 19 1019 72 10000 4.6 70 18:21 10.10.2019
6437 Clouds 19 1018 68 10000 5.7 70 17:59 10.10.2019
6438 Clouds 19 1018 73 10000 5.1 60 17:40 10.10.2019
6439 Clouds 19 1018 73 10000 5.1 60 17:18 10.10.2019
6440 Clouds 20 1018 60 10000 6.2 60 16:56 10.10.2019
6441 Clouds 20 1018 60 10000 6.2 60 16:56 10.10.2019
6442 Clouds 20 1018 60 10000 6.2 60 16:37 10.10.2019
6443 Clouds 20 1018 60 10000 6.2 60 16:18 10.10.2019
6444 Clouds 21 1017 60 10000 6.2 70 15:40 10.10.2019
6445 Clouds 22 1017 60 10000 6.2 70 15:22 10.10.2019
6446 Clouds 22 1017 60 10000 6.2 70 15:22 10.10.2019
6447 Clouds 20 1018 53 10000 6.7 90 14:57 10.10.2019
6448 Clouds 20 1018 64 10000 7.7 100 14:37 10.10.2019
6449 Clouds 21 1018 56 10000 5.1 80 14:19 10.10.2019
6450 Clouds 21 1018 56 10000 5.1 80 13:57 10.10.2019
6451 Clouds 23 1019 64 10000 6.2 80 13:39 10.10.2019
6452 Clouds 22 1020 60 10000 5.7 90 13:18 10.10.2019
6453 Clouds 20 1021 68 10000 5.1 100 12:42 10.10.2019
6454 Clouds 20 1021 77 10000 6.2 70 12:21 10.10.2019
6455 Clouds 20 1021 77 10000 6.2 70 11:58 10.10.2019
6456 Clouds 20 1021 77 10000 6.2 70 11:40 10.10.2019
6457 Clouds 20 1022 77 10000 3.1 70 11:19 10.10.2019
6458 Clouds 20 1022 83 10000 5.1 60 10:47 10.10.2019
6459 Clouds 20 1022 83 10000 5.1 60 10:28 10.10.2019
6460 Clouds 19 1023 82 10000 2.1 40 09:59 10.10.2019
6461 Clouds 18 1023 88 10000 2.6 20 09:41 10.10.2019
6462 Clouds 17 1023 88 10000 2.6 20 09:23 10.10.2019
6463 Clouds 17 1023 88 10000 3.1 20 08:59 10.10.2019
6464 Clouds 16 1022 93 10000 2.6 340 08:39 10.10.2019
6465 Rain 16 1023 93 10000 2.1 10 08:19 10.10.2019
6466 Rain 16 1023 93 5000 2.1 30 07:47 10.10.2019
6467 Rain 16 1023 93 5000 2.1 30 07:25 10.10.2019
6468 Clouds 15 1022 93 10000 2.6 20 06:55 10.10.2019
6469 Clouds 14 1022 93 10000 2.6 30 06:36 10.10.2019
6470 Clouds 14 1021 100 10000 2.6 20 05:39 10.10.2019
6471 Rain 15 1021 100 10000 2.6 20 05:18 10.10.2019
6472 Rain 14 1019 87 10000 1.77 91.976 04:34 10.10.2019
6473 Rain 12 1009 90 0 3.58 82 02:29 10.10.2019
6474 Clouds 14 1021 100 10000 4.1 70 01:37 10.10.2019
6475 Clouds 14 1021 100 10000 4.1 70 01:18 10.10.2019
6476 Rain 16 1021 100 10000 6.2 80 00:29 10.10.2019
6477 Clouds 17 1021 88 10000 3.6 130 23:42 09.10.2019
6478 Clouds 17 1021 88 10000 3.6 130 23:24 09.10.2019
6479 Clouds 17 1022 88 10000 1.5 200 22:59 09.10.2019
6480 Clouds 16 1022 77 10000 3.1 160 22:41 09.10.2019
6481 Clouds 17 1022 77 10000 3.1 160 22:22 09.10.2019
6482 Thunderstorm 17 1022 77 10000 4.6 150 22:22 09.10.2019
6483 Thunderstorm 17 1022 77 10000 4.6 150 21:56 09.10.2019
6484 Clouds 18 1020 82 10000 7.2 140 21:38 09.10.2019
6485 Clouds 18 1020 82 10000 7.2 140 21:38 09.10.2019
6486 Clouds 18 1021 77 10000 5.7 150 21:18 09.10.2019
6487 Clouds 18 1021 77 10000 5.7 150 20:54 09.10.2019
6488 Clouds 19 1019 68 10000 6.2 150 20:36 09.10.2019
6489 Clouds 19 1019 68 10000 6.2 150 20:18 09.10.2019
6490 Clouds 18 1019 56 10000 5.7 110 19:43 09.10.2019
6491 Clouds 20 1019 56 10000 5.7 110 19:22 09.10.2019
6492 Clouds 21 1017 53 10000 8.7 90 18:39 09.10.2019
6493 Clouds 21 1017 53 10000 8.7 90 18:21 09.10.2019
6494 Clouds 22 1018 50 10000 6.7 90 17:58 09.10.2019
6495 Clouds 22 1016 47 10000 8.2 80 17:40 09.10.2019
6496 Clouds 22 1016 47 10000 8.2 80 17:22 09.10.2019
6497 Clouds 23 1017 44 10000 6.7 80 16:57 09.10.2019
6498 Clouds 24 1015 39 10000 4.1 80 16:39 09.10.2019
6499 Clouds 24 1015 39 10000 4.1 80 16:39 09.10.2019
6500 Clouds 24 1015 39 10000 4.1 80 16:20 09.10.2019
6501 Clouds 24 1016 39 10000 4.6 60 15:56 09.10.2019
6502 Clouds 25 1016 39 10000 3.6 30 15:37 09.10.2019
6503 Clouds 25 1016 39 10000 5.1 120 15:19 09.10.2019
6504 Clouds 25 1016 39 10000 5.1 120 14:46 09.10.2019
6505 Clouds 24 1016 39 10000 4.1 40 14:20 09.10.2019
6506 Clouds 24 1018 41 10000 4.1 70 14:00 09.10.2019
6507 Clouds 24 1018 41 10000 4.1 70 13:38 09.10.2019
6508 Clouds 23 1018 41 10000 4.1 70 13:38 09.10.2019
6509 Clouds 25 1018 41 10000 4.1 70 13:19 09.10.2019
6510 Clouds 26 1019 44 10000 3.6 100 12:55 09.10.2019
6511 Clouds 25 1020 50 10000 3.1 90 12:37 09.10.2019
6512 Clouds 23 1020 50 10000 3.1 90 12:18 09.10.2019
6513 Clouds 21 1021 53 10000 2.1 70 11:40 09.10.2019
6514 Clouds 22 1021 53 10000 2.1 70 11:21 09.10.2019
6515 Clouds 21 1022 53 10000 3.1 60 10:59 09.10.2019
6516 Clouds 23 1021 60 10000 4.1 100 10:40 09.10.2019
6517 Clouds 23 1021 60 10000 4.1 100 10:19 09.10.2019
6518 Clouds 22 1022 60 10000 2.1 0 09:56 09.10.2019
6519 Clouds 20 1023 68 10000 2.1 140 09:38 09.10.2019
6520 Clouds 19 1023 68 10000 2.1 140 09:18 09.10.2019
6521 Clouds 17 1023 64 10000 2.1 110 08:39 09.10.2019
6522 Clouds 16 1022 77 10000 2.1 160 08:20 09.10.2019
6523 Clouds 19 1022 82 10000 3.1 180 07:47 09.10.2019
6524 Clouds 18 1022 82 10000 3.6 170 07:25 09.10.2019
6525 Clouds 18 1022 82 10000 3.6 170 06:58 09.10.2019
6526 Clouds 17 1021 93 10000 3.1 180 06:40 09.10.2019
6527 Clouds 14 1021 82 10000 3.1 190 05:53 09.10.2019
6528 Clouds 14 1021 88 10000 2.6 220 04:56 09.10.2019
6529 Clouds 15 1020 88 10000 2.1 170 03:48 09.10.2019
6530 Clouds 15 1019 88 10000 4.6 140 02:34 09.10.2019
6531 Clouds 15 1019 88 10000 2.6 110 01:39 09.10.2019
6532 Clouds 15 1019 88 10000 2.6 110 01:39 09.10.2019
6533 Clouds 16 1020 88 10000 3.6 90 01:18 09.10.2019
6534 Clouds 15 1020 88 10000 3.6 90 00:55 09.10.2019
6535 Clouds 16 1021 77 10000 4.6 80 00:36 09.10.2019
6536 Clouds 17 1021 77 10000 4.6 80 00:18 09.10.2019
6537 Clouds 17 1021 68 10000 4.6 90 23:38 08.10.2019
6538 Clouds 18 1021 68 10000 4.6 90 23:18 08.10.2019
6539 Clouds 18 1021 68 10000 4.1 90 22:55 08.10.2019
6540 Clouds 17 1021 68 10000 5.7 90 22:36 08.10.2019
6541 Clouds 17 1021 68 10000 5.7 90 22:18 08.10.2019
6542 Clouds 17 1021 64 10000 5.7 90 21:55 08.10.2019
6543 Clouds 17 1021 64 10000 5.7 90 21:55 08.10.2019
6544 Clouds 19 1021 56 10000 5.7 90 21:36 08.10.2019
6545 Clouds 19 1021 53 10000 5.7 90 21:18 08.10.2019
6546 Clouds 19 1021 53 10000 5.7 90 20:55 08.10.2019
6547 Clouds 19 1020 53 10000 5.1 90 20:37 08.10.2019
6548 Clouds 20 1020 49 10000 5.1 90 20:18 08.10.2019
6549 Clouds 20 1020 49 10000 5.1 90 19:54 08.10.2019
6550 Clouds 20 1018 52 10000 9.3 90 19:36 08.10.2019
6551 Clouds 20 1018 52 10000 9.3 90 19:36 08.10.2019
6552 Clouds 20 1018 52 10000 9.3 90 19:18 08.10.2019
6553 Clouds 21 1018 46 10000 6.7 90 18:41 08.10.2019
6554 Clouds 21 1018 41 10000 7.2 90 18:23 08.10.2019
6555 Clouds 21 1018 41 10000 7.2 90 17:57 08.10.2019
6556 Clouds 21 1018 41 10000 7.2 90 17:57 08.10.2019
6557 Clouds 21 1018 41 10000 7.2 90 17:57 08.10.2019
6558 Clouds 20 1018 38 10000 6.2 80 17:39 08.10.2019
6559 Clouds 23 1017 38 10000 6.2 90 17:19 08.10.2019
6560 Clouds 23 1017 38 10000 6.2 90 16:56 08.10.2019
6561 Clouds 24 1017 36 10000 6.7 80 16:37 08.10.2019
6562 Clouds 24 1017 32 10000 6.2 90 16:18 08.10.2019
6563 Clouds 24 1017 31 10000 5.1 110 15:38 08.10.2019
6564 Clouds 27 1017 30 10000 5.7 100 15:20 08.10.2019
6565 Clouds 24 1017 30 10000 5.7 100 14:56 08.10.2019
6566 Clouds 27 1017 28 10000 7.7 110 14:37 08.10.2019
6567 Clouds 24 1017 28 10000 7.7 110 14:19 08.10.2019
6568 Clouds 26 1018 34 10000 4.6 0 13:55 08.10.2019
6569 Clouds 25 1019 30 10000 5.7 70 13:37 08.10.2019
6570 Clouds 25 1019 30 10000 5.7 70 13:18 08.10.2019
6571 Clouds 25 1019 30 10000 5.7 70 13:18 08.10.2019
6572 Clouds 25 1019 41 10000 5.1 100 12:41 08.10.2019
6573 Clouds 23 1019 41 10000 5.1 100 12:20 08.10.2019
6574 Clouds 23 1019 41 10000 5.1 100 12:20 08.10.2019
6575 Clouds 22 1020 40 10000 6.7 70 11:58 08.10.2019
6576 Clouds 22 1020 40 10000 6.7 70 11:39 08.10.2019
6577 Clouds 22 1020 40 10000 6.7 70 11:21 08.10.2019
6578 Clouds 22 1022 46 10000 2.1 0 10:42 08.10.2019
6579 Clouds 21 1022 46 10000 2.1 0 10:23 08.10.2019
6580 Clouds 19 1013 55 0 2.24 182 09:59 08.10.2019
6581 Clouds 19 1013 56 0 1.34 154 09:40 08.10.2019
6582 Clouds 19 1023 59 10000 2.9 93.821 09:22 08.10.2019
6583 Clouds 18 1023 59 10000 2.9 93.821 08:45 08.10.2019
6584 Clouds 18 1023 59 10000 3.34 98.85 08:25 08.10.2019
6585 Clouds 17 1023 72 10000 1 0 07:57 08.10.2019
6586 Clouds 16 1021 77 10000 3.34 98.85 07:38 08.10.2019
6587 Clear 15 1022 87 10000 1 0 07:19 08.10.2019
6588 Clear 14 1021 93 10000 1 0 06:45 08.10.2019
6589 Clear 13 1021 93 10000 1 0 06:21 08.10.2019
6590 Clear 13 1021 87 10000 1 30 05:43 08.10.2019
6591 Clear 12 1021 87 10000 1 30 05:43 08.10.2019
6592 Clear 13 1020 87 10000 2.1 10 05:19 08.10.2019
6593 Clear 13 1020 82 10000 1 360 03:31 08.10.2019
6594 Clear 13 1020 82 10000 1.5 20 02:42 08.10.2019
6595 Clear 13 1020 82 10000 2.1 20 01:58 08.10.2019
6596 Clear 13 1020 82 10000 2.1 20 01:40 08.10.2019
6597 Clear 14 1021 77 10000 3.1 20 00:56 08.10.2019
6598 Clear 14 1021 77 10000 3.1 20 00:25 08.10.2019
6599 Clear 14 1021 77 10000 2.6 10 23:56 07.10.2019
6600 Clear 14 1021 77 10000 2.6 10 23:37 07.10.2019
6601 Clear 15 1021 77 10000 3.1 10 23:19 07.10.2019
6602 Clear 15 1021 77 10000 3.6 30 22:54 07.10.2019
6603 Clear 15 1021 77 10000 3.6 30 22:36 07.10.2019
6604 Clear 15 1021 72 10000 3.1 60 22:18 07.10.2019
6605 Clear 15 1021 72 10000 3.1 60 21:54 07.10.2019
6606 Clear 15 1021 72 10000 3.1 60 21:36 07.10.2019
6607 Clear 16 1021 63 10000 3.1 60 21:18 07.10.2019
6608 Clear 15 1021 72 10000 3.1 60 21:18 07.10.2019
6609 Clear 15 1021 63 10000 3.1 60 20:54 07.10.2019
6610 Clear 18 1021 59 10000 3.6 70 20:36 07.10.2019
6611 Clear 18 1021 59 10000 3.6 70 20:18 07.10.2019
6612 Clouds 18 1019 45 10000 6.56 84.902 19:41 07.10.2019
6613 Clouds 18 1019 45 10000 6.56 84.902 19:21 07.10.2019
6614 Clouds 19 1019 46 10000 5.1 100 18:59 07.10.2019
6615 Clouds 19 1019 46 10000 5.1 100 18:59 07.10.2019
6616 Clouds 18 1019 38 10000 4.6 90 18:40 07.10.2019
6617 Clouds 20 1019 38 10000 4.6 90 18:19 07.10.2019
6618 Clouds 20 1019 38 10000 4.1 120 17:56 07.10.2019
6619 Clouds 20 1018 38 10000 5.1 120 17:38 07.10.2019
6620 Clouds 21 1018 36 10000 4.6 120 17:18 07.10.2019
6621 Clouds 22 1018 36 10000 4.6 110 16:44 07.10.2019
6622 Clouds 22 1018 36 10000 4.6 110 16:25 07.10.2019
6623 Clouds 22 1018 31 10000 4.1 110 15:57 07.10.2019
6624 Clouds 21 1018 31 10000 4.1 110 15:38 07.10.2019
6625 Clouds 23 1018 36 10000 4.1 120 15:20 07.10.2019
6626 Clouds 23 1018 38 10000 6.42 116.154 14:41 07.10.2019
6627 Clouds 23 1018 38 10000 6.42 116.154 14:22 07.10.2019
6628 Clouds 24 1019 40 10000 6.42 116.154 13:45 07.10.2019
6629 -273 0 0 0 0 0 13:21 07.10.2019
6630 Clouds 23 1020 43 10000 2.1 0 12:57 07.10.2019
6631 Clouds 23 1020 43 10000 2.1 0 12:57 07.10.2019
6632 Clouds 24 1020 40 10000 2.6 100 12:39 07.10.2019
6633 Clouds 22 1020 40 10000 2.6 100 12:20 07.10.2019
6634 Clouds 21 1021 49 10000 2.6 0 11:59 07.10.2019
6635 Clouds 21 1022 53 10000 1.5 0 11:39 07.10.2019
6636 Clouds 21 1022 53 10000 2.1 0 11:20 07.10.2019
6637 Clouds 21 1023 60 10000 2.6 100 10:43 07.10.2019
6638 Clouds 20 1023 60 10000 2.6 100 10:23 07.10.2019
6639 Clouds 20 1023 60 10000 2.6 90 09:58 07.10.2019
6640 Clouds 20 1023 68 10000 4.78 121.054 09:38 07.10.2019
6641 Clouds 19 1023 68 10000 2.51 122.741 09:20 07.10.2019
6642 Clouds 17 1023 77 10000 1.5 0 08:43 07.10.2019
6643 Clouds 16 1023 82 10000 2.6 40 08:20 07.10.2019
6644 Clouds 16 1023 82 10000 2.6 40 07:55 07.10.2019
6645 Clouds 15 1022 87 10000 3.1 70 07:28 07.10.2019
6646 Clouds 16 1022 87 10000 2.6 40 06:58 07.10.2019
6647 Clouds 15 1022 93 10000 3.1 40 06:39 07.10.2019
6648 Clouds 14 1022 93 10000 3.1 40 06:20 07.10.2019
6649 Clouds 14 1021 93 10000 2.1 30 05:27 07.10.2019
6650 Clouds 13 1021 93 10000 2.6 30 04:54 07.10.2019
6651 Clouds 13 1020 93 10000 2.1 40 03:48 07.10.2019
6652 Clouds 13 1020 93 10000 2.1 30 03:30 07.10.2019
6653 Clouds 13 1020 93 10000 2.1 30 03:30 07.10.2019
6654 Clouds 13 1020 93 10000 1.5 70 02:39 07.10.2019
6655 Clouds 13 1020 93 10000 1.5 70 02:19 07.10.2019
6656 Clouds 14 1020 93 10000 2.6 90 01:24 07.10.2019
6657 Clouds 14 1021 100 10000 2.6 90 00:53 07.10.2019
6658 Clouds 15 1021 93 10000 3.1 110 00:26 07.10.2019
6659 Clouds 15 1021 93 10000 3.1 90 23:59 06.10.2019
6660 Clouds 15 1021 88 10000 2.35 89.512 23:40 06.10.2019
6661 Clouds 15 1021 88 10000 2.35 89.512 23:20 06.10.2019
6662 Clouds 15 1022 93 10000 2.1 40 22:57 06.10.2019
6663 Clouds 15 1021 88 10000 2.35 89.512 22:39 06.10.2019
6664 Clouds 15 1021 88 10000 2.35 89.512 22:20 06.10.2019
6665 Clouds 15 1021 88 10000 2.35 89.512 22:20 06.10.2019
6666 Clouds 14 1022 93 10000 1.5 360 21:55 06.10.2019
6667 Clouds 15 1021 88 10000 0.5 0 21:37 06.10.2019
6668 Clouds 15 1021 88 10000 0.5 0 21:18 06.10.2019
6669 Clouds 15 1021 88 10000 0.5 0 21:18 06.10.2019
6670 Clouds 15 1021 88 10000 1.5 270 20:55 06.10.2019
6671 Clouds 15 1021 88 10000 1 0 20:36 06.10.2019
6672 Rain 15 1021 88 10000 1 0 20:18 06.10.2019
6673 Rain 15 1021 93 8000 2.1 160 19:55 06.10.2019
6674 Rain 16 1020 88 10000 6.2 90 19:36 06.10.2019
6675 Rain 16 1020 88 10000 6.2 90 19:36 06.10.2019
6676 Rain 16 1020 88 10000 6.2 90 19:18 06.10.2019
6677 Rain 16 1021 88 10000 4.1 110 18:55 06.10.2019
6678 Rain 16 1019 93 10000 3.1 90 18: